<?xml version='1.0' encoding='UTF-8'?><gpx version="1.1" creator="JPX - https://github.com/jenetics/jpx" xmlns="http://www.topografix.com/GPX/1/1"><trk><trkseg><trkpt lat="53.375997344920414" lon="14.675566490300318"><ele>13.0</ele><time>2026-04-17T16:12:47.991Z</time></trkpt><trkpt lat="53.375951869022245" lon="14.67568299039969"><ele>13.0</ele><time>2026-04-17T16:12:48.991Z</time></trkpt><trkpt lat="53.37590212298239" lon="14.675807891567993"><ele>13.0</ele><time>2026-04-17T16:12:49.991Z</time></trkpt><trkpt lat="53.37584807409215" lon="14.675929010220292"><ele>13.0</ele><time>2026-04-17T16:12:50.991Z</time></trkpt><trkpt lat="53.375781409940814" lon="14.676073203678316"><ele>13.0</ele><time>2026-04-17T16:12:51.991Z</time></trkpt><trkpt lat="53.37570484973366" lon="14.676247402390961"><ele>13.0</ele><time>2026-04-17T16:12:52.991Z</time></trkpt><trkpt lat="53.3756212565609" lon="14.676423985353948"><ele>13.0</ele><time>2026-04-17T16:12:53.991Z</time></trkpt><trkpt lat="53.37552724306996" lon="14.676612496453242"><ele>13.0</ele><time>2026-04-17T16:12:54.991Z</time></trkpt><trkpt lat="53.375414382475924" lon="14.676840500030384"><ele>13.0</ele><time>2026-04-17T16:12:55.991Z</time></trkpt><trkpt lat="53.37528175521325" lon="14.677094934555907"><ele>13.0</ele><time>2026-04-17T16:12:56.991Z</time></trkpt><trkpt lat="53.37515170101899" lon="14.677353248043671"><ele>13.0</ele><time>2026-04-17T16:12:57.991Z</time></trkpt><trkpt lat="53.37503122183432" lon="14.67759681470919"><ele>14.333333333333332</ele><time>2026-04-17T16:12:58.991Z</time></trkpt><trkpt lat="53.374914004423516" lon="14.677812997504226"><ele>15.666666666666668</ele><time>2026-04-17T16:12:59.991Z</time></trkpt><trkpt lat="53.374801740644536" lon="14.677998792665118"><ele>17.0</ele><time>2026-04-17T16:13:00.991Z</time></trkpt><trkpt lat="53.3746929313146" lon="14.678211827754982"><ele>16.0</ele><time>2026-04-17T16:13:01.991Z</time></trkpt><trkpt lat="53.37459476564494" lon="14.678437734233563"><ele>15.0</ele><time>2026-04-17T16:13:02.991Z</time></trkpt><trkpt lat="53.37450274004038" lon="14.678680850824644"><ele>14.0</ele><time>2026-04-17T16:13:03.991Z</time></trkpt><trkpt lat="53.374399662082645" lon="14.67893385679014"><ele>14.0</ele><time>2026-04-17T16:13:04.991Z</time></trkpt><trkpt lat="53.374295952366744" lon="14.67919295053246"><ele>14.0</ele><time>2026-04-17T16:13:05.991Z</time></trkpt><trkpt lat="53.37418475186618" lon="14.679460124539121"><ele>14.0</ele><time>2026-04-17T16:13:06.992Z</time></trkpt><trkpt lat="53.37407881430226" lon="14.679735043090334"><ele>14.0</ele><time>2026-04-17T16:13:07.992Z</time></trkpt><trkpt lat="53.37396667769807" lon="14.680000483622957"><ele>14.0</ele><time>2026-04-17T16:13:08.992Z</time></trkpt><trkpt lat="53.37385018975346" lon="14.680262584466968"><ele>14.0</ele><time>2026-04-17T16:13:09.992Z</time></trkpt><trkpt lat="53.37374488913753" lon="14.680525831149383"><ele>14.0</ele><time>2026-04-17T16:13:10.992Z</time></trkpt><trkpt lat="53.37365082940648" lon="14.680753107481012"><ele>14.0</ele><time>2026-04-17T16:13:11.992Z</time></trkpt><trkpt lat="53.37355541411171" lon="14.680984191630799"><ele>14.0</ele><time>2026-04-17T16:13:12.992Z</time></trkpt><trkpt lat="53.37346550621272" lon="14.681207080244983"><ele>13.75</ele><time>2026-04-17T16:13:13.992Z</time></trkpt><trkpt lat="53.37337724653952" lon="14.68139854626275"><ele>13.5</ele><time>2026-04-17T16:13:14.992Z</time></trkpt><trkpt lat="53.373304333826276" lon="14.681585372672956"><ele>13.25</ele><time>2026-04-17T16:13:15.992Z</time></trkpt><trkpt lat="53.37323266844812" lon="14.681766057868654"><ele>13.0</ele><time>2026-04-17T16:13:16.992Z</time></trkpt><trkpt lat="53.37316362424435" lon="14.681948016585574"><ele>12.499999999999998</ele><time>2026-04-17T16:13:17.992Z</time></trkpt><trkpt lat="53.37310972971747" lon="14.682079939937005"><ele>12.0</ele><time>2026-04-17T16:13:18.992Z</time></trkpt><trkpt lat="53.373061274568755" lon="14.682179385221962"><ele>11.5</ele><time>2026-04-17T16:13:19.992Z</time></trkpt><trkpt lat="53.372982822591496" lon="14.682303849268022"><ele>11.0</ele><time>2026-04-17T16:13:21.992Z</time></trkpt><trkpt lat="53.372928054359555" lon="14.682376878695502"><ele>10.5</ele><time>2026-04-17T16:13:24.992Z</time></trkpt><trkpt lat="53.37287907453352" lon="14.682511354261361"><ele>10.0</ele><time>2026-04-17T16:13:26.992Z</time></trkpt><trkpt lat="53.37293599141588" lon="14.68271716949505"><ele>9.5</ele><time>2026-04-17T16:13:27.992Z</time></trkpt><trkpt lat="53.37294291783811" lon="14.682901053782187"><ele>9.0</ele><time>2026-04-17T16:13:28.992Z</time></trkpt><trkpt lat="53.37296191349002" lon="14.683101053354035"><ele>8.5</ele><time>2026-04-17T16:13:29.992Z</time></trkpt><trkpt lat="53.372979790736224" lon="14.683319029115326"><ele>8.0</ele><time>2026-04-17T16:13:30.992Z</time></trkpt><trkpt lat="53.373009645358465" lon="14.68356384502327"><ele>9.0</ele><time>2026-04-17T16:13:31.992Z</time></trkpt><trkpt lat="53.37304028575482" lon="14.683838657117786"><ele>10.0</ele><time>2026-04-17T16:13:32.992Z</time></trkpt><trkpt lat="53.37306590614743" lon="14.684109128635559"><ele>11.0</ele><time>2026-04-17T16:13:33.992Z</time></trkpt><trkpt lat="53.373112795461765" lon="14.684365332867987"><ele>11.0</ele><time>2026-04-17T16:13:34.992Z</time></trkpt><trkpt lat="53.37316793979221" lon="14.684606836505044"><ele>11.0</ele><time>2026-04-17T16:13:35.992Z</time></trkpt><trkpt lat="53.37322422810436" lon="14.684845901444223"><ele>11.0</ele><time>2026-04-17T16:13:36.992Z</time></trkpt><trkpt lat="53.37328188023213" lon="14.685071220480967"><ele>11.25</ele><time>2026-04-17T16:13:37.992Z</time></trkpt><trkpt lat="53.37333342095603" lon="14.685280209800483"><ele>11.5</ele><time>2026-04-17T16:13:38.992Z</time></trkpt><trkpt lat="53.37338267460673" lon="14.6854777191831"><ele>11.75</ele><time>2026-04-17T16:13:39.992Z</time></trkpt><trkpt lat="53.37343510662199" lon="14.685674320380631"><ele>12.0</ele><time>2026-04-17T16:13:40.992Z</time></trkpt><trkpt lat="53.37348490746424" lon="14.685865978153023"><ele>12.0</ele><time>2026-04-17T16:13:41.992Z</time></trkpt><trkpt lat="53.37353191397347" lon="14.68605764995399"><ele>12.0</ele><time>2026-04-17T16:13:42.992Z</time></trkpt><trkpt lat="53.373583873559475" lon="14.686243145806255"><ele>12.0</ele><time>2026-04-17T16:13:43.992Z</time></trkpt><trkpt lat="53.37363566102821" lon="14.686419911416355"><ele>12.0</ele><time>2026-04-17T16:13:44.992Z</time></trkpt><trkpt lat="53.37368270507195" lon="14.686582686381948"><ele>12.2</ele><time>2026-04-17T16:13:45.992Z</time></trkpt><trkpt lat="53.37373092501995" lon="14.686733734642035"><ele>12.399999999999999</ele><time>2026-04-17T16:13:46.992Z</time></trkpt><trkpt lat="53.373794357706174" lon="14.686865583374685"><ele>12.600000000000001</ele><time>2026-04-17T16:13:47.992Z</time></trkpt><trkpt lat="53.37384031622685" lon="14.686995851656608"><ele>12.8</ele><time>2026-04-17T16:13:48.992Z</time></trkpt><trkpt lat="53.37387493289289" lon="14.687113867140658"><ele>13.0</ele><time>2026-04-17T16:13:49.992Z</time></trkpt><trkpt lat="53.373831135970754" lon="14.68733883394009"><ele>12.600000000000001</ele><time>2026-04-17T16:13:51.992Z</time></trkpt><trkpt lat="53.373771894904365" lon="14.687436973376643"><ele>12.200000000000001</ele><time>2026-04-17T16:13:52.992Z</time></trkpt><trkpt lat="53.373703440217774" lon="14.687549721828145"><ele>11.8</ele><time>2026-04-17T16:13:53.992Z</time></trkpt><trkpt lat="53.37363241227728" lon="14.687661272305016"><ele>11.4</ele><time>2026-04-17T16:13:54.992Z</time></trkpt><trkpt lat="53.37356108385423" lon="14.687773870341667"><ele>11.0</ele><time>2026-04-17T16:13:55.992Z</time></trkpt><trkpt lat="53.37349162133154" lon="14.687886435917656"><ele>10.833333333333332</ele><time>2026-04-17T16:13:56.992Z</time></trkpt><trkpt lat="53.37342684294958" lon="14.687991973694208"><ele>10.666666666666666</ele><time>2026-04-17T16:13:57.992Z</time></trkpt><trkpt lat="53.37336338079311" lon="14.688094400254064"><ele>10.5</ele><time>2026-04-17T16:13:58.992Z</time></trkpt><trkpt lat="53.37330423552536" lon="14.688189441687529"><ele>10.333333333333334</ele><time>2026-04-17T16:13:59.992Z</time></trkpt><trkpt lat="53.37324633698618" lon="14.688282479746539"><ele>10.166666666666668</ele><time>2026-04-17T16:14:00.992Z</time></trkpt><trkpt lat="53.37319184922543" lon="14.688370036997174"><ele>10.0</ele><time>2026-04-17T16:14:01.992Z</time></trkpt><trkpt lat="53.37313566594454" lon="14.688460318683685"><ele>10.0</ele><time>2026-04-17T16:14:02.992Z</time></trkpt><trkpt lat="53.373088067806854" lon="14.688536804833966"><ele>10.0</ele><time>2026-04-17T16:14:03.992Z</time></trkpt><trkpt lat="53.37303492017695" lon="14.688621214697765"><ele>10.0</ele><time>2026-04-17T16:14:04.992Z</time></trkpt><trkpt lat="53.37298853860386" lon="14.688726102681374"><ele>10.0</ele><time>2026-04-17T16:14:05.992Z</time></trkpt><trkpt lat="53.37292338606439" lon="14.688799169480808"><ele>10.0</ele><time>2026-04-17T16:14:06.992Z</time></trkpt><trkpt lat="53.37287326928999" lon="14.688910189819573"><ele>10.0</ele><time>2026-04-17T16:14:07.992Z</time></trkpt><trkpt lat="53.372807110826116" lon="14.68900202884862"><ele>10.166666666666668</ele><time>2026-04-17T16:14:08.992Z</time></trkpt><trkpt lat="53.372740744099" lon="14.689093842954614"><ele>10.333333333333334</ele><time>2026-04-17T16:14:09.992Z</time></trkpt><trkpt lat="53.372675306030615" lon="14.68918535997123"><ele>10.5</ele><time>2026-04-17T16:14:10.992Z</time></trkpt><trkpt lat="53.37260944245597" lon="14.6892703117689"><ele>10.666666666666666</ele><time>2026-04-17T16:14:11.992Z</time></trkpt><trkpt lat="53.3725454223795" lon="14.689375191673054"><ele>10.833333333333332</ele><time>2026-04-17T16:14:12.992Z</time></trkpt><trkpt lat="53.372484550486185" lon="14.689467761742547"><ele>11.0</ele><time>2026-04-17T16:14:13.992Z</time></trkpt><trkpt lat="53.37242584109902" lon="14.689569627474311"><ele>11.0</ele><time>2026-04-17T16:14:14.99Z</time></trkpt><trkpt lat="53.37236313606584" lon="14.689667774029612"><ele>11.0</ele><time>2026-04-17T16:14:15.991Z</time></trkpt><trkpt lat="53.37229950612661" lon="14.689760703936672"><ele>11.0</ele><time>2026-04-17T16:14:16.991Z</time></trkpt><trkpt lat="53.37224264095789" lon="14.689853454012566"><ele>11.0</ele><time>2026-04-17T16:14:17.99Z</time></trkpt><trkpt lat="53.372189263606195" lon="14.689947174979274"><ele>11.0</ele><time>2026-04-17T16:14:18.991Z</time></trkpt><trkpt lat="53.37213159804284" lon="14.690050907031262"><ele>11.0</ele><time>2026-04-17T16:14:19.991Z</time></trkpt><trkpt lat="53.37208026453728" lon="14.6901500405052"><ele>11.142857142857142</ele><time>2026-04-17T16:14:20.99Z</time></trkpt><trkpt lat="53.37202688131625" lon="14.690247153061904"><ele>11.285714285714285</ele><time>2026-04-17T16:14:21.991Z</time></trkpt><trkpt lat="53.37198043040547" lon="14.690333070894662"><ele>11.428571428571427</ele><time>2026-04-17T16:14:22.991Z</time></trkpt><trkpt lat="53.37193528142389" lon="14.690418218772063"><ele>11.571428571428571</ele><time>2026-04-17T16:14:23.99Z</time></trkpt><trkpt lat="53.37189045222562" lon="14.690505807043484"><ele>11.714285714285714</ele><time>2026-04-17T16:14:24.989Z</time></trkpt><trkpt lat="53.37183329625672" lon="14.690576210670038"><ele>11.857142857142856</ele><time>2026-04-17T16:14:25.989Z</time></trkpt><trkpt lat="53.37178941895581" lon="14.69065498157724"><ele>12.0</ele><time>2026-04-17T16:14:26.991Z</time></trkpt><trkpt lat="53.37171740266295" lon="14.690818690149857"><ele>12.0</ele><time>2026-04-17T16:14:28.99Z</time></trkpt><trkpt lat="53.37164287184331" lon="14.69094241802657"><ele>12.0</ele><time>2026-04-17T16:14:30.99Z</time></trkpt><trkpt lat="53.37153605233055" lon="14.690927449630513"><ele>12.0</ele><time>2026-04-17T16:14:32.99Z</time></trkpt><trkpt lat="53.3714756184177" lon="14.690851874973655"><ele>12.0</ele><time>2026-04-17T16:14:33.99Z</time></trkpt><trkpt lat="53.37140469071623" lon="14.690763191803024"><ele>12.0</ele><time>2026-04-17T16:14:34.99Z</time></trkpt><trkpt lat="53.37132566052236" lon="14.690676746586657"><ele>12.0</ele><time>2026-04-17T16:14:35.99Z</time></trkpt><trkpt lat="53.37125100556968" lon="14.690584352019975"><ele>12.0</ele><time>2026-04-17T16:14:36.99Z</time></trkpt><trkpt lat="53.371187875770225" lon="14.690509591505345"><ele>12.0</ele><time>2026-04-17T16:14:37.99Z</time></trkpt><trkpt lat="53.37112591116268" lon="14.690440867138994"><ele>12.0</ele><time>2026-04-17T16:14:38.99Z</time></trkpt><trkpt lat="53.371065789798344" lon="14.69038950046014"><ele>12.0</ele><time>2026-04-17T16:14:39.99Z</time></trkpt><trkpt lat="53.37098933016751" lon="14.69031762724636"><ele>12.0</ele><time>2026-04-17T16:14:41.99Z</time></trkpt><trkpt lat="53.37091327690809" lon="14.690472309468188"><ele>12.0</ele><time>2026-04-17T16:14:42.99Z</time></trkpt><trkpt lat="53.37086216763235" lon="14.690561481794061"><ele>12.0</ele><time>2026-04-17T16:14:43.99Z</time></trkpt><trkpt lat="53.370810390404415" lon="14.690645540816368"><ele>12.0</ele><time>2026-04-17T16:14:44.99Z</time></trkpt><trkpt lat="53.37074801622668" lon="14.69073058701403"><ele>12.0</ele><time>2026-04-17T16:14:45.99Z</time></trkpt><trkpt lat="53.37067956921684" lon="14.690824819403863"><ele>12.0</ele><time>2026-04-17T16:14:46.99Z</time></trkpt><trkpt lat="53.37060439618766" lon="14.690901341606633"><ele>12.0</ele><time>2026-04-17T16:14:47.99Z</time></trkpt><trkpt lat="53.370534928223975" lon="14.690999567366626"><ele>12.0</ele><time>2026-04-17T16:14:48.99Z</time></trkpt><trkpt lat="53.37045586305043" lon="14.691103478712883"><ele>12.0</ele><time>2026-04-17T16:14:49.99Z</time></trkpt><trkpt lat="53.370381525575645" lon="14.691207876257353"><ele>12.0</ele><time>2026-04-17T16:14:50.99Z</time></trkpt><trkpt lat="53.37030691287758" lon="14.691303424269625"><ele>12.0</ele><time>2026-04-17T16:14:51.99Z</time></trkpt><trkpt lat="53.37022783981141" lon="14.691400407217685"><ele>12.0</ele><time>2026-04-17T16:14:52.99Z</time></trkpt><trkpt lat="53.37015189283882" lon="14.691506147291944"><ele>12.0</ele><time>2026-04-17T16:14:53.99Z</time></trkpt><trkpt lat="53.3700739613168" lon="14.691611092522509"><ele>12.0</ele><time>2026-04-17T16:14:54.99Z</time></trkpt><trkpt lat="53.36999480237119" lon="14.691721624757957"><ele>12.0</ele><time>2026-04-17T16:14:55.99Z</time></trkpt><trkpt lat="53.369920986431545" lon="14.691828609984402"><ele>12.0</ele><time>2026-04-17T16:14:56.99Z</time></trkpt><trkpt lat="53.36984796090151" lon="14.691929021079478"><ele>12.0</ele><time>2026-04-17T16:14:57.99Z</time></trkpt><trkpt lat="53.369777184028514" lon="14.692024162723376"><ele>12.0</ele><time>2026-04-17T16:14:58.99Z</time></trkpt><trkpt lat="53.36970999862281" lon="14.692115457952806"><ele>12.0</ele><time>2026-04-17T16:14:59.99Z</time></trkpt><trkpt lat="53.36964381215828" lon="14.692200731973132"><ele>12.0</ele><time>2026-04-17T16:15:00.99Z</time></trkpt><trkpt lat="53.36958200529927" lon="14.692286922419248"><ele>12.0</ele><time>2026-04-17T16:15:01.99Z</time></trkpt><trkpt lat="53.369522291840234" lon="14.692367689420914"><ele>12.0</ele><time>2026-04-17T16:15:02.99Z</time></trkpt><trkpt lat="53.369468682606424" lon="14.69245569915957"><ele>12.0</ele><time>2026-04-17T16:15:03.99Z</time></trkpt><trkpt lat="53.369414025578315" lon="14.692549527755359"><ele>12.166666666666666</ele><time>2026-04-17T16:15:04.99Z</time></trkpt><trkpt lat="53.36934519968091" lon="14.692626708072163"><ele>12.333333333333332</ele><time>2026-04-17T16:15:05.99Z</time></trkpt><trkpt lat="53.36928180428636" lon="14.692704669279161"><ele>12.5</ele><time>2026-04-17T16:15:06.99Z</time></trkpt><trkpt lat="53.369221917813256" lon="14.692797259992677"><ele>12.666666666666666</ele><time>2026-04-17T16:15:07.991Z</time></trkpt><trkpt lat="53.3691614556989" lon="14.692891421649225"><ele>12.833333333333332</ele><time>2026-04-17T16:15:08.991Z</time></trkpt><trkpt lat="53.36909757435428" lon="14.692981564502452"><ele>13.0</ele><time>2026-04-17T16:15:09.991Z</time></trkpt><trkpt lat="53.36903679817295" lon="14.693067516020635"><ele>13.0</ele><time>2026-04-17T16:15:10.991Z</time></trkpt><trkpt lat="53.36898402942937" lon="14.693149092540473"><ele>13.0</ele><time>2026-04-17T16:15:11.991Z</time></trkpt><trkpt lat="53.36892549572531" lon="14.693208442787961"><ele>13.0</ele><time>2026-04-17T16:15:12.991Z</time></trkpt><trkpt lat="53.3688381763172" lon="14.693340818848602"><ele>13.0</ele><time>2026-04-17T16:15:14.991Z</time></trkpt><trkpt lat="53.368759048667044" lon="14.693469547427764"><ele>13.0</ele><time>2026-04-17T16:15:16.991Z</time></trkpt><trkpt lat="53.36867866340042" lon="14.693577579302332"><ele>14.0</ele><time>2026-04-17T16:15:18.991Z</time></trkpt><trkpt lat="53.36859042297622" lon="14.69367496289838"><ele>15.0</ele><time>2026-04-17T16:15:20.991Z</time></trkpt><trkpt lat="53.36850469168402" lon="14.693774793712556"><ele>16.0</ele><time>2026-04-17T16:15:22.991Z</time></trkpt><trkpt lat="53.368420989233094" lon="14.693885875030732"><ele>17.0</ele><time>2026-04-17T16:15:24.991Z</time></trkpt><trkpt lat="53.36835252683884" lon="14.693962841074073"><ele>18.0</ele><time>2026-04-17T16:15:26.991Z</time></trkpt><trkpt lat="53.368286684689316" lon="14.694065282499412"><ele>18.0</ele><time>2026-04-17T16:15:28.991Z</time></trkpt><trkpt lat="53.36820593049535" lon="14.69415510731425"><ele>18.0</ele><time>2026-04-17T16:15:30.991Z</time></trkpt><trkpt lat="53.36813798155733" lon="14.694265719099025"><ele>18.0</ele><time>2026-04-17T16:15:32.991Z</time></trkpt><trkpt lat="53.368060198100146" lon="14.694381947133209"><ele>18.0</ele><time>2026-04-17T16:15:34.991Z</time></trkpt><trkpt lat="53.36796545256298" lon="14.694499392126575"><ele>18.0</ele><time>2026-04-17T16:15:36.991Z</time></trkpt><trkpt lat="53.367867669118" lon="14.694638448821403"><ele>19.4</ele><time>2026-04-17T16:15:38.991Z</time></trkpt><trkpt lat="53.36779618844305" lon="14.69471630875223"><ele>20.8</ele><time>2026-04-17T16:15:39.991Z</time></trkpt><trkpt lat="53.367733426749126" lon="14.694822976139328"><ele>22.2</ele><time>2026-04-17T16:15:40.991Z</time></trkpt><trkpt lat="53.36765687751873" lon="14.694940800661207"><ele>23.6</ele><time>2026-04-17T16:15:41.991Z</time></trkpt><trkpt lat="53.367582806861655" lon="14.695045392307701"><ele>25.0</ele><time>2026-04-17T16:15:42.991Z</time></trkpt><trkpt lat="53.36750212101924" lon="14.695139719792241"><ele>25.0</ele><time>2026-04-17T16:15:43.991Z</time></trkpt><trkpt lat="53.367428300291884" lon="14.695243255021104"><ele>25.0</ele><time>2026-04-17T16:15:44.991Z</time></trkpt><trkpt lat="53.367374221941716" lon="14.695368363948793"><ele>25.0</ele><time>2026-04-17T16:15:45.991Z</time></trkpt><trkpt lat="53.367310246739905" lon="14.695469343263005"><ele>25.0</ele><time>2026-04-17T16:15:46.991Z</time></trkpt><trkpt lat="53.36725034481471" lon="14.69555284780904"><ele>25.0</ele><time>2026-04-17T16:15:47.991Z</time></trkpt><trkpt lat="53.36716888289456" lon="14.695694446802387"><ele>24.833333333333336</ele><time>2026-04-17T16:15:49.991Z</time></trkpt><trkpt lat="53.36711270952926" lon="14.69578325782282"><ele>24.666666666666668</ele><time>2026-04-17T16:15:51.991Z</time></trkpt><trkpt lat="53.36705370671629" lon="14.69586132763957"><ele>24.5</ele><time>2026-04-17T16:15:53.991Z</time></trkpt><trkpt lat="53.36697959565155" lon="14.695973054718566"><ele>24.333333333333336</ele><time>2026-04-17T16:15:55.991Z</time></trkpt><trkpt lat="53.366884659415554" lon="14.6961055919322"><ele>24.166666666666668</ele><time>2026-04-17T16:15:57.991Z</time></trkpt><trkpt lat="53.366825315151964" lon="14.696171404903097"><ele>24.0</ele><time>2026-04-17T16:15:58.991Z</time></trkpt><trkpt lat="53.36675106129632" lon="14.696265655560758"><ele>23.5</ele><time>2026-04-17T16:15:59.991Z</time></trkpt><trkpt lat="53.36666303964307" lon="14.69639457735138"><ele>23.0</ele><time>2026-04-17T16:16:00.991Z</time></trkpt><trkpt lat="53.366561061575965" lon="14.696552228950692"><ele>22.5</ele><time>2026-04-17T16:16:01.991Z</time></trkpt><trkpt lat="53.36647051468127" lon="14.696688033434414"><ele>22.0</ele><time>2026-04-17T16:16:02.991Z</time></trkpt><trkpt lat="53.366396782557814" lon="14.696807892301601"><ele>22.166666666666664</ele><time>2026-04-17T16:16:03.991Z</time></trkpt><trkpt lat="53.36633376131005" lon="14.696888148840646"><ele>22.333333333333332</ele><time>2026-04-17T16:16:04.991Z</time></trkpt><trkpt lat="53.36626622798787" lon="14.696961413012282"><ele>22.5</ele><time>2026-04-17T16:16:05.991Z</time></trkpt><trkpt lat="53.366205256292716" lon="14.697030493961208"><ele>22.666666666666668</ele><time>2026-04-17T16:16:06.991Z</time></trkpt><trkpt lat="53.36614022537626" lon="14.697118913626095"><ele>22.833333333333336</ele><time>2026-04-17T16:16:07.991Z</time></trkpt><trkpt lat="53.366087644021015" lon="14.697209795228456"><ele>23.0</ele><time>2026-04-17T16:16:08.991Z</time></trkpt><trkpt lat="53.3660280802619" lon="14.69729042952783"><ele>23.166666666666668</ele><time>2026-04-17T16:16:09.991Z</time></trkpt><trkpt lat="53.365972842048464" lon="14.697382854136235"><ele>23.333333333333336</ele><time>2026-04-17T16:16:10.991Z</time></trkpt><trkpt lat="53.36591966246345" lon="14.697471099648691"><ele>23.5</ele><time>2026-04-17T16:16:11.991Z</time></trkpt><trkpt lat="53.3658729352699" lon="14.697545818830601"><ele>23.666666666666668</ele><time>2026-04-17T16:16:12.991Z</time></trkpt><trkpt lat="53.365823259104694" lon="14.697618525061253"><ele>23.833333333333332</ele><time>2026-04-17T16:16:13.991Z</time></trkpt><trkpt lat="53.36572903577864" lon="14.697766646195312"><ele>24.0</ele><time>2026-04-17T16:16:15.991Z</time></trkpt><trkpt lat="53.36567197411727" lon="14.697841468289415"><ele>24.166666666666668</ele><time>2026-04-17T16:16:16.991Z</time></trkpt><trkpt lat="53.36562369267551" lon="14.697918900619605"><ele>24.333333333333336</ele><time>2026-04-17T16:16:17.991Z</time></trkpt><trkpt lat="53.36557964931712" lon="14.698006658862298"><ele>24.5</ele><time>2026-04-17T16:16:18.991Z</time></trkpt><trkpt lat="53.365539681916125" lon="14.698095796306946"><ele>24.666666666666668</ele><time>2026-04-17T16:16:19.991Z</time></trkpt><trkpt lat="53.36545665892729" lon="14.698243213056886"><ele>24.833333333333336</ele><time>2026-04-17T16:16:21.989Z</time></trkpt><trkpt lat="53.36541004992977" lon="14.6983302167427"><ele>25.0</ele><time>2026-04-17T16:16:22.989Z</time></trkpt><trkpt lat="53.36535305061341" lon="14.698393076749104"><ele>25.333333333333336</ele><time>2026-04-17T16:16:23.989Z</time></trkpt><trkpt lat="53.36528826826901" lon="14.69849200899445"><ele>25.666666666666668</ele><time>2026-04-17T16:16:25.99Z</time></trkpt><trkpt lat="53.36522917487792" lon="14.698578495217669"><ele>26.0</ele><time>2026-04-17T16:16:27.989Z</time></trkpt><trkpt lat="53.36516306101424" lon="14.698668799210534"><ele>26.333333333333336</ele><time>2026-04-17T16:16:29.99Z</time></trkpt><trkpt lat="53.36508451622329" lon="14.69876243425349"><ele>26.666666666666668</ele><time>2026-04-17T16:16:31.99Z</time></trkpt><trkpt lat="53.365006690592054" lon="14.698839703714436"><ele>27.0</ele><time>2026-04-17T16:16:33.989Z</time></trkpt><trkpt lat="53.36494831703711" lon="14.698912967814502"><ele>27.0</ele><time>2026-04-17T16:16:35.989Z</time></trkpt><trkpt lat="53.36488536926453" lon="14.698939496818882"><ele>27.0</ele><time>2026-04-17T16:16:38.989Z</time></trkpt><trkpt lat="53.36495446502343" lon="14.698884558163796"><ele>27.0</ele><time>2026-04-17T16:16:47.989Z</time></trkpt><trkpt lat="53.36504453682306" lon="14.698821461760694"><ele>27.0</ele><time>2026-04-17T16:16:48.989Z</time></trkpt><trkpt lat="53.3651283160733" lon="14.69872136521875"><ele>27.0</ele><time>2026-04-17T16:16:49.989Z</time></trkpt><trkpt lat="53.365203916234" lon="14.698642310950145"><ele>27.0</ele><time>2026-04-17T16:16:50.989Z</time></trkpt><trkpt lat="53.36527370616159" lon="14.698574779990572"><ele>26.6</ele><time>2026-04-17T16:16:51.989Z</time></trkpt><trkpt lat="53.365325377701424" lon="14.69850875779741"><ele>26.200000000000003</ele><time>2026-04-17T16:16:52.989Z</time></trkpt><trkpt lat="53.36540786024175" lon="14.698367496603142"><ele>25.8</ele><time>2026-04-17T16:16:54.989Z</time></trkpt><trkpt lat="53.36547630224447" lon="14.698211002468046"><ele>25.4</ele><time>2026-04-17T16:16:56.989Z</time></trkpt><trkpt lat="53.36552076293066" lon="14.698091326369497"><ele>25.0</ele><time>2026-04-17T16:16:58.989Z</time></trkpt><trkpt lat="53.36557720984312" lon="14.698005798584662"><ele>25.000000000000004</ele><time>2026-04-17T16:17:00.989Z</time></trkpt><trkpt lat="53.365575130673825" lon="14.697892064198886"><ele>25.0</ele><time>2026-04-17T16:17:03.989Z</time></trkpt><trkpt lat="53.365507769637574" lon="14.69789811401033"><ele>25.0</ele><time>2026-04-17T16:17:06.99Z</time></trkpt><trkpt lat="53.365437080896704" lon="14.697894007513975"><ele>25.0</ele><time>2026-04-17T16:17:09.99Z</time></trkpt><trkpt lat="53.36536441980905" lon="14.69788588736483"><ele>25.0</ele><time>2026-04-17T16:17:17.99Z</time></trkpt><trkpt lat="53.3652949775242" lon="14.697826092676022"><ele>25.000000000000004</ele><time>2026-04-17T16:17:22.99Z</time></trkpt><trkpt lat="53.36525775200939" lon="14.697939787188997"><ele>25.0</ele><time>2026-04-17T16:17:25.99Z</time></trkpt><trkpt lat="53.36523495402801" lon="14.69805673406131"><ele>24.166666666666668</ele><time>2026-04-17T16:17:28.99Z</time></trkpt><trkpt lat="53.365165642678804" lon="14.6981637767368"><ele>23.333333333333336</ele><time>2026-04-17T16:17:31.99Z</time></trkpt><trkpt lat="53.3651156834748" lon="14.698254363760274"><ele>22.5</ele><time>2026-04-17T16:17:33.99Z</time></trkpt><trkpt lat="53.36504519130084" lon="14.69830033957348"><ele>21.666666666666668</ele><time>2026-04-17T16:17:36.99Z</time></trkpt><trkpt lat="53.36498202683626" lon="14.698284235319376"><ele>20.833333333333336</ele><time>2026-04-17T16:17:39.99Z</time></trkpt><trkpt lat="53.36491245313773" lon="14.698295833136003"><ele>20.0</ele><time>2026-04-17T16:17:41.99Z</time></trkpt><trkpt lat="53.36483708570325" lon="14.698295670100913"><ele>20.0</ele><time>2026-04-17T16:17:43.99Z</time></trkpt><trkpt lat="53.364765612619486" lon="14.698297815563084"><ele>20.0</ele><time>2026-04-17T16:17:46.99Z</time></trkpt><trkpt lat="53.364701601450946" lon="14.698353530897606"><ele>20.0</ele><time>2026-04-17T16:17:49.99Z</time></trkpt><trkpt lat="53.36462147171651" lon="14.698376132320703"><ele>20.0</ele><time>2026-04-17T16:17:52.99Z</time></trkpt><trkpt lat="53.36455245700697" lon="14.698377859527689"><ele>20.0</ele><time>2026-04-17T16:17:54.99Z</time></trkpt><trkpt lat="53.3644990915351" lon="14.698292406910793"><ele>20.0</ele><time>2026-04-17T16:17:58.99Z</time></trkpt><trkpt lat="53.36447698691392" lon="14.698139799743878"><ele>19.8</ele><time>2026-04-17T16:18:01.99Z</time></trkpt><trkpt lat="53.36441208837172" lon="14.698021466962414"><ele>19.6</ele><time>2026-04-17T16:18:16.99Z</time></trkpt><trkpt lat="53.36433345919632" lon="14.697978924551066"><ele>19.4</ele><time>2026-04-17T16:18:20.99Z</time></trkpt><trkpt lat="53.36424300856857" lon="14.69799205305183"><ele>19.2</ele><time>2026-04-17T16:18:22.99Z</time></trkpt><trkpt lat="53.36414333434906" lon="14.698019933914782"><ele>19.0</ele><time>2026-04-17T16:18:24.99Z</time></trkpt><trkpt lat="53.36402775711993" lon="14.69806567068433"><ele>19.0</ele><time>2026-04-17T16:18:26.989Z</time></trkpt><trkpt lat="53.363952563920044" lon="14.698102171796672"><ele>19.0</ele><time>2026-04-17T16:18:28.989Z</time></trkpt><trkpt lat="53.36388591024681" lon="14.698107551976058"><ele>19.0</ele><time>2026-04-17T16:18:31.989Z</time></trkpt><trkpt lat="53.363840039152414" lon="14.698186451105139"><ele>19.0</ele><time>2026-04-17T16:18:52.989Z</time></trkpt><trkpt lat="53.36377543616955" lon="14.698232444029058"><ele>19.0</ele><time>2026-04-17T16:19:07.989Z</time></trkpt><trkpt lat="53.36369701093264" lon="14.698207603309397"><ele>19.0</ele><time>2026-04-17T16:19:10.989Z</time></trkpt><trkpt lat="53.36363504492635" lon="14.698130327491954"><ele>19.0</ele><time>2026-04-17T16:19:13.989Z</time></trkpt><trkpt lat="53.36357587503267" lon="14.698060532208906"><ele>20.166666666666664</ele><time>2026-04-17T16:19:18.989Z</time></trkpt><trkpt lat="53.363534146210405" lon="14.6979775023661"><ele>21.333333333333332</ele><time>2026-04-17T16:19:20.989Z</time></trkpt><trkpt lat="53.36352124040374" lon="14.697827001784164"><ele>22.5</ele><time>2026-04-17T16:19:23.989Z</time></trkpt><trkpt lat="53.363508343981046" lon="14.697674941846087"><ele>23.666666666666664</ele><time>2026-04-17T16:19:26.989Z</time></trkpt><trkpt lat="53.363501314253234" lon="14.697568045487612"><ele>24.833333333333332</ele><time>2026-04-17T16:19:29.989Z</time></trkpt><trkpt lat="53.36351946698287" lon="14.697449677703966"><ele>26.0</ele><time>2026-04-17T16:19:36.989Z</time></trkpt><trkpt lat="53.36353766897216" lon="14.697335472086994"><ele>25.999999999999996</ele><time>2026-04-17T16:19:40.989Z</time></trkpt><trkpt lat="53.363564451468946" lon="14.697224133685687"><ele>26.0</ele><time>2026-04-17T16:19:45.989Z</time></trkpt><trkpt lat="53.36360202115447" lon="14.697138075230944"><ele>26.0</ele><time>2026-04-17T16:19:48.99Z</time></trkpt><trkpt lat="53.36356548901998" lon="14.6972245651327"><ele>26.0</ele><time>2026-04-17T16:20:50.989Z</time></trkpt><trkpt lat="53.363554600875084" lon="14.697343769554061"><ele>25.999999999999996</ele><time>2026-04-17T16:20:56.989Z</time></trkpt><trkpt lat="53.36353938933043" lon="14.697470356619538"><ele>26.0</ele><time>2026-04-17T16:20:59.989Z</time></trkpt><trkpt lat="53.363537167772286" lon="14.697644140758083"><ele>26.499999999999996</ele><time>2026-04-17T16:21:02.989Z</time></trkpt><trkpt lat="53.36355007455229" lon="14.697756805117374"><ele>27.0</ele><time>2026-04-17T16:21:04.989Z</time></trkpt><trkpt lat="53.363565183394975" lon="14.697873611229731"><ele>27.5</ele><time>2026-04-17T16:21:06.989Z</time></trkpt><trkpt lat="53.36359466694951" lon="14.697983508510422"><ele>28.0</ele><time>2026-04-17T16:21:10.989Z</time></trkpt><trkpt lat="53.36364856532584" lon="14.698059667630794"><ele>28.499999999999996</ele><time>2026-04-17T16:21:12.989Z</time></trkpt><trkpt lat="53.3636983754786" lon="14.698148044517861"><ele>29.0</ele><time>2026-04-17T16:21:15.989Z</time></trkpt><trkpt lat="53.36379939056907" lon="14.698119535918206"><ele>27.333333333333332</ele><time>2026-04-17T16:21:18.989Z</time></trkpt><trkpt lat="53.36386886373823" lon="14.698076827633999"><ele>25.666666666666664</ele><time>2026-04-17T16:21:20.989Z</time></trkpt><trkpt lat="53.363946143422226" lon="14.698046771924918"><ele>24.0</ele><time>2026-04-17T16:21:22.989Z</time></trkpt><trkpt lat="53.36401297859005" lon="14.698034680695722"><ele>22.333333333333332</ele><time>2026-04-17T16:21:24.989Z</time></trkpt><trkpt lat="53.364118475339595" lon="14.697998026109795"><ele>20.666666666666664</ele><time>2026-04-17T16:21:26.989Z</time></trkpt><trkpt lat="53.364191867920574" lon="14.697978695630637"><ele>19.0</ele><time>2026-04-17T16:21:28.989Z</time></trkpt><trkpt lat="53.36426280792607" lon="14.697947756617648"><ele>19.0</ele><time>2026-04-17T16:21:30.989Z</time></trkpt><trkpt lat="53.364336847171266" lon="14.697953260083636"><ele>19.0</ele><time>2026-04-17T16:21:32.989Z</time></trkpt><trkpt lat="53.3644042828722" lon="14.697979010028257"><ele>19.0</ele><time>2026-04-17T16:21:35.989Z</time></trkpt><trkpt lat="53.36443032089718" lon="14.69807715501644"><ele>19.0</ele><time>2026-04-17T16:21:42.99Z</time></trkpt><trkpt lat="53.36443896057168" lon="14.698230164523599"><ele>19.0</ele><time>2026-04-17T16:22:54.988Z</time></trkpt><trkpt lat="53.36447335160919" lon="14.698358656350193"><ele>19.0</ele><time>2026-04-17T16:22:57.988Z</time></trkpt><trkpt lat="53.364546401922404" lon="14.69838435508508"><ele>19.0</ele><time>2026-04-17T16:23:00.988Z</time></trkpt><trkpt lat="53.364605569709454" lon="14.698330961617565"><ele>19.0</ele><time>2026-04-17T16:23:03.988Z</time></trkpt><trkpt lat="53.36469224308611" lon="14.698290764068942"><ele>19.0</ele><time>2026-04-17T16:23:07.988Z</time></trkpt><trkpt lat="53.36482725882879" lon="14.698265955699313"><ele>19.0</ele><time>2026-04-17T16:23:11.988Z</time></trkpt><trkpt lat="53.36491200870093" lon="14.698267401968316"><ele>19.0</ele><time>2026-04-17T16:23:13.988Z</time></trkpt><trkpt lat="53.36497689527077" lon="14.698289624549869"><ele>19.0</ele><time>2026-04-17T16:23:15.988Z</time></trkpt><trkpt lat="53.36506544671945" lon="14.69825643774018"><ele>19.166666666666664</ele><time>2026-04-17T16:23:18.988Z</time></trkpt><trkpt lat="53.365114775538906" lon="14.698159062866585"><ele>19.333333333333332</ele><time>2026-04-17T16:23:20.988Z</time></trkpt><trkpt lat="53.36517192451504" lon="14.698036562568626"><ele>19.5</ele><time>2026-04-17T16:23:22.988Z</time></trkpt><trkpt lat="53.36522855391813" lon="14.69796726254203"><ele>19.666666666666668</ele><time>2026-04-17T16:23:24.988Z</time></trkpt><trkpt lat="53.36525726312734" lon="14.697837344110905"><ele>19.833333333333336</ele><time>2026-04-17T16:23:27.988Z</time></trkpt><trkpt lat="53.36532373769059" lon="14.697850680669813"><ele>20.0</ele><time>2026-04-17T16:23:29.988Z</time></trkpt><trkpt lat="53.36537843811518" lon="14.697919077409114"><ele>20.0</ele><time>2026-04-17T16:23:31.988Z</time></trkpt><trkpt lat="53.36544414173682" lon="14.6979383511984"><ele>20.0</ele><time>2026-04-17T16:23:33.988Z</time></trkpt><trkpt lat="53.36555377513254" lon="14.697917376614305"><ele>20.0</ele><time>2026-04-17T16:23:36.988Z</time></trkpt><trkpt lat="53.36558046639567" lon="14.698040169519656"><ele>20.0</ele><time>2026-04-17T16:23:39.988Z</time></trkpt><trkpt lat="53.36551365872453" lon="14.69817119593364"><ele>20.0</ele><time>2026-04-17T16:23:41.988Z</time></trkpt><trkpt lat="53.36546959392799" lon="14.698273774717018"><ele>20.0</ele><time>2026-04-17T16:23:42.988Z</time></trkpt><trkpt lat="53.3654212082323" lon="14.698393564053692"><ele>20.0</ele><time>2026-04-17T16:23:43.988Z</time></trkpt><trkpt lat="53.36534893798" lon="14.698524047774841"><ele>20.0</ele><time>2026-04-17T16:23:44.988Z</time></trkpt><trkpt lat="53.36526049414866" lon="14.698660233821917"><ele>20.0</ele><time>2026-04-17T16:23:45.988Z</time></trkpt><trkpt lat="53.36517394103779" lon="14.698763621635381"><ele>20.0</ele><time>2026-04-17T16:23:46.988Z</time></trkpt><trkpt lat="53.36508174022482" lon="14.698867179960892"><ele>20.0</ele><time>2026-04-17T16:23:47.988Z</time></trkpt><trkpt lat="53.36499357629274" lon="14.698951927401831"><ele>21.2</ele><time>2026-04-17T16:23:48.988Z</time></trkpt><trkpt lat="53.36489108945959" lon="14.69901976936693"><ele>22.4</ele><time>2026-04-17T16:23:49.989Z</time></trkpt><trkpt lat="53.36478585816929" lon="14.699086885333385"><ele>23.6</ele><time>2026-04-17T16:23:50.989Z</time></trkpt><trkpt lat="53.36469846906972" lon="14.699140079437843"><ele>24.8</ele><time>2026-04-17T16:23:51.989Z</time></trkpt><trkpt lat="53.36460956632878" lon="14.699195872930161"><ele>26.0</ele><time>2026-04-17T16:23:52.989Z</time></trkpt><trkpt lat="53.36453221045019" lon="14.699248906142136"><ele>26.0</ele><time>2026-04-17T16:23:53.989Z</time></trkpt><trkpt lat="53.364419136529314" lon="14.69922799338314"><ele>26.0</ele><time>2026-04-17T16:23:54.989Z</time></trkpt><trkpt lat="53.36431344231666" lon="14.69928383965659"><ele>26.0</ele><time>2026-04-17T16:23:55.989Z</time></trkpt><trkpt lat="53.36420541772298" lon="14.699338296241972"><ele>26.0</ele><time>2026-04-17T16:23:56.989Z</time></trkpt><trkpt lat="53.36409509365588" lon="14.699392210573249"><ele>26.200000000000003</ele><time>2026-04-17T16:23:57.989Z</time></trkpt><trkpt lat="53.36400280640428" lon="14.69942873008375"><ele>26.400000000000002</ele><time>2026-04-17T16:23:58.989Z</time></trkpt><trkpt lat="53.36391147654948" lon="14.699452261533311"><ele>26.6</ele><time>2026-04-17T16:23:59.989Z</time></trkpt><trkpt lat="53.36384281317732" lon="14.699447210021168"><ele>26.8</ele><time>2026-04-17T16:24:00.989Z</time></trkpt><trkpt lat="53.363723558596895" lon="14.699430736430731"><ele>27.0</ele><time>2026-04-17T16:24:02.989Z</time></trkpt><trkpt lat="53.36361528799885" lon="14.699372571998406"><ele>28.0</ele><time>2026-04-17T16:24:04.989Z</time></trkpt><trkpt lat="53.36351929252564" lon="14.699254533445046"><ele>29.000000000000004</ele><time>2026-04-17T16:24:06.989Z</time></trkpt><trkpt lat="53.36345905253107" lon="14.699162803043619"><ele>30.000000000000004</ele><time>2026-04-17T16:24:07.989Z</time></trkpt><trkpt lat="53.36338654140493" lon="14.699079719746905"><ele>31.0</ele><time>2026-04-17T16:24:08.989Z</time></trkpt><trkpt lat="53.36331792480572" lon="14.699000393116354"><ele>32.0</ele><time>2026-04-17T16:24:09.989Z</time></trkpt><trkpt lat="53.36322288711169" lon="14.698920115552445"><ele>32.0</ele><time>2026-04-17T16:24:10.989Z</time></trkpt><trkpt lat="53.36312954174166" lon="14.698830166149346"><ele>32.0</ele><time>2026-04-17T16:24:11.989Z</time></trkpt><trkpt lat="53.363017148368314" lon="14.698732085836095"><ele>32.0</ele><time>2026-04-17T16:24:12.989Z</time></trkpt><trkpt lat="53.36289710368011" lon="14.698640183296288"><ele>32.0</ele><time>2026-04-17T16:24:13.989Z</time></trkpt><trkpt lat="53.3627735325092" lon="14.698546443088658"><ele>32.25</ele><time>2026-04-17T16:24:14.989Z</time></trkpt><trkpt lat="53.36264403551518" lon="14.69845841891561"><ele>32.5</ele><time>2026-04-17T16:24:15.989Z</time></trkpt><trkpt lat="53.36253589832126" lon="14.698333920609091"><ele>32.75</ele><time>2026-04-17T16:24:16.989Z</time></trkpt><trkpt lat="53.362410189494284" lon="14.698250827972366"><ele>33.0</ele><time>2026-04-17T16:24:17.989Z</time></trkpt><trkpt lat="53.3622924281429" lon="14.698147915704471"><ele>33.0</ele><time>2026-04-17T16:24:18.989Z</time></trkpt><trkpt lat="53.36217988498396" lon="14.698043545401799"><ele>33.0</ele><time>2026-04-17T16:24:19.989Z</time></trkpt><trkpt lat="53.36206019171741" lon="14.697960057903412"><ele>33.0</ele><time>2026-04-17T16:24:20.989Z</time></trkpt><trkpt lat="53.36194068669504" lon="14.697869966088065"><ele>33.0</ele><time>2026-04-17T16:24:21.989Z</time></trkpt><trkpt lat="53.361831736184065" lon="14.697744667164104"><ele>33.25</ele><time>2026-04-17T16:24:22.989Z</time></trkpt><trkpt lat="53.36171382309173" lon="14.697649785012867"><ele>33.5</ele><time>2026-04-17T16:24:23.989Z</time></trkpt><trkpt lat="53.36160356881794" lon="14.697560627634326"><ele>33.75</ele><time>2026-04-17T16:24:24.989Z</time></trkpt><trkpt lat="53.36150344910093" lon="14.69745047197209"><ele>34.0</ele><time>2026-04-17T16:24:25.989Z</time></trkpt><trkpt lat="53.36140112208218" lon="14.697346869304944"><ele>34.0</ele><time>2026-04-17T16:24:26.989Z</time></trkpt><trkpt lat="53.36130350222564" lon="14.69725383403758"><ele>34.0</ele><time>2026-04-17T16:24:27.989Z</time></trkpt><trkpt lat="53.361213638827344" lon="14.69717384024042"><ele>34.0</ele><time>2026-04-17T16:24:28.989Z</time></trkpt><trkpt lat="53.361131060563075" lon="14.697101980585916"><ele>34.0</ele><time>2026-04-17T16:24:29.989Z</time></trkpt><trkpt lat="53.36104969332868" lon="14.697020502437718"><ele>34.0</ele><time>2026-04-17T16:24:30.989Z</time></trkpt><trkpt lat="53.36097641676807" lon="14.696938681830819"><ele>34.0</ele><time>2026-04-17T16:24:31.989Z</time></trkpt><trkpt lat="53.36089487019793" lon="14.696875871555859"><ele>34.0</ele><time>2026-04-17T16:24:32.989Z</time></trkpt><trkpt lat="53.36081818306127" lon="14.696791845852507"><ele>34.0</ele><time>2026-04-17T16:24:33.989Z</time></trkpt><trkpt lat="53.36075361462804" lon="14.696717969341703"><ele>34.0</ele><time>2026-04-17T16:24:34.989Z</time></trkpt><trkpt lat="53.36068339955477" lon="14.696620051490278"><ele>34.0</ele><time>2026-04-17T16:24:35.989Z</time></trkpt><trkpt lat="53.360616279082315" lon="14.69651842262705"><ele>34.0</ele><time>2026-04-17T16:24:36.989Z</time></trkpt><trkpt lat="53.36055821473568" lon="14.696439016059863"><ele>33.66666666666667</ele><time>2026-04-17T16:24:37.989Z</time></trkpt><trkpt lat="53.36049749923097" lon="14.696339922644045"><ele>33.333333333333336</ele><time>2026-04-17T16:24:38.989Z</time></trkpt><trkpt lat="53.360447724268994" lon="14.696249956061234"><ele>33.0</ele><time>2026-04-17T16:24:39.989Z</time></trkpt><trkpt lat="53.360389412173255" lon="14.696167842027007"><ele>32.666666666666664</ele><time>2026-04-17T16:24:40.989Z</time></trkpt><trkpt lat="53.36031581276587" lon="14.696056908598122"><ele>32.33333333333333</ele><time>2026-04-17T16:24:42.989Z</time></trkpt><trkpt lat="53.36024928140787" lon="14.695981464212128"><ele>32.0</ele><time>2026-04-17T16:24:44.987Z</time></trkpt><trkpt lat="53.36018165258815" lon="14.695931336688433"><ele>31.999999999999996</ele><time>2026-04-17T16:24:47.986Z</time></trkpt><trkpt lat="53.36012971043864" lon="14.695868844578634"><ele>32.0</ele><time>2026-04-17T16:24:51.987Z</time></trkpt><trkpt lat="53.36008093673332" lon="14.695801927820316"><ele>32.0</ele><time>2026-04-17T16:24:54.986Z</time></trkpt><trkpt lat="53.36000578068249" lon="14.695743027479264"><ele>32.0</ele><time>2026-04-17T16:24:56.986Z</time></trkpt><trkpt lat="53.35993464212806" lon="14.695706651372236"><ele>31.999999999999996</ele><time>2026-04-17T16:24:58.986Z</time></trkpt><trkpt lat="53.359849193780974" lon="14.695708608663189"><ele>32.0</ele><time>2026-04-17T16:25:00.987Z</time></trkpt><trkpt lat="53.35974598126856" lon="14.695722048890559"><ele>33.166666666666664</ele><time>2026-04-17T16:25:02.987Z</time></trkpt><trkpt lat="53.35963616438031" lon="14.695724986587372"><ele>34.33333333333333</ele><time>2026-04-17T16:25:04.987Z</time></trkpt><trkpt lat="53.359526222631224" lon="14.69568733854669"><ele>35.5</ele><time>2026-04-17T16:25:06.987Z</time></trkpt><trkpt lat="53.359458017901545" lon="14.695674641490136"><ele>36.666666666666664</ele><time>2026-04-17T16:25:07.987Z</time></trkpt><trkpt lat="53.359389276811136" lon="14.69565230071748"><ele>37.833333333333336</ele><time>2026-04-17T16:25:08.987Z</time></trkpt><trkpt lat="53.35932417962523" lon="14.695637429895575"><ele>39.0</ele><time>2026-04-17T16:25:09.987Z</time></trkpt><trkpt lat="53.359258087529334" lon="14.695623164276737"><ele>39.0</ele><time>2026-04-17T16:25:10.987Z</time></trkpt><trkpt lat="53.35919264737428" lon="14.695593732470318"><ele>39.0</ele><time>2026-04-17T16:25:11.987Z</time></trkpt><trkpt lat="53.35913120001152" lon="14.695555505298719"><ele>39.0</ele><time>2026-04-17T16:25:12.987Z</time></trkpt><trkpt lat="53.35906540511801" lon="14.695523690615449"><ele>39.0</ele><time>2026-04-17T16:25:13.987Z</time></trkpt><trkpt lat="53.35900233294543" lon="14.695472884060909"><ele>39.0</ele><time>2026-04-17T16:25:14.987Z</time></trkpt><trkpt lat="53.3589369507568" lon="14.695436741035481"><ele>39.0</ele><time>2026-04-17T16:25:15.987Z</time></trkpt><trkpt lat="53.35889548219702" lon="14.695351724808614"><ele>39.0</ele><time>2026-04-17T16:25:16.987Z</time></trkpt><trkpt lat="53.35880564069133" lon="14.695357410462606"><ele>41.0</ele><time>2026-04-17T16:25:17.987Z</time></trkpt><trkpt lat="53.35874135911626" lon="14.69533427198736"><ele>43.0</ele><time>2026-04-17T16:25:18.987Z</time></trkpt><trkpt lat="53.358676850910584" lon="14.69529130770055"><ele>45.0</ele><time>2026-04-17T16:25:19.987Z</time></trkpt><trkpt lat="53.35855877477738" lon="14.695157504554155"><ele>47.0</ele><time>2026-04-17T16:25:21.987Z</time></trkpt><trkpt lat="53.358504981448235" lon="14.695092622585332"><ele>49.0</ele><time>2026-04-17T16:25:22.987Z</time></trkpt><trkpt lat="53.358440344609484" lon="14.695007014633303"><ele>51.0</ele><time>2026-04-17T16:25:23.987Z</time></trkpt><trkpt lat="53.35835806940111" lon="14.694936080748128"><ele>51.0</ele><time>2026-04-17T16:25:24.987Z</time></trkpt><trkpt lat="53.35829874455561" lon="14.694859469496455"><ele>51.0</ele><time>2026-04-17T16:25:25.987Z</time></trkpt><trkpt lat="53.358231151858895" lon="14.69478121910697"><ele>51.0</ele><time>2026-04-17T16:25:26.987Z</time></trkpt><trkpt lat="53.35816112631686" lon="14.694685021849333"><ele>51.0</ele><time>2026-04-17T16:25:27.987Z</time></trkpt><trkpt lat="53.35809570622564" lon="14.694583507975253"><ele>51.0</ele><time>2026-04-17T16:25:28.987Z</time></trkpt><trkpt lat="53.35803181787066" lon="14.694489940442175"><ele>51.0</ele><time>2026-04-17T16:25:29.987Z</time></trkpt><trkpt lat="53.35796160779223" lon="14.694415971796577"><ele>51.199999999999996</ele><time>2026-04-17T16:25:30.987Z</time></trkpt><trkpt lat="53.357867723922006" lon="14.694323953750512"><ele>51.4</ele><time>2026-04-17T16:25:31.987Z</time></trkpt><trkpt lat="53.35777425283188" lon="14.69425728997612"><ele>51.6</ele><time>2026-04-17T16:25:32.987Z</time></trkpt><trkpt lat="53.357705486294094" lon="14.694166920504752"><ele>51.8</ele><time>2026-04-17T16:25:33.987Z</time></trkpt><trkpt lat="53.357625676113315" lon="14.69408469343574"><ele>52.0</ele><time>2026-04-17T16:25:34.987Z</time></trkpt><trkpt lat="53.35755515229567" lon="14.694017497520587"><ele>51.99999999999999</ele><time>2026-04-17T16:25:35.987Z</time></trkpt><trkpt lat="53.35747905017458" lon="14.693942915118338"><ele>52.0</ele><time>2026-04-17T16:25:36.987Z</time></trkpt><trkpt lat="53.35740347473266" lon="14.69385795749182"><ele>52.0</ele><time>2026-04-17T16:25:37.987Z</time></trkpt><trkpt lat="53.35733026550509" lon="14.693779656284548"><ele>52.0</ele><time>2026-04-17T16:25:38.987Z</time></trkpt><trkpt lat="53.35725860366877" lon="14.693701004200793"><ele>51.99999999999999</ele><time>2026-04-17T16:25:39.987Z</time></trkpt><trkpt lat="53.357196141860065" lon="14.693603966850961"><ele>52.0</ele><time>2026-04-17T16:25:40.987Z</time></trkpt><trkpt lat="53.3571108296789" lon="14.693468210522695"><ele>52.5</ele><time>2026-04-17T16:25:41.987Z</time></trkpt><trkpt lat="53.35700835806629" lon="14.69333341304573"><ele>53.0</ele><time>2026-04-17T16:25:42.987Z</time></trkpt><trkpt lat="53.35687759207203" lon="14.693164238126675"><ele>53.5</ele><time>2026-04-17T16:25:43.987Z</time></trkpt><trkpt lat="53.356818718789796" lon="14.6929466573911"><ele>54.0</ele><time>2026-04-17T16:25:44.987Z</time></trkpt><trkpt lat="53.35672788552076" lon="14.692825791479047"><ele>54.2</ele><time>2026-04-17T16:25:45.987Z</time></trkpt><trkpt lat="53.35664628812562" lon="14.692723341438212"><ele>54.400000000000006</ele><time>2026-04-17T16:25:46.987Z</time></trkpt><trkpt lat="53.3565665378493" lon="14.692640162863304"><ele>54.6</ele><time>2026-04-17T16:25:47.987Z</time></trkpt><trkpt lat="53.35648982823097" lon="14.692543151951853"><ele>54.8</ele><time>2026-04-17T16:25:48.987Z</time></trkpt><trkpt lat="53.35642833795321" lon="14.692458541338734"><ele>55.0</ele><time>2026-04-17T16:25:49.987Z</time></trkpt><trkpt lat="53.35635636387754" lon="14.692366107464878"><ele>54.99999999999999</ele><time>2026-04-17T16:25:50.987Z</time></trkpt><trkpt lat="53.35629178435482" lon="14.692275467375026"><ele>55.0</ele><time>2026-04-17T16:25:51.987Z</time></trkpt><trkpt lat="53.356230572944334" lon="14.692193738832264"><ele>55.0</ele><time>2026-04-17T16:25:52.987Z</time></trkpt><trkpt lat="53.356172414735326" lon="14.692116509158712"><ele>55.0</ele><time>2026-04-17T16:25:53.987Z</time></trkpt><trkpt lat="53.35613065268891" lon="14.69203587062854"><ele>54.99999999999999</ele><time>2026-04-17T16:25:54.987Z</time></trkpt><trkpt lat="53.35607155892876" lon="14.691992095432601"><ele>55.0</ele><time>2026-04-17T16:25:55.987Z</time></trkpt><trkpt lat="53.35597901276337" lon="14.69188600541694"><ele>54.83333333333333</ele><time>2026-04-17T16:25:57.987Z</time></trkpt><trkpt lat="53.35587084364896" lon="14.69182505820983"><ele>54.666666666666664</ele><time>2026-04-17T16:25:59.987Z</time></trkpt><trkpt lat="53.355799364301454" lon="14.691815191308917"><ele>54.5</ele><time>2026-04-17T16:26:00.987Z</time></trkpt><trkpt lat="53.35572569722183" lon="14.691776102507811"><ele>54.33333333333333</ele><time>2026-04-17T16:26:01.987Z</time></trkpt><trkpt lat="53.35564541221" lon="14.691775336805238"><ele>54.166666666666664</ele><time>2026-04-17T16:26:02.987Z</time></trkpt><trkpt lat="53.35557287992217" lon="14.691784255950742"><ele>54.0</ele><time>2026-04-17T16:26:03.987Z</time></trkpt><trkpt lat="53.35549236493092" lon="14.691798372995493"><ele>54.0</ele><time>2026-04-17T16:26:04.987Z</time></trkpt><trkpt lat="53.35541753015029" lon="14.691834033020807"><ele>54.0</ele><time>2026-04-17T16:26:05.987Z</time></trkpt><trkpt lat="53.35534631924079" lon="14.691867402221941"><ele>54.0</ele><time>2026-04-17T16:26:06.987Z</time></trkpt><trkpt lat="53.3552694141575" lon="14.691894631653117"><ele>54.0</ele><time>2026-04-17T16:26:07.987Z</time></trkpt><trkpt lat="53.3551772637336" lon="14.691922961910091"><ele>54.0</ele><time>2026-04-17T16:26:08.987Z</time></trkpt><trkpt lat="53.35511431569388" lon="14.691949766542432"><ele>54.0</ele><time>2026-04-17T16:26:09.987Z</time></trkpt><trkpt lat="53.35502301995525" lon="14.691946628884011"><ele>54.166666666666664</ele><time>2026-04-17T16:26:10.987Z</time></trkpt><trkpt lat="53.35494503544187" lon="14.691981071089247"><ele>54.33333333333333</ele><time>2026-04-17T16:26:11.987Z</time></trkpt><trkpt lat="53.35486902799649" lon="14.691969875600964"><ele>54.5</ele><time>2026-04-17T16:26:12.987Z</time></trkpt><trkpt lat="53.35475201973766" lon="14.692001009020643"><ele>54.666666666666664</ele><time>2026-04-17T16:26:14.987Z</time></trkpt><trkpt lat="53.35468605575372" lon="14.692001186718022"><ele>54.83333333333333</ele><time>2026-04-17T16:26:15.987Z</time></trkpt><trkpt lat="53.354621517690816" lon="14.691999642741619"><ele>55.0</ele><time>2026-04-17T16:26:16.987Z</time></trkpt><trkpt lat="53.354555158447674" lon="14.691997790254625"><ele>54.99999999999999</ele><time>2026-04-17T16:26:17.987Z</time></trkpt><trkpt lat="53.354493577516436" lon="14.691971072771876"><ele>55.0</ele><time>2026-04-17T16:26:18.987Z</time></trkpt><trkpt lat="53.35437183309526" lon="14.691989022737259"><ele>55.0</ele><time>2026-04-17T16:26:20.987Z</time></trkpt><trkpt lat="53.35429855469769" lon="14.691987275298015"><ele>55.0</ele><time>2026-04-17T16:26:21.987Z</time></trkpt><trkpt lat="53.35422871198181" lon="14.691975633719085"><ele>54.99999999999999</ele><time>2026-04-17T16:26:22.987Z</time></trkpt><trkpt lat="53.35414074503507" lon="14.69197120849659"><ele>55.0</ele><time>2026-04-17T16:26:23.987Z</time></trkpt><trkpt lat="53.35404997397616" lon="14.691961803185807"><ele>55.0</ele><time>2026-04-17T16:26:24.987Z</time></trkpt><trkpt lat="53.353958681180984" lon="14.691955923987374"><ele>55.0</ele><time>2026-04-17T16:26:25.987Z</time></trkpt><trkpt lat="53.353872141838295" lon="14.691924670509856"><ele>55.0</ele><time>2026-04-17T16:26:26.987Z</time></trkpt><trkpt lat="53.35379543138435" lon="14.691940807011202"><ele>55.0</ele><time>2026-04-17T16:26:27.987Z</time></trkpt><trkpt lat="53.35367822545821" lon="14.69192702684823"><ele>55.0</ele><time>2026-04-17T16:26:29.988Z</time></trkpt><trkpt lat="53.35358815519463" lon="14.691921080816794"><ele>55.666666666666664</ele><time>2026-04-17T16:26:31.988Z</time></trkpt><trkpt lat="53.35350336154938" lon="14.691913312569906"><ele>56.33333333333333</ele><time>2026-04-17T16:26:33.988Z</time></trkpt><trkpt lat="53.35340623529437" lon="14.691894199632245"><ele>57.0</ele><time>2026-04-17T16:26:37.988Z</time></trkpt><trkpt lat="53.353342495156205" lon="14.691881658603466"><ele>57.66666666666667</ele><time>2026-04-17T16:26:39.988Z</time></trkpt><trkpt lat="53.35328005862867" lon="14.691860225315315"><ele>58.333333333333336</ele><time>2026-04-17T16:26:41.988Z</time></trkpt><trkpt lat="53.353206892136406" lon="14.691866316577203"><ele>59.0</ele><time>2026-04-17T16:26:44.988Z</time></trkpt><trkpt lat="53.35311787411794" lon="14.69184576062689"><ele>59.16666666666667</ele><time>2026-04-17T16:26:47.988Z</time></trkpt><trkpt lat="53.353037341640245" lon="14.691825889867394"><ele>59.333333333333336</ele><time>2026-04-17T16:26:50.986Z</time></trkpt><trkpt lat="53.35294787642627" lon="14.691809055307898"><ele>59.5</ele><time>2026-04-17T16:26:53.986Z</time></trkpt><trkpt lat="53.35288021548031" lon="14.691796385615536"><ele>59.66666666666667</ele><time>2026-04-17T16:26:55.985Z</time></trkpt><trkpt lat="53.35281443663561" lon="14.691802623063893"><ele>59.833333333333336</ele><time>2026-04-17T16:26:57.985Z</time></trkpt><trkpt lat="53.35274322585491" lon="14.691774424436636"><ele>60.0</ele><time>2026-04-17T16:26:59.986Z</time></trkpt><trkpt lat="53.352672301872175" lon="14.691743065354183"><ele>60.0</ele><time>2026-04-17T16:27:01.985Z</time></trkpt><trkpt lat="53.35257676805475" lon="14.69172509523589"><ele>60.0</ele><time>2026-04-17T16:27:03.985Z</time></trkpt><trkpt lat="53.35246825897452" lon="14.691719603419932"><ele>60.0</ele><time>2026-04-17T16:27:05.985Z</time></trkpt><trkpt lat="53.35239993701098" lon="14.691695209929449"><ele>60.0</ele><time>2026-04-17T16:27:06.985Z</time></trkpt><trkpt lat="53.35233947918708" lon="14.691647180640741"><ele>60.0</ele><time>2026-04-17T16:27:07.985Z</time></trkpt><trkpt lat="53.35222184504123" lon="14.69159843339179"><ele>60.0</ele><time>2026-04-17T16:27:09.985Z</time></trkpt><trkpt lat="53.352113861634905" lon="14.691545033042564"><ele>60.0</ele><time>2026-04-17T16:27:11.985Z</time></trkpt><trkpt lat="53.35204537812984" lon="14.691536355493282"><ele>60.0</ele><time>2026-04-17T16:27:12.985Z</time></trkpt><trkpt lat="53.35193797400892" lon="14.691438427492567"><ele>60.0</ele><time>2026-04-17T16:27:14.985Z</time></trkpt><trkpt lat="53.35187139697959" lon="14.691418043630224"><ele>60.0</ele><time>2026-04-17T16:27:15.985Z</time></trkpt><trkpt lat="53.35181497192515" lon="14.691367977934016"><ele>60.0</ele><time>2026-04-17T16:27:16.985Z</time></trkpt><trkpt lat="53.35170050475477" lon="14.691267064160947"><ele>60.0</ele><time>2026-04-17T16:27:18.985Z</time></trkpt><trkpt lat="53.35159610617052" lon="14.691174550291546"><ele>60.0</ele><time>2026-04-17T16:27:20.985Z</time></trkpt><trkpt lat="53.3514943539382" lon="14.691124598589447"><ele>60.0</ele><time>2026-04-17T16:27:22.985Z</time></trkpt><trkpt lat="53.35138280214872" lon="14.69103349095003"><ele>60.0</ele><time>2026-04-17T16:27:24.985Z</time></trkpt><trkpt lat="53.35132296909258" lon="14.690995869251838"><ele>60.0</ele><time>2026-04-17T16:27:25.985Z</time></trkpt><trkpt lat="53.351255499212776" lon="14.690952702439613"><ele>60.0</ele><time>2026-04-17T16:27:26.985Z</time></trkpt><trkpt lat="53.35118482007259" lon="14.690913953265579"><ele>60.0</ele><time>2026-04-17T16:27:27.985Z</time></trkpt><trkpt lat="53.35106610643854" lon="14.690847217698566"><ele>60.0</ele><time>2026-04-17T16:27:29.986Z</time></trkpt><trkpt lat="53.350996189102496" lon="14.690801622553861"><ele>60.0</ele><time>2026-04-17T16:27:30.986Z</time></trkpt><trkpt lat="53.35092967081221" lon="14.690764791453427"><ele>60.0</ele><time>2026-04-17T16:27:31.986Z</time></trkpt><trkpt lat="53.35086836300014" lon="14.69073087527373"><ele>60.0</ele><time>2026-04-17T16:27:32.986Z</time></trkpt><trkpt lat="53.35076141656225" lon="14.690666167326643"><ele>60.0</ele><time>2026-04-17T16:27:34.986Z</time></trkpt><trkpt lat="53.350685288109425" lon="14.690604673527616"><ele>60.0</ele><time>2026-04-17T16:27:36.986Z</time></trkpt><trkpt lat="53.350615937840054" lon="14.69055398545904"><ele>60.0</ele><time>2026-04-17T16:27:38.986Z</time></trkpt><trkpt lat="53.350551004533514" lon="14.690464203172217"><ele>60.0</ele><time>2026-04-17T16:27:40.986Z</time></trkpt><trkpt lat="53.35047771281968" lon="14.69041990514384"><ele>60.0</ele><time>2026-04-17T16:27:42.986Z</time></trkpt><trkpt lat="53.350396404893274" lon="14.690331158259271"><ele>60.0</ele><time>2026-04-17T16:27:44.986Z</time></trkpt><trkpt lat="53.35032372141911" lon="14.69021494557935"><ele>60.6</ele><time>2026-04-17T16:27:46.986Z</time></trkpt><trkpt lat="53.35024874794038" lon="14.690139372004284"><ele>61.2</ele><time>2026-04-17T16:27:48.986Z</time></trkpt><trkpt lat="53.35018850291056" lon="14.690039151282674"><ele>61.8</ele><time>2026-04-17T16:27:50.986Z</time></trkpt><trkpt lat="53.35013092147235" lon="14.689917945508084"><ele>62.4</ele><time>2026-04-17T16:27:52.986Z</time></trkpt><trkpt lat="53.35008399071877" lon="14.6897654940122"><ele>63.0</ele><time>2026-04-17T16:27:54.986Z</time></trkpt><trkpt lat="53.35005412112215" lon="14.689603080631533"><ele>63.0</ele><time>2026-04-17T16:27:56.986Z</time></trkpt><trkpt lat="53.35000157923093" lon="14.689442907969386"><ele>63.0</ele><time>2026-04-17T16:27:58.986Z</time></trkpt><trkpt lat="53.34990708096614" lon="14.689304345337193"><ele>63.0</ele><time>2026-04-17T16:28:00.986Z</time></trkpt><trkpt lat="53.34986290668576" lon="14.689228442663946"><ele>63.0</ele><time>2026-04-17T16:28:01.986Z</time></trkpt><trkpt lat="53.34982171963177" lon="14.689146047470437"><ele>63.0</ele><time>2026-04-17T16:28:02.986Z</time></trkpt><trkpt lat="53.349742872242274" lon="14.688998058462934"><ele>63.5</ele><time>2026-04-17T16:28:04.986Z</time></trkpt><trkpt lat="53.34967032871015" lon="14.68886085841674"><ele>64.0</ele><time>2026-04-17T16:28:06.986Z</time></trkpt><trkpt lat="53.349595577993455" lon="14.688710203121039"><ele>64.5</ele><time>2026-04-17T16:28:08.986Z</time></trkpt><trkpt lat="53.34954561987986" lon="14.688641160983524"><ele>65.0</ele><time>2026-04-17T16:28:09.986Z</time></trkpt><trkpt lat="53.34950657307897" lon="14.68854499886061"><ele>65.5</ele><time>2026-04-17T16:28:10.986Z</time></trkpt><trkpt lat="53.34947962637795" lon="14.688436309963995"><ele>66.0</ele><time>2026-04-17T16:28:11.986Z</time></trkpt><trkpt lat="53.34943434372541" lon="14.688360536441884"><ele>66.16666666666667</ele><time>2026-04-17T16:28:12.986Z</time></trkpt><trkpt lat="53.34937046302249" lon="14.68819846350028"><ele>66.33333333333333</ele><time>2026-04-17T16:28:14.986Z</time></trkpt><trkpt lat="53.34933499910608" lon="14.688099791272323"><ele>66.5</ele><time>2026-04-17T16:28:15.986Z</time></trkpt><trkpt lat="53.34928730387078" lon="14.6879395823882"><ele>66.66666666666666</ele><time>2026-04-17T16:28:17.986Z</time></trkpt><trkpt lat="53.34923874044803" lon="14.687857975438366"><ele>66.83333333333333</ele><time>2026-04-17T16:28:18.986Z</time></trkpt><trkpt lat="53.34920558210302" lon="14.687767603427295"><ele>67.0</ele><time>2026-04-17T16:28:19.986Z</time></trkpt><trkpt lat="53.34914226490997" lon="14.687598214043062"><ele>67.0</ele><time>2026-04-17T16:28:21.986Z</time></trkpt><trkpt lat="53.349085427941574" lon="14.687398546630677"><ele>67.0</ele><time>2026-04-17T16:28:23.986Z</time></trkpt><trkpt lat="53.34904958283381" lon="14.687301636668964"><ele>67.0</ele><time>2026-04-17T16:28:24.986Z</time></trkpt><trkpt lat="53.34901525683202" lon="14.6872082198536"><ele>67.0</ele><time>2026-04-17T16:28:25.986Z</time></trkpt><trkpt lat="53.34895711853434" lon="14.687050030373236"><ele>67.0</ele><time>2026-04-17T16:28:27.986Z</time></trkpt><trkpt lat="53.34892270099403" lon="14.686956383159226"><ele>67.0</ele><time>2026-04-17T16:28:28.986Z</time></trkpt><trkpt lat="53.348888851004766" lon="14.686864280097987"><ele>66.4</ele><time>2026-04-17T16:28:29.986Z</time></trkpt><trkpt lat="53.3488210471923" lon="14.68667927229557"><ele>65.80000000000001</ele><time>2026-04-17T16:28:31.986Z</time></trkpt><trkpt lat="53.34877740810607" lon="14.68656062093069"><ele>65.2</ele><time>2026-04-17T16:28:32.986Z</time></trkpt><trkpt lat="53.348730325895986" lon="14.686432690275222"><ele>64.60000000000001</ele><time>2026-04-17T16:28:33.986Z</time></trkpt><trkpt lat="53.348671243282986" lon="14.686319205006086"><ele>64.0</ele><time>2026-04-17T16:28:34.986Z</time></trkpt><trkpt lat="53.348627006068696" lon="14.686169814140284"><ele>64.2</ele><time>2026-04-17T16:28:35.986Z</time></trkpt><trkpt lat="53.348570557537435" lon="14.6860355455708"><ele>64.4</ele><time>2026-04-17T16:28:36.986Z</time></trkpt><trkpt lat="53.34852977599442" lon="14.685883075497866"><ele>64.6</ele><time>2026-04-17T16:28:37.986Z</time></trkpt><trkpt lat="53.34846369640708" lon="14.685753322018664"><ele>64.8</ele><time>2026-04-17T16:28:38.986Z</time></trkpt><trkpt lat="53.348419399767025" lon="14.68561181075239"><ele>65.0</ele><time>2026-04-17T16:28:39.986Z</time></trkpt><trkpt lat="53.34837065369421" lon="14.685489786460018"><ele>65.0</ele><time>2026-04-17T16:28:40.986Z</time></trkpt><trkpt lat="53.34833314264322" lon="14.685391138833822"><ele>65.0</ele><time>2026-04-17T16:28:41.986Z</time></trkpt><trkpt lat="53.34829782197462" lon="14.68525819949181"><ele>65.0</ele><time>2026-04-17T16:28:42.986Z</time></trkpt><trkpt lat="53.348249114844286" lon="14.68512706617219"><ele>65.0</ele><time>2026-04-17T16:28:43.986Z</time></trkpt><trkpt lat="53.34819025038931" lon="14.685017046028678"><ele>65.0</ele><time>2026-04-17T16:28:44.986Z</time></trkpt><trkpt lat="53.34814619763775" lon="14.684894002414493"><ele>65.0</ele><time>2026-04-17T16:28:45.986Z</time></trkpt><trkpt lat="53.34809305242192" lon="14.684767292072856"><ele>65.33333333333334</ele><time>2026-04-17T16:28:46.986Z</time></trkpt><trkpt lat="53.348047070429494" lon="14.68463885050053"><ele>65.66666666666667</ele><time>2026-04-17T16:28:47.986Z</time></trkpt><trkpt lat="53.3480033536044" lon="14.684521134491467"><ele>66.0</ele><time>2026-04-17T16:28:48.986Z</time></trkpt><trkpt lat="53.34795661766627" lon="14.684399105366085"><ele>66.33333333333333</ele><time>2026-04-17T16:28:49.986Z</time></trkpt><trkpt lat="53.34791731063481" lon="14.68430592352138"><ele>66.66666666666666</ele><time>2026-04-17T16:28:50.986Z</time></trkpt><trkpt lat="53.3478605145055" lon="14.684131517688883"><ele>67.0</ele><time>2026-04-17T16:28:52.986Z</time></trkpt><trkpt lat="53.34782284330263" lon="14.684034743223279"><ele>67.0</ele><time>2026-04-17T16:28:53.986Z</time></trkpt><trkpt lat="53.3477592957583" lon="14.683873909042056"><ele>67.0</ele><time>2026-04-17T16:28:55.984Z</time></trkpt><trkpt lat="53.347692475908836" lon="14.683692713469815"><ele>67.0</ele><time>2026-04-17T16:28:57.984Z</time></trkpt><trkpt lat="53.347643028524715" lon="14.683517604151184"><ele>67.0</ele><time>2026-04-17T16:28:59.985Z</time></trkpt><trkpt lat="53.347635495803004" lon="14.683412886034631"><ele>67.0</ele><time>2026-04-17T16:29:00.985Z</time></trkpt><trkpt lat="53.347618654664544" lon="14.683254311629106"><ele>67.33333333333333</ele><time>2026-04-17T16:29:02.984Z</time></trkpt><trkpt lat="53.347623710363784" lon="14.683148895033312"><ele>67.66666666666666</ele><time>2026-04-17T16:29:11.984Z</time></trkpt><trkpt lat="53.34760309721002" lon="14.682994898324191"><ele>68.0</ele><time>2026-04-17T16:29:18.984Z</time></trkpt><trkpt lat="53.34756856487331" lon="14.682837349116044"><ele>68.33333333333333</ele><time>2026-04-17T16:29:20.984Z</time></trkpt><trkpt lat="53.34753964766115" lon="14.682728157821982"><ele>68.66666666666667</ele><time>2026-04-17T16:29:21.984Z</time></trkpt><trkpt lat="53.34747385262415" lon="14.682560176274217"><ele>69.0</ele><time>2026-04-17T16:29:23.985Z</time></trkpt><trkpt lat="53.34742233706781" lon="14.682466182708495"><ele>69.8</ele><time>2026-04-17T16:29:24.985Z</time></trkpt><trkpt lat="53.34737442609996" lon="14.682397713094243"><ele>70.60000000000001</ele><time>2026-04-17T16:29:25.985Z</time></trkpt><trkpt lat="53.34731312107784" lon="14.682326504199398"><ele>71.4</ele><time>2026-04-17T16:29:26.985Z</time></trkpt><trkpt lat="53.34725456871897" lon="14.682262510946664"><ele>72.2</ele><time>2026-04-17T16:29:27.985Z</time></trkpt><trkpt lat="53.34714581221285" lon="14.68213948907289"><ele>73.0</ele><time>2026-04-17T16:29:29.985Z</time></trkpt><trkpt lat="53.3470555354949" lon="14.682020077207474"><ele>72.6</ele><time>2026-04-17T16:29:31.985Z</time></trkpt><trkpt lat="53.346978510064275" lon="14.681891473730762"><ele>72.19999999999999</ele><time>2026-04-17T16:29:33.985Z</time></trkpt><trkpt lat="53.346897006607676" lon="14.681745523921837"><ele>71.8</ele><time>2026-04-17T16:29:35.985Z</time></trkpt><trkpt lat="53.34685434285375" lon="14.6816643449525"><ele>71.39999999999999</ele><time>2026-04-17T16:29:36.985Z</time></trkpt><trkpt lat="53.34680946615861" lon="14.681573351910467"><ele>71.0</ele><time>2026-04-17T16:29:37.985Z</time></trkpt><trkpt lat="53.346752474160546" lon="14.68146340034551"><ele>71.0</ele><time>2026-04-17T16:29:38.985Z</time></trkpt><trkpt lat="53.34669555016093" lon="14.68134763341829"><ele>71.0</ele><time>2026-04-17T16:29:39.985Z</time></trkpt><trkpt lat="53.346654294564445" lon="14.681244682450236"><ele>71.0</ele><time>2026-04-17T16:29:40.985Z</time></trkpt><trkpt lat="53.34661925015081" lon="14.68114238167319"><ele>71.0</ele><time>2026-04-17T16:29:41.985Z</time></trkpt><trkpt lat="53.34659153277953" lon="14.68104545250168"><ele>71.0</ele><time>2026-04-17T16:29:42.985Z</time></trkpt><trkpt lat="53.34656470939625" lon="14.680939480046867"><ele>71.0</ele><time>2026-04-17T16:29:43.985Z</time></trkpt><trkpt lat="53.346523102115" lon="14.68074922018122"><ele>71.39999999999999</ele><time>2026-04-17T16:29:45.985Z</time></trkpt><trkpt lat="53.34645338322529" lon="14.680550953449808"><ele>71.8</ele><time>2026-04-17T16:29:47.985Z</time></trkpt><trkpt lat="53.34644454598442" lon="14.680442309776648"><ele>72.19999999999999</ele><time>2026-04-17T16:29:48.985Z</time></trkpt><trkpt lat="53.34641443521479" lon="14.680229408653393"><ele>72.6</ele><time>2026-04-17T16:29:50.985Z</time></trkpt><trkpt lat="53.34641129595957" lon="14.680120366684875"><ele>73.0</ele><time>2026-04-17T16:29:51.985Z</time></trkpt><trkpt lat="53.346384969762774" lon="14.679955600015827"><ele>74.6</ele><time>2026-04-17T16:29:53.985Z</time></trkpt><trkpt lat="53.34636106795922" lon="14.679822870368097"><ele>76.19999999999999</ele><time>2026-04-17T16:29:55.985Z</time></trkpt><trkpt lat="53.34635435660178" lon="14.679668484789751"><ele>77.8</ele><time>2026-04-17T16:29:57.985Z</time></trkpt><trkpt lat="53.34636766022304" lon="14.679500297550076"><ele>79.39999999999999</ele><time>2026-04-17T16:29:59.985Z</time></trkpt><trkpt lat="53.346372519536594" lon="14.679302780044477"><ele>81.0</ele><time>2026-04-17T16:30:01.985Z</time></trkpt><trkpt lat="53.346397813728544" lon="14.679200822967946"><ele>81.0</ele><time>2026-04-17T16:30:02.985Z</time></trkpt><trkpt lat="53.34641456710317" lon="14.679093715517094"><ele>81.0</ele><time>2026-04-17T16:30:03.985Z</time></trkpt><trkpt lat="53.34641642049402" lon="14.678906350946642"><ele>81.0</ele><time>2026-04-17T16:30:05.985Z</time></trkpt><trkpt lat="53.3464123522247" lon="14.678717534844168"><ele>81.0</ele><time>2026-04-17T16:30:07.985Z</time></trkpt><trkpt lat="53.34640302447094" lon="14.678523956217273"><ele>81.0</ele><time>2026-04-17T16:30:09.985Z</time></trkpt><trkpt lat="53.3463789004004" lon="14.678355695880091"><ele>81.6</ele><time>2026-04-17T16:30:11.985Z</time></trkpt><trkpt lat="53.34635069235079" lon="14.678182946219025"><ele>82.19999999999999</ele><time>2026-04-17T16:30:13.985Z</time></trkpt><trkpt lat="53.346321087186055" lon="14.678015469459567"><ele>82.80000000000001</ele><time>2026-04-17T16:30:15.985Z</time></trkpt><trkpt lat="53.346284017399526" lon="14.677836994725851"><ele>83.4</ele><time>2026-04-17T16:30:17.985Z</time></trkpt><trkpt lat="53.346245967642055" lon="14.677729101447461"><ele>84.0</ele><time>2026-04-17T16:30:18.985Z</time></trkpt><trkpt lat="53.3462181557206" lon="14.677613104607714"><ele>84.0</ele><time>2026-04-17T16:30:19.985Z</time></trkpt><trkpt lat="53.34618897021152" lon="14.677467854826725"><ele>84.0</ele><time>2026-04-17T16:30:20.985Z</time></trkpt><trkpt lat="53.34615876911938" lon="14.67733238711714"><ele>84.0</ele><time>2026-04-17T16:30:21.985Z</time></trkpt><trkpt lat="53.34612936734115" lon="14.677197029790724"><ele>84.0</ele><time>2026-04-17T16:30:22.985Z</time></trkpt><trkpt lat="53.34609609764207" lon="14.677046374939923"><ele>84.0</ele><time>2026-04-17T16:30:23.985Z</time></trkpt><trkpt lat="53.34605599200886" lon="14.676930561908291"><ele>84.0</ele><time>2026-04-17T16:30:24.985Z</time></trkpt><trkpt lat="53.346021604243646" lon="14.676806929955491"><ele>83.33333333333333</ele><time>2026-04-17T16:30:25.985Z</time></trkpt><trkpt lat="53.345988116897495" lon="14.676687037374785"><ele>82.66666666666667</ele><time>2026-04-17T16:30:26.985Z</time></trkpt><trkpt lat="53.345959556250875" lon="14.676567840719356"><ele>82.0</ele><time>2026-04-17T16:30:27.985Z</time></trkpt><trkpt lat="53.34592214489835" lon="14.676464488301082"><ele>81.33333333333334</ele><time>2026-04-17T16:30:28.985Z</time></trkpt><trkpt lat="53.34588557238418" lon="14.676358576593021"><ele>80.66666666666667</ele><time>2026-04-17T16:30:29.985Z</time></trkpt><trkpt lat="53.34585630613206" lon="14.676237641780924"><ele>80.0</ele><time>2026-04-17T16:30:30.985Z</time></trkpt><trkpt lat="53.345840947132025" lon="14.676120972688915"><ele>79.85714285714286</ele><time>2026-04-17T16:30:31.985Z</time></trkpt><trkpt lat="53.34582133374617" lon="14.676001166393277"><ele>79.71428571428572</ele><time>2026-04-17T16:30:32.985Z</time></trkpt><trkpt lat="53.345801252526556" lon="14.675869355625396"><ele>79.57142857142858</ele><time>2026-04-17T16:30:33.985Z</time></trkpt><trkpt lat="53.34578848509816" lon="14.675740180163945"><ele>79.42857142857143</ele><time>2026-04-17T16:30:34.985Z</time></trkpt><trkpt lat="53.345779490269074" lon="14.675628977845593"><ele>79.28571428571429</ele><time>2026-04-17T16:30:35.985Z</time></trkpt><trkpt lat="53.34576331470257" lon="14.675517529746712"><ele>79.14285714285715</ele><time>2026-04-17T16:30:36.985Z</time></trkpt><trkpt lat="53.34574459176694" lon="14.675403052318773"><ele>79.0</ele><time>2026-04-17T16:30:37.985Z</time></trkpt><trkpt lat="53.34571342910399" lon="14.675208943376063"><ele>80.0</ele><time>2026-04-17T16:30:39.985Z</time></trkpt><trkpt lat="53.34568971519273" lon="14.675091415546934"><ele>81.0</ele><time>2026-04-17T16:30:40.985Z</time></trkpt><trkpt lat="53.345648403766965" lon="14.674900328585231"><ele>82.0</ele><time>2026-04-17T16:30:42.985Z</time></trkpt><trkpt lat="53.34560774656174" lon="14.674722632484384"><ele>83.0</ele><time>2026-04-17T16:30:44.985Z</time></trkpt><trkpt lat="53.34559880364292" lon="14.674542722460775"><ele>84.0</ele><time>2026-04-17T16:30:46.985Z</time></trkpt><trkpt lat="53.34562765465814" lon="14.6744122272266"><ele>85.4</ele><time>2026-04-17T16:30:48.985Z</time></trkpt><trkpt lat="53.34568897682579" lon="14.67427102832281"><ele>86.80000000000001</ele><time>2026-04-17T16:30:50.986Z</time></trkpt><trkpt lat="53.34577069056883" lon="14.674126775982012"><ele>88.19999999999999</ele><time>2026-04-17T16:30:52.986Z</time></trkpt><trkpt lat="53.345845891047006" lon="14.674007576229917"><ele>89.6</ele><time>2026-04-17T16:30:54.986Z</time></trkpt><trkpt lat="53.345912822285776" lon="14.673888745430025"><ele>91.0</ele><time>2026-04-17T16:30:56.986Z</time></trkpt><trkpt lat="53.345995735713274" lon="14.673785463012525"><ele>91.0</ele><time>2026-04-17T16:30:58.986Z</time></trkpt><trkpt lat="53.346080899318586" lon="14.67366474097017"><ele>91.0</ele><time>2026-04-17T16:31:00.986Z</time></trkpt><trkpt lat="53.346162892783184" lon="14.673551410481"><ele>91.0</ele><time>2026-04-17T16:31:02.984Z</time></trkpt><trkpt lat="53.34625044919519" lon="14.673405979125214"><ele>91.0</ele><time>2026-04-17T16:31:04.984Z</time></trkpt><trkpt lat="53.34630659472969" lon="14.673301547735194"><ele>91.0</ele><time>2026-04-17T16:31:05.984Z</time></trkpt><trkpt lat="53.346400962908845" lon="14.673159548480504"><ele>92.19999999999999</ele><time>2026-04-17T16:31:07.983Z</time></trkpt><trkpt lat="53.34645243124974" lon="14.673084428611428"><ele>93.39999999999999</ele><time>2026-04-17T16:31:08.984Z</time></trkpt><trkpt lat="53.34655434812549" lon="14.672978963023036"><ele>94.6</ele><time>2026-04-17T16:31:10.983Z</time></trkpt><trkpt lat="53.346662874000145" lon="14.672901333753714"><ele>95.8</ele><time>2026-04-17T16:31:12.983Z</time></trkpt><trkpt lat="53.346770321909275" lon="14.67289112808398"><ele>97.0</ele><time>2026-04-17T16:31:14.983Z</time></trkpt><trkpt lat="53.3468921584987" lon="14.672846457818027"><ele>97.83333333333334</ele><time>2026-04-17T16:31:16.983Z</time></trkpt><trkpt lat="53.34697689475898" lon="14.672707510714849"><ele>98.66666666666667</ele><time>2026-04-17T16:31:18.982Z</time></trkpt><trkpt lat="53.34700547303694" lon="14.672607654862611"><ele>99.5</ele><time>2026-04-17T16:31:19.982Z</time></trkpt><trkpt lat="53.34704419546484" lon="14.672497924729495"><ele>100.33333333333334</ele><time>2026-04-17T16:31:20.982Z</time></trkpt><trkpt lat="53.3470658241931" lon="14.672354881014996"><ele>101.16666666666667</ele><time>2026-04-17T16:31:21.982Z</time></trkpt><trkpt lat="53.347107383855494" lon="14.672203298620214"><ele>102.0</ele><time>2026-04-17T16:31:22.982Z</time></trkpt><trkpt lat="53.34716495903983" lon="14.672054366688368"><ele>102.16666666666667</ele><time>2026-04-17T16:31:23.982Z</time></trkpt><trkpt lat="53.347201315500044" lon="14.671927459785309"><ele>102.33333333333334</ele><time>2026-04-17T16:31:24.982Z</time></trkpt><trkpt lat="53.347236021236455" lon="14.671813636531231"><ele>102.5</ele><time>2026-04-17T16:31:25.982Z</time></trkpt><trkpt lat="53.34726881808351" lon="14.671721557100865"><ele>102.66666666666667</ele><time>2026-04-17T16:31:26.982Z</time></trkpt><trkpt lat="53.34730208828021" lon="14.671524473882851"><ele>102.83333333333334</ele><time>2026-04-17T16:31:28.982Z</time></trkpt><trkpt lat="53.34732387973316" lon="14.671411791293725"><ele>103.0</ele><time>2026-04-17T16:31:29.982Z</time></trkpt><trkpt lat="53.34736322987598" lon="14.671214058169015"><ele>103.16666666666667</ele><time>2026-04-17T16:31:31.981Z</time></trkpt><trkpt lat="53.34740228520971" lon="14.671014408640973"><ele>103.33333333333334</ele><time>2026-04-17T16:31:33.981Z</time></trkpt><trkpt lat="53.34741108575463" lon="14.67090746985349"><ele>103.5</ele><time>2026-04-17T16:31:34.981Z</time></trkpt><trkpt lat="53.34742604554555" lon="14.67078619003018"><ele>103.66666666666666</ele><time>2026-04-17T16:31:35.981Z</time></trkpt><trkpt lat="53.34744426413882" lon="14.670677651305345"><ele>103.83333333333333</ele><time>2026-04-17T16:31:36.981Z</time></trkpt><trkpt lat="53.34745820619241" lon="14.670569095433683"><ele>104.0</ele><time>2026-04-17T16:31:37.981Z</time></trkpt><trkpt lat="53.34746554662513" lon="14.670412804206178"><ele>103.83333333333333</ele><time>2026-04-17T16:31:39.981Z</time></trkpt><trkpt lat="53.34749071137096" lon="14.670247561944807"><ele>103.66666666666666</ele><time>2026-04-17T16:31:41.981Z</time></trkpt><trkpt lat="53.34750793366818" lon="14.670025355718462"><ele>103.5</ele><time>2026-04-17T16:31:43.981Z</time></trkpt><trkpt lat="53.34752833229405" lon="14.669911116413179"><ele>103.33333333333334</ele><time>2026-04-17T16:31:44.981Z</time></trkpt><trkpt lat="53.347534741197165" lon="14.669799027490292"><ele>103.16666666666667</ele><time>2026-04-17T16:31:45.981Z</time></trkpt><trkpt lat="53.34755741188064" lon="14.66969351015032"><ele>103.0</ele><time>2026-04-17T16:31:46.981Z</time></trkpt><trkpt lat="53.34757534830961" lon="14.669515073383947"><ele>102.66666666666667</ele><time>2026-04-17T16:31:48.981Z</time></trkpt><trkpt lat="53.34760994522137" lon="14.669412834329275"><ele>102.33333333333334</ele><time>2026-04-17T16:31:49.981Z</time></trkpt><trkpt lat="53.347658773826645" lon="14.669335122115417"><ele>102.0</ele><time>2026-04-17T16:31:50.981Z</time></trkpt><trkpt lat="53.34771287749157" lon="14.669262637928123"><ele>101.66666666666666</ele><time>2026-04-17T16:31:51.981Z</time></trkpt><trkpt lat="53.347839453551536" lon="14.669174812328912"><ele>101.33333333333333</ele><time>2026-04-17T16:31:53.981Z</time></trkpt><trkpt lat="53.347911135290545" lon="14.669133107930232"><ele>101.0</ele><time>2026-04-17T16:31:54.981Z</time></trkpt><trkpt lat="53.34798600829017" lon="14.669098637455582"><ele>102.33333333333333</ele><time>2026-04-17T16:31:55.981Z</time></trkpt><trkpt lat="53.348075780156734" lon="14.669031850786372"><ele>103.66666666666666</ele><time>2026-04-17T16:31:56.981Z</time></trkpt><trkpt lat="53.34815705944622" lon="14.66898031358799"><ele>105.0</ele><time>2026-04-17T16:31:57.981Z</time></trkpt><trkpt lat="53.34823493258295" lon="14.668937946023197"><ele>106.33333333333334</ele><time>2026-04-17T16:31:58.981Z</time></trkpt><trkpt lat="53.34830214483238" lon="14.668912234753527"><ele>107.66666666666667</ele><time>2026-04-17T16:31:59.981Z</time></trkpt><trkpt lat="53.34841137485488" lon="14.668878973239915"><ele>109.0</ele><time>2026-04-17T16:32:01.981Z</time></trkpt><trkpt lat="53.34851072970047" lon="14.668867010418259"><ele>109.00000000000001</ele><time>2026-04-17T16:32:03.981Z</time></trkpt><trkpt lat="53.34857915091286" lon="14.668859756516621"><ele>109.0</ele><time>2026-04-17T16:32:04.981Z</time></trkpt><trkpt lat="53.34864727546431" lon="14.66884635215205"><ele>109.0</ele><time>2026-04-17T16:32:05.981Z</time></trkpt><trkpt lat="53.34878307922765" lon="14.668785417740377"><ele>109.0</ele><time>2026-04-17T16:32:07.981Z</time></trkpt><trkpt lat="53.348858827077585" lon="14.668762031120059"><ele>109.00000000000001</ele><time>2026-04-17T16:32:08.981Z</time></trkpt><trkpt lat="53.348928922001356" lon="14.668703549447"><ele>109.0</ele><time>2026-04-17T16:32:09.981Z</time></trkpt><trkpt lat="53.34899648028572" lon="14.668637138968862"><ele>108.66666666666667</ele><time>2026-04-17T16:32:10.981Z</time></trkpt><trkpt lat="53.34905607999731" lon="14.668566696668089"><ele>108.33333333333334</ele><time>2026-04-17T16:32:11.981Z</time></trkpt><trkpt lat="53.349107343650054" lon="14.668477056446633"><ele>108.0</ele><time>2026-04-17T16:32:12.981Z</time></trkpt><trkpt lat="53.34915806301434" lon="14.668381689958723"><ele>107.66666666666666</ele><time>2026-04-17T16:32:13.981Z</time></trkpt><trkpt lat="53.34920519925768" lon="14.668290298218633"><ele>107.33333333333333</ele><time>2026-04-17T16:32:14.981Z</time></trkpt><trkpt lat="53.34925584147263" lon="14.668199297411144"><ele>107.0</ele><time>2026-04-17T16:32:15.981Z</time></trkpt><trkpt lat="53.34935087100991" lon="14.668059716356408"><ele>106.99999999999999</ele><time>2026-04-17T16:32:17.981Z</time></trkpt><trkpt lat="53.34942221939663" lon="14.667967601156331"><ele>107.0</ele><time>2026-04-17T16:32:19.981Z</time></trkpt><trkpt lat="53.34946544153374" lon="14.667885365789031"><ele>107.0</ele><time>2026-04-17T16:32:21.981Z</time></trkpt><trkpt lat="53.34951876184844" lon="14.667770875591433"><ele>107.0</ele><time>2026-04-17T16:32:24.981Z</time></trkpt><trkpt lat="53.3495096018187" lon="14.667613136954795"><ele>106.99999999999999</ele><time>2026-04-17T16:32:44.981Z</time></trkpt><trkpt lat="53.349437763246854" lon="14.667523168455709"><ele>107.0</ele><time>2026-04-17T16:32:45.981Z</time></trkpt><trkpt lat="53.34936943889886" lon="14.6674271759772"><ele>107.49999999999999</ele><time>2026-04-17T16:32:46.981Z</time></trkpt><trkpt lat="53.34930442276779" lon="14.66728972488208"><ele>108.0</ele><time>2026-04-17T16:32:47.981Z</time></trkpt><trkpt lat="53.349242887434805" lon="14.66712002858706"><ele>108.5</ele><time>2026-04-17T16:32:48.981Z</time></trkpt><trkpt lat="53.349217583427695" lon="14.666988199902704"><ele>109.0</ele><time>2026-04-17T16:32:49.981Z</time></trkpt><trkpt lat="53.34920518021814" lon="14.666865473591601"><ele>109.49999999999999</ele><time>2026-04-17T16:32:51.981Z</time></trkpt><trkpt lat="53.34916995246606" lon="14.666960173429711"><ele>110.0</ele><time>2026-04-17T16:32:59.982Z</time></trkpt><trkpt lat="53.34922197133018" lon="14.667083396388888"><ele>110.0</ele><time>2026-04-17T16:33:02.982Z</time></trkpt><trkpt lat="53.34925513281078" lon="14.667208315084519"><ele>110.0</ele><time>2026-04-17T16:33:04.982Z</time></trkpt><trkpt lat="53.34931894907662" lon="14.66737575509628"><ele>110.0</ele><time>2026-04-17T16:33:06.982Z</time></trkpt><trkpt lat="53.34938407153715" lon="14.667480276096924"><ele>110.0</ele><time>2026-04-17T16:33:07.98Z</time></trkpt><trkpt lat="53.34944984726196" lon="14.667571854933461"><ele>110.0</ele><time>2026-04-17T16:33:08.979Z</time></trkpt><trkpt lat="53.349547469483305" lon="14.667687981365654"><ele>109.83333333333333</ele><time>2026-04-17T16:33:09.979Z</time></trkpt><trkpt lat="53.349635145186106" lon="14.667792371091739"><ele>109.66666666666666</ele><time>2026-04-17T16:33:10.979Z</time></trkpt><trkpt lat="53.34973698538628" lon="14.667871906196348"><ele>109.5</ele><time>2026-04-17T16:33:12.979Z</time></trkpt><trkpt lat="53.349812819310934" lon="14.667889121097673"><ele>109.33333333333334</ele><time>2026-04-17T16:33:14.979Z</time></trkpt><trkpt lat="53.349755413359105" lon="14.66793946769797"><ele>109.16666666666667</ele><time>2026-04-17T16:33:19.979Z</time></trkpt><trkpt lat="53.34968919401908" lon="14.667861084588605"><ele>109.0</ele><time>2026-04-17T16:33:21.979Z</time></trkpt><trkpt lat="53.34961108553762" lon="14.667832128715839"><ele>109.2</ele><time>2026-04-17T16:33:23.979Z</time></trkpt><trkpt lat="53.349520618694335" lon="14.667726446833539"><ele>109.4</ele><time>2026-04-17T16:45:27.977Z</time></trkpt><trkpt lat="53.349448265040124" lon="14.667623862068794"><ele>109.6</ele><time>2026-04-17T16:45:29.977Z</time></trkpt><trkpt lat="53.34940136290866" lon="14.667539656491996"><ele>109.8</ele><time>2026-04-17T16:45:30.977Z</time></trkpt><trkpt lat="53.34935171113851" lon="14.667435876974423"><ele>110.0</ele><time>2026-04-17T16:45:31.977Z</time></trkpt><trkpt lat="53.349277606598314" lon="14.667246980540698"><ele>109.99999999999999</ele><time>2026-04-17T16:45:33.977Z</time></trkpt><trkpt lat="53.34924504236366" lon="14.667141103633616"><ele>110.0</ele><time>2026-04-17T16:45:34.977Z</time></trkpt><trkpt lat="53.34922112365067" lon="14.6670186992656"><ele>110.0</ele><time>2026-04-17T16:45:35.977Z</time></trkpt><trkpt lat="53.34920047228138" lon="14.666893534843817"><ele>110.0</ele><time>2026-04-17T16:45:36.977Z</time></trkpt><trkpt lat="53.34918464621879" lon="14.666755768703801"><ele>109.99999999999999</ele><time>2026-04-17T16:45:37.977Z</time></trkpt><trkpt lat="53.34917913415717" lon="14.666602535414812"><ele>110.0</ele><time>2026-04-17T16:45:38.977Z</time></trkpt><trkpt lat="53.349168772787465" lon="14.666474890352035"><ele>110.83333333333333</ele><time>2026-04-17T16:45:39.977Z</time></trkpt><trkpt lat="53.3491627452862" lon="14.666328382622458"><ele>111.66666666666666</ele><time>2026-04-17T16:45:40.977Z</time></trkpt><trkpt lat="53.34915331382771" lon="14.666183679881561"><ele>112.5</ele><time>2026-04-17T16:45:41.977Z</time></trkpt><trkpt lat="53.349146007079945" lon="14.66605025382127"><ele>113.33333333333334</ele><time>2026-04-17T16:45:42.977Z</time></trkpt><trkpt lat="53.3491217352125" lon="14.665920423602376"><ele>114.16666666666667</ele><time>2026-04-17T16:45:43.976Z</time></trkpt><trkpt lat="53.34908763753683" lon="14.66577999886074"><ele>115.0</ele><time>2026-04-17T16:45:44.975Z</time></trkpt><trkpt lat="53.34904672938101" lon="14.665626875898464"><ele>115.5</ele><time>2026-04-17T16:45:45.975Z</time></trkpt><trkpt lat="53.34900347707375" lon="14.665455069514094"><ele>116.0</ele><time>2026-04-17T16:45:46.976Z</time></trkpt><trkpt lat="53.34895991488044" lon="14.665289853848064"><ele>116.5</ele><time>2026-04-17T16:45:47.976Z</time></trkpt><trkpt lat="53.34891115175846" lon="14.665105457482317"><ele>117.0</ele><time>2026-04-17T16:45:48.976Z</time></trkpt><trkpt lat="53.34884301178857" lon="14.664898166870678"><ele>118.75</ele><time>2026-04-17T16:45:49.975Z</time></trkpt><trkpt lat="53.34876646508668" lon="14.664699562317182"><ele>120.5</ele><time>2026-04-17T16:45:50.975Z</time></trkpt><trkpt lat="53.348689734651416" lon="14.664501159734606"><ele>122.25</ele><time>2026-04-17T16:45:51.975Z</time></trkpt><trkpt lat="53.348611041217474" lon="14.664312440298168"><ele>124.0</ele><time>2026-04-17T16:45:52.975Z</time></trkpt><trkpt lat="53.34853317888155" lon="14.664133837956117"><ele>125.25</ele><time>2026-04-17T16:45:53.976Z</time></trkpt><trkpt lat="53.348465382163646" lon="14.663950617799303"><ele>126.5</ele><time>2026-04-17T16:45:54.976Z</time></trkpt><trkpt lat="53.34840480430713" lon="14.663775597238516"><ele>127.75</ele><time>2026-04-17T16:45:55.975Z</time></trkpt><trkpt lat="53.34834760723991" lon="14.663603004935096"><ele>129.0</ele><time>2026-04-17T16:45:56.975Z</time></trkpt><trkpt lat="53.3482969743002" lon="14.663436801096177"><ele>129.4</ele><time>2026-04-17T16:45:57.975Z</time></trkpt><trkpt lat="53.3482512027349" lon="14.663269747050123"><ele>129.8</ele><time>2026-04-17T16:45:58.975Z</time></trkpt><trkpt lat="53.34819969043304" lon="14.663107121718157"><ele>130.2</ele><time>2026-04-17T16:45:59.975Z</time></trkpt><trkpt lat="53.34815008632759" lon="14.662951205465843"><ele>130.6</ele><time>2026-04-17T16:46:00.975Z</time></trkpt><trkpt lat="53.34809711284309" lon="14.662805864777795"><ele>131.0</ele><time>2026-04-17T16:46:01.975Z</time></trkpt><trkpt lat="53.34803100407783" lon="14.662676359001411"><ele>130.2</ele><time>2026-04-17T16:46:02.975Z</time></trkpt><trkpt lat="53.34795825890836" lon="14.66255324722039"><ele>129.39999999999998</ele><time>2026-04-17T16:46:03.975Z</time></trkpt><trkpt lat="53.34787429100726" lon="14.662501934280485"><ele>128.6</ele><time>2026-04-17T16:46:04.975Z</time></trkpt><trkpt lat="53.34778407539548" lon="14.662482459750525"><ele>127.8</ele><time>2026-04-17T16:46:05.975Z</time></trkpt><trkpt lat="53.34770051273023" lon="14.662487943072144"><ele>127.0</ele><time>2026-04-17T16:46:06.975Z</time></trkpt><trkpt lat="53.347606042919274" lon="14.662530603611524"><ele>127.0</ele><time>2026-04-17T16:46:07.975Z</time></trkpt><trkpt lat="53.34752571206077" lon="14.662589209725654"><ele>127.0</ele><time>2026-04-17T16:46:08.975Z</time></trkpt><trkpt lat="53.34745763873805" lon="14.662652941633565"><ele>127.0</ele><time>2026-04-17T16:46:09.975Z</time></trkpt><trkpt lat="53.34739835811818" lon="14.662726356628902"><ele>127.0</ele><time>2026-04-17T16:46:11.975Z</time></trkpt><trkpt lat="53.34734301273786" lon="14.662791052743914"><ele>127.0</ele><time>2026-04-17T16:46:15.975Z</time></trkpt><trkpt lat="53.347294530799736" lon="14.662858999182133"><ele>127.0</ele><time>2026-04-17T16:46:18.975Z</time></trkpt><trkpt lat="53.347240211369375" lon="14.662928675298694"><ele>127.0</ele><time>2026-04-17T16:46:21.975Z</time></trkpt><trkpt lat="53.34716183713977" lon="14.662999997820235"><ele>128.33333333333334</ele><time>2026-04-17T16:46:24.91Z</time></trkpt><trkpt lat="53.347102535060905" lon="14.66304831326578"><ele>129.66666666666669</ele><time>2026-04-17T16:46:26.91Z</time></trkpt><trkpt lat="53.347029200532276" lon="14.663099735685844"><ele>131.0</ele><time>2026-04-17T16:46:28.91Z</time></trkpt><trkpt lat="53.346940574184366" lon="14.66317505816519"><ele>132.33333333333334</ele><time>2026-04-17T16:46:30.91Z</time></trkpt><trkpt lat="53.34682674845694" lon="14.6632729243182"><ele>133.66666666666666</ele><time>2026-04-17T16:46:32.91Z</time></trkpt><trkpt lat="53.34675686434271" lon="14.663325259694908"><ele>135.0</ele><time>2026-04-17T16:46:33.91Z</time></trkpt><trkpt lat="53.34666151588847" lon="14.663337969370442"><ele>135.0</ele><time>2026-04-17T16:46:34.91Z</time></trkpt><trkpt lat="53.34657328611998" lon="14.663407130861648"><ele>135.0</ele><time>2026-04-17T16:46:35.91Z</time></trkpt><trkpt lat="53.34648512083232" lon="14.663487919875525"><ele>135.0</ele><time>2026-04-17T16:46:36.91Z</time></trkpt><trkpt lat="53.346381075883876" lon="14.663557448324475"><ele>135.0</ele><time>2026-04-17T16:46:37.91Z</time></trkpt><trkpt lat="53.346275422868715" lon="14.663627676381992"><ele>135.0</ele><time>2026-04-17T16:46:38.91Z</time></trkpt><trkpt lat="53.346165734649205" lon="14.663692415174829"><ele>136.0</ele><time>2026-04-17T16:46:39.91Z</time></trkpt><trkpt lat="53.34605439007687" lon="14.663776592396262"><ele>137.0</ele><time>2026-04-17T16:46:40.91Z</time></trkpt><trkpt lat="53.34595998867027" lon="14.66383403576205"><ele>138.0</ele><time>2026-04-17T16:46:41.91Z</time></trkpt><trkpt lat="53.345868405908455" lon="14.663864245629254"><ele>139.0</ele><time>2026-04-17T16:46:42.91Z</time></trkpt><trkpt lat="53.345779492915874" lon="14.663901326944629"><ele>140.0</ele><time>2026-04-17T16:46:43.91Z</time></trkpt><trkpt lat="53.34567438887284" lon="14.663936289028506"><ele>140.0</ele><time>2026-04-17T16:46:44.91Z</time></trkpt><trkpt lat="53.34555304825863" lon="14.663956395109654"><ele>140.0</ele><time>2026-04-17T16:46:45.91Z</time></trkpt><trkpt lat="53.34542857808166" lon="14.663949825332153"><ele>140.0</ele><time>2026-04-17T16:46:46.91Z</time></trkpt><trkpt lat="53.34531004437986" lon="14.663912260437526"><ele>140.0</ele><time>2026-04-17T16:46:47.911Z</time></trkpt><trkpt lat="53.345223511251966" lon="14.663865673329578"><ele>139.83333333333331</ele><time>2026-04-17T16:46:48.911Z</time></trkpt><trkpt lat="53.34513393141757" lon="14.663812340183096"><ele>139.66666666666666</ele><time>2026-04-17T16:46:49.911Z</time></trkpt><trkpt lat="53.345040763580826" lon="14.663751803509603"><ele>139.5</ele><time>2026-04-17T16:46:50.911Z</time></trkpt><trkpt lat="53.3449626185242" lon="14.663700535300137"><ele>139.33333333333334</ele><time>2026-04-17T16:46:51.911Z</time></trkpt><trkpt lat="53.34489470691446" lon="14.6636561209499"><ele>139.16666666666669</ele><time>2026-04-17T16:46:52.911Z</time></trkpt><trkpt lat="53.34482476969327" lon="14.663628731029577"><ele>139.0</ele><time>2026-04-17T16:46:53.911Z</time></trkpt><trkpt lat="53.3447669193608" lon="14.663559761674486"><ele>138.0</ele><time>2026-04-17T16:46:54.911Z</time></trkpt><trkpt lat="53.344663948584646" lon="14.663468352437695"><ele>137.0</ele><time>2026-04-17T16:46:56.911Z</time></trkpt><trkpt lat="53.34460790521539" lon="14.663417690064584"><ele>136.0</ele><time>2026-04-17T16:46:57.911Z</time></trkpt><trkpt lat="53.34450852334524" lon="14.663334788384066"><ele>135.0</ele><time>2026-04-17T16:46:59.91Z</time></trkpt><trkpt lat="53.34442031548301" lon="14.663287175276249"><ele>134.0</ele><time>2026-04-17T16:47:01.91Z</time></trkpt><trkpt lat="53.34432094849072" lon="14.663239219148267"><ele>134.0</ele><time>2026-04-17T16:47:03.91Z</time></trkpt><trkpt lat="53.344229739873235" lon="14.66320777879277"><ele>134.0</ele><time>2026-04-17T16:47:05.91Z</time></trkpt><trkpt lat="53.344154840760154" lon="14.663156047559399"><ele>134.0</ele><time>2026-04-17T16:47:07.91Z</time></trkpt><trkpt lat="53.344087568974075" lon="14.663065038955175"><ele>134.0</ele><time>2026-04-17T16:47:09.91Z</time></trkpt><trkpt lat="53.344010277243605" lon="14.662983646141075"><ele>134.0</ele><time>2026-04-17T16:47:11.91Z</time></trkpt><trkpt lat="53.343929385659116" lon="14.662883302936116"><ele>134.0</ele><time>2026-04-17T16:47:13.91Z</time></trkpt><trkpt lat="53.343867695025104" lon="14.662781991193045"><ele>134.0</ele><time>2026-04-17T16:47:15.91Z</time></trkpt><trkpt lat="53.34381778164094" lon="14.662666683433377"><ele>134.0</ele><time>2026-04-17T16:47:17.91Z</time></trkpt><trkpt lat="53.34378249508722" lon="14.662525195195064"><ele>134.0</ele><time>2026-04-17T16:47:19.91Z</time></trkpt><trkpt lat="53.34375214663083" lon="14.662363672794788"><ele>134.0</ele><time>2026-04-17T16:47:21.91Z</time></trkpt><trkpt lat="53.34373543246743" lon="14.662166077112017"><ele>134.0</ele><time>2026-04-17T16:47:23.91Z</time></trkpt><trkpt lat="53.3437257065697" lon="14.662053400030912"><ele>134.0</ele><time>2026-04-17T16:47:24.91Z</time></trkpt><trkpt lat="53.34371069470277" lon="14.66194994039874"><ele>134.0</ele><time>2026-04-17T16:47:25.91Z</time></trkpt><trkpt lat="53.34368209330624" lon="14.661833499575842"><ele>134.0</ele><time>2026-04-17T16:47:26.91Z</time></trkpt><trkpt lat="53.3436432983406" lon="14.661734906454413"><ele>134.0</ele><time>2026-04-17T16:47:27.91Z</time></trkpt><trkpt lat="53.343592522523544" lon="14.661632956519215"><ele>134.0</ele><time>2026-04-17T16:47:28.91Z</time></trkpt><trkpt lat="53.34353882417956" lon="14.661556487130369"><ele>134.0</ele><time>2026-04-17T16:47:29.91Z</time></trkpt><trkpt lat="53.34340780913054" lon="14.661514051577537"><ele>134.0</ele><time>2026-04-17T16:47:31.91Z</time></trkpt><trkpt lat="53.34335280338637" lon="14.661626597928683"><ele>134.0</ele><time>2026-04-17T16:47:32.91Z</time></trkpt><trkpt lat="53.343290749227414" lon="14.661680073433294"><ele>134.0</ele><time>2026-04-17T16:47:33.91Z</time></trkpt><trkpt lat="53.343179662494144" lon="14.661830460055443"><ele>134.0</ele><time>2026-04-17T16:47:35.91Z</time></trkpt><trkpt lat="53.343123967478654" lon="14.661917625103024"><ele>134.0</ele><time>2026-04-17T16:47:36.91Z</time></trkpt><trkpt lat="53.34306275013111" lon="14.662018150819781"><ele>134.5</ele><time>2026-04-17T16:47:37.91Z</time></trkpt><trkpt lat="53.342996988883435" lon="14.662121350188393"><ele>135.0</ele><time>2026-04-17T16:47:38.91Z</time></trkpt><trkpt lat="53.34293614907653" lon="14.662205834512186"><ele>135.5</ele><time>2026-04-17T16:47:39.91Z</time></trkpt><trkpt lat="53.342874454480096" lon="14.66227661676178"><ele>136.0</ele><time>2026-04-17T16:47:40.91Z</time></trkpt><trkpt lat="53.34278259758423" lon="14.662327971380789"><ele>136.5</ele><time>2026-04-17T16:47:42.91Z</time></trkpt><trkpt lat="53.342699528335565" lon="14.662369180579512"><ele>137.0</ele><time>2026-04-17T16:47:44.91Z</time></trkpt><trkpt lat="53.342614589389164" lon="14.662416957259163"><ele>137.0</ele><time>2026-04-17T16:47:46.91Z</time></trkpt><trkpt lat="53.34253854465366" lon="14.662490163261143"><ele>137.0</ele><time>2026-04-17T16:47:48.91Z</time></trkpt><trkpt lat="53.34246560657698" lon="14.662624528684272"><ele>137.0</ele><time>2026-04-17T16:47:50.907Z</time></trkpt><trkpt lat="53.34238738855903" lon="14.66275412573757"><ele>137.0</ele><time>2026-04-17T16:47:52.907Z</time></trkpt><trkpt lat="53.34233043800251" lon="14.662820752125752"><ele>137.0</ele><time>2026-04-17T16:47:53.908Z</time></trkpt><trkpt lat="53.34227604588175" lon="14.662887060849679"><ele>137.0</ele><time>2026-04-17T16:47:54.908Z</time></trkpt><trkpt lat="53.342216976848036" lon="14.662951070414126"><ele>138.2</ele><time>2026-04-17T16:47:55.908Z</time></trkpt><trkpt lat="53.34212422618413" lon="14.663045125097712"><ele>139.39999999999998</ele><time>2026-04-17T16:47:57.908Z</time></trkpt><trkpt lat="53.342035974923625" lon="14.663102261629637"><ele>140.60000000000002</ele><time>2026-04-17T16:47:59.907Z</time></trkpt><trkpt lat="53.34195234358453" lon="14.663033988701093"><ele>141.8</ele><time>2026-04-17T16:48:01.907Z</time></trkpt><trkpt lat="53.341894566153584" lon="14.662919489099615"><ele>143.0</ele><time>2026-04-17T16:48:03.907Z</time></trkpt><trkpt lat="53.34181809068723" lon="14.662823168419767"><ele>142.0</ele><time>2026-04-17T16:48:05.907Z</time></trkpt><trkpt lat="53.34176639435837" lon="14.66268195242129"><ele>141.0</ele><time>2026-04-17T16:48:07.907Z</time></trkpt><trkpt lat="53.341718132629225" lon="14.662539521801587"><ele>140.0</ele><time>2026-04-17T16:48:09.907Z</time></trkpt><trkpt lat="53.341657074017206" lon="14.662460076685624"><ele>139.0</ele><time>2026-04-17T16:48:11.907Z</time></trkpt><trkpt lat="53.34156871324848" lon="14.662362041858572"><ele>138.0</ele><time>2026-04-17T16:48:31.906Z</time></trkpt><trkpt lat="53.34146659382207" lon="14.662334799356032"><ele>138.8</ele><time>2026-04-17T16:48:33.906Z</time></trkpt><trkpt lat="53.34137678655513" lon="14.662358741858355"><ele>139.60000000000002</ele><time>2026-04-17T16:48:35.906Z</time></trkpt><trkpt lat="53.341285322118885" lon="14.662416393052112"><ele>140.39999999999998</ele><time>2026-04-17T16:48:37.906Z</time></trkpt><trkpt lat="53.341201420891174" lon="14.662527923283166"><ele>141.2</ele><time>2026-04-17T16:48:39.906Z</time></trkpt><trkpt lat="53.34113780239677" lon="14.662693520555276"><ele>142.0</ele><time>2026-04-17T16:48:41.906Z</time></trkpt><trkpt lat="53.34105754327536" lon="14.662838149390325"><ele>142.16666666666669</ele><time>2026-04-17T16:48:43.906Z</time></trkpt><trkpt lat="53.34101083512299" lon="14.662916657879938"><ele>142.33333333333334</ele><time>2026-04-17T16:48:44.906Z</time></trkpt><trkpt lat="53.34093762671088" lon="14.662965686778778"><ele>142.5</ele><time>2026-04-17T16:48:45.906Z</time></trkpt><trkpt lat="53.34086584802616" lon="14.663011992657495"><ele>142.66666666666666</ele><time>2026-04-17T16:48:46.906Z</time></trkpt><trkpt lat="53.34078222496583" lon="14.663044098254064"><ele>142.83333333333331</ele><time>2026-04-17T16:48:47.906Z</time></trkpt><trkpt lat="53.34068263072771" lon="14.663067892154556"><ele>143.0</ele><time>2026-04-17T16:48:48.906Z</time></trkpt><trkpt lat="53.34057463875143" lon="14.66309322049997"><ele>143.20000000000002</ele><time>2026-04-17T16:48:49.906Z</time></trkpt><trkpt lat="53.34046227187115" lon="14.663117443695779"><ele>143.4</ele><time>2026-04-17T16:48:50.906Z</time></trkpt><trkpt lat="53.340350323860505" lon="14.663137285896706"><ele>143.60000000000002</ele><time>2026-04-17T16:48:51.906Z</time></trkpt><trkpt lat="53.340244047866925" lon="14.663158013807061"><ele>143.8</ele><time>2026-04-17T16:48:52.906Z</time></trkpt><trkpt lat="53.340148596853524" lon="14.663168600058412"><ele>144.0</ele><time>2026-04-17T16:48:53.906Z</time></trkpt><trkpt lat="53.34007047631794" lon="14.663160115262537"><ele>144.0</ele><time>2026-04-17T16:48:54.906Z</time></trkpt><trkpt lat="53.339991034218365" lon="14.663140669384665"><ele>144.0</ele><time>2026-04-17T16:48:55.906Z</time></trkpt><trkpt lat="53.339912454859295" lon="14.663101676609317"><ele>144.0</ele><time>2026-04-17T16:48:56.906Z</time></trkpt><trkpt lat="53.33981262657116" lon="14.663050609871744"><ele>144.0</ele><time>2026-04-17T16:48:57.906Z</time></trkpt><trkpt lat="53.339716247574465" lon="14.663002189776726"><ele>144.0</ele><time>2026-04-17T16:48:58.906Z</time></trkpt><trkpt lat="53.339606278982856" lon="14.662943162655607"><ele>145.0</ele><time>2026-04-17T16:48:59.906Z</time></trkpt><trkpt lat="53.339494014095756" lon="14.662898708635627"><ele>146.0</ele><time>2026-04-17T16:49:00.906Z</time></trkpt><trkpt lat="53.33939157825965" lon="14.662885625937596"><ele>147.0</ele><time>2026-04-17T16:49:01.906Z</time></trkpt><trkpt lat="53.339280925572716" lon="14.662924091513913"><ele>148.0</ele><time>2026-04-17T16:49:02.906Z</time></trkpt><trkpt lat="53.33916891428866" lon="14.662980143294368"><ele>149.0</ele><time>2026-04-17T16:49:03.906Z</time></trkpt><trkpt lat="53.33905208627032" lon="14.663041780152334"><ele>149.0</ele><time>2026-04-17T16:49:04.906Z</time></trkpt><trkpt lat="53.33894350743018" lon="14.663089192921154"><ele>149.0</ele><time>2026-04-17T16:49:05.906Z</time></trkpt><trkpt lat="53.338862637527804" lon="14.663113692998381"><ele>149.0</ele><time>2026-04-17T16:49:06.906Z</time></trkpt><trkpt lat="53.33874119731509" lon="14.663108338196032"><ele>149.0</ele><time>2026-04-17T16:49:08.906Z</time></trkpt><trkpt lat="53.3386896360033" lon="14.662975288344326"><ele>149.0</ele><time>2026-04-17T16:49:09.906Z</time></trkpt><trkpt lat="53.338624584035514" lon="14.662874736522216"><ele>148.85714285714286</ele><time>2026-04-17T16:49:10.906Z</time></trkpt><trkpt lat="53.338563325694345" lon="14.662758013269032"><ele>148.7142857142857</ele><time>2026-04-17T16:49:11.906Z</time></trkpt><trkpt lat="53.33851693873352" lon="14.662677381373523"><ele>148.57142857142856</ele><time>2026-04-17T16:49:12.906Z</time></trkpt><trkpt lat="53.33845919755348" lon="14.662629637890824"><ele>148.42857142857142</ele><time>2026-04-17T16:49:14.906Z</time></trkpt><trkpt lat="53.33837846139308" lon="14.662612697359318"><ele>148.28571428571428</ele><time>2026-04-17T16:49:17.906Z</time></trkpt><trkpt lat="53.33830619146246" lon="14.662602481309698"><ele>148.14285714285714</ele><time>2026-04-17T16:49:19.906Z</time></trkpt><trkpt lat="53.33824143804867" lon="14.662597295371638"><ele>148.0</ele><time>2026-04-17T16:49:21.906Z</time></trkpt><trkpt lat="53.338148599593374" lon="14.66259804232736"><ele>148.0</ele><time>2026-04-17T16:49:24.906Z</time></trkpt><trkpt lat="53.33808166756427" lon="14.662601263968755"><ele>148.0</ele><time>2026-04-17T16:49:26.906Z</time></trkpt><trkpt lat="53.338001492965155" lon="14.662605838839209"><ele>148.0</ele><time>2026-04-17T16:49:28.906Z</time></trkpt><trkpt lat="53.337914680157276" lon="14.662612700627532"><ele>148.0</ele><time>2026-04-17T16:49:30.906Z</time></trkpt><trkpt lat="53.33781164792382" lon="14.662622332762554"><ele>148.0</ele><time>2026-04-17T16:49:32.906Z</time></trkpt><trkpt lat="53.33767547602603" lon="14.662635313895619"><ele>148.16666666666669</ele><time>2026-04-17T16:49:34.906Z</time></trkpt><trkpt lat="53.33759226489648" lon="14.662641870957076"><ele>148.33333333333334</ele><time>2026-04-17T16:49:35.906Z</time></trkpt><trkpt lat="53.33751968334512" lon="14.662642458549362"><ele>148.5</ele><time>2026-04-17T16:49:36.906Z</time></trkpt><trkpt lat="53.33743976092636" lon="14.66264159416725"><ele>148.66666666666666</ele><time>2026-04-17T16:49:37.906Z</time></trkpt><trkpt lat="53.337355099241044" lon="14.662651943542185"><ele>148.83333333333331</ele><time>2026-04-17T16:49:38.906Z</time></trkpt><trkpt lat="53.33726081077722" lon="14.662656629210677"><ele>149.0</ele><time>2026-04-17T16:49:39.906Z</time></trkpt><trkpt lat="53.3371652543354" lon="14.662648943244772"><ele>149.2</ele><time>2026-04-17T16:49:40.906Z</time></trkpt><trkpt lat="53.33706993273199" lon="14.66267439850527"><ele>149.4</ele><time>2026-04-17T16:49:41.906Z</time></trkpt><trkpt lat="53.33696437903075" lon="14.662735874526616"><ele>149.6</ele><time>2026-04-17T16:49:42.906Z</time></trkpt><trkpt lat="53.3368687530732" lon="14.662832712094282"><ele>149.8</ele><time>2026-04-17T16:49:43.906Z</time></trkpt><trkpt lat="53.33677782878968" lon="14.662948700757493"><ele>150.0</ele><time>2026-04-17T16:49:44.906Z</time></trkpt><trkpt lat="53.33669358035495" lon="14.663074852657784"><ele>151.0</ele><time>2026-04-17T16:49:45.906Z</time></trkpt><trkpt lat="53.336612426579826" lon="14.663226209409325"><ele>152.0</ele><time>2026-04-17T16:49:46.906Z</time></trkpt><trkpt lat="53.33651807903554" lon="14.663365504729521"><ele>153.0</ele><time>2026-04-17T16:49:47.906Z</time></trkpt><trkpt lat="53.33642532992524" lon="14.663513589586659"><ele>154.0</ele><time>2026-04-17T16:49:48.906Z</time></trkpt><trkpt lat="53.336318950101756" lon="14.66365173963969"><ele>154.0</ele><time>2026-04-17T16:49:49.906Z</time></trkpt><trkpt lat="53.33621209365092" lon="14.663774316151882"><ele>154.0</ele><time>2026-04-17T16:49:50.906Z</time></trkpt><trkpt lat="53.33611188489127" lon="14.663912499857476"><ele>154.0</ele><time>2026-04-17T16:49:51.906Z</time></trkpt><trkpt lat="53.33601662144662" lon="14.664006990690632"><ele>154.0</ele><time>2026-04-17T16:49:52.906Z</time></trkpt><trkpt lat="53.33592016033871" lon="14.66407794993019"><ele>154.0</ele><time>2026-04-17T16:49:53.906Z</time></trkpt><trkpt lat="53.33582884133131" lon="14.664118366169797"><ele>154.0</ele><time>2026-04-17T16:49:54.906Z</time></trkpt><trkpt lat="53.335727168392985" lon="14.66415783691903"><ele>154.0</ele><time>2026-04-17T16:49:55.904Z</time></trkpt><trkpt lat="53.3356386594485" lon="14.664184923782653"><ele>154.0</ele><time>2026-04-17T16:49:56.904Z</time></trkpt><trkpt lat="53.33553889826704" lon="14.664213275576882"><ele>154.0</ele><time>2026-04-17T16:49:57.904Z</time></trkpt><trkpt lat="53.33545439787142" lon="14.664260014356566"><ele>152.57142857142858</ele><time>2026-04-17T16:49:58.904Z</time></trkpt><trkpt lat="53.33538142346103" lon="14.664260085523148"><ele>151.14285714285714</ele><time>2026-04-17T16:49:59.904Z</time></trkpt><trkpt lat="53.33531917546447" lon="14.664285796294077"><ele>149.71428571428572</ele><time>2026-04-17T16:50:00.904Z</time></trkpt><trkpt lat="53.33523797377463" lon="14.664319132702568"><ele>148.28571428571428</ele><time>2026-04-17T16:50:02.903Z</time></trkpt><trkpt lat="53.33516387291486" lon="14.66431089189165"><ele>146.85714285714286</ele><time>2026-04-17T16:50:05.903Z</time></trkpt><trkpt lat="53.33509295800924" lon="14.664315583204985"><ele>145.42857142857144</ele><time>2026-04-17T16:50:09.903Z</time></trkpt><trkpt lat="53.335024829352804" lon="14.6643207360873"><ele>144.0</ele><time>2026-04-17T16:50:13.903Z</time></trkpt><trkpt lat="53.33496624887671" lon="14.664259763026992"><ele>144.0</ele><time>2026-04-17T16:50:35.903Z</time></trkpt><trkpt lat="53.33507705862635" lon="14.663990714303575"><ele>144.0</ele><time>2026-04-17T16:50:38.903Z</time></trkpt><trkpt lat="53.335104938066394" lon="14.663835215636897"><ele>144.0</ele><time>2026-04-17T16:50:39.903Z</time></trkpt><trkpt lat="53.335142915455236" lon="14.663661081983992"><ele>144.0</ele><time>2026-04-17T16:50:40.903Z</time></trkpt><trkpt lat="53.33518949449127" lon="14.663476431863632"><ele>144.75</ele><time>2026-04-17T16:50:41.903Z</time></trkpt><trkpt lat="53.33522643325303" lon="14.663281478055152"><ele>145.5</ele><time>2026-04-17T16:50:42.903Z</time></trkpt><trkpt lat="53.33525664385095" lon="14.663078728665186"><ele>146.25</ele><time>2026-04-17T16:50:43.903Z</time></trkpt><trkpt lat="53.33527530871435" lon="14.662862735440502"><ele>147.0</ele><time>2026-04-17T16:50:44.903Z</time></trkpt><trkpt lat="53.33528740972953" lon="14.662636504472557"><ele>147.25</ele><time>2026-04-17T16:50:45.903Z</time></trkpt><trkpt lat="53.33529638980064" lon="14.662412213179499"><ele>147.5</ele><time>2026-04-17T16:50:46.903Z</time></trkpt><trkpt lat="53.33531276664782" lon="14.662184208710507"><ele>147.75</ele><time>2026-04-17T16:50:47.903Z</time></trkpt><trkpt lat="53.335325897492446" lon="14.66194882203402"><ele>148.0</ele><time>2026-04-17T16:50:48.903Z</time></trkpt><trkpt lat="53.33533742788719" lon="14.661704879987688"><ele>148.33333333333334</ele><time>2026-04-17T16:50:49.903Z</time></trkpt><trkpt lat="53.33534784240184" lon="14.661456782881602"><ele>148.66666666666666</ele><time>2026-04-17T16:50:50.903Z</time></trkpt><trkpt lat="53.33535755115364" lon="14.661197718932986"><ele>149.0</ele><time>2026-04-17T16:50:51.903Z</time></trkpt><trkpt lat="53.335376818032636" lon="14.660919713389726"><ele>149.33333333333331</ele><time>2026-04-17T16:50:52.903Z</time></trkpt><trkpt lat="53.33539170510793" lon="14.660612476278983"><ele>149.66666666666666</ele><time>2026-04-17T16:50:53.903Z</time></trkpt><trkpt lat="53.33541488119421" lon="14.660298886886455"><ele>150.0</ele><time>2026-04-17T16:50:54.903Z</time></trkpt><trkpt lat="53.33542828524143" lon="14.65998659426141"><ele>150.66666666666666</ele><time>2026-04-17T16:50:55.903Z</time></trkpt><trkpt lat="53.33544338902798" lon="14.65967242030911"><ele>151.33333333333331</ele><time>2026-04-17T16:50:56.903Z</time></trkpt><trkpt lat="53.335458932438016" lon="14.659346698005555"><ele>152.0</ele><time>2026-04-17T16:50:57.903Z</time></trkpt><trkpt lat="53.33547480310953" lon="14.658993228524993"><ele>152.66666666666666</ele><time>2026-04-17T16:50:58.903Z</time></trkpt><trkpt lat="53.33547850559629" lon="14.658656986134348"><ele>153.33333333333334</ele><time>2026-04-17T16:50:59.903Z</time></trkpt><trkpt lat="53.335475137233395" lon="14.658314891577355"><ele>154.0</ele><time>2026-04-17T16:51:00.903Z</time></trkpt><trkpt lat="53.33545992939776" lon="14.657988487448812"><ele>154.33333333333334</ele><time>2026-04-17T16:51:01.903Z</time></trkpt><trkpt lat="53.335439896644964" lon="14.657682638255212"><ele>154.66666666666666</ele><time>2026-04-17T16:51:02.903Z</time></trkpt><trkpt lat="53.335415869954254" lon="14.657382823041745"><ele>155.0</ele><time>2026-04-17T16:51:03.903Z</time></trkpt><trkpt lat="53.33539160352194" lon="14.657075650548645"><ele>154.0</ele><time>2026-04-17T16:51:04.903Z</time></trkpt><trkpt lat="53.335377196148116" lon="14.656790368850178"><ele>153.0</ele><time>2026-04-17T16:51:05.903Z</time></trkpt><trkpt lat="53.335365400887234" lon="14.656510757585904"><ele>152.0</ele><time>2026-04-17T16:51:06.903Z</time></trkpt><trkpt lat="53.33535982466228" lon="14.656233084026244"><ele>151.66666666666666</ele><time>2026-04-17T16:51:07.903Z</time></trkpt><trkpt lat="53.3353560058792" lon="14.65596451176169"><ele>151.33333333333334</ele><time>2026-04-17T16:51:08.903Z</time></trkpt><trkpt lat="53.33535851811257" lon="14.655678980166371"><ele>151.0</ele><time>2026-04-17T16:51:09.903Z</time></trkpt><trkpt lat="53.33535423735146" lon="14.655378304953311"><ele>150.33333333333334</ele><time>2026-04-17T16:51:10.903Z</time></trkpt><trkpt lat="53.33535693729982" lon="14.655080992297279"><ele>149.66666666666666</ele><time>2026-04-17T16:51:11.903Z</time></trkpt><trkpt lat="53.33535714064342" lon="14.654760669834387"><ele>149.0</ele><time>2026-04-17T16:51:12.903Z</time></trkpt><trkpt lat="53.335355836118374" lon="14.654434700765314"><ele>149.0</ele><time>2026-04-17T16:51:13.903Z</time></trkpt><trkpt lat="53.33536940173139" lon="14.654106942879938"><ele>149.0</ele><time>2026-04-17T16:51:14.903Z</time></trkpt><trkpt lat="53.33536854473596" lon="14.653753952171282"><ele>149.0</ele><time>2026-04-17T16:51:15.903Z</time></trkpt><trkpt lat="53.33535426917625" lon="14.653406484181971"><ele>149.33333333333331</ele><time>2026-04-17T16:51:16.903Z</time></trkpt><trkpt lat="53.33532827139732" lon="14.653043099371867"><ele>149.66666666666666</ele><time>2026-04-17T16:51:17.902Z</time></trkpt><trkpt lat="53.33528824050854" lon="14.652681421295105"><ele>150.0</ele><time>2026-04-17T16:51:18.902Z</time></trkpt><trkpt lat="53.33523283988187" lon="14.652334325599442"><ele>150.33333333333334</ele><time>2026-04-17T16:51:19.902Z</time></trkpt><trkpt lat="53.335185818234564" lon="14.651981805648719"><ele>150.66666666666669</ele><time>2026-04-17T16:51:20.902Z</time></trkpt><trkpt lat="53.33515622009417" lon="14.65161116386192"><ele>151.0</ele><time>2026-04-17T16:51:21.902Z</time></trkpt><trkpt lat="53.33511238780845" lon="14.651245407113423"><ele>152.66666666666669</ele><time>2026-04-17T16:51:22.902Z</time></trkpt><trkpt lat="53.335068945218126" lon="14.650876814012271"><ele>154.33333333333334</ele><time>2026-04-17T16:51:23.902Z</time></trkpt><trkpt lat="53.33503065280691" lon="14.650546493727292"><ele>156.0</ele><time>2026-04-17T16:51:24.902Z</time></trkpt><trkpt lat="53.33498809938569" lon="14.65017869910561"><ele>156.33333333333334</ele><time>2026-04-17T16:51:25.902Z</time></trkpt><trkpt lat="53.334946983837106" lon="14.649812599386651"><ele>156.66666666666669</ele><time>2026-04-17T16:51:26.902Z</time></trkpt><trkpt lat="53.334889589585906" lon="14.649446918389978"><ele>157.0</ele><time>2026-04-17T16:51:27.902Z</time></trkpt><trkpt lat="53.33485359054692" lon="14.649083052354728"><ele>157.0</ele><time>2026-04-17T16:51:28.902Z</time></trkpt><trkpt lat="53.33480717065121" lon="14.648725942311572"><ele>157.0</ele><time>2026-04-17T16:51:29.902Z</time></trkpt><trkpt lat="53.33475853669853" lon="14.648399446945552"><ele>157.0</ele><time>2026-04-17T16:51:30.902Z</time></trkpt><trkpt lat="53.33471339353322" lon="14.648104895162431"><ele>157.0</ele><time>2026-04-17T16:51:31.902Z</time></trkpt><trkpt lat="53.33468793790056" lon="14.647816525896214"><ele>157.0</ele><time>2026-04-17T16:51:32.902Z</time></trkpt><trkpt lat="53.33463988717512" lon="14.647583322520111"><ele>157.0</ele><time>2026-04-17T16:51:33.902Z</time></trkpt><trkpt lat="53.33462045594422" lon="14.647393137855731"><ele>157.0</ele><time>2026-04-17T16:51:34.902Z</time></trkpt><trkpt lat="53.33461806198958" lon="14.647217046266068"><ele>156.6</ele><time>2026-04-17T16:51:35.902Z</time></trkpt><trkpt lat="53.33462101521258" lon="14.647065234633095"><ele>156.2</ele><time>2026-04-17T16:51:36.902Z</time></trkpt><trkpt lat="53.33465028340205" lon="14.646921241411075"><ele>155.8</ele><time>2026-04-17T16:51:37.902Z</time></trkpt><trkpt lat="53.33468732754289" lon="14.646770153918418"><ele>155.4</ele><time>2026-04-17T16:51:38.902Z</time></trkpt><trkpt lat="53.33473432230495" lon="14.646590093598643"><ele>155.0</ele><time>2026-04-17T16:51:39.902Z</time></trkpt><trkpt lat="53.33477829170279" lon="14.64642420640146"><ele>155.0</ele><time>2026-04-17T16:51:40.902Z</time></trkpt><trkpt lat="53.334801776546016" lon="14.646276466257627"><ele>155.0</ele><time>2026-04-17T16:51:41.902Z</time></trkpt><trkpt lat="53.3348389357596" lon="14.646138606420338"><ele>155.0</ele><time>2026-04-17T16:51:42.902Z</time></trkpt><trkpt lat="53.33488767526961" lon="14.646034338476854"><ele>155.0</ele><time>2026-04-17T16:51:43.902Z</time></trkpt><trkpt lat="53.334936380600794" lon="14.645880946943679"><ele>155.0</ele><time>2026-04-17T16:51:45.902Z</time></trkpt><trkpt lat="53.334968018761366" lon="14.645768335490384"><ele>155.0</ele><time>2026-04-17T16:51:48.902Z</time></trkpt><trkpt lat="53.33480677453041" lon="14.64563485567438"><ele>154.16666666666666</ele><time>2026-04-17T16:51:50.902Z</time></trkpt><trkpt lat="53.334739777034365" lon="14.645604338642574"><ele>153.33333333333331</ele><time>2026-04-17T16:51:51.902Z</time></trkpt><trkpt lat="53.33467607241423" lon="14.645595131079926"><ele>152.5</ele><time>2026-04-17T16:51:52.902Z</time></trkpt><trkpt lat="53.33460148087361" lon="14.645584183362613"><ele>151.66666666666666</ele><time>2026-04-17T16:51:53.902Z</time></trkpt><trkpt lat="53.33451866798929" lon="14.645572161624598"><ele>150.83333333333334</ele><time>2026-04-17T16:51:54.902Z</time></trkpt><trkpt lat="53.334416656239036" lon="14.645557620767159"><ele>150.0</ele><time>2026-04-17T16:51:55.902Z</time></trkpt><trkpt lat="53.334290481866375" lon="14.645540857667376"><ele>149.33333333333334</ele><time>2026-04-17T16:51:56.902Z</time></trkpt><trkpt lat="53.33415054985064" lon="14.645552538588724"><ele>148.66666666666669</ele><time>2026-04-17T16:51:57.902Z</time></trkpt><trkpt lat="53.334004996458326" lon="14.64552233429022"><ele>148.0</ele><time>2026-04-17T16:51:58.902Z</time></trkpt><trkpt lat="53.333841080959566" lon="14.645477959601967"><ele>146.33333333333334</ele><time>2026-04-17T16:51:59.902Z</time></trkpt><trkpt lat="53.33367297597625" lon="14.645435642985738"><ele>144.66666666666666</ele><time>2026-04-17T16:52:00.902Z</time></trkpt><trkpt lat="53.333507984935764" lon="14.645383598094439"><ele>143.0</ele><time>2026-04-17T16:52:01.901Z</time></trkpt><trkpt lat="53.333366000220174" lon="14.645321450490883"><ele>142.75</ele><time>2026-04-17T16:52:02.901Z</time></trkpt><trkpt lat="53.33323698013005" lon="14.645238407876764"><ele>142.5</ele><time>2026-04-17T16:52:03.901Z</time></trkpt><trkpt lat="53.333106637901565" lon="14.64513690021773"><ele>142.25</ele><time>2026-04-17T16:52:04.901Z</time></trkpt><trkpt lat="53.332961886133624" lon="14.645058558722369"><ele>142.0</ele><time>2026-04-17T16:52:05.901Z</time></trkpt><trkpt lat="53.33280877308658" lon="14.64499036111064"><ele>140.0</ele><time>2026-04-17T16:52:06.901Z</time></trkpt><trkpt lat="53.33264851731818" lon="14.644949851754697"><ele>138.0</ele><time>2026-04-17T16:52:07.901Z</time></trkpt><trkpt lat="53.33250077379845" lon="14.644900085784322"><ele>136.0</ele><time>2026-04-17T16:52:08.901Z</time></trkpt><trkpt lat="53.33236189523306" lon="14.644851983430572"><ele>133.33333333333334</ele><time>2026-04-17T16:52:09.901Z</time></trkpt><trkpt lat="53.33221120579975" lon="14.644840375003543"><ele>130.66666666666666</ele><time>2026-04-17T16:52:10.901Z</time></trkpt><trkpt lat="53.332057595793046" lon="14.644855034541457"><ele>128.0</ele><time>2026-04-17T16:52:11.9Z</time></trkpt><trkpt lat="53.331879274447346" lon="14.644877158088399"><ele>128.0</ele><time>2026-04-17T16:52:12.9Z</time></trkpt><trkpt lat="53.33169088991687" lon="14.644904592855514"><ele>128.0</ele><time>2026-04-17T16:52:13.901Z</time></trkpt><trkpt lat="53.3315256984479" lon="14.64492892037508"><ele>128.0</ele><time>2026-04-17T16:52:14.9Z</time></trkpt><trkpt lat="53.33135884413159" lon="14.64495322301064"><ele>126.66666666666666</ele><time>2026-04-17T16:52:15.9Z</time></trkpt><trkpt lat="53.33118676827123" lon="14.644978018795477"><ele>125.33333333333334</ele><time>2026-04-17T16:52:16.9Z</time></trkpt><trkpt lat="53.33101843593232" lon="14.645001941754225"><ele>124.0</ele><time>2026-04-17T16:52:17.9Z</time></trkpt><trkpt lat="53.33084347775795" lon="14.645030089787422"><ele>124.0</ele><time>2026-04-17T16:52:18.9Z</time></trkpt><trkpt lat="53.330683608618784" lon="14.645059481188001"><ele>124.0</ele><time>2026-04-17T16:52:19.9Z</time></trkpt><trkpt lat="53.33051763196698" lon="14.645079102994956"><ele>124.0</ele><time>2026-04-17T16:52:20.9Z</time></trkpt><trkpt lat="53.3303662691931" lon="14.645084230030443"><ele>122.33333333333334</ele><time>2026-04-17T16:52:21.9Z</time></trkpt><trkpt lat="53.33019759255677" lon="14.64506784804955"><ele>120.66666666666666</ele><time>2026-04-17T16:52:22.9Z</time></trkpt><trkpt lat="53.3300228843917" lon="14.64501228188789"><ele>119.0</ele><time>2026-04-17T16:52:23.9Z</time></trkpt><trkpt lat="53.32984582112661" lon="14.64492244037675"><ele>119.0</ele><time>2026-04-17T16:52:24.9Z</time></trkpt><trkpt lat="53.32968355808873" lon="14.644865496820495"><ele>119.0</ele><time>2026-04-17T16:52:25.9Z</time></trkpt><trkpt lat="53.329522296465356" lon="14.644827077726719"><ele>119.0</ele><time>2026-04-17T16:52:26.9Z</time></trkpt><trkpt lat="53.329383912424206" lon="14.644826434199024"><ele>119.0</ele><time>2026-04-17T16:52:27.9Z</time></trkpt><trkpt lat="53.32924183561084" lon="14.644874572562044"><ele>119.0</ele><time>2026-04-17T16:52:28.9Z</time></trkpt><trkpt lat="53.32912612546194" lon="14.64499437310635"><ele>119.0</ele><time>2026-04-17T16:52:29.9Z</time></trkpt><trkpt lat="53.329003258555865" lon="14.645116648356364"><ele>119.0</ele><time>2026-04-17T16:52:30.9Z</time></trkpt><trkpt lat="53.328909509956794" lon="14.645274030532699"><ele>118.0</ele><time>2026-04-17T16:52:31.9Z</time></trkpt><trkpt lat="53.32880355527068" lon="14.645439698386006"><ele>117.0</ele><time>2026-04-17T16:52:32.9Z</time></trkpt><trkpt lat="53.32869944817313" lon="14.64559528977579"><ele>116.0</ele><time>2026-04-17T16:52:33.9Z</time></trkpt><trkpt lat="53.32857718004058" lon="14.645708079721262"><ele>115.0</ele><time>2026-04-17T16:52:34.9Z</time></trkpt><trkpt lat="53.328458121927085" lon="14.645808806692889"><ele>115.0</ele><time>2026-04-17T16:52:35.9Z</time></trkpt><trkpt lat="53.328323601710544" lon="14.645848733670332"><ele>115.0</ele><time>2026-04-17T16:52:36.9Z</time></trkpt><trkpt lat="53.328176727416334" lon="14.645833319607693"><ele>115.0</ele><time>2026-04-17T16:52:37.9Z</time></trkpt><trkpt lat="53.32804114595211" lon="14.645901494511698"><ele>115.0</ele><time>2026-04-17T16:52:38.9Z</time></trkpt><trkpt lat="53.32792696114749" lon="14.645998015566471"><ele>114.5</ele><time>2026-04-17T16:52:39.9Z</time></trkpt><trkpt lat="53.32779467728058" lon="14.64610746124689"><ele>114.0</ele><time>2026-04-17T16:52:40.9Z</time></trkpt><trkpt lat="53.32766870843274" lon="14.646238671700164"><ele>113.5</ele><time>2026-04-17T16:52:41.9Z</time></trkpt><trkpt lat="53.32754588467389" lon="14.646371247949148"><ele>113.0</ele><time>2026-04-17T16:52:42.9Z</time></trkpt><trkpt lat="53.32743299123947" lon="14.646491666872096"><ele>112.75</ele><time>2026-04-17T16:52:43.9Z</time></trkpt><trkpt lat="53.327314264557835" lon="14.646576218597895"><ele>112.5</ele><time>2026-04-17T16:52:44.9Z</time></trkpt><trkpt lat="53.32719235643614" lon="14.646599172004585"><ele>112.25</ele><time>2026-04-17T16:52:45.9Z</time></trkpt><trkpt lat="53.32707289461641" lon="14.646571921325949"><ele>112.0</ele><time>2026-04-17T16:52:46.9Z</time></trkpt><trkpt lat="53.32694879994808" lon="14.646494408250614"><ele>112.0</ele><time>2026-04-17T16:52:47.9Z</time></trkpt><trkpt lat="53.32683185626033" lon="14.646411896070594"><ele>112.0</ele><time>2026-04-17T16:52:48.9Z</time></trkpt><trkpt lat="53.326720700911764" lon="14.64631581642323"><ele>112.0</ele><time>2026-04-17T16:52:49.9Z</time></trkpt><trkpt lat="53.326613418339754" lon="14.646221114804028"><ele>112.0</ele><time>2026-04-17T16:52:50.9Z</time></trkpt><trkpt lat="53.32650975850872" lon="14.646129145043584"><ele>112.0</ele><time>2026-04-17T16:52:51.9Z</time></trkpt><trkpt lat="53.32641119612103" lon="14.64604338373076"><ele>112.0</ele><time>2026-04-17T16:52:52.9Z</time></trkpt><trkpt lat="53.32630429165299" lon="14.645973343901991"><ele>112.0</ele><time>2026-04-17T16:52:53.9Z</time></trkpt><trkpt lat="53.32619065525796" lon="14.645916684896624"><ele>112.0</ele><time>2026-04-17T16:52:54.9Z</time></trkpt><trkpt lat="53.32605405843274" lon="14.64586894198722"><ele>110.25</ele><time>2026-04-17T16:52:55.9Z</time></trkpt><trkpt lat="53.325915993635796" lon="14.64583907006745"><ele>108.5</ele><time>2026-04-17T16:52:56.9Z</time></trkpt><trkpt lat="53.32578121680059" lon="14.645851931199115"><ele>106.75</ele><time>2026-04-17T16:52:57.9Z</time></trkpt><trkpt lat="53.325643697882825" lon="14.645844508272958"><ele>105.0</ele><time>2026-04-17T16:52:58.9Z</time></trkpt><trkpt lat="53.325514616404405" lon="14.645879492681395"><ele>103.2</ele><time>2026-04-17T16:52:59.9Z</time></trkpt><trkpt lat="53.32541053882697" lon="14.645949127203691"><ele>101.4</ele><time>2026-04-17T16:53:00.9Z</time></trkpt><trkpt lat="53.32529712442481" lon="14.645954382417424"><ele>99.6</ele><time>2026-04-17T16:53:01.9Z</time></trkpt><trkpt lat="53.32519483151636" lon="14.645969589784219"><ele>97.8</ele><time>2026-04-17T16:53:02.9Z</time></trkpt><trkpt lat="53.325097592292515" lon="14.645971196580337"><ele>96.0</ele><time>2026-04-17T16:53:03.9Z</time></trkpt><trkpt lat="53.325003564956965" lon="14.645957312827335"><ele>96.0</ele><time>2026-04-17T16:53:04.9Z</time></trkpt><trkpt lat="53.324898995563466" lon="14.64593681198485"><ele>96.0</ele><time>2026-04-17T16:53:05.9Z</time></trkpt><trkpt lat="53.324794902038924" lon="14.645943325680651"><ele>96.0</ele><time>2026-04-17T16:53:06.9Z</time></trkpt><trkpt lat="53.324706093822044" lon="14.645926763264425"><ele>96.0</ele><time>2026-04-17T16:53:07.9Z</time></trkpt><trkpt lat="53.32461943234901" lon="14.64592189134466"><ele>96.0</ele><time>2026-04-17T16:53:08.9Z</time></trkpt><trkpt lat="53.324527859840195" lon="14.645928845062645"><ele>93.6</ele><time>2026-04-17T16:53:09.9Z</time></trkpt><trkpt lat="53.32444181663222" lon="14.645913404823327"><ele>91.19999999999999</ele><time>2026-04-17T16:53:10.9Z</time></trkpt><trkpt lat="53.32434494100664" lon="14.645942230157752"><ele>88.80000000000001</ele><time>2026-04-17T16:53:11.9Z</time></trkpt><trkpt lat="53.32425890489249" lon="14.64598212974047"><ele>86.4</ele><time>2026-04-17T16:53:12.9Z</time></trkpt><trkpt lat="53.32416850806672" lon="14.646058219136604"><ele>84.0</ele><time>2026-04-17T16:53:13.9Z</time></trkpt><trkpt lat="53.32408985065999" lon="14.646078905398845"><ele>84.0</ele><time>2026-04-17T16:53:14.9Z</time></trkpt><trkpt lat="53.32402585799885" lon="14.646121210483388"><ele>84.0</ele><time>2026-04-17T16:53:15.9Z</time></trkpt><trkpt lat="53.323956546532905" lon="14.646166166977487"><ele>84.0</ele><time>2026-04-17T16:53:17.9Z</time></trkpt><trkpt lat="53.32392275883052" lon="14.645945044240554"><ele>84.0</ele><time>2026-04-17T16:53:23.9Z</time></trkpt><trkpt lat="53.32395400206109" lon="14.645834919334298"><ele>84.0</ele><time>2026-04-17T16:53:24.9Z</time></trkpt><trkpt lat="53.323995398105644" lon="14.645690620034646"><ele>84.0</ele><time>2026-04-17T16:53:25.9Z</time></trkpt><trkpt lat="53.32403704130113" lon="14.645524507486321"><ele>84.0</ele><time>2026-04-17T16:53:26.9Z</time></trkpt><trkpt lat="53.32407053627571" lon="14.645347167538773"><ele>84.0</ele><time>2026-04-17T16:53:27.9Z</time></trkpt><trkpt lat="53.32408449883876" lon="14.645145441368284"><ele>84.0</ele><time>2026-04-17T16:53:28.9Z</time></trkpt><trkpt lat="53.32406768425685" lon="14.644949661427445"><ele>84.0</ele><time>2026-04-17T16:53:29.9Z</time></trkpt><trkpt lat="53.32404431422452" lon="14.64476185422714"><ele>83.0</ele><time>2026-04-17T16:53:30.9Z</time></trkpt><trkpt lat="53.32402758486367" lon="14.644570607360842"><ele>82.0</ele><time>2026-04-17T16:53:31.9Z</time></trkpt><trkpt lat="53.32399699986274" lon="14.644361370966623"><ele>81.0</ele><time>2026-04-17T16:53:32.9Z</time></trkpt><trkpt lat="53.3239790816295" lon="14.644169517651825"><ele>80.0</ele><time>2026-04-17T16:53:33.9Z</time></trkpt><trkpt lat="53.32396052217166" lon="14.643995366999008"><ele>79.83333333333334</ele><time>2026-04-17T16:53:34.9Z</time></trkpt><trkpt lat="53.323963164080716" lon="14.643849278513416"><ele>79.66666666666667</ele><time>2026-04-17T16:53:35.9Z</time></trkpt><trkpt lat="53.32394288466894" lon="14.643729287858129"><ele>79.5</ele><time>2026-04-17T16:53:36.9Z</time></trkpt><trkpt lat="53.32394308349873" lon="14.643613550879953"><ele>79.33333333333333</ele><time>2026-04-17T16:53:37.9Z</time></trkpt><trkpt lat="53.32394413090038" lon="14.643469410467777"><ele>79.16666666666666</ele><time>2026-04-17T16:53:38.9Z</time></trkpt><trkpt lat="53.323965850790366" lon="14.643308253179374"><ele>79.0</ele><time>2026-04-17T16:53:39.9Z</time></trkpt><trkpt lat="53.324010206689856" lon="14.6431463672337"><ele>79.0</ele><time>2026-04-17T16:53:40.9Z</time></trkpt><trkpt lat="53.324045850649725" lon="14.642957125835338"><ele>79.0</ele><time>2026-04-17T16:53:41.9Z</time></trkpt><trkpt lat="53.324072869066114" lon="14.64271730583165"><ele>79.0</ele><time>2026-04-17T16:53:42.9Z</time></trkpt><trkpt lat="53.324132129950804" lon="14.642502635055648"><ele>79.0</ele><time>2026-04-17T16:53:43.9Z</time></trkpt><trkpt lat="53.324183389199185" lon="14.642286178330755"><ele>78.4</ele><time>2026-04-17T16:53:44.9Z</time></trkpt><trkpt lat="53.32421238241646" lon="14.642085780756172"><ele>77.80000000000001</ele><time>2026-04-17T16:53:45.9Z</time></trkpt><trkpt lat="53.32424789627041" lon="14.64190850468851"><ele>77.19999999999999</ele><time>2026-04-17T16:53:46.9Z</time></trkpt><trkpt lat="53.32426525566656" lon="14.641734210910272"><ele>76.6</ele><time>2026-04-17T16:53:47.9Z</time></trkpt><trkpt lat="53.32428565285441" lon="14.64161540883165"><ele>76.0</ele><time>2026-04-17T16:53:48.9Z</time></trkpt><trkpt lat="53.32431233555777" lon="14.641470258510743"><ele>75.5</ele><time>2026-04-17T16:53:49.9Z</time></trkpt><trkpt lat="53.32434203993854" lon="14.641348406015481"><ele>75.0</ele><time>2026-04-17T16:53:50.9Z</time></trkpt><trkpt lat="53.32437561669453" lon="14.641218113566058"><ele>74.5</ele><time>2026-04-17T16:53:51.9Z</time></trkpt><trkpt lat="53.324425251548995" lon="14.641105596278383"><ele>74.0</ele><time>2026-04-17T16:53:52.9Z</time></trkpt><trkpt lat="53.32447125249335" lon="14.64098033070715"><ele>73.5</ele><time>2026-04-17T16:53:53.9Z</time></trkpt><trkpt lat="53.32451787225733" lon="14.64085224092245"><ele>73.0</ele><time>2026-04-17T16:53:54.9Z</time></trkpt><trkpt lat="53.324551023350544" lon="14.640712094678264"><ele>72.33333333333333</ele><time>2026-04-17T16:53:55.9Z</time></trkpt><trkpt lat="53.324616433371936" lon="14.640571970965794"><ele>71.66666666666666</ele><time>2026-04-17T16:53:56.9Z</time></trkpt><trkpt lat="53.32465136508379" lon="14.640416180408433"><ele>71.0</ele><time>2026-04-17T16:53:57.9Z</time></trkpt><trkpt lat="53.3246920226215" lon="14.640291789286872"><ele>70.33333333333333</ele><time>2026-04-17T16:53:58.9Z</time></trkpt><trkpt lat="53.324730356315605" lon="14.64017561207554"><ele>69.66666666666667</ele><time>2026-04-17T16:53:59.9Z</time></trkpt><trkpt lat="53.3247455675805" lon="14.640067448581208"><ele>69.0</ele><time>2026-04-17T16:54:00.9Z</time></trkpt><trkpt lat="53.32478226961036" lon="14.63987439326358"><ele>69.57142857142857</ele><time>2026-04-17T16:54:02.9Z</time></trkpt><trkpt lat="53.324819854847235" lon="14.639779843715116"><ele>70.14285714285715</ele><time>2026-04-17T16:54:03.9Z</time></trkpt><trkpt lat="53.32484230861212" lon="14.639674785361857"><ele>70.71428571428572</ele><time>2026-04-17T16:54:04.9Z</time></trkpt><trkpt lat="53.32485638009486" lon="14.639556541585234"><ele>71.28571428571429</ele><time>2026-04-17T16:54:05.9Z</time></trkpt><trkpt lat="53.324886729813485" lon="14.639419640669432"><ele>71.85714285714286</ele><time>2026-04-17T16:54:06.898Z</time></trkpt><trkpt lat="53.324906557541176" lon="14.639310320417112"><ele>72.42857142857143</ele><time>2026-04-17T16:54:07.898Z</time></trkpt><trkpt lat="53.32494478465796" lon="14.639187932414234"><ele>73.0</ele><time>2026-04-17T16:54:08.898Z</time></trkpt><trkpt lat="53.324975711210946" lon="14.639070387274773"><ele>73.0</ele><time>2026-04-17T16:54:09.898Z</time></trkpt><trkpt lat="53.32502686138339" lon="14.638959606261544"><ele>73.0</ele><time>2026-04-17T16:54:10.899Z</time></trkpt><trkpt lat="53.32506168791524" lon="14.638845684287022"><ele>73.0</ele><time>2026-04-17T16:54:11.899Z</time></trkpt><trkpt lat="53.32509722562618" lon="14.638729465549549"><ele>73.0</ele><time>2026-04-17T16:54:12.898Z</time></trkpt><trkpt lat="53.325118213941224" lon="14.638599439284993"><ele>73.0</ele><time>2026-04-17T16:54:13.898Z</time></trkpt><trkpt lat="53.32516873518179" lon="14.638486739405424"><ele>73.0</ele><time>2026-04-17T16:54:14.898Z</time></trkpt><trkpt lat="53.32520210373275" lon="14.638372967354343"><ele>71.83333333333333</ele><time>2026-04-17T16:54:15.898Z</time></trkpt><trkpt lat="53.32523391053138" lon="14.638264519206805"><ele>70.66666666666666</ele><time>2026-04-17T16:54:16.898Z</time></trkpt><trkpt lat="53.325275425717294" lon="14.638076084752301"><ele>69.5</ele><time>2026-04-17T16:54:18.898Z</time></trkpt><trkpt lat="53.32530531838328" lon="14.637976489207619"><ele>68.33333333333333</ele><time>2026-04-17T16:54:19.898Z</time></trkpt><trkpt lat="53.325347187943535" lon="14.637875746795618"><ele>67.16666666666667</ele><time>2026-04-17T16:54:20.898Z</time></trkpt><trkpt lat="53.32536577881547" lon="14.637747633000945"><ele>66.0</ele><time>2026-04-17T16:54:21.898Z</time></trkpt><trkpt lat="53.325398349329475" lon="14.637623666724934"><ele>65.33333333333333</ele><time>2026-04-17T16:54:22.898Z</time></trkpt><trkpt lat="53.325433790804766" lon="14.637501613862682"><ele>64.66666666666667</ele><time>2026-04-17T16:54:23.897Z</time></trkpt><trkpt lat="53.32546177167467" lon="14.637387372305927"><ele>64.0</ele><time>2026-04-17T16:54:24.897Z</time></trkpt><trkpt lat="53.32550326387367" lon="14.637271616202094"><ele>63.333333333333336</ele><time>2026-04-17T16:54:25.897Z</time></trkpt><trkpt lat="53.325531050610074" lon="14.637134564318304"><ele>62.66666666666667</ele><time>2026-04-17T16:54:26.897Z</time></trkpt><trkpt lat="53.325537007463815" lon="14.636982569853693"><ele>62.0</ele><time>2026-04-17T16:54:27.897Z</time></trkpt><trkpt lat="53.325518187216446" lon="14.636837943865347"><ele>62.0</ele><time>2026-04-17T16:54:28.897Z</time></trkpt><trkpt lat="53.32548778991231" lon="14.636718073513723"><ele>62.00000000000001</ele><time>2026-04-17T16:54:29.897Z</time></trkpt><trkpt lat="53.32545534385418" lon="14.636614726744092"><ele>62.0</ele><time>2026-04-17T16:54:30.897Z</time></trkpt><trkpt lat="53.32541416350507" lon="14.636497833332228"><ele>62.0</ele><time>2026-04-17T16:54:31.897Z</time></trkpt><trkpt lat="53.32537246868907" lon="14.636391239162535"><ele>62.00000000000001</ele><time>2026-04-17T16:54:32.897Z</time></trkpt><trkpt lat="53.32533231867269" lon="14.63629047073715"><ele>62.0</ele><time>2026-04-17T16:54:33.897Z</time></trkpt><trkpt lat="53.32529530907284" lon="14.636197576678303"><ele>62.0</ele><time>2026-04-17T16:54:34.897Z</time></trkpt><trkpt lat="53.325253780991495" lon="14.636101437297135"><ele>62.8</ele><time>2026-04-17T16:54:35.897Z</time></trkpt><trkpt lat="53.325207919451174" lon="14.636001088401844"><ele>63.6</ele><time>2026-04-17T16:54:36.897Z</time></trkpt><trkpt lat="53.32512402417118" lon="14.635825920356606"><ele>64.39999999999999</ele><time>2026-04-17T16:54:38.897Z</time></trkpt><trkpt lat="53.325057618083015" lon="14.635688109877542"><ele>65.2</ele><time>2026-04-17T16:54:40.897Z</time></trkpt><trkpt lat="53.32498880783269" lon="14.635539511191947"><ele>66.0</ele><time>2026-04-17T16:54:42.897Z</time></trkpt><trkpt lat="53.324904400165" lon="14.635348318693266"><ele>66.6</ele><time>2026-04-17T16:54:44.897Z</time></trkpt><trkpt lat="53.324819259513305" lon="14.635151333677394"><ele>67.19999999999999</ele><time>2026-04-17T16:54:46.897Z</time></trkpt><trkpt lat="53.324769765443975" lon="14.635032852619211"><ele>67.80000000000001</ele><time>2026-04-17T16:54:47.897Z</time></trkpt><trkpt lat="53.32471737237206" lon="14.634909000771549"><ele>68.4</ele><time>2026-04-17T16:54:48.897Z</time></trkpt><trkpt lat="53.32466393286928" lon="14.634780698280009"><ele>69.0</ele><time>2026-04-17T16:54:49.897Z</time></trkpt><trkpt lat="53.32461153321158" lon="14.634652897363669"><ele>67.16666666666667</ele><time>2026-04-17T16:54:50.897Z</time></trkpt><trkpt lat="53.32455599469329" lon="14.634514675924404"><ele>65.33333333333333</ele><time>2026-04-17T16:54:51.897Z</time></trkpt><trkpt lat="53.32450592353135" lon="14.634389879674355"><ele>63.5</ele><time>2026-04-17T16:54:52.897Z</time></trkpt><trkpt lat="53.32446005726036" lon="14.634275296771223"><ele>61.666666666666664</ele><time>2026-04-17T16:54:53.897Z</time></trkpt><trkpt lat="53.32441450733141" lon="14.63415416266964"><ele>59.83333333333333</ele><time>2026-04-17T16:54:54.897Z</time></trkpt><trkpt lat="53.32437026693743" lon="14.634033071282303"><ele>58.0</ele><time>2026-04-17T16:54:55.897Z</time></trkpt><trkpt lat="53.324328610995906" lon="14.633922469209672"><ele>57.99999999999999</ele><time>2026-04-17T16:54:56.897Z</time></trkpt><trkpt lat="53.32427223960896" lon="14.633800749414437"><ele>58.0</ele><time>2026-04-17T16:54:57.897Z</time></trkpt><trkpt lat="53.324211298449406" lon="14.633709031625717"><ele>58.0</ele><time>2026-04-17T16:54:58.897Z</time></trkpt><trkpt lat="53.32414093224308" lon="14.633619906428821"><ele>58.0</ele><time>2026-04-17T16:54:59.897Z</time></trkpt><trkpt lat="53.324055939601564" lon="14.633557652046756"><ele>57.99999999999999</ele><time>2026-04-17T16:55:00.897Z</time></trkpt><trkpt lat="53.32398744677861" lon="14.633474077342209"><ele>58.0</ele><time>2026-04-17T16:55:01.897Z</time></trkpt><trkpt lat="53.32392523634155" lon="14.6333703741333"><ele>57.599999999999994</ele><time>2026-04-17T16:55:02.897Z</time></trkpt><trkpt lat="53.323836858223075" lon="14.633258582852982"><ele>57.199999999999996</ele><time>2026-04-17T16:55:03.897Z</time></trkpt><trkpt lat="53.323775532126106" lon="14.633181009687377"><ele>56.8</ele><time>2026-04-17T16:55:04.897Z</time></trkpt><trkpt lat="53.32371022453694" lon="14.633098400392523"><ele>56.4</ele><time>2026-04-17T16:55:05.897Z</time></trkpt><trkpt lat="53.323636238155125" lon="14.63300578645742"><ele>56.0</ele><time>2026-04-17T16:55:06.897Z</time></trkpt><trkpt lat="53.323560646845415" lon="14.632915891141453"><ele>56.0</ele><time>2026-04-17T16:55:07.897Z</time></trkpt><trkpt lat="53.32348695175651" lon="14.632858966010891"><ele>56.0</ele><time>2026-04-17T16:55:08.897Z</time></trkpt><trkpt lat="53.32343660711446" lon="14.632776123710412"><ele>56.0</ele><time>2026-04-17T16:55:09.897Z</time></trkpt><trkpt lat="53.32339077509208" lon="14.632678749134387"><ele>56.0</ele><time>2026-04-17T16:55:10.897Z</time></trkpt><trkpt lat="53.32335879250395" lon="14.632564775504553"><ele>56.0</ele><time>2026-04-17T16:55:11.897Z</time></trkpt><trkpt lat="53.32334489339798" lon="14.63243652866755"><ele>56.0</ele><time>2026-04-17T16:55:12.897Z</time></trkpt><trkpt lat="53.32333985458664" lon="14.632320635665758"><ele>56.0</ele><time>2026-04-17T16:55:13.897Z</time></trkpt><trkpt lat="53.323340461616944" lon="14.632210015224041"><ele>56.00000000000001</ele><time>2026-04-17T16:55:14.897Z</time></trkpt><trkpt lat="53.32335820403124" lon="14.632108567624819"><ele>56.0</ele><time>2026-04-17T16:55:15.897Z</time></trkpt><trkpt lat="53.32337472906894" lon="14.631989799411246"><ele>56.0</ele><time>2026-04-17T16:55:16.897Z</time></trkpt><trkpt lat="53.323393581687704" lon="14.631876427465759"><ele>56.0</ele><time>2026-04-17T16:55:17.897Z</time></trkpt><trkpt lat="53.32341296966416" lon="14.631751926344268"><ele>56.00000000000001</ele><time>2026-04-17T16:55:18.897Z</time></trkpt><trkpt lat="53.323438074403704" lon="14.631606270981573"><ele>56.0</ele><time>2026-04-17T16:55:19.897Z</time></trkpt><trkpt lat="53.3234563184228" lon="14.631433767241884"><ele>56.0</ele><time>2026-04-17T16:55:20.897Z</time></trkpt><trkpt lat="53.323476412811864" lon="14.631280386855606"><ele>55.99999999999999</ele><time>2026-04-17T16:55:21.897Z</time></trkpt><trkpt lat="53.323505982121276" lon="14.63111756805527"><ele>55.99999999999999</ele><time>2026-04-17T16:55:22.897Z</time></trkpt><trkpt lat="53.323529148950634" lon="14.630961286730935"><ele>56.0</ele><time>2026-04-17T16:55:23.897Z</time></trkpt><trkpt lat="53.32353015103559" lon="14.63080154169943"><ele>56.0</ele><time>2026-04-17T16:55:24.897Z</time></trkpt><trkpt lat="53.323538679219624" lon="14.630660645962799"><ele>56.0</ele><time>2026-04-17T16:55:25.897Z</time></trkpt><trkpt lat="53.323528343400746" lon="14.630533260302903"><ele>55.99999999999999</ele><time>2026-04-17T16:55:26.897Z</time></trkpt><trkpt lat="53.32351375422755" lon="14.630394626598934"><ele>55.99999999999999</ele><time>2026-04-17T16:55:27.897Z</time></trkpt><trkpt lat="53.323484588570444" lon="14.630228017521556"><ele>56.0</ele><time>2026-04-17T16:55:28.897Z</time></trkpt><trkpt lat="53.323466750811704" lon="14.630047100592737"><ele>56.0</ele><time>2026-04-17T16:55:29.897Z</time></trkpt><trkpt lat="53.32343026421029" lon="14.62982498134313"><ele>56.0</ele><time>2026-04-17T16:55:30.897Z</time></trkpt><trkpt lat="53.32337554314823" lon="14.629600704142755"><ele>56.0</ele><time>2026-04-17T16:55:31.897Z</time></trkpt><trkpt lat="53.32332797696834" lon="14.629404946650592"><ele>56.0</ele><time>2026-04-17T16:55:32.897Z</time></trkpt><trkpt lat="53.323287019620565" lon="14.62922887066672"><ele>56.0</ele><time>2026-04-17T16:55:33.897Z</time></trkpt><trkpt lat="53.3232460900158" lon="14.629096856618531"><ele>56.599999999999994</ele><time>2026-04-17T16:55:34.897Z</time></trkpt><trkpt lat="53.32320394427423" lon="14.628983855321348"><ele>57.199999999999996</ele><time>2026-04-17T16:55:35.897Z</time></trkpt><trkpt lat="53.323142718392766" lon="14.628862016092818"><ele>57.800000000000004</ele><time>2026-04-17T16:55:37.897Z</time></trkpt><trkpt lat="53.32320446028235" lon="14.628697020548769"><ele>58.400000000000006</ele><time>2026-04-17T16:55:39.897Z</time></trkpt><trkpt lat="53.32328209487516" lon="14.628565652443648"><ele>59.0</ele><time>2026-04-17T16:55:41.897Z</time></trkpt><trkpt lat="53.323336947802055" lon="14.62845843492901"><ele>59.5</ele><time>2026-04-17T16:55:42.897Z</time></trkpt><trkpt lat="53.32341618239999" lon="14.628311543103187"><ele>60.0</ele><time>2026-04-17T16:55:43.897Z</time></trkpt><trkpt lat="53.32350802971559" lon="14.628149096550446"><ele>60.5</ele><time>2026-04-17T16:55:44.897Z</time></trkpt><trkpt lat="53.32361459443477" lon="14.627968523235413"><ele>61.0</ele><time>2026-04-17T16:55:45.897Z</time></trkpt><trkpt lat="53.32372457352285" lon="14.627789724481438"><ele>61.25</ele><time>2026-04-17T16:55:46.897Z</time></trkpt><trkpt lat="53.323828068660184" lon="14.627607095986411"><ele>61.5</ele><time>2026-04-17T16:55:47.897Z</time></trkpt><trkpt lat="53.32392594746957" lon="14.627471098722111"><ele>61.75</ele><time>2026-04-17T16:55:48.897Z</time></trkpt><trkpt lat="53.323998088811386" lon="14.627339064632098"><ele>62.0</ele><time>2026-04-17T16:55:49.897Z</time></trkpt><trkpt lat="53.324094190497135" lon="14.627241157814762"><ele>62.75</ele><time>2026-04-17T16:55:50.897Z</time></trkpt><trkpt lat="53.324180910121186" lon="14.627127682521866"><ele>63.5</ele><time>2026-04-17T16:55:51.897Z</time></trkpt><trkpt lat="53.32426351404056" lon="14.626989597719131"><ele>64.25</ele><time>2026-04-17T16:55:52.897Z</time></trkpt><trkpt lat="53.32435909785892" lon="14.626870452469849"><ele>65.0</ele><time>2026-04-17T16:55:53.897Z</time></trkpt><trkpt lat="53.32446670636412" lon="14.626774228402676"><ele>65.0</ele><time>2026-04-17T16:55:54.897Z</time></trkpt><trkpt lat="53.32454919389891" lon="14.626648418235956"><ele>65.0</ele><time>2026-04-17T16:55:55.897Z</time></trkpt><trkpt lat="53.32465557071481" lon="14.626520221479355"><ele>65.0</ele><time>2026-04-17T16:55:56.897Z</time></trkpt><trkpt lat="53.32477107620499" lon="14.626415875917479"><ele>65.0</ele><time>2026-04-17T16:55:57.897Z</time></trkpt><trkpt lat="53.32485884007069" lon="14.626279827168787"><ele>65.0</ele><time>2026-04-17T16:55:58.897Z</time></trkpt><trkpt lat="53.32495890043004" lon="14.626160974672926"><ele>65.0</ele><time>2026-04-17T16:55:59.897Z</time></trkpt><trkpt lat="53.32507392028006" lon="14.626041972377497"><ele>65.0</ele><time>2026-04-17T16:56:00.897Z</time></trkpt><trkpt lat="53.325180139944514" lon="14.625917032829333"><ele>65.0</ele><time>2026-04-17T16:56:01.897Z</time></trkpt><trkpt lat="53.325265736049914" lon="14.625777854476334"><ele>64.8</ele><time>2026-04-17T16:56:02.897Z</time></trkpt><trkpt lat="53.32533692447173" lon="14.625657700776411"><ele>64.6</ele><time>2026-04-17T16:56:03.897Z</time></trkpt><trkpt lat="53.325399489963566" lon="14.625517634704595"><ele>64.4</ele><time>2026-04-17T16:56:04.897Z</time></trkpt><trkpt lat="53.32545918962373" lon="14.625395505157863"><ele>64.2</ele><time>2026-04-17T16:56:05.897Z</time></trkpt><trkpt lat="53.325521497942674" lon="14.625282350325572"><ele>64.0</ele><time>2026-04-17T16:56:06.897Z</time></trkpt><trkpt lat="53.32559259667645" lon="14.625146786533014"><ele>64.0</ele><time>2026-04-17T16:56:07.897Z</time></trkpt><trkpt lat="53.325669784018814" lon="14.625017268842146"><ele>64.0</ele><time>2026-04-17T16:56:08.897Z</time></trkpt><trkpt lat="53.32571551243996" lon="14.624880434496585"><ele>64.0</ele><time>2026-04-17T16:56:09.897Z</time></trkpt><trkpt lat="53.3257723535248" lon="14.624767109769635"><ele>64.0</ele><time>2026-04-17T16:56:10.897Z</time></trkpt><trkpt lat="53.325823377159885" lon="14.624647748529274"><ele>64.0</ele><time>2026-04-17T16:56:11.897Z</time></trkpt><trkpt lat="53.32586961511337" lon="14.624529641549366"><ele>63.99999999999999</ele><time>2026-04-17T16:56:12.896Z</time></trkpt><trkpt lat="53.325928859498305" lon="14.624419655913774"><ele>64.0</ele><time>2026-04-17T16:56:13.896Z</time></trkpt><trkpt lat="53.32596586803233" lon="14.624307205737301"><ele>64.0</ele><time>2026-04-17T16:56:14.896Z</time></trkpt><trkpt lat="53.3259972532642" lon="14.624159989086523"><ele>64.0</ele><time>2026-04-17T16:56:15.896Z</time></trkpt><trkpt lat="53.32603151228094" lon="14.624014407544005"><ele>63.99999999999999</ele><time>2026-04-17T16:56:16.895Z</time></trkpt><trkpt lat="53.32606606331865" lon="14.623879300594389"><ele>64.0</ele><time>2026-04-17T16:56:17.895Z</time></trkpt><trkpt lat="53.32611595561132" lon="14.623725754128184"><ele>64.2</ele><time>2026-04-17T16:56:18.895Z</time></trkpt><trkpt lat="53.326148336347984" lon="14.623582477677004"><ele>64.4</ele><time>2026-04-17T16:56:19.895Z</time></trkpt><trkpt lat="53.326182279328286" lon="14.623432338196462"><ele>64.6</ele><time>2026-04-17T16:56:20.895Z</time></trkpt><trkpt lat="53.32620500367268" lon="14.623253665552442"><ele>64.8</ele><time>2026-04-17T16:56:21.896Z</time></trkpt><trkpt lat="53.32624627150379" lon="14.623087870348181"><ele>65.0</ele><time>2026-04-17T16:56:22.895Z</time></trkpt><trkpt lat="53.326301115705604" lon="14.62290759993456"><ele>65.5</ele><time>2026-04-17T16:56:23.895Z</time></trkpt><trkpt lat="53.326326438862246" lon="14.622724747716525"><ele>66.0</ele><time>2026-04-17T16:56:24.895Z</time></trkpt><trkpt lat="53.3263663246275" lon="14.622541642006206"><ele>66.5</ele><time>2026-04-17T16:56:25.896Z</time></trkpt><trkpt lat="53.32642682831538" lon="14.622341460823302"><ele>67.0</ele><time>2026-04-17T16:56:26.896Z</time></trkpt><trkpt lat="53.326468013361094" lon="14.622156813435334"><ele>66.5</ele><time>2026-04-17T16:56:27.896Z</time></trkpt><trkpt lat="53.32651114301108" lon="14.621963422654002"><ele>66.0</ele><time>2026-04-17T16:56:28.896Z</time></trkpt><trkpt lat="53.326549074026794" lon="14.621793342123597"><ele>65.5</ele><time>2026-04-17T16:56:29.896Z</time></trkpt><trkpt lat="53.32659053278635" lon="14.621610147222011"><ele>65.0</ele><time>2026-04-17T16:56:30.896Z</time></trkpt><trkpt lat="53.326627397885765" lon="14.62144938076391"><ele>65.0</ele><time>2026-04-17T16:56:31.896Z</time></trkpt><trkpt lat="53.326665832419685" lon="14.621284698328417"><ele>65.0</ele><time>2026-04-17T16:56:32.896Z</time></trkpt><trkpt lat="53.32671022619366" lon="14.621100972947591"><ele>65.0</ele><time>2026-04-17T16:56:33.896Z</time></trkpt><trkpt lat="53.326753930137265" lon="14.620927611924067"><ele>65.0</ele><time>2026-04-17T16:56:34.896Z</time></trkpt><trkpt lat="53.32680857318282" lon="14.620735100151034"><ele>65.5</ele><time>2026-04-17T16:56:35.896Z</time></trkpt><trkpt lat="53.32687454519755" lon="14.620527357094655"><ele>66.0</ele><time>2026-04-17T16:56:36.896Z</time></trkpt><trkpt lat="53.32693544260823" lon="14.620346483837034"><ele>66.5</ele><time>2026-04-17T16:56:37.896Z</time></trkpt><trkpt lat="53.32698856528482" lon="14.620196897849272"><ele>67.0</ele><time>2026-04-17T16:56:38.896Z</time></trkpt><trkpt lat="53.327045112414986" lon="14.62004348817963"><ele>67.2</ele><time>2026-04-17T16:56:39.896Z</time></trkpt><trkpt lat="53.32710049446616" lon="14.619893239465114"><ele>67.4</ele><time>2026-04-17T16:56:40.896Z</time></trkpt><trkpt lat="53.3271508666513" lon="14.619757279269054"><ele>67.6</ele><time>2026-04-17T16:56:41.896Z</time></trkpt><trkpt lat="53.32718850467494" lon="14.619612238561988"><ele>67.8</ele><time>2026-04-17T16:56:42.896Z</time></trkpt><trkpt lat="53.32725081550361" lon="14.619490669514704"><ele>68.0</ele><time>2026-04-17T16:56:43.896Z</time></trkpt><trkpt lat="53.32728359624068" lon="14.619349356184813"><ele>69.0</ele><time>2026-04-17T16:56:44.896Z</time></trkpt><trkpt lat="53.327338158712784" lon="14.619196665101548"><ele>70.0</ele><time>2026-04-17T16:56:45.896Z</time></trkpt><trkpt lat="53.32738657318323" lon="14.619059320037108"><ele>71.0</ele><time>2026-04-17T16:56:46.896Z</time></trkpt><trkpt lat="53.32743718124231" lon="14.618904693585094"><ele>72.0</ele><time>2026-04-17T16:56:47.896Z</time></trkpt><trkpt lat="53.32748700439016" lon="14.618753947004542"><ele>73.0</ele><time>2026-04-17T16:56:48.896Z</time></trkpt><trkpt lat="53.32752980651492" lon="14.618588509792605"><ele>73.0</ele><time>2026-04-17T16:56:49.896Z</time></trkpt><trkpt lat="53.327572894813585" lon="14.618430909326529"><ele>73.0</ele><time>2026-04-17T16:56:50.896Z</time></trkpt><trkpt lat="53.327610818372555" lon="14.618243410503451"><ele>73.0</ele><time>2026-04-17T16:56:51.896Z</time></trkpt><trkpt lat="53.32764078453285" lon="14.618059378891365"><ele>73.0</ele><time>2026-04-17T16:56:52.896Z</time></trkpt><trkpt lat="53.32767366177622" lon="14.617877371893595"><ele>73.0</ele><time>2026-04-17T16:56:53.896Z</time></trkpt><trkpt lat="53.32771813638855" lon="14.617704683000717"><ele>72.6</ele><time>2026-04-17T16:56:54.896Z</time></trkpt><trkpt lat="53.32775029297419" lon="14.61753088888877"><ele>72.19999999999999</ele><time>2026-04-17T16:56:55.896Z</time></trkpt><trkpt lat="53.32778023357431" lon="14.617369071244223"><ele>71.8</ele><time>2026-04-17T16:56:56.896Z</time></trkpt><trkpt lat="53.327806418343215" lon="14.617227552665991"><ele>71.39999999999999</ele><time>2026-04-17T16:56:57.896Z</time></trkpt><trkpt lat="53.32783768373248" lon="14.61706150036502"><ele>71.0</ele><time>2026-04-17T16:56:58.896Z</time></trkpt><trkpt lat="53.32784866691956" lon="14.616915615397243"><ele>70.8</ele><time>2026-04-17T16:56:59.896Z</time></trkpt><trkpt lat="53.327892902039" lon="14.616765822106581"><ele>70.6</ele><time>2026-04-17T16:57:00.896Z</time></trkpt><trkpt lat="53.32790508538287" lon="14.616608116214893"><ele>70.4</ele><time>2026-04-17T16:57:01.895Z</time></trkpt><trkpt lat="53.327949718712674" lon="14.616460046539352"><ele>70.2</ele><time>2026-04-17T16:57:02.895Z</time></trkpt><trkpt lat="53.32797522610857" lon="14.616321775019717"><ele>70.0</ele><time>2026-04-17T16:57:03.895Z</time></trkpt><trkpt lat="53.32799294453962" lon="14.616159693516538"><ele>70.4</ele><time>2026-04-17T16:57:04.895Z</time></trkpt><trkpt lat="53.32801815334039" lon="14.616013752922667"><ele>70.8</ele><time>2026-04-17T16:57:05.895Z</time></trkpt><trkpt lat="53.328044925270326" lon="14.615855917923323"><ele>71.2</ele><time>2026-04-17T16:57:06.895Z</time></trkpt><trkpt lat="53.32807179277638" lon="14.615691750598375"><ele>71.6</ele><time>2026-04-17T16:57:07.895Z</time></trkpt><trkpt lat="53.328099619434866" lon="14.615566757663814"><ele>72.0</ele><time>2026-04-17T16:57:08.895Z</time></trkpt><trkpt lat="53.32812589163029" lon="14.61540542375698"><ele>72.6</ele><time>2026-04-17T16:57:09.895Z</time></trkpt><trkpt lat="53.32816527541129" lon="14.615248865119701"><ele>73.2</ele><time>2026-04-17T16:57:10.895Z</time></trkpt><trkpt lat="53.328189751638625" lon="14.615103768953345"><ele>73.8</ele><time>2026-04-17T16:57:11.895Z</time></trkpt><trkpt lat="53.32821232784281" lon="14.614969936113189"><ele>74.4</ele><time>2026-04-17T16:57:12.895Z</time></trkpt><trkpt lat="53.32823417549863" lon="14.614845355023453"><ele>75.0</ele><time>2026-04-17T16:57:13.895Z</time></trkpt><trkpt lat="53.32826499234587" lon="14.6146800744564"><ele>75.0</ele><time>2026-04-17T16:57:14.895Z</time></trkpt><trkpt lat="53.328297113006485" lon="14.614516189593944"><ele>75.0</ele><time>2026-04-17T16:57:15.895Z</time></trkpt><trkpt lat="53.32832787930428" lon="14.614365995163396"><ele>75.0</ele><time>2026-04-17T16:57:16.895Z</time></trkpt><trkpt lat="53.32836242962877" lon="14.614199352478607"><ele>75.0</ele><time>2026-04-17T16:57:17.895Z</time></trkpt><trkpt lat="53.328391855311004" lon="14.614057427048463"><ele>75.0</ele><time>2026-04-17T16:57:18.895Z</time></trkpt><trkpt lat="53.32842206205479" lon="14.613911734498132"><ele>75.6</ele><time>2026-04-17T16:57:19.895Z</time></trkpt><trkpt lat="53.32845276655672" lon="14.613763641255233"><ele>76.2</ele><time>2026-04-17T16:57:20.895Z</time></trkpt><trkpt lat="53.328483253650155" lon="14.613618542264785"><ele>76.8</ele><time>2026-04-17T16:57:21.895Z</time></trkpt><trkpt lat="53.32851331364133" lon="14.613450365465242"><ele>77.4</ele><time>2026-04-17T16:57:22.895Z</time></trkpt><trkpt lat="53.3285285073056" lon="14.61329231754387"><ele>78.0</ele><time>2026-04-17T16:57:23.895Z</time></trkpt><trkpt lat="53.328550099756875" lon="14.613122219767469"><ele>78.2</ele><time>2026-04-17T16:57:24.895Z</time></trkpt><trkpt lat="53.328594656837524" lon="14.612982196781292"><ele>78.4</ele><time>2026-04-17T16:57:25.895Z</time></trkpt><trkpt lat="53.328617669742115" lon="14.61280449611109"><ele>78.60000000000001</ele><time>2026-04-17T16:57:26.895Z</time></trkpt><trkpt lat="53.32864881115258" lon="14.612659267927274"><ele>78.8</ele><time>2026-04-17T16:57:27.895Z</time></trkpt><trkpt lat="53.328698815681086" lon="14.612509632012568"><ele>79.0</ele><time>2026-04-17T16:57:28.895Z</time></trkpt><trkpt lat="53.328732352109604" lon="14.61238041050749"><ele>78.5</ele><time>2026-04-17T16:57:29.895Z</time></trkpt><trkpt lat="53.32877607942336" lon="14.612228763412"><ele>78.0</ele><time>2026-04-17T16:57:30.895Z</time></trkpt><trkpt lat="53.328823238785056" lon="14.612077307848407"><ele>77.5</ele><time>2026-04-17T16:57:31.895Z</time></trkpt><trkpt lat="53.32888483605245" lon="14.61189100321507"><ele>77.0</ele><time>2026-04-17T16:57:32.895Z</time></trkpt><trkpt lat="53.3289509402634" lon="14.611696316264393"><ele>76.25</ele><time>2026-04-17T16:57:33.895Z</time></trkpt><trkpt lat="53.32901739623058" lon="14.611500819923691"><ele>75.5</ele><time>2026-04-17T16:57:34.895Z</time></trkpt><trkpt lat="53.3290827412442" lon="14.611310434544167"><ele>74.75</ele><time>2026-04-17T16:57:35.895Z</time></trkpt><trkpt lat="53.32915997788865" lon="14.611090238388943"><ele>74.0</ele><time>2026-04-17T16:57:36.895Z</time></trkpt><trkpt lat="53.32921482153269" lon="14.610895103859091"><ele>74.0</ele><time>2026-04-17T16:57:37.895Z</time></trkpt><trkpt lat="53.32926710748396" lon="14.610736306172601"><ele>74.0</ele><time>2026-04-17T16:57:38.895Z</time></trkpt><trkpt lat="53.32932565728475" lon="14.610588639442504"><ele>74.0</ele><time>2026-04-17T16:57:39.895Z</time></trkpt><trkpt lat="53.32935842630687" lon="14.61040851173806"><ele>74.0</ele><time>2026-04-17T16:57:40.895Z</time></trkpt><trkpt lat="53.32940819276351" lon="14.610247141981615"><ele>74.0</ele><time>2026-04-17T16:57:41.895Z</time></trkpt><trkpt lat="53.329435049191616" lon="14.610042994771428"><ele>73.75</ele><time>2026-04-17T16:57:42.895Z</time></trkpt><trkpt lat="53.32946760329743" lon="14.609842273298693"><ele>73.5</ele><time>2026-04-17T16:57:43.895Z</time></trkpt><trkpt lat="53.32949381642694" lon="14.60960573057509"><ele>73.25</ele><time>2026-04-17T16:57:44.895Z</time></trkpt><trkpt lat="53.32953780078914" lon="14.609423864236959"><ele>73.0</ele><time>2026-04-17T16:57:45.895Z</time></trkpt><trkpt lat="53.32957639921326" lon="14.609211822003244"><ele>72.5</ele><time>2026-04-17T16:57:46.895Z</time></trkpt><trkpt lat="53.32961525676558" lon="14.609003541441073"><ele>72.0</ele><time>2026-04-17T16:57:47.895Z</time></trkpt><trkpt lat="53.329661445482536" lon="14.608758266274448"><ele>71.5</ele><time>2026-04-17T16:57:48.895Z</time></trkpt><trkpt lat="53.32969453151271" lon="14.608496108330788"><ele>71.0</ele><time>2026-04-17T16:57:49.895Z</time></trkpt><trkpt lat="53.32974326026167" lon="14.608247826617685"><ele>69.66666666666667</ele><time>2026-04-17T16:57:50.895Z</time></trkpt><trkpt lat="53.32979582901145" lon="14.607978218205375"><ele>68.33333333333333</ele><time>2026-04-17T16:57:51.895Z</time></trkpt><trkpt lat="53.32984765830949" lon="14.607711023347338"><ele>67.0</ele><time>2026-04-17T16:57:52.895Z</time></trkpt><trkpt lat="53.32990468284233" lon="14.607419220146165"><ele>65.66666666666666</ele><time>2026-04-17T16:57:53.895Z</time></trkpt><trkpt lat="53.32995721642444" lon="14.607174937445857"><ele>64.33333333333333</ele><time>2026-04-17T16:57:54.895Z</time></trkpt><trkpt lat="53.32999814708909" lon="14.606928346289545"><ele>63.0</ele><time>2026-04-17T16:57:55.895Z</time></trkpt><trkpt lat="53.33005256108812" lon="14.606657270573862"><ele>62.75</ele><time>2026-04-17T16:57:56.895Z</time></trkpt><trkpt lat="53.33010422624922" lon="14.606397360507334"><ele>62.5</ele><time>2026-04-17T16:57:57.895Z</time></trkpt><trkpt lat="53.33014653212606" lon="14.606176858386496"><ele>62.25</ele><time>2026-04-17T16:57:58.895Z</time></trkpt><trkpt lat="53.33020466998574" lon="14.605958994983357"><ele>62.0</ele><time>2026-04-17T16:57:59.895Z</time></trkpt><trkpt lat="53.330253888295786" lon="14.605732265560817"><ele>62.0</ele><time>2026-04-17T16:58:00.895Z</time></trkpt><trkpt lat="53.33030509097469" lon="14.605506508643371"><ele>62.0</ele><time>2026-04-17T16:58:01.895Z</time></trkpt><trkpt lat="53.330350653632806" lon="14.605311409963335"><ele>62.0</ele><time>2026-04-17T16:58:02.895Z</time></trkpt><trkpt lat="53.330393511135625" lon="14.605132548316165"><ele>62.0</ele><time>2026-04-17T16:58:03.895Z</time></trkpt><trkpt lat="53.33043796847814" lon="14.60495140706506"><ele>61.66666666666667</ele><time>2026-04-17T16:58:04.895Z</time></trkpt><trkpt lat="53.33047935772989" lon="14.604784549285293"><ele>61.333333333333336</ele><time>2026-04-17T16:58:05.895Z</time></trkpt><trkpt lat="53.33051696964731" lon="14.604632919538451"><ele>61.0</ele><time>2026-04-17T16:58:06.895Z</time></trkpt><trkpt lat="53.33054621412725" lon="14.604515373414866"><ele>60.66666666666667</ele><time>2026-04-17T16:58:07.895Z</time></trkpt><trkpt lat="53.330570245670025" lon="14.604416351760412"><ele>60.333333333333336</ele><time>2026-04-17T16:58:08.895Z</time></trkpt><trkpt lat="53.33059336328753" lon="14.604291324003738"><ele>60.0</ele><time>2026-04-17T16:58:09.895Z</time></trkpt><trkpt lat="53.33061555953771" lon="14.604188502573367"><ele>59.2</ele><time>2026-04-17T16:58:10.895Z</time></trkpt><trkpt lat="53.33065931955029" lon="14.604077370033727"><ele>58.4</ele><time>2026-04-17T16:58:11.895Z</time></trkpt><trkpt lat="53.33069215500456" lon="14.603953046251796"><ele>57.599999999999994</ele><time>2026-04-17T16:58:12.895Z</time></trkpt><trkpt lat="53.33071953776179" lon="14.603792214843814"><ele>56.8</ele><time>2026-04-17T16:58:13.895Z</time></trkpt><trkpt lat="53.33077820474168" lon="14.603634390287262"><ele>56.0</ele><time>2026-04-17T16:58:14.895Z</time></trkpt><trkpt lat="53.33081384276419" lon="14.603445352530448"><ele>56.00000000000001</ele><time>2026-04-17T16:58:15.895Z</time></trkpt><trkpt lat="53.33085979868419" lon="14.603284916755719"><ele>56.0</ele><time>2026-04-17T16:58:16.895Z</time></trkpt><trkpt lat="53.33088865526871" lon="14.603126345824524"><ele>56.0</ele><time>2026-04-17T16:58:17.895Z</time></trkpt><trkpt lat="53.33091945443075" lon="14.60299927647905"><ele>56.0</ele><time>2026-04-17T16:58:18.893Z</time></trkpt><trkpt lat="53.33091774062587" lon="14.602866428580699"><ele>56.00000000000001</ele><time>2026-04-17T16:58:19.893Z</time></trkpt><trkpt lat="53.330926146892935" lon="14.60274187417044"><ele>56.0</ele><time>2026-04-17T16:58:20.893Z</time></trkpt><trkpt lat="53.33093603951709" lon="14.602636152748884"><ele>56.00000000000001</ele><time>2026-04-17T16:58:21.893Z</time></trkpt><trkpt lat="53.330926819759654" lon="14.602499510135146"><ele>56.0</ele><time>2026-04-17T16:58:22.893Z</time></trkpt><trkpt lat="53.33091200916886" lon="14.602377366165113"><ele>56.0</ele><time>2026-04-17T16:58:23.893Z</time></trkpt><trkpt lat="53.330884040589446" lon="14.602247107682565"><ele>56.0</ele><time>2026-04-17T16:58:24.892Z</time></trkpt><trkpt lat="53.330850872510545" lon="14.602151045135615"><ele>56.00000000000001</ele><time>2026-04-17T16:58:25.893Z</time></trkpt><trkpt lat="53.33081813148715" lon="14.601954324891793"><ele>56.0</ele><time>2026-04-17T16:58:27.893Z</time></trkpt><trkpt lat="53.3307747675766" lon="14.601840551185791"><ele>56.00000000000001</ele><time>2026-04-17T16:58:28.893Z</time></trkpt><trkpt lat="53.33075127502283" lon="14.601723180332357"><ele>56.0</ele><time>2026-04-17T16:58:29.893Z</time></trkpt><trkpt lat="53.330734650604384" lon="14.601581643808847"><ele>56.0</ele><time>2026-04-17T16:58:30.893Z</time></trkpt><trkpt lat="53.33070927360528" lon="14.601469455677606"><ele>56.0</ele><time>2026-04-17T16:58:31.893Z</time></trkpt><trkpt lat="53.3306621465511" lon="14.601324539154321"><ele>56.00000000000001</ele><time>2026-04-17T16:58:32.893Z</time></trkpt><trkpt lat="53.33062598803687" lon="14.601152403889094"><ele>56.0</ele><time>2026-04-17T16:58:33.893Z</time></trkpt><trkpt lat="53.33058451351108" lon="14.600979164115634"><ele>56.25</ele><time>2026-04-17T16:58:34.893Z</time></trkpt><trkpt lat="53.33053493798914" lon="14.600784516732045"><ele>56.5</ele><time>2026-04-17T16:58:35.893Z</time></trkpt><trkpt lat="53.33048094849115" lon="14.600585882018281"><ele>56.75</ele><time>2026-04-17T16:58:36.893Z</time></trkpt><trkpt lat="53.330417196043044" lon="14.600377291884058"><ele>57.0</ele><time>2026-04-17T16:58:37.893Z</time></trkpt><trkpt lat="53.33033830718962" lon="14.600157822781885"><ele>57.0</ele><time>2026-04-17T16:58:38.893Z</time></trkpt><trkpt lat="53.33025813371985" lon="14.59990375991256"><ele>57.0</ele><time>2026-04-17T16:58:39.893Z</time></trkpt><trkpt lat="53.33015922244299" lon="14.59969342907232"><ele>57.0</ele><time>2026-04-17T16:58:40.893Z</time></trkpt><trkpt lat="53.33006668206393" lon="14.599454404711308"><ele>56.66666666666667</ele><time>2026-04-17T16:58:41.893Z</time></trkpt><trkpt lat="53.3299805500719" lon="14.599200662258657"><ele>56.333333333333336</ele><time>2026-04-17T16:58:42.893Z</time></trkpt><trkpt lat="53.32986577546522" lon="14.598954194415763"><ele>56.0</ele><time>2026-04-17T16:58:43.893Z</time></trkpt><trkpt lat="53.329766391892875" lon="14.598698022712735"><ele>54.66666666666667</ele><time>2026-04-17T16:58:44.893Z</time></trkpt><trkpt lat="53.329651289744994" lon="14.598432753072709"><ele>53.33333333333333</ele><time>2026-04-17T16:58:45.893Z</time></trkpt><trkpt lat="53.32955443431214" lon="14.598183686254956"><ele>52.0</ele><time>2026-04-17T16:58:46.893Z</time></trkpt><trkpt lat="53.32943879744203" lon="14.59793199351731"><ele>52.0</ele><time>2026-04-17T16:58:47.893Z</time></trkpt><trkpt lat="53.32933090568797" lon="14.597664803388843"><ele>52.0</ele><time>2026-04-17T16:58:48.893Z</time></trkpt><trkpt lat="53.329226566431075" lon="14.597414322448417"><ele>52.0</ele><time>2026-04-17T16:58:49.893Z</time></trkpt><trkpt lat="53.329135586079325" lon="14.597161777390616"><ele>52.0</ele><time>2026-04-17T16:58:50.893Z</time></trkpt><trkpt lat="53.329044450780316" lon="14.59692522634604"><ele>52.0</ele><time>2026-04-17T16:58:51.893Z</time></trkpt><trkpt lat="53.328942962353366" lon="14.596712566136091"><ele>52.0</ele><time>2026-04-17T16:58:52.893Z</time></trkpt><trkpt lat="53.32886551255499" lon="14.596488124039833"><ele>51.75</ele><time>2026-04-17T16:58:53.893Z</time></trkpt><trkpt lat="53.328766977467026" lon="14.596320012112846"><ele>51.5</ele><time>2026-04-17T16:58:54.893Z</time></trkpt><trkpt lat="53.328688219069974" lon="14.596152658981854"><ele>51.25</ele><time>2026-04-17T16:58:55.893Z</time></trkpt><trkpt lat="53.32861260236056" lon="14.5959969920107"><ele>51.0</ele><time>2026-04-17T16:58:56.893Z</time></trkpt><trkpt lat="53.32852754139271" lon="14.595849471262914"><ele>51.0</ele><time>2026-04-17T16:58:57.893Z</time></trkpt><trkpt lat="53.32844525160727" lon="14.59568597369816"><ele>51.0</ele><time>2026-04-17T16:58:58.893Z</time></trkpt><trkpt lat="53.32835454373475" lon="14.595503830096881"><ele>51.0</ele><time>2026-04-17T16:58:59.893Z</time></trkpt><trkpt lat="53.32827809572468" lon="14.595316953236537"><ele>51.0</ele><time>2026-04-17T16:59:00.893Z</time></trkpt><trkpt lat="53.32818585979035" lon="14.595131360113237"><ele>51.0</ele><time>2026-04-17T16:59:01.893Z</time></trkpt><trkpt lat="53.328085626021085" lon="14.594970805232416"><ele>51.0</ele><time>2026-04-17T16:59:02.893Z</time></trkpt><trkpt lat="53.32799702172122" lon="14.594776958293973"><ele>51.0</ele><time>2026-04-17T16:59:03.893Z</time></trkpt><trkpt lat="53.327896200317284" lon="14.594586963938985"><ele>51.0</ele><time>2026-04-17T16:59:04.893Z</time></trkpt><trkpt lat="53.32779789983308" lon="14.59439220306909"><ele>51.33333333333333</ele><time>2026-04-17T16:59:05.893Z</time></trkpt><trkpt lat="53.32770919209316" lon="14.594176051816348"><ele>51.666666666666664</ele><time>2026-04-17T16:59:06.893Z</time></trkpt><trkpt lat="53.3276133141859" lon="14.59398413988674"><ele>52.0</ele><time>2026-04-17T16:59:07.893Z</time></trkpt><trkpt lat="53.3275136263246" lon="14.593784651365194"><ele>52.25</ele><time>2026-04-17T16:59:08.893Z</time></trkpt><trkpt lat="53.32741680318301" lon="14.593591522933476"><ele>52.5</ele><time>2026-04-17T16:59:09.893Z</time></trkpt><trkpt lat="53.32731902436098" lon="14.593395081651275"><ele>52.75</ele><time>2026-04-17T16:59:10.893Z</time></trkpt><trkpt lat="53.32722688749224" lon="14.593209517330857"><ele>53.0</ele><time>2026-04-17T16:59:11.893Z</time></trkpt><trkpt lat="53.32713971826979" lon="14.593037427233211"><ele>52.0</ele><time>2026-04-17T16:59:12.893Z</time></trkpt><trkpt lat="53.327057477673556" lon="14.592875457223082"><ele>51.0</ele><time>2026-04-17T16:59:13.893Z</time></trkpt><trkpt lat="53.326969316765066" lon="14.592740266779685"><ele>50.0</ele><time>2026-04-17T16:59:14.893Z</time></trkpt><trkpt lat="53.326910877597186" lon="14.592587512576305"><ele>49.0</ele><time>2026-04-17T16:59:15.893Z</time></trkpt><trkpt lat="53.32684882772439" lon="14.592446733181973"><ele>49.0</ele><time>2026-04-17T16:59:16.893Z</time></trkpt><trkpt lat="53.32677275570893" lon="14.59231696023566"><ele>49.0</ele><time>2026-04-17T16:59:17.893Z</time></trkpt><trkpt lat="53.32671437733189" lon="14.59215481763402"><ele>49.0</ele><time>2026-04-17T16:59:18.893Z</time></trkpt><trkpt lat="53.32666232027898" lon="14.592013709039062"><ele>49.0</ele><time>2026-04-17T16:59:19.893Z</time></trkpt><trkpt lat="53.3266269418716" lon="14.591865365647813"><ele>49.0</ele><time>2026-04-17T16:59:20.893Z</time></trkpt><trkpt lat="53.326614369221645" lon="14.591708120031674"><ele>48.6</ele><time>2026-04-17T16:59:21.893Z</time></trkpt><trkpt lat="53.32661341273997" lon="14.591535369426497"><ele>48.2</ele><time>2026-04-17T16:59:22.893Z</time></trkpt><trkpt lat="53.32662303935522" lon="14.59135613377319"><ele>47.800000000000004</ele><time>2026-04-17T16:59:23.893Z</time></trkpt><trkpt lat="53.32664299519045" lon="14.591162386577555"><ele>47.400000000000006</ele><time>2026-04-17T16:59:24.893Z</time></trkpt><trkpt lat="53.3266753999889" lon="14.590967165610113"><ele>47.0</ele><time>2026-04-17T16:59:25.893Z</time></trkpt><trkpt lat="53.32670030650451" lon="14.590742286894903"><ele>46.75</ele><time>2026-04-17T16:59:26.893Z</time></trkpt><trkpt lat="53.32675461308716" lon="14.590546298302502"><ele>46.5</ele><time>2026-04-17T16:59:27.893Z</time></trkpt><trkpt lat="53.32679737243487" lon="14.590338166446125"><ele>46.25</ele><time>2026-04-17T16:59:28.893Z</time></trkpt><trkpt lat="53.32684178289733" lon="14.59012213431749"><ele>46.0</ele><time>2026-04-17T16:59:29.893Z</time></trkpt><trkpt lat="53.32686846972909" lon="14.589917320289626"><ele>46.0</ele><time>2026-04-17T16:59:30.893Z</time></trkpt><trkpt lat="53.32690869631638" lon="14.58972669486161"><ele>46.0</ele><time>2026-04-17T16:59:31.893Z</time></trkpt><trkpt lat="53.32694965827816" lon="14.589535053830732"><ele>46.0</ele><time>2026-04-17T16:59:32.893Z</time></trkpt><trkpt lat="53.32698027330069" lon="14.589366201764795"><ele>46.0</ele><time>2026-04-17T16:59:33.893Z</time></trkpt><trkpt lat="53.32701006325945" lon="14.589208826094291"><ele>46.0</ele><time>2026-04-17T16:59:34.893Z</time></trkpt><trkpt lat="53.327052601588" lon="14.589063524553838"><ele>46.0</ele><time>2026-04-17T16:59:35.893Z</time></trkpt><trkpt lat="53.3270722175209" lon="14.588904384212295"><ele>46.0</ele><time>2026-04-17T16:59:36.893Z</time></trkpt><trkpt lat="53.327077370340874" lon="14.58872433254085"><ele>46.0</ele><time>2026-04-17T16:59:37.893Z</time></trkpt><trkpt lat="53.32709229455913" lon="14.588532024417947"><ele>46.0</ele><time>2026-04-17T16:59:38.893Z</time></trkpt><trkpt lat="53.32709608065428" lon="14.588333976322353"><ele>46.0</ele><time>2026-04-17T16:59:39.893Z</time></trkpt><trkpt lat="53.327103005085185" lon="14.588129386184695"><ele>46.0</ele><time>2026-04-17T16:59:40.893Z</time></trkpt><trkpt lat="53.327106974972125" lon="14.587905367294224"><ele>46.0</ele><time>2026-04-17T16:59:41.893Z</time></trkpt><trkpt lat="53.32712750964145" lon="14.587673560871856"><ele>46.0</ele><time>2026-04-17T16:59:42.893Z</time></trkpt><trkpt lat="53.327134265887395" lon="14.587430031764653"><ele>46.0</ele><time>2026-04-17T16:59:43.892Z</time></trkpt><trkpt lat="53.32714178643089" lon="14.587174288875286"><ele>44.66666666666667</ele><time>2026-04-17T16:59:44.892Z</time></trkpt><trkpt lat="53.32713240710912" lon="14.586893962286739"><ele>43.333333333333336</ele><time>2026-04-17T16:59:45.892Z</time></trkpt><trkpt lat="53.32714037591713" lon="14.586613301970372"><ele>42.0</ele><time>2026-04-17T16:59:46.892Z</time></trkpt><trkpt lat="53.32714816354362" lon="14.586335653508902"><ele>42.0</ele><time>2026-04-17T16:59:47.892Z</time></trkpt><trkpt lat="53.327160473298356" lon="14.586046110634786"><ele>42.0</ele><time>2026-04-17T16:59:48.892Z</time></trkpt><trkpt lat="53.327162358147184" lon="14.585783681106893"><ele>42.0</ele><time>2026-04-17T16:59:49.892Z</time></trkpt><trkpt lat="53.32716345890273" lon="14.585529040974034"><ele>41.75</ele><time>2026-04-17T16:59:50.892Z</time></trkpt><trkpt lat="53.32716464967303" lon="14.58528271078525"><ele>41.5</ele><time>2026-04-17T16:59:51.892Z</time></trkpt><trkpt lat="53.32717096245623" lon="14.585043727203344"><ele>41.25</ele><time>2026-04-17T16:59:52.892Z</time></trkpt><trkpt lat="53.32717717904904" lon="14.584807865453664"><ele>41.0</ele><time>2026-04-17T16:59:53.892Z</time></trkpt><trkpt lat="53.327183396923324" lon="14.584561047158326"><ele>41.0</ele><time>2026-04-17T16:59:54.892Z</time></trkpt><trkpt lat="53.3271827865569" lon="14.584306069661501"><ele>41.0</ele><time>2026-04-17T16:59:55.892Z</time></trkpt><trkpt lat="53.327194630278036" lon="14.584070764391079"><ele>41.0</ele><time>2026-04-17T16:59:56.892Z</time></trkpt><trkpt lat="53.327200781299055" lon="14.583840098013708"><ele>41.0</ele><time>2026-04-17T16:59:57.892Z</time></trkpt><trkpt lat="53.32720504696782" lon="14.583617316074212"><ele>40.25</ele><time>2026-04-17T16:59:58.892Z</time></trkpt><trkpt lat="53.32720688996539" lon="14.583404647298151"><ele>39.5</ele><time>2026-04-17T16:59:59.892Z</time></trkpt><trkpt lat="53.327201016690495" lon="14.583205481381194"><ele>38.75</ele><time>2026-04-17T17:00:00.892Z</time></trkpt><trkpt lat="53.3272062649378" lon="14.582990251482562"><ele>38.0</ele><time>2026-04-17T17:00:01.892Z</time></trkpt><trkpt lat="53.327209258726214" lon="14.582801952323804"><ele>37.8</ele><time>2026-04-17T17:00:02.892Z</time></trkpt><trkpt lat="53.3272149535082" lon="14.582621163721763"><ele>37.599999999999994</ele><time>2026-04-17T17:00:03.892Z</time></trkpt><trkpt lat="53.32721972692029" lon="14.582440664716884"><ele>37.400000000000006</ele><time>2026-04-17T17:00:04.892Z</time></trkpt><trkpt lat="53.327226311083" lon="14.582264582669229"><ele>37.2</ele><time>2026-04-17T17:00:05.892Z</time></trkpt><trkpt lat="53.32722621319354" lon="14.58209828779605"><ele>37.0</ele><time>2026-04-17T17:00:06.892Z</time></trkpt><trkpt lat="53.32722976267778" lon="14.581924577367928"><ele>36.5</ele><time>2026-04-17T17:00:07.892Z</time></trkpt><trkpt lat="53.32722552582182" lon="14.581734777647066"><ele>36.0</ele><time>2026-04-17T17:00:08.892Z</time></trkpt><trkpt lat="53.327231552753446" lon="14.581553327651795"><ele>35.5</ele><time>2026-04-17T17:00:09.892Z</time></trkpt><trkpt lat="53.32722530622924" lon="14.581339400593897"><ele>35.0</ele><time>2026-04-17T17:00:10.892Z</time></trkpt><trkpt lat="53.32721744151295" lon="14.581092783646492"><ele>34.33333333333333</ele><time>2026-04-17T17:00:11.892Z</time></trkpt><trkpt lat="53.32720391218222" lon="14.580824334174425"><ele>33.666666666666664</ele><time>2026-04-17T17:00:12.892Z</time></trkpt><trkpt lat="53.32719679659771" lon="14.58054539554358"><ele>33.0</ele><time>2026-04-17T17:00:13.892Z</time></trkpt><trkpt lat="53.32718582540285" lon="14.580245490172146"><ele>33.0</ele><time>2026-04-17T17:00:14.892Z</time></trkpt><trkpt lat="53.327165150201125" lon="14.579955515713628"><ele>33.0</ele><time>2026-04-17T17:00:15.892Z</time></trkpt><trkpt lat="53.327165271039185" lon="14.579663940019369"><ele>33.0</ele><time>2026-04-17T17:00:16.892Z</time></trkpt><trkpt lat="53.32713720792901" lon="14.57935042053979"><ele>33.0</ele><time>2026-04-17T17:00:17.892Z</time></trkpt><trkpt lat="53.327126096826916" lon="14.579064417719028"><ele>33.0</ele><time>2026-04-17T17:00:18.892Z</time></trkpt><trkpt lat="53.327110279711974" lon="14.578785047698378"><ele>33.0</ele><time>2026-04-17T17:00:19.892Z</time></trkpt><trkpt lat="53.32711066687299" lon="14.578508496920797"><ele>32.0</ele><time>2026-04-17T17:00:20.892Z</time></trkpt><trkpt lat="53.32709737987014" lon="14.578231180572658"><ele>31.0</ele><time>2026-04-17T17:00:21.892Z</time></trkpt><trkpt lat="53.327085389399485" lon="14.577988697341903"><ele>30.0</ele><time>2026-04-17T17:00:22.892Z</time></trkpt><trkpt lat="53.32707352306405" lon="14.57775260826256"><ele>29.25</ele><time>2026-04-17T17:00:23.892Z</time></trkpt><trkpt lat="53.32706236064485" lon="14.577530163808484"><ele>28.5</ele><time>2026-04-17T17:00:24.89Z</time></trkpt><trkpt lat="53.32704984841591" lon="14.577316665171045"><ele>27.75</ele><time>2026-04-17T17:00:25.891Z</time></trkpt><trkpt lat="53.327023378713655" lon="14.577116316326533"><ele>27.0</ele><time>2026-04-17T17:00:26.891Z</time></trkpt><trkpt lat="53.32702802077224" lon="14.576930237262182"><ele>26.8</ele><time>2026-04-17T17:00:27.89Z</time></trkpt><trkpt lat="53.32701265543597" lon="14.57674528954241"><ele>26.6</ele><time>2026-04-17T17:00:28.89Z</time></trkpt><trkpt lat="53.32700855994766" lon="14.576563640695229"><ele>26.400000000000002</ele><time>2026-04-17T17:00:29.89Z</time></trkpt><trkpt lat="53.3270093770982" lon="14.576395848128316"><ele>26.200000000000003</ele><time>2026-04-17T17:00:30.89Z</time></trkpt><trkpt lat="53.3270314587252" lon="14.576242757087924"><ele>26.0</ele><time>2026-04-17T17:00:31.89Z</time></trkpt><trkpt lat="53.32703680553109" lon="14.576072806282525"><ele>26.4</ele><time>2026-04-17T17:00:32.89Z</time></trkpt><trkpt lat="53.32705499224592" lon="14.575905012946395"><ele>26.8</ele><time>2026-04-17T17:00:33.891Z</time></trkpt><trkpt lat="53.32707652421284" lon="14.575733600861101"><ele>27.199999999999996</ele><time>2026-04-17T17:00:34.89Z</time></trkpt><trkpt lat="53.327106679812935" lon="14.575549453085953"><ele>27.599999999999998</ele><time>2026-04-17T17:00:35.89Z</time></trkpt><trkpt lat="53.32713501662877" lon="14.57537699977063"><ele>28.0</ele><time>2026-04-17T17:00:36.89Z</time></trkpt><trkpt lat="53.32715563741662" lon="14.575195830423938"><ele>27.599999999999998</ele><time>2026-04-17T17:00:37.89Z</time></trkpt><trkpt lat="53.3271840919546" lon="14.575010600402202"><ele>27.199999999999996</ele><time>2026-04-17T17:00:38.89Z</time></trkpt><trkpt lat="53.32721365729268" lon="14.574851566413068"><ele>26.8</ele><time>2026-04-17T17:00:39.89Z</time></trkpt><trkpt lat="53.32723391482776" lon="14.574699105285122"><ele>26.4</ele><time>2026-04-17T17:00:40.89Z</time></trkpt><trkpt lat="53.32727136340684" lon="14.574554687245662"><ele>26.0</ele><time>2026-04-17T17:00:41.89Z</time></trkpt><trkpt lat="53.327300652381496" lon="14.57440904801256"><ele>25.4</ele><time>2026-04-17T17:00:42.89Z</time></trkpt><trkpt lat="53.32733437039344" lon="14.574255036923189"><ele>24.8</ele><time>2026-04-17T17:00:43.89Z</time></trkpt><trkpt lat="53.32736671255095" lon="14.574082962190861"><ele>24.2</ele><time>2026-04-17T17:00:44.89Z</time></trkpt><trkpt lat="53.32738691713211" lon="14.57390936107758"><ele>23.599999999999998</ele><time>2026-04-17T17:00:45.89Z</time></trkpt><trkpt lat="53.32740427585535" lon="14.573768811737564"><ele>23.0</ele><time>2026-04-17T17:00:46.89Z</time></trkpt><trkpt lat="53.327419306052114" lon="14.573629309933017"><ele>23.0</ele><time>2026-04-17T17:00:47.89Z</time></trkpt><trkpt lat="53.327431667916166" lon="14.573496290596058"><ele>23.0</ele><time>2026-04-17T17:00:48.89Z</time></trkpt><trkpt lat="53.32744368902463" lon="14.573342424551662"><ele>23.0</ele><time>2026-04-17T17:00:49.89Z</time></trkpt><trkpt lat="53.327459906164975" lon="14.573148276602144"><ele>23.0</ele><time>2026-04-17T17:00:50.89Z</time></trkpt><trkpt lat="53.32746359180446" lon="14.57294968164669"><ele>23.0</ele><time>2026-04-17T17:00:51.89Z</time></trkpt><trkpt lat="53.32745979693007" lon="14.572719107175633"><ele>23.0</ele><time>2026-04-17T17:00:52.89Z</time></trkpt><trkpt lat="53.32744846664657" lon="14.572484710607641"><ele>23.0</ele><time>2026-04-17T17:00:53.89Z</time></trkpt><trkpt lat="53.327434218105246" lon="14.572256356962082"><ele>23.0</ele><time>2026-04-17T17:00:54.89Z</time></trkpt><trkpt lat="53.327421926797165" lon="14.57201990962697"><ele>23.0</ele><time>2026-04-17T17:00:55.89Z</time></trkpt><trkpt lat="53.32743137857367" lon="14.571784823425013"><ele>22.333333333333336</ele><time>2026-04-17T17:00:56.89Z</time></trkpt><trkpt lat="53.32741815237393" lon="14.571522015058505"><ele>21.666666666666668</ele><time>2026-04-17T17:00:57.89Z</time></trkpt><trkpt lat="53.32740697623569" lon="14.571267300782878"><ele>21.0</ele><time>2026-04-17T17:00:58.89Z</time></trkpt><trkpt lat="53.327403008197805" lon="14.571007078188192"><ele>20.666666666666668</ele><time>2026-04-17T17:00:59.89Z</time></trkpt><trkpt lat="53.32739200032115" lon="14.570742246415499"><ele>20.333333333333336</ele><time>2026-04-17T17:01:00.89Z</time></trkpt><trkpt lat="53.32738173482676" lon="14.57046206419639"><ele>20.0</ele><time>2026-04-17T17:01:01.89Z</time></trkpt><trkpt lat="53.32736411966709" lon="14.570192204781419"><ele>20.0</ele><time>2026-04-17T17:01:02.89Z</time></trkpt><trkpt lat="53.327358146350626" lon="14.569918004661352"><ele>20.0</ele><time>2026-04-17T17:01:03.89Z</time></trkpt><trkpt lat="53.32734957465325" lon="14.569633674560372"><ele>20.0</ele><time>2026-04-17T17:01:04.89Z</time></trkpt><trkpt lat="53.32733453010679" lon="14.56932772890211"><ele>20.0</ele><time>2026-04-17T17:01:05.89Z</time></trkpt><trkpt lat="53.32732152165416" lon="14.56903184539039"><ele>20.0</ele><time>2026-04-17T17:01:06.89Z</time></trkpt><trkpt lat="53.327312784208154" lon="14.568766067323514"><ele>20.0</ele><time>2026-04-17T17:01:07.89Z</time></trkpt><trkpt lat="53.32729873284963" lon="14.568518179192866"><ele>19.4</ele><time>2026-04-17T17:01:08.89Z</time></trkpt><trkpt lat="53.32728682184169" lon="14.568285596738026"><ele>18.8</ele><time>2026-04-17T17:01:09.89Z</time></trkpt><trkpt lat="53.327271836631226" lon="14.568085591803861"><ele>18.2</ele><time>2026-04-17T17:01:10.89Z</time></trkpt><trkpt lat="53.3272811562306" lon="14.567912811889332"><ele>17.6</ele><time>2026-04-17T17:01:11.89Z</time></trkpt><trkpt lat="53.327263723978035" lon="14.567783887484508"><ele>17.0</ele><time>2026-04-17T17:01:12.89Z</time></trkpt><trkpt lat="53.32724098285607" lon="14.567663333637494"><ele>17.5</ele><time>2026-04-17T17:01:13.89Z</time></trkpt><trkpt lat="53.32719982744736" lon="14.567557455494192"><ele>18.0</ele><time>2026-04-17T17:01:14.89Z</time></trkpt><trkpt lat="53.327137481299246" lon="14.56743662389611"><ele>18.5</ele><time>2026-04-17T17:01:15.89Z</time></trkpt><trkpt lat="53.32706703007043" lon="14.567329264774122"><ele>19.0</ele><time>2026-04-17T17:01:16.89Z</time></trkpt><trkpt lat="53.327006052434506" lon="14.567224491811501"><ele>19.5</ele><time>2026-04-17T17:01:17.89Z</time></trkpt><trkpt lat="53.32696228865616" lon="14.567096391028514"><ele>20.0</ele><time>2026-04-17T17:01:18.89Z</time></trkpt><trkpt lat="53.32688146291759" lon="14.566995378902726"><ele>18.4</ele><time>2026-04-17T17:01:19.89Z</time></trkpt><trkpt lat="53.32679636468717" lon="14.566935797044174"><ele>16.8</ele><time>2026-04-17T17:01:20.89Z</time></trkpt><trkpt lat="53.326668504169135" lon="14.566995162860428"><ele>15.2</ele><time>2026-04-17T17:01:21.89Z</time></trkpt><trkpt lat="53.32656628135169" lon="14.566977022154907"><ele>13.6</ele><time>2026-04-17T17:01:22.89Z</time></trkpt><trkpt lat="53.32645380459696" lon="14.566976650016645"><ele>12.0</ele><time>2026-04-17T17:01:23.89Z</time></trkpt><trkpt lat="53.32633690743295" lon="14.566939960765838"><ele>12.0</ele><time>2026-04-17T17:01:24.89Z</time></trkpt><trkpt lat="53.326214825753944" lon="14.56696249465071"><ele>12.0</ele><time>2026-04-17T17:01:25.89Z</time></trkpt><trkpt lat="53.32608737257874" lon="14.566953641008784"><ele>12.0</ele><time>2026-04-17T17:01:26.89Z</time></trkpt><trkpt lat="53.32595513549914" lon="14.566977265396623"><ele>12.0</ele><time>2026-04-17T17:01:27.89Z</time></trkpt><trkpt lat="53.325835302057705" lon="14.567005866309662"><ele>12.0</ele><time>2026-04-17T17:01:28.89Z</time></trkpt><trkpt lat="53.32572037497971" lon="14.567025373342139"><ele>12.0</ele><time>2026-04-17T17:01:29.89Z</time></trkpt><trkpt lat="53.32561030450849" lon="14.56704499612273"><ele>12.0</ele><time>2026-04-17T17:01:30.89Z</time></trkpt><trkpt lat="53.32550854975153" lon="14.567069024172095"><ele>12.0</ele><time>2026-04-17T17:01:31.89Z</time></trkpt><trkpt lat="53.32541458097007" lon="14.56706275842018"><ele>12.0</ele><time>2026-04-17T17:01:32.89Z</time></trkpt><trkpt lat="53.32533330625419" lon="14.567060035082037"><ele>12.142857142857142</ele><time>2026-04-17T17:01:33.89Z</time></trkpt><trkpt lat="53.325267827639934" lon="14.567031980850723"><ele>12.285714285714285</ele><time>2026-04-17T17:01:34.889Z</time></trkpt><trkpt lat="53.32520138571688" lon="14.567004630779866"><ele>12.428571428571427</ele><time>2026-04-17T17:01:35.887Z</time></trkpt><trkpt lat="53.325147282738136" lon="14.56691593249761"><ele>12.571428571428571</ele><time>2026-04-17T17:01:36.886Z</time></trkpt><trkpt lat="53.325096925486385" lon="14.5668247668606"><ele>12.714285714285715</ele><time>2026-04-17T17:01:37.884Z</time></trkpt><trkpt lat="53.32505034623723" lon="14.566718410290724"><ele>12.857142857142856</ele><time>2026-04-17T17:01:38.883Z</time></trkpt><trkpt lat="53.325049339366046" lon="14.566610342727225"><ele>13.0</ele><time>2026-04-17T17:01:39.882Z</time></trkpt><trkpt lat="53.325041493079844" lon="14.56643797521296"><ele>12.999999999999998</ele><time>2026-04-17T17:01:41.879Z</time></trkpt><trkpt lat="53.32504358528479" lon="14.566310149281696"><ele>13.0</ele><time>2026-04-17T17:01:44.876Z</time></trkpt><trkpt lat="53.32505075145926" lon="14.5661632426444"><ele>13.0</ele><time>2026-04-17T17:01:48.873Z</time></trkpt><trkpt lat="53.32501970057755" lon="14.566043555844164"><ele>13.0</ele><time>2026-04-17T17:01:50.872Z</time></trkpt><trkpt lat="53.32500144760836" lon="14.565935037571636"><ele>12.999999999999998</ele><time>2026-04-17T17:01:52.871Z</time></trkpt><trkpt lat="53.324969237909926" lon="14.56581901848689"><ele>13.0</ele><time>2026-04-17T17:01:54.87Z</time></trkpt><trkpt lat="53.32487485391968" lon="14.565800726206332"><ele>13.4</ele><time>2026-04-17T17:01:55.869Z</time></trkpt><trkpt lat="53.32477861274623" lon="14.565758876839547"><ele>13.8</ele><time>2026-04-17T17:01:58.868Z</time></trkpt><trkpt lat="53.32470035257716" lon="14.56574839287213"><ele>14.2</ele><time>2026-04-17T17:02:00.867Z</time></trkpt><trkpt lat="53.324575257759065" lon="14.565769063929233"><ele>14.6</ele><time>2026-04-17T17:02:02.867Z</time></trkpt><trkpt lat="53.324495592960346" lon="14.565779546219119"><ele>15.0</ele><time>2026-04-17T17:02:03.867Z</time></trkpt><trkpt lat="53.32440175400894" lon="14.565788289672671"><ele>15.2</ele><time>2026-04-17T17:02:04.866Z</time></trkpt><trkpt lat="53.32429884674113" lon="14.565803595072866"><ele>15.4</ele><time>2026-04-17T17:02:05.866Z</time></trkpt><trkpt lat="53.32419090204943" lon="14.565828532547936"><ele>15.600000000000001</ele><time>2026-04-17T17:02:06.866Z</time></trkpt><trkpt lat="53.32408087331712" lon="14.565823165156068"><ele>15.8</ele><time>2026-04-17T17:02:07.866Z</time></trkpt><trkpt lat="53.32396975486105" lon="14.565841074253031"><ele>16.0</ele><time>2026-04-17T17:02:08.865Z</time></trkpt><trkpt lat="53.32386465249766" lon="14.565858138033057"><ele>16.6</ele><time>2026-04-17T17:02:09.865Z</time></trkpt><trkpt lat="53.32377165419357" lon="14.56590060251829"><ele>17.200000000000003</ele><time>2026-04-17T17:02:10.865Z</time></trkpt><trkpt lat="53.32367898590334" lon="14.565890942732779"><ele>17.799999999999997</ele><time>2026-04-17T17:02:11.865Z</time></trkpt><trkpt lat="53.32358510261201" lon="14.56590784040452"><ele>18.4</ele><time>2026-04-17T17:02:12.865Z</time></trkpt><trkpt lat="53.323475832073164" lon="14.56592789571893"><ele>19.0</ele><time>2026-04-17T17:02:13.864Z</time></trkpt><trkpt lat="53.323364362625945" lon="14.565976604164511"><ele>19.0</ele><time>2026-04-17T17:02:14.864Z</time></trkpt><trkpt lat="53.323238793927985" lon="14.565990514783389"><ele>19.0</ele><time>2026-04-17T17:02:15.864Z</time></trkpt><trkpt lat="53.32311881398518" lon="14.566014122257737"><ele>19.0</ele><time>2026-04-17T17:02:16.864Z</time></trkpt><trkpt lat="53.32300259082293" lon="14.566040058294046"><ele>19.0</ele><time>2026-04-17T17:02:17.864Z</time></trkpt><trkpt lat="53.32288821820728" lon="14.566059966672075"><ele>19.25</ele><time>2026-04-17T17:02:18.864Z</time></trkpt><trkpt lat="53.322769231358585" lon="14.56608013926587"><ele>19.5</ele><time>2026-04-17T17:02:19.864Z</time></trkpt><trkpt lat="53.32265475968748" lon="14.566095398524327"><ele>19.75</ele><time>2026-04-17T17:02:20.864Z</time></trkpt><trkpt lat="53.322530936932566" lon="14.56609788410434"><ele>20.0</ele><time>2026-04-17T17:02:21.864Z</time></trkpt><trkpt lat="53.32241998365443" lon="14.566117554590218"><ele>20.0</ele><time>2026-04-17T17:02:22.863Z</time></trkpt><trkpt lat="53.32230806201813" lon="14.56613796894892"><ele>20.0</ele><time>2026-04-17T17:02:23.863Z</time></trkpt><trkpt lat="53.32219390998036" lon="14.56615887197215"><ele>20.0</ele><time>2026-04-17T17:02:24.863Z</time></trkpt><trkpt lat="53.32209101721376" lon="14.566203550075407"><ele>20.0</ele><time>2026-04-17T17:02:25.863Z</time></trkpt><trkpt lat="53.32199879159864" lon="14.5662223409155"><ele>20.0</ele><time>2026-04-17T17:02:26.863Z</time></trkpt><trkpt lat="53.32189742288713" lon="14.566246878870784"><ele>21.0</ele><time>2026-04-17T17:02:27.863Z</time></trkpt><trkpt lat="53.32180051952811" lon="14.566275234674283"><ele>22.0</ele><time>2026-04-17T17:02:28.863Z</time></trkpt><trkpt lat="53.32170021394836" lon="14.56631097312748"><ele>23.0</ele><time>2026-04-17T17:02:29.862Z</time></trkpt><trkpt lat="53.3215909205657" lon="14.566324056948757"><ele>24.0</ele><time>2026-04-17T17:02:30.861Z</time></trkpt><trkpt lat="53.321482380779685" lon="14.5663176360873"><ele>25.0</ele><time>2026-04-17T17:02:31.861Z</time></trkpt><trkpt lat="53.32136235864271" lon="14.566292673090125"><ele>25.0</ele><time>2026-04-17T17:02:32.861Z</time></trkpt><trkpt lat="53.3212510073918" lon="14.566266097738232"><ele>25.0</ele><time>2026-04-17T17:02:33.861Z</time></trkpt><trkpt lat="53.321140368390445" lon="14.566224488299587"><ele>25.0</ele><time>2026-04-17T17:02:34.861Z</time></trkpt><trkpt lat="53.32103899712895" lon="14.566141706704967"><ele>25.0</ele><time>2026-04-17T17:02:35.861Z</time></trkpt><trkpt lat="53.32091847943663" lon="14.566080362119013"><ele>25.0</ele><time>2026-04-17T17:02:36.861Z</time></trkpt><trkpt lat="53.32078710318935" lon="14.566041885368476"><ele>25.0</ele><time>2026-04-17T17:02:37.861Z</time></trkpt><trkpt lat="53.320663340321914" lon="14.565987477033039"><ele>25.0</ele><time>2026-04-17T17:02:38.861Z</time></trkpt><trkpt lat="53.3205380260767" lon="14.56592523697064"><ele>25.0</ele><time>2026-04-17T17:02:39.861Z</time></trkpt><trkpt lat="53.32041712526981" lon="14.565840747083103"><ele>25.0</ele><time>2026-04-17T17:02:40.861Z</time></trkpt><trkpt lat="53.32030225693365" lon="14.565774908671225"><ele>25.0</ele><time>2026-04-17T17:02:41.861Z</time></trkpt><trkpt lat="53.32019225094905" lon="14.565706792777487"><ele>25.0</ele><time>2026-04-17T17:02:42.86Z</time></trkpt><trkpt lat="53.32008720904584" lon="14.565638046730578"><ele>25.0</ele><time>2026-04-17T17:02:43.86Z</time></trkpt><trkpt lat="53.3199862518814" lon="14.565571974008598"><ele>25.0</ele><time>2026-04-17T17:02:44.86Z</time></trkpt><trkpt lat="53.319886061577826" lon="14.56550319118346"><ele>25.0</ele><time>2026-04-17T17:02:45.86Z</time></trkpt><trkpt lat="53.31978809784223" lon="14.565462089594698"><ele>25.0</ele><time>2026-04-17T17:02:46.86Z</time></trkpt><trkpt lat="53.31969568272151" lon="14.565403553641914"><ele>25.0</ele><time>2026-04-17T17:02:47.86Z</time></trkpt><trkpt lat="53.31959802332354" lon="14.565354608045205"><ele>25.0</ele><time>2026-04-17T17:02:48.86Z</time></trkpt><trkpt lat="53.31949835161429" lon="14.5653296554108"><ele>24.0</ele><time>2026-04-17T17:02:49.86Z</time></trkpt><trkpt lat="53.319392735968606" lon="14.56532277957999"><ele>23.0</ele><time>2026-04-17T17:02:50.86Z</time></trkpt><trkpt lat="53.31927033235552" lon="14.565378582175322"><ele>22.0</ele><time>2026-04-17T17:02:51.86Z</time></trkpt><trkpt lat="53.31916525902322" lon="14.56538571515716"><ele>21.0</ele><time>2026-04-17T17:02:52.86Z</time></trkpt><trkpt lat="53.319063867815245" lon="14.565471657804881"><ele>21.0</ele><time>2026-04-17T17:02:53.86Z</time></trkpt><trkpt lat="53.3189493924082" lon="14.565533669494696"><ele>21.0</ele><time>2026-04-17T17:02:54.86Z</time></trkpt><trkpt lat="53.31884033553787" lon="14.565599045108213"><ele>21.0</ele><time>2026-04-17T17:02:55.86Z</time></trkpt><trkpt lat="53.31872158023406" lon="14.565659492920155"><ele>21.0</ele><time>2026-04-17T17:02:56.86Z</time></trkpt><trkpt lat="53.31861297407128" lon="14.565721182713807"><ele>21.4</ele><time>2026-04-17T17:02:57.86Z</time></trkpt><trkpt lat="53.318508099362944" lon="14.565769764229621"><ele>21.8</ele><time>2026-04-17T17:02:58.86Z</time></trkpt><trkpt lat="53.31840936977491" lon="14.565818934182225"><ele>22.2</ele><time>2026-04-17T17:02:59.86Z</time></trkpt><trkpt lat="53.318320265691185" lon="14.565805033059439"><ele>22.599999999999998</ele><time>2026-04-17T17:03:00.86Z</time></trkpt><trkpt lat="53.3182233953441" lon="14.565786417598186"><ele>23.0</ele><time>2026-04-17T17:03:01.86Z</time></trkpt><trkpt lat="53.31811798701954" lon="14.565753259915052"><ele>22.799999999999997</ele><time>2026-04-17T17:03:02.86Z</time></trkpt><trkpt lat="53.31803131388305" lon="14.565711291048002"><ele>22.6</ele><time>2026-04-17T17:03:03.86Z</time></trkpt><trkpt lat="53.317946298551924" lon="14.565656245808293"><ele>22.4</ele><time>2026-04-17T17:03:04.86Z</time></trkpt><trkpt lat="53.317869325590245" lon="14.565585292562167"><ele>22.200000000000003</ele><time>2026-04-17T17:03:05.859Z</time></trkpt><trkpt lat="53.317795943163425" lon="14.5654865309158"><ele>22.0</ele><time>2026-04-17T17:03:06.859Z</time></trkpt><trkpt lat="53.317721298415975" lon="14.565386483881364"><ele>23.0</ele><time>2026-04-17T17:03:07.859Z</time></trkpt><trkpt lat="53.31765035405519" lon="14.56529641147032"><ele>24.0</ele><time>2026-04-17T17:03:08.859Z</time></trkpt><trkpt lat="53.31758156032711" lon="14.565231214784259"><ele>25.000000000000004</ele><time>2026-04-17T17:03:09.859Z</time></trkpt><trkpt lat="53.317504170341664" lon="14.565213133714604"><ele>26.0</ele><time>2026-04-17T17:03:10.859Z</time></trkpt><trkpt lat="53.317384757537816" lon="14.565206438336812"><ele>27.0</ele><time>2026-04-17T17:03:12.859Z</time></trkpt><trkpt lat="53.317298443511696" lon="14.565215925327054"><ele>27.200000000000003</ele><time>2026-04-17T17:03:13.859Z</time></trkpt><trkpt lat="53.317209888015476" lon="14.565229788914834"><ele>27.400000000000002</ele><time>2026-04-17T17:03:14.859Z</time></trkpt><trkpt lat="53.317108716540396" lon="14.565250273779872"><ele>27.599999999999998</ele><time>2026-04-17T17:03:15.859Z</time></trkpt><trkpt lat="53.3170098078386" lon="14.565295066356482"><ele>27.799999999999997</ele><time>2026-04-17T17:03:16.859Z</time></trkpt><trkpt lat="53.31689974226921" lon="14.5653205820589"><ele>28.0</ele><time>2026-04-17T17:03:17.859Z</time></trkpt><trkpt lat="53.3167810323374" lon="14.565359225817256"><ele>26.75</ele><time>2026-04-17T17:03:18.859Z</time></trkpt><trkpt lat="53.31665709524038" lon="14.565389853580477"><ele>25.5</ele><time>2026-04-17T17:03:19.859Z</time></trkpt><trkpt lat="53.31654003391536" lon="14.565409673025712"><ele>24.25</ele><time>2026-04-17T17:03:20.859Z</time></trkpt><trkpt lat="53.31640923252113" lon="14.565447191549993"><ele>23.0</ele><time>2026-04-17T17:03:21.859Z</time></trkpt><trkpt lat="53.316290950826975" lon="14.565477512743286"><ele>23.0</ele><time>2026-04-17T17:03:22.859Z</time></trkpt><trkpt lat="53.316172186346265" lon="14.565487131754747"><ele>23.0</ele><time>2026-04-17T17:03:23.859Z</time></trkpt><trkpt lat="53.31604534861768" lon="14.565518653064444"><ele>23.0</ele><time>2026-04-17T17:03:24.859Z</time></trkpt><trkpt lat="53.31590829997438" lon="14.565573596755126"><ele>23.0</ele><time>2026-04-17T17:03:25.859Z</time></trkpt><trkpt lat="53.3157663304724" lon="14.565612500662162"><ele>23.0</ele><time>2026-04-17T17:03:26.859Z</time></trkpt><trkpt lat="53.31562649776797" lon="14.565655594966188"><ele>23.0</ele><time>2026-04-17T17:03:27.859Z</time></trkpt><trkpt lat="53.31549031220365" lon="14.565693163324472"><ele>23.0</ele><time>2026-04-17T17:03:28.859Z</time></trkpt><trkpt lat="53.315361238869265" lon="14.565733014428174"><ele>23.0</ele><time>2026-04-17T17:03:29.859Z</time></trkpt><trkpt lat="53.31524086684041" lon="14.5657685065254"><ele>23.2</ele><time>2026-04-17T17:03:30.859Z</time></trkpt><trkpt lat="53.31513858558482" lon="14.565824589150662"><ele>23.4</ele><time>2026-04-17T17:03:31.859Z</time></trkpt><trkpt lat="53.31503626636017" lon="14.56588078850689"><ele>23.599999999999998</ele><time>2026-04-17T17:03:32.859Z</time></trkpt><trkpt lat="53.314926651541825" lon="14.565928401531723"><ele>23.799999999999997</ele><time>2026-04-17T17:03:33.859Z</time></trkpt><trkpt lat="53.31484353300299" lon="14.566003207828757"><ele>24.0</ele><time>2026-04-17T17:03:34.859Z</time></trkpt><trkpt lat="53.31477169671406" lon="14.566055162346247"><ele>24.0</ele><time>2026-04-17T17:03:35.859Z</time></trkpt><trkpt lat="53.31467515563943" lon="14.566104436309915"><ele>24.0</ele><time>2026-04-17T17:03:37.859Z</time></trkpt><trkpt lat="53.31457701125324" lon="14.566181308996963"><ele>24.0</ele><time>2026-04-17T17:03:39.859Z</time></trkpt><trkpt lat="53.314515036297294" lon="14.566229342777138"><ele>24.0</ele><time>2026-04-17T17:03:40.859Z</time></trkpt><trkpt lat="53.31443370781613" lon="14.5663134949588"><ele>24.0</ele><time>2026-04-17T17:03:42.859Z</time></trkpt><trkpt lat="53.31432876729868" lon="14.566396547370566"><ele>24.0</ele><time>2026-04-17T17:03:44.859Z</time></trkpt><trkpt lat="53.31418871479532" lon="14.566419979599901"><ele>24.0</ele><time>2026-04-17T17:03:46.859Z</time></trkpt><trkpt lat="53.31410771339138" lon="14.566468488934843"><ele>24.0</ele><time>2026-04-17T17:03:47.859Z</time></trkpt><trkpt lat="53.31404101684941" lon="14.566464671572751"><ele>24.0</ele><time>2026-04-17T17:03:48.859Z</time></trkpt><trkpt lat="53.31391537112505" lon="14.566493706066785"><ele>24.0</ele><time>2026-04-17T17:03:50.859Z</time></trkpt><trkpt lat="53.31383468113542" lon="14.566464819617511"><ele>23.75</ele><time>2026-04-17T17:03:51.859Z</time></trkpt><trkpt lat="53.31372766250569" lon="14.566455827887095"><ele>23.5</ele><time>2026-04-17T17:03:52.859Z</time></trkpt><trkpt lat="53.31360345177771" lon="14.566475306368872"><ele>23.25</ele><time>2026-04-17T17:03:53.859Z</time></trkpt><trkpt lat="53.31347770980085" lon="14.566475934368075"><ele>23.0</ele><time>2026-04-17T17:03:54.859Z</time></trkpt><trkpt lat="53.313363354302126" lon="14.5664762706924"><ele>23.0</ele><time>2026-04-17T17:03:55.859Z</time></trkpt><trkpt lat="53.313258121011806" lon="14.566491522136731"><ele>23.0</ele><time>2026-04-17T17:03:56.859Z</time></trkpt><trkpt lat="53.313161109859266" lon="14.566518374304854"><ele>23.0</ele><time>2026-04-17T17:03:57.859Z</time></trkpt><trkpt lat="53.31306406063852" lon="14.566556006798079"><ele>23.0</ele><time>2026-04-17T17:03:58.859Z</time></trkpt><trkpt lat="53.31296884954397" lon="14.566595383109837"><ele>23.0</ele><time>2026-04-17T17:03:59.859Z</time></trkpt><trkpt lat="53.312884663413726" lon="14.566628748286753"><ele>23.666666666666668</ele><time>2026-04-17T17:04:00.859Z</time></trkpt><trkpt lat="53.31280098089234" lon="14.566658346584132"><ele>24.333333333333336</ele><time>2026-04-17T17:04:01.859Z</time></trkpt><trkpt lat="53.31271531523496" lon="14.566672759672283"><ele>25.0</ele><time>2026-04-17T17:04:02.859Z</time></trkpt><trkpt lat="53.3126203959294" lon="14.566634938614891"><ele>25.666666666666668</ele><time>2026-04-17T17:04:03.859Z</time></trkpt><trkpt lat="53.31253245235575" lon="14.56661920881261"><ele>26.333333333333332</ele><time>2026-04-17T17:04:04.859Z</time></trkpt><trkpt lat="53.31244273364411" lon="14.566599394147035"><ele>27.0</ele><time>2026-04-17T17:04:05.859Z</time></trkpt><trkpt lat="53.31234609044048" lon="14.56657229283468"><ele>27.0</ele><time>2026-04-17T17:04:06.859Z</time></trkpt><trkpt lat="53.312231878607015" lon="14.566526077202989"><ele>27.0</ele><time>2026-04-17T17:04:07.859Z</time></trkpt><trkpt lat="53.31210334804537" lon="14.566508170433577"><ele>27.0</ele><time>2026-04-17T17:04:08.859Z</time></trkpt><trkpt lat="53.3119822354542" lon="14.566469588363738"><ele>27.0</ele><time>2026-04-17T17:04:09.859Z</time></trkpt><trkpt lat="53.3118693652117" lon="14.566440986851687"><ele>27.0</ele><time>2026-04-17T17:04:10.859Z</time></trkpt><trkpt lat="53.31175169929839" lon="14.566396605360499"><ele>27.0</ele><time>2026-04-17T17:04:11.859Z</time></trkpt><trkpt lat="53.311627100271714" lon="14.566361503118161"><ele>27.0</ele><time>2026-04-17T17:04:12.859Z</time></trkpt><trkpt lat="53.31150099169024" lon="14.566323045873725"><ele>27.0</ele><time>2026-04-17T17:04:13.859Z</time></trkpt><trkpt lat="53.311364422680576" lon="14.566277165838573"><ele>27.0</ele><time>2026-04-17T17:04:14.859Z</time></trkpt><trkpt lat="53.31123953675381" lon="14.566227886407605"><ele>27.0</ele><time>2026-04-17T17:04:15.859Z</time></trkpt><trkpt lat="53.31112568317143" lon="14.566176310456749"><ele>27.0</ele><time>2026-04-17T17:04:16.859Z</time></trkpt><trkpt lat="53.31101661096717" lon="14.566130062489693"><ele>27.0</ele><time>2026-04-17T17:04:17.859Z</time></trkpt><trkpt lat="53.310903195838236" lon="14.566085115931957"><ele>27.0</ele><time>2026-04-17T17:04:18.859Z</time></trkpt><trkpt lat="53.31080477562301" lon="14.566023280026336"><ele>27.000000000000004</ele><time>2026-04-17T17:04:19.858Z</time></trkpt><trkpt lat="53.31069775575268" lon="14.566009110290038"><ele>27.000000000000004</ele><time>2026-04-17T17:04:20.858Z</time></trkpt><trkpt lat="53.310588396021814" lon="14.565962949255011"><ele>27.0</ele><time>2026-04-17T17:04:21.858Z</time></trkpt><trkpt lat="53.310481511769304" lon="14.565919885934084"><ele>27.0</ele><time>2026-04-17T17:04:22.858Z</time></trkpt><trkpt lat="53.310379832845236" lon="14.5658677745936"><ele>26.6</ele><time>2026-04-17T17:04:23.858Z</time></trkpt><trkpt lat="53.310273210035774" lon="14.565828310642951"><ele>26.200000000000003</ele><time>2026-04-17T17:04:24.858Z</time></trkpt><trkpt lat="53.31019321261155" lon="14.565778530431404"><ele>25.8</ele><time>2026-04-17T17:04:25.858Z</time></trkpt><trkpt lat="53.310109876773005" lon="14.565729266413397"><ele>25.4</ele><time>2026-04-17T17:04:26.858Z</time></trkpt><trkpt lat="53.31000764131378" lon="14.565686559030683"><ele>25.0</ele><time>2026-04-17T17:04:27.858Z</time></trkpt><trkpt lat="53.30990462150172" lon="14.565633242923585"><ele>25.0</ele><time>2026-04-17T17:04:28.858Z</time></trkpt><trkpt lat="53.30979047996789" lon="14.565592932253143"><ele>25.0</ele><time>2026-04-17T17:04:29.858Z</time></trkpt><trkpt lat="53.30967553511477" lon="14.565562101428267"><ele>25.0</ele><time>2026-04-17T17:04:30.858Z</time></trkpt><trkpt lat="53.30956832090286" lon="14.565536322398835"><ele>25.0</ele><time>2026-04-17T17:04:31.858Z</time></trkpt><trkpt lat="53.30947238634266" lon="14.565510485492052"><ele>25.0</ele><time>2026-04-17T17:04:32.858Z</time></trkpt><trkpt lat="53.30938534137637" lon="14.565505933249554"><ele>24.833333333333336</ele><time>2026-04-17T17:04:33.858Z</time></trkpt><trkpt lat="53.309309647650075" lon="14.56549099235822"><ele>24.666666666666668</ele><time>2026-04-17T17:04:34.858Z</time></trkpt><trkpt lat="53.30923789497501" lon="14.565479218681329"><ele>24.5</ele><time>2026-04-17T17:04:35.857Z</time></trkpt><trkpt lat="53.30911530176462" lon="14.565450830735978"><ele>24.333333333333336</ele><time>2026-04-17T17:04:37.858Z</time></trkpt><trkpt lat="53.3090399141568" lon="14.565412608730599"><ele>24.166666666666668</ele><time>2026-04-17T17:04:38.857Z</time></trkpt><trkpt lat="53.30895178859396" lon="14.565390999423663"><ele>24.0</ele><time>2026-04-17T17:04:39.857Z</time></trkpt><trkpt lat="53.30884932401746" lon="14.565352244632047"><ele>24.6</ele><time>2026-04-17T17:04:40.857Z</time></trkpt><trkpt lat="53.308753514532256" lon="14.565305631534304"><ele>25.2</ele><time>2026-04-17T17:04:41.857Z</time></trkpt><trkpt lat="53.3086559937136" lon="14.56526046588841"><ele>25.800000000000004</ele><time>2026-04-17T17:04:42.857Z</time></trkpt><trkpt lat="53.308560117026715" lon="14.56520340624408"><ele>26.400000000000002</ele><time>2026-04-17T17:04:43.857Z</time></trkpt><trkpt lat="53.308457756806696" lon="14.56515291152331"><ele>27.0</ele><time>2026-04-17T17:04:44.857Z</time></trkpt><trkpt lat="53.308359087988535" lon="14.565086082916844"><ele>27.0</ele><time>2026-04-17T17:04:45.858Z</time></trkpt><trkpt lat="53.30826360725647" lon="14.5649481312669"><ele>27.000000000000004</ele><time>2026-04-17T17:04:46.858Z</time></trkpt><trkpt lat="53.30814921126922" lon="14.564882061666072"><ele>27.000000000000004</ele><time>2026-04-17T17:04:47.858Z</time></trkpt><trkpt lat="53.308042451129936" lon="14.564839323792006"><ele>27.0</ele><time>2026-04-17T17:04:48.857Z</time></trkpt><trkpt lat="53.30796040046971" lon="14.564775742676638"><ele>27.0</ele><time>2026-04-17T17:04:49.857Z</time></trkpt><trkpt lat="53.30787331819808" lon="14.564702803115306"><ele>27.142857142857142</ele><time>2026-04-17T17:04:50.857Z</time></trkpt><trkpt lat="53.30780662131873" lon="14.56463647155259"><ele>27.285714285714285</ele><time>2026-04-17T17:04:51.857Z</time></trkpt><trkpt lat="53.307745108800546" lon="14.56457312881669"><ele>27.42857142857143</ele><time>2026-04-17T17:04:52.857Z</time></trkpt><trkpt lat="53.3076810769912" lon="14.564513546418699"><ele>27.57142857142857</ele><time>2026-04-17T17:04:53.857Z</time></trkpt><trkpt lat="53.30763501869118" lon="14.56443949208935"><ele>27.714285714285715</ele><time>2026-04-17T17:04:54.857Z</time></trkpt><trkpt lat="53.30758144700862" lon="14.564370569715978"><ele>27.857142857142858</ele><time>2026-04-17T17:04:55.857Z</time></trkpt><trkpt lat="53.30752436874459" lon="14.564291490783225"><ele>28.0</ele><time>2026-04-17T17:04:56.857Z</time></trkpt><trkpt lat="53.30746131151901" lon="14.564235592876436"><ele>28.0</ele><time>2026-04-17T17:04:57.857Z</time></trkpt><trkpt lat="53.30738395740673" lon="14.564109648521564"><ele>27.999999999999996</ele><time>2026-04-17T17:04:59.857Z</time></trkpt><trkpt lat="53.30732125495405" lon="14.5639739688328"><ele>27.999999999999996</ele><time>2026-04-17T17:05:01.857Z</time></trkpt><trkpt lat="53.30725050254069" lon="14.563829389391925"><ele>28.0</ele><time>2026-04-17T17:05:03.857Z</time></trkpt><trkpt lat="53.30719844628829" lon="14.56376641481716"><ele>28.0</ele><time>2026-04-17T17:05:04.857Z</time></trkpt><trkpt lat="53.30715102264315" lon="14.563669855838057"><ele>27.799999999999997</ele><time>2026-04-17T17:05:05.857Z</time></trkpt><trkpt lat="53.307104838866906" lon="14.56357815808242"><ele>27.599999999999998</ele><time>2026-04-17T17:05:06.857Z</time></trkpt><trkpt lat="53.30705974719462" lon="14.563440766466293"><ele>27.400000000000002</ele><time>2026-04-17T17:05:07.857Z</time></trkpt><trkpt lat="53.30699492119681" lon="14.563303186792693"><ele>27.200000000000003</ele><time>2026-04-17T17:05:08.857Z</time></trkpt><trkpt lat="53.306932158034" lon="14.563167947297456"><ele>27.0</ele><time>2026-04-17T17:05:09.857Z</time></trkpt><trkpt lat="53.30685368695066" lon="14.563041353804918"><ele>27.0</ele><time>2026-04-17T17:05:10.857Z</time></trkpt><trkpt lat="53.30677775504922" lon="14.562875230927212"><ele>27.0</ele><time>2026-04-17T17:05:11.857Z</time></trkpt><trkpt lat="53.30669763621069" lon="14.562703111464414"><ele>27.0</ele><time>2026-04-17T17:05:12.857Z</time></trkpt><trkpt lat="53.3066217267431" lon="14.562534496211883"><ele>27.0</ele><time>2026-04-17T17:05:13.857Z</time></trkpt><trkpt lat="53.30653331607181" lon="14.562354695668269"><ele>27.333333333333336</ele><time>2026-04-17T17:05:14.857Z</time></trkpt><trkpt lat="53.30642840133199" lon="14.562150328328755"><ele>27.666666666666668</ele><time>2026-04-17T17:05:15.857Z</time></trkpt><trkpt lat="53.30634085278171" lon="14.561944139596243"><ele>28.0</ele><time>2026-04-17T17:05:16.857Z</time></trkpt><trkpt lat="53.306244419386246" lon="14.56175283104448"><ele>28.0</ele><time>2026-04-17T17:05:17.857Z</time></trkpt><trkpt lat="53.30616825819377" lon="14.561593884874934"><ele>28.0</ele><time>2026-04-17T17:05:18.857Z</time></trkpt><trkpt lat="53.30608449477994" lon="14.561450194267506"><ele>28.0</ele><time>2026-04-17T17:05:19.857Z</time></trkpt><trkpt lat="53.30602046056478" lon="14.56130409008075"><ele>28.0</ele><time>2026-04-17T17:05:20.857Z</time></trkpt><trkpt lat="53.30595053890321" lon="14.561163964819917"><ele>28.2</ele><time>2026-04-17T17:05:21.857Z</time></trkpt><trkpt lat="53.30588451020072" lon="14.561026641913728"><ele>28.4</ele><time>2026-04-17T17:05:22.857Z</time></trkpt><trkpt lat="53.30581534276944" lon="14.56089437839998"><ele>28.599999999999998</ele><time>2026-04-17T17:05:23.857Z</time></trkpt><trkpt lat="53.305747531214216" lon="14.560753384283517"><ele>28.799999999999997</ele><time>2026-04-17T17:05:24.857Z</time></trkpt><trkpt lat="53.305672276331244" lon="14.560595101488497"><ele>29.0</ele><time>2026-04-17T17:05:25.857Z</time></trkpt><trkpt lat="53.30557072489296" lon="14.56047886724142"><ele>29.2</ele><time>2026-04-17T17:05:26.857Z</time></trkpt><trkpt lat="53.30547934209437" lon="14.560348227539572"><ele>29.4</ele><time>2026-04-17T17:05:27.857Z</time></trkpt><trkpt lat="53.30538448915529" lon="14.560267067732559"><ele>29.6</ele><time>2026-04-17T17:05:28.857Z</time></trkpt><trkpt lat="53.30530121846179" lon="14.560187231947872"><ele>29.8</ele><time>2026-04-17T17:05:29.857Z</time></trkpt><trkpt lat="53.3052351171948" lon="14.560116247371433"><ele>30.0</ele><time>2026-04-17T17:05:30.857Z</time></trkpt><trkpt lat="53.30517628758263" lon="14.560052177421008"><ele>30.0</ele><time>2026-04-17T17:05:31.857Z</time></trkpt><trkpt lat="53.30509994866103" lon="14.560007995265694"><ele>30.0</ele><time>2026-04-17T17:05:32.857Z</time></trkpt><trkpt lat="53.30501157780918" lon="14.559984174541203"><ele>30.0</ele><time>2026-04-17T17:05:33.857Z</time></trkpt><trkpt lat="53.30492962802369" lon="14.559990833499041"><ele>30.0</ele><time>2026-04-17T17:05:34.857Z</time></trkpt><trkpt lat="53.30480589618931" lon="14.560023377763336"><ele>30.0</ele><time>2026-04-17T17:05:35.857Z</time></trkpt><trkpt lat="53.304692088363225" lon="14.560028187377078"><ele>30.0</ele><time>2026-04-17T17:05:36.857Z</time></trkpt><trkpt lat="53.304582372433096" lon="14.560067480681887"><ele>30.0</ele><time>2026-04-17T17:05:37.857Z</time></trkpt><trkpt lat="53.30447389097812" lon="14.56012171885811"><ele>30.0</ele><time>2026-04-17T17:05:38.857Z</time></trkpt><trkpt lat="53.304376013202784" lon="14.560163181670125"><ele>30.0</ele><time>2026-04-17T17:05:39.857Z</time></trkpt><trkpt lat="53.304275174496816" lon="14.560201154400575"><ele>30.0</ele><time>2026-04-17T17:05:40.857Z</time></trkpt><trkpt lat="53.304171212380595" lon="14.560212314937804"><ele>30.0</ele><time>2026-04-17T17:05:41.857Z</time></trkpt><trkpt lat="53.30406940594186" lon="14.560227947867176"><ele>30.0</ele><time>2026-04-17T17:05:42.857Z</time></trkpt><trkpt lat="53.30397450675207" lon="14.560214902522391"><ele>30.0</ele><time>2026-04-17T17:05:43.857Z</time></trkpt><trkpt lat="53.303882971686306" lon="14.560196302278458"><ele>30.0</ele><time>2026-04-17T17:05:44.857Z</time></trkpt><trkpt lat="53.30378249463931" lon="14.560195258974352"><ele>30.0</ele><time>2026-04-17T17:05:45.857Z</time></trkpt><trkpt lat="53.30368570785181" lon="14.56015971637692"><ele>30.0</ele><time>2026-04-17T17:05:46.857Z</time></trkpt><trkpt lat="53.30357486302049" lon="14.560148842239931"><ele>30.0</ele><time>2026-04-17T17:05:47.857Z</time></trkpt><trkpt lat="53.303451370148025" lon="14.560129785329819"><ele>30.0</ele><time>2026-04-17T17:05:48.856Z</time></trkpt><trkpt lat="53.30333022069814" lon="14.560127835774672"><ele>30.0</ele><time>2026-04-17T17:05:49.856Z</time></trkpt><trkpt lat="53.30321514703586" lon="14.560139536956111"><ele>30.0</ele><time>2026-04-17T17:05:50.856Z</time></trkpt><trkpt lat="53.303106073743706" lon="14.560167288032691"><ele>30.0</ele><time>2026-04-17T17:05:51.856Z</time></trkpt><trkpt lat="53.30299211055384" lon="14.560209983599648"><ele>30.0</ele><time>2026-04-17T17:05:52.856Z</time></trkpt><trkpt lat="53.302888801610756" lon="14.560253855485646"><ele>30.0</ele><time>2026-04-17T17:05:53.856Z</time></trkpt><trkpt lat="53.30276583137101" lon="14.560270253943202"><ele>30.25</ele><time>2026-04-17T17:05:54.856Z</time></trkpt><trkpt lat="53.30264234919507" lon="14.560302603209506"><ele>30.5</ele><time>2026-04-17T17:05:55.856Z</time></trkpt><trkpt lat="53.30253237671282" lon="14.560323364055924"><ele>30.75</ele><time>2026-04-17T17:05:56.856Z</time></trkpt><trkpt lat="53.30241883678626" lon="14.560324147770764"><ele>31.0</ele><time>2026-04-17T17:05:57.856Z</time></trkpt><trkpt lat="53.302302995601885" lon="14.560299579520978"><ele>32.0</ele><time>2026-04-17T17:05:58.856Z</time></trkpt><trkpt lat="53.302195929986986" lon="14.56027471812402"><ele>33.0</ele><time>2026-04-17T17:05:59.856Z</time></trkpt><trkpt lat="53.30209242598945" lon="14.560258203792252"><ele>34.0</ele><time>2026-04-17T17:06:00.856Z</time></trkpt><trkpt lat="53.301984035566946" lon="14.560265171307751"><ele>35.0</ele><time>2026-04-17T17:06:01.856Z</time></trkpt><trkpt lat="53.301867812925465" lon="14.560305504490719"><ele>36.0</ele><time>2026-04-17T17:06:02.856Z</time></trkpt><trkpt lat="53.30174138592486" lon="14.560359482101171"><ele>36.0</ele><time>2026-04-17T17:06:03.856Z</time></trkpt><trkpt lat="53.30159937961122" lon="14.560364994705983"><ele>36.0</ele><time>2026-04-17T17:06:04.856Z</time></trkpt><trkpt lat="53.30145017258546" lon="14.56037818158276"><ele>36.0</ele><time>2026-04-17T17:06:05.856Z</time></trkpt><trkpt lat="53.30130183541157" lon="14.560379776252583"><ele>36.0</ele><time>2026-04-17T17:06:06.856Z</time></trkpt><trkpt lat="53.30117820649781" lon="14.560373718207497"><ele>36.0</ele><time>2026-04-17T17:06:07.856Z</time></trkpt><trkpt lat="53.30105717260433" lon="14.560364778627735"><ele>36.0</ele><time>2026-04-17T17:06:08.856Z</time></trkpt><trkpt lat="53.30095980885733" lon="14.56035401056771"><ele>36.0</ele><time>2026-04-17T17:06:09.856Z</time></trkpt><trkpt lat="53.30086461124175" lon="14.560337482315068"><ele>36.0</ele><time>2026-04-17T17:06:10.856Z</time></trkpt><trkpt lat="53.30076430660328" lon="14.560313509504105"><ele>36.0</ele><time>2026-04-17T17:06:11.856Z</time></trkpt><trkpt lat="53.300655910825206" lon="14.560284998795964"><ele>35.0</ele><time>2026-04-17T17:06:12.856Z</time></trkpt><trkpt lat="53.30054533443928" lon="14.560252176525431"><ele>34.0</ele><time>2026-04-17T17:06:13.856Z</time></trkpt><trkpt lat="53.30044464173471" lon="14.56024064294888"><ele>33.0</ele><time>2026-04-17T17:06:14.856Z</time></trkpt><trkpt lat="53.300353395254966" lon="14.56021263030475"><ele>32.0</ele><time>2026-04-17T17:06:15.856Z</time></trkpt><trkpt lat="53.30026309810839" lon="14.56019598086"><ele>31.0</ele><time>2026-04-17T17:06:16.856Z</time></trkpt><trkpt lat="53.30018229460877" lon="14.560205061793988"><ele>31.000000000000004</ele><time>2026-04-17T17:06:17.856Z</time></trkpt><trkpt lat="53.300101748033015" lon="14.560210314257878"><ele>31.0</ele><time>2026-04-17T17:06:18.856Z</time></trkpt><trkpt lat="53.30000845105346" lon="14.560221919801897"><ele>31.0</ele><time>2026-04-17T17:06:19.856Z</time></trkpt><trkpt lat="53.29990893277069" lon="14.560202447131141"><ele>31.0</ele><time>2026-04-17T17:06:20.856Z</time></trkpt><trkpt lat="53.29981845136985" lon="14.56023609736883"><ele>31.000000000000004</ele><time>2026-04-17T17:06:21.856Z</time></trkpt><trkpt lat="53.2997423248653" lon="14.560235012968741"><ele>31.0</ele><time>2026-04-17T17:06:22.856Z</time></trkpt><trkpt lat="53.29965596068777" lon="14.560257074877228"><ele>30.000000000000004</ele><time>2026-04-17T17:06:23.856Z</time></trkpt><trkpt lat="53.29958113972891" lon="14.560263539529997"><ele>29.0</ele><time>2026-04-17T17:06:24.856Z</time></trkpt><trkpt lat="53.29949881543669" lon="14.560237662263424"><ele>28.0</ele><time>2026-04-17T17:06:25.856Z</time></trkpt><trkpt lat="53.2994184814726" lon="14.560260793808023"><ele>27.0</ele><time>2026-04-17T17:06:26.856Z</time></trkpt><trkpt lat="53.29934591056229" lon="14.560265870645997"><ele>26.000000000000004</ele><time>2026-04-17T17:06:27.856Z</time></trkpt><trkpt lat="53.299273221831214" lon="14.560280694440504"><ele>25.0</ele><time>2026-04-17T17:06:28.856Z</time></trkpt><trkpt lat="53.299182622139625" lon="14.560299426990019"><ele>25.000000000000004</ele><time>2026-04-17T17:06:29.856Z</time></trkpt><trkpt lat="53.299105828507145" lon="14.560314802290213"><ele>25.0</ele><time>2026-04-17T17:06:30.856Z</time></trkpt><trkpt lat="53.29902047388725" lon="14.560308726552051"><ele>25.0</ele><time>2026-04-17T17:06:31.856Z</time></trkpt><trkpt lat="53.298939108965" lon="14.560326075310202"><ele>25.0</ele><time>2026-04-17T17:06:32.856Z</time></trkpt><trkpt lat="53.298875049445805" lon="14.560363817527884"><ele>25.000000000000004</ele><time>2026-04-17T17:06:33.856Z</time></trkpt><trkpt lat="53.29879989711037" lon="14.560371071535943"><ele>25.0</ele><time>2026-04-17T17:06:34.856Z</time></trkpt><trkpt lat="53.298702198509865" lon="14.56032967566442"><ele>24.8</ele><time>2026-04-17T17:06:35.856Z</time></trkpt><trkpt lat="53.29859501237847" lon="14.560332962852643"><ele>24.6</ele><time>2026-04-17T17:06:36.856Z</time></trkpt><trkpt lat="53.298499745159845" lon="14.560377244467352"><ele>24.4</ele><time>2026-04-17T17:06:37.856Z</time></trkpt><trkpt lat="53.2984121361598" lon="14.56037662709564"><ele>24.2</ele><time>2026-04-17T17:06:38.856Z</time></trkpt><trkpt lat="53.298328545663374" lon="14.560384212836984"><ele>24.0</ele><time>2026-04-17T17:06:39.856Z</time></trkpt><trkpt lat="53.298245725664515" lon="14.560387250886974"><ele>23.833333333333332</ele><time>2026-04-17T17:06:40.856Z</time></trkpt><trkpt lat="53.29815346719374" lon="14.560406228406295"><ele>23.666666666666668</ele><time>2026-04-17T17:06:41.855Z</time></trkpt><trkpt lat="53.298070171746645" lon="14.560421054938146"><ele>23.5</ele><time>2026-04-17T17:06:42.854Z</time></trkpt><trkpt lat="53.29798052409136" lon="14.560437824575946"><ele>23.333333333333336</ele><time>2026-04-17T17:06:43.854Z</time></trkpt><trkpt lat="53.29789593536494" lon="14.560442617734289"><ele>23.166666666666668</ele><time>2026-04-17T17:06:44.855Z</time></trkpt><trkpt lat="53.29782410800054" lon="14.560455925311652"><ele>23.0</ele><time>2026-04-17T17:06:45.854Z</time></trkpt><trkpt lat="53.29774450948656" lon="14.56044029014057"><ele>22.833333333333336</ele><time>2026-04-17T17:06:46.854Z</time></trkpt><trkpt lat="53.29767362640257" lon="14.560450038854068"><ele>22.666666666666668</ele><time>2026-04-17T17:06:47.854Z</time></trkpt><trkpt lat="53.29760312941166" lon="14.560487987100313"><ele>22.5</ele><time>2026-04-17T17:06:48.854Z</time></trkpt><trkpt lat="53.297532324320905" lon="14.560497231831041"><ele>22.333333333333332</ele><time>2026-04-17T17:06:49.854Z</time></trkpt><trkpt lat="53.29746360100254" lon="14.56052046339426"><ele>22.166666666666664</ele><time>2026-04-17T17:06:50.854Z</time></trkpt><trkpt lat="53.297399524056644" lon="14.560527482170377"><ele>22.0</ele><time>2026-04-17T17:06:51.854Z</time></trkpt><trkpt lat="53.2972981750366" lon="14.560525943104512"><ele>22.333333333333332</ele><time>2026-04-17T17:06:53.854Z</time></trkpt><trkpt lat="53.29722066487046" lon="14.560644477073815"><ele>22.666666666666664</ele><time>2026-04-17T17:06:55.854Z</time></trkpt><trkpt lat="53.2971288731891" lon="14.560731822197903"><ele>23.0</ele><time>2026-04-17T17:06:57.854Z</time></trkpt><trkpt lat="53.29707029067869" lon="14.560776848239442"><ele>23.333333333333332</ele><time>2026-04-17T17:06:58.854Z</time></trkpt><trkpt lat="53.2970101619739" lon="14.56083628557616"><ele>23.666666666666668</ele><time>2026-04-17T17:06:59.854Z</time></trkpt><trkpt lat="53.29692897377325" lon="14.560915888993081"><ele>24.0</ele><time>2026-04-17T17:07:01.854Z</time></trkpt><trkpt lat="53.296870916853926" lon="14.560978739343488"><ele>24.0</ele><time>2026-04-17T17:07:03.854Z</time></trkpt><trkpt lat="53.296774345419216" lon="14.560968682038244"><ele>24.0</ele><time>2026-04-17T17:07:05.854Z</time></trkpt><trkpt lat="53.296682109206465" lon="14.56093060207728"><ele>24.0</ele><time>2026-04-17T17:07:07.854Z</time></trkpt><trkpt lat="53.29656131898042" lon="14.560880621218327"><ele>24.0</ele><time>2026-04-17T17:07:09.854Z</time></trkpt><trkpt lat="53.2964956035428" lon="14.560853919359484"><ele>24.0</ele><time>2026-04-17T17:07:10.854Z</time></trkpt><trkpt lat="53.29641763045668" lon="14.560816275727854"><ele>23.857142857142854</ele><time>2026-04-17T17:07:11.854Z</time></trkpt><trkpt lat="53.296354072826674" lon="14.560749418218764"><ele>23.714285714285715</ele><time>2026-04-17T17:07:12.854Z</time></trkpt><trkpt lat="53.296309236967666" lon="14.560665221025145"><ele>23.57142857142857</ele><time>2026-04-17T17:07:13.854Z</time></trkpt><trkpt lat="53.29628040266225" lon="14.560565096660557"><ele>23.428571428571427</ele><time>2026-04-17T17:07:14.854Z</time></trkpt><trkpt lat="53.29626779786123" lon="14.560440494258968"><ele>23.285714285714285</ele><time>2026-04-17T17:07:15.854Z</time></trkpt><trkpt lat="53.296258886142745" lon="14.56031579416301"><ele>23.142857142857142</ele><time>2026-04-17T17:07:16.854Z</time></trkpt><trkpt lat="53.296252187008704" lon="14.56019024352419"><ele>23.0</ele><time>2026-04-17T17:07:17.854Z</time></trkpt><trkpt lat="53.29624343511664" lon="14.560058327158007"><ele>23.5</ele><time>2026-04-17T17:07:18.854Z</time></trkpt><trkpt lat="53.29623042502701" lon="14.559910558679148"><ele>24.0</ele><time>2026-04-17T17:07:19.854Z</time></trkpt><trkpt lat="53.29622733825996" lon="14.559763385690808"><ele>24.5</ele><time>2026-04-17T17:07:20.854Z</time></trkpt><trkpt lat="53.29622285137433" lon="14.559610382427499"><ele>25.0</ele><time>2026-04-17T17:07:21.854Z</time></trkpt><trkpt lat="53.29621957002464" lon="14.559465100059949"><ele>25.499999999999996</ele><time>2026-04-17T17:07:22.854Z</time></trkpt><trkpt lat="53.29621364029144" lon="14.559313846187992"><ele>26.0</ele><time>2026-04-17T17:07:23.854Z</time></trkpt><trkpt lat="53.29621035459398" lon="14.5591585208833"><ele>26.666666666666664</ele><time>2026-04-17T17:07:24.854Z</time></trkpt><trkpt lat="53.29620477450872" lon="14.558999072952796"><ele>27.333333333333332</ele><time>2026-04-17T17:07:25.854Z</time></trkpt><trkpt lat="53.29620231754065" lon="14.558859341359534"><ele>28.0</ele><time>2026-04-17T17:07:26.854Z</time></trkpt><trkpt lat="53.29621066651694" lon="14.558738497875325"><ele>28.666666666666664</ele><time>2026-04-17T17:07:27.854Z</time></trkpt><trkpt lat="53.29618758536213" lon="14.558638537962333"><ele>29.333333333333332</ele><time>2026-04-17T17:07:28.854Z</time></trkpt><trkpt lat="53.29615084035896" lon="14.558541164898445"><ele>30.0</ele><time>2026-04-17T17:07:29.854Z</time></trkpt><trkpt lat="53.29609246116104" lon="14.558469019435782"><ele>30.2</ele><time>2026-04-17T17:07:30.853Z</time></trkpt><trkpt lat="53.296018702657115" lon="14.558403058286373"><ele>30.4</ele><time>2026-04-17T17:07:31.853Z</time></trkpt><trkpt lat="53.295926186461074" lon="14.558368180090996"><ele>30.6</ele><time>2026-04-17T17:07:32.853Z</time></trkpt><trkpt lat="53.295811955396424" lon="14.558313490270185"><ele>30.8</ele><time>2026-04-17T17:07:33.853Z</time></trkpt><trkpt lat="53.295689544947145" lon="14.558249681564108"><ele>31.0</ele><time>2026-04-17T17:07:34.853Z</time></trkpt><trkpt lat="53.29556739802038" lon="14.558194092473101"><ele>31.0</ele><time>2026-04-17T17:07:35.853Z</time></trkpt><trkpt lat="53.29545840300343" lon="14.558141466193737"><ele>31.0</ele><time>2026-04-17T17:07:36.853Z</time></trkpt><trkpt lat="53.29534994400071" lon="14.558072149733507"><ele>31.0</ele><time>2026-04-17T17:07:37.853Z</time></trkpt><trkpt lat="53.29524188213223" lon="14.558019078889771"><ele>31.0</ele><time>2026-04-17T17:07:38.853Z</time></trkpt><trkpt lat="53.29511998913022" lon="14.557934877661207"><ele>31.25</ele><time>2026-04-17T17:07:39.853Z</time></trkpt><trkpt lat="53.29502282641216" lon="14.557788674589277"><ele>31.5</ele><time>2026-04-17T17:07:40.853Z</time></trkpt><trkpt lat="53.29491794439037" lon="14.557634264468401"><ele>31.75</ele><time>2026-04-17T17:07:41.853Z</time></trkpt><trkpt lat="53.29482496949803" lon="14.55747040231581"><ele>32.0</ele><time>2026-04-17T17:07:42.853Z</time></trkpt><trkpt lat="53.294739279069184" lon="14.557307267031353"><ele>32.0</ele><time>2026-04-17T17:07:43.853Z</time></trkpt><trkpt lat="53.29466223073043" lon="14.557175434558479"><ele>32.0</ele><time>2026-04-17T17:07:44.853Z</time></trkpt><trkpt lat="53.29457539497822" lon="14.557059043415137"><ele>32.0</ele><time>2026-04-17T17:07:45.853Z</time></trkpt><trkpt lat="53.294513763161" lon="14.556959784766098"><ele>32.0</ele><time>2026-04-17T17:07:46.853Z</time></trkpt><trkpt lat="53.29443807207985" lon="14.55690905589147"><ele>32.0</ele><time>2026-04-17T17:07:47.853Z</time></trkpt><trkpt lat="53.29432987327725" lon="14.55686585076183"><ele>32.5</ele><time>2026-04-17T17:07:48.853Z</time></trkpt><trkpt lat="53.294218164409905" lon="14.556835837760806"><ele>33.0</ele><time>2026-04-17T17:07:49.853Z</time></trkpt><trkpt lat="53.29412368088511" lon="14.556794459371671"><ele>33.5</ele><time>2026-04-17T17:07:50.853Z</time></trkpt><trkpt lat="53.29404242651996" lon="14.55673945303325"><ele>34.0</ele><time>2026-04-17T17:07:51.853Z</time></trkpt><trkpt lat="53.29398776844971" lon="14.556657917287572"><ele>34.5</ele><time>2026-04-17T17:07:52.853Z</time></trkpt><trkpt lat="53.29396005464576" lon="14.556554449257586"><ele>35.0</ele><time>2026-04-17T17:07:53.853Z</time></trkpt><trkpt lat="53.293948554622894" lon="14.556438565314718"><ele>35.0</ele><time>2026-04-17T17:07:54.853Z</time></trkpt><trkpt lat="53.293993138131775" lon="14.556315345568498"><ele>35.0</ele><time>2026-04-17T17:07:55.853Z</time></trkpt><trkpt lat="53.29400656316396" lon="14.556168299562923"><ele>35.0</ele><time>2026-04-17T17:07:56.853Z</time></trkpt><trkpt lat="53.29400951007731" lon="14.5559817199992"><ele>35.0</ele><time>2026-04-17T17:07:57.853Z</time></trkpt><trkpt lat="53.29402930548543" lon="14.555801814238757"><ele>35.0</ele><time>2026-04-17T17:07:58.853Z</time></trkpt><trkpt lat="53.29405125083124" lon="14.555646793929167"><ele>35.2</ele><time>2026-04-17T17:07:59.853Z</time></trkpt><trkpt lat="53.29407235640182" lon="14.555481207130855"><ele>35.4</ele><time>2026-04-17T17:08:01.853Z</time></trkpt><trkpt lat="53.294100163300364" lon="14.555370908065642"><ele>35.6</ele><time>2026-04-17T17:08:04.853Z</time></trkpt><trkpt lat="53.293957680282766" lon="14.555249226263175"><ele>35.8</ele><time>2026-04-17T17:08:06.853Z</time></trkpt><trkpt lat="53.29387148637101" lon="14.5551635644079"><ele>36.0</ele><time>2026-04-17T17:08:08.853Z</time></trkpt><trkpt lat="53.29378331576706" lon="14.555053415572857"><ele>36.0</ele><time>2026-04-17T17:08:10.853Z</time></trkpt><trkpt lat="53.293691160790736" lon="14.554929410209574"><ele>36.0</ele><time>2026-04-17T17:08:12.853Z</time></trkpt><trkpt lat="53.29357338432685" lon="14.554824408555186"><ele>36.0</ele><time>2026-04-17T17:08:14.853Z</time></trkpt><trkpt lat="53.2935235482829" lon="14.554756532976505"><ele>36.0</ele><time>2026-04-17T17:08:15.853Z</time></trkpt><trkpt lat="53.293468858425555" lon="14.554667262363573"><ele>36.0</ele><time>2026-04-17T17:08:16.853Z</time></trkpt><trkpt lat="53.29340551528529" lon="14.554592583221662"><ele>36.0</ele><time>2026-04-17T17:08:17.853Z</time></trkpt><trkpt lat="53.29334989806254" lon="14.554526946715653"><ele>36.0</ele><time>2026-04-17T17:08:18.853Z</time></trkpt><trkpt lat="53.2932600462169" lon="14.55444749653427"><ele>36.0</ele><time>2026-04-17T17:08:20.853Z</time></trkpt><trkpt lat="53.29320400177745" lon="14.5543834845439"><ele>36.0</ele><time>2026-04-17T17:08:22.853Z</time></trkpt><trkpt lat="53.293039999600595" lon="14.55456574403267"><ele>36.0</ele><time>2026-04-17T17:08:44.853Z</time></trkpt><trkpt lat="53.2929369139671" lon="14.554583508804333"><ele>36.0</ele><time>2026-04-17T17:08:46.853Z</time></trkpt><trkpt lat="53.2928275063955" lon="14.554539661820298"><ele>36.0</ele><time>2026-04-17T17:08:48.851Z</time></trkpt><trkpt lat="53.292773723559456" lon="14.55448321542724"><ele>36.0</ele><time>2026-04-17T17:08:49.851Z</time></trkpt><trkpt lat="53.292659498056565" lon="14.554501932327447"><ele>36.0</ele><time>2026-04-17T17:08:51.851Z</time></trkpt><trkpt lat="53.29254716330308" lon="14.554476378383717"><ele>36.0</ele><time>2026-04-17T17:08:53.851Z</time></trkpt><trkpt lat="53.29248143898155" lon="14.55449598665744"><ele>36.166666666666664</ele><time>2026-04-17T17:08:54.851Z</time></trkpt><trkpt lat="53.292419477692995" lon="14.554465922675295"><ele>36.333333333333336</ele><time>2026-04-17T17:08:55.851Z</time></trkpt><trkpt lat="53.29235117380628" lon="14.55446927486387"><ele>36.5</ele><time>2026-04-17T17:08:56.851Z</time></trkpt><trkpt lat="53.2922865165984" lon="14.554474799725496"><ele>36.66666666666667</ele><time>2026-04-17T17:08:57.851Z</time></trkpt><trkpt lat="53.29221891060887" lon="14.554478585469202"><ele>36.833333333333336</ele><time>2026-04-17T17:08:58.851Z</time></trkpt><trkpt lat="53.29215444223978" lon="14.55447949401024"><ele>37.0</ele><time>2026-04-17T17:08:59.85Z</time></trkpt><trkpt lat="53.292022233175146" lon="14.554461390893572"><ele>37.0</ele><time>2026-04-17T17:09:01.85Z</time></trkpt><trkpt lat="53.29193982973438" lon="14.554459615714478"><ele>37.0</ele><time>2026-04-17T17:09:02.85Z</time></trkpt><trkpt lat="53.29185581231024" lon="14.554447601491155"><ele>37.0</ele><time>2026-04-17T17:09:03.85Z</time></trkpt><trkpt lat="53.291775860431834" lon="14.554421960693528"><ele>37.0</ele><time>2026-04-17T17:09:04.85Z</time></trkpt><trkpt lat="53.291694070485136" lon="14.554390400902623"><ele>37.0</ele><time>2026-04-17T17:09:05.85Z</time></trkpt><trkpt lat="53.29162226024902" lon="14.554359181444285"><ele>37.0</ele><time>2026-04-17T17:09:06.85Z</time></trkpt><trkpt lat="53.291553874606336" lon="14.554335201271723"><ele>37.0</ele><time>2026-04-17T17:09:07.85Z</time></trkpt><trkpt lat="53.291488074151246" lon="14.554319304382798"><ele>37.0</ele><time>2026-04-17T17:09:08.85Z</time></trkpt><trkpt lat="53.29140245738613" lon="14.554339782167693"><ele>37.0</ele><time>2026-04-17T17:09:10.85Z</time></trkpt><trkpt lat="53.29133655665568" lon="14.554438726345635"><ele>37.0</ele><time>2026-04-17T17:09:12.85Z</time></trkpt><trkpt lat="53.2913257768624" lon="14.554598990982834"><ele>37.0</ele><time>2026-04-17T17:09:14.85Z</time></trkpt><trkpt lat="53.29128614002247" lon="14.55481324170122"><ele>36.333333333333336</ele><time>2026-04-17T17:09:16.85Z</time></trkpt><trkpt lat="53.291273414937216" lon="14.554931282606315"><ele>35.66666666666667</ele><time>2026-04-17T17:09:17.85Z</time></trkpt><trkpt lat="53.29125738416096" lon="14.555048072252088"><ele>35.0</ele><time>2026-04-17T17:09:18.85Z</time></trkpt><trkpt lat="53.29124468593005" lon="14.55516149391524"><ele>34.333333333333336</ele><time>2026-04-17T17:09:19.85Z</time></trkpt><trkpt lat="53.29123569111573" lon="14.55528019339207"><ele>33.666666666666664</ele><time>2026-04-17T17:09:20.85Z</time></trkpt><trkpt lat="53.291247605375446" lon="14.555391601087528"><ele>33.0</ele><time>2026-04-17T17:09:21.85Z</time></trkpt><trkpt lat="53.29122617022396" lon="14.555569354437132"><ele>33.0</ele><time>2026-04-17T17:09:23.85Z</time></trkpt><trkpt lat="53.29120358187016" lon="14.55570709753589"><ele>33.0</ele><time>2026-04-17T17:09:25.85Z</time></trkpt><trkpt lat="53.2912002521932" lon="14.555820723155957"><ele>33.0</ele><time>2026-04-17T17:09:27.85Z</time></trkpt><trkpt lat="53.29115504183783" lon="14.555938796211464"><ele>33.0</ele><time>2026-04-17T17:09:31.85Z</time></trkpt><trkpt lat="53.29102552584728" lon="14.555893060622216"><ele>33.0</ele><time>2026-04-17T17:09:34.85Z</time></trkpt><trkpt lat="53.29096148859165" lon="14.555845619896564"><ele>33.0</ele><time>2026-04-17T17:09:35.85Z</time></trkpt><trkpt lat="53.29087971643242" lon="14.555806274987267"><ele>33.0</ele><time>2026-04-17T17:09:36.85Z</time></trkpt><trkpt lat="53.290775564887994" lon="14.555756975472699"><ele>33.0</ele><time>2026-04-17T17:09:37.85Z</time></trkpt><trkpt lat="53.290655671234376" lon="14.555710298745892"><ele>33.0</ele><time>2026-04-17T17:09:38.85Z</time></trkpt><trkpt lat="53.290532501861044" lon="14.555653912735012"><ele>33.0</ele><time>2026-04-17T17:09:39.849Z</time></trkpt><trkpt lat="53.290386996432616" lon="14.555627428367202"><ele>32.0</ele><time>2026-04-17T17:09:40.849Z</time></trkpt><trkpt lat="53.29024652882735" lon="14.55563221243238"><ele>31.0</ele><time>2026-04-17T17:09:41.849Z</time></trkpt><trkpt lat="53.290113156894584" lon="14.555593964110725"><ele>30.0</ele><time>2026-04-17T17:09:42.849Z</time></trkpt><trkpt lat="53.28999113673254" lon="14.55557900865666"><ele>29.0</ele><time>2026-04-17T17:09:43.849Z</time></trkpt><trkpt lat="53.28988053797838" lon="14.555566552494014"><ele>29.0</ele><time>2026-04-17T17:09:44.849Z</time></trkpt><trkpt lat="53.28977453603936" lon="14.555551129826796"><ele>29.0</ele><time>2026-04-17T17:09:45.849Z</time></trkpt><trkpt lat="53.289672361149385" lon="14.555547052680689"><ele>29.0</ele><time>2026-04-17T17:09:46.849Z</time></trkpt><trkpt lat="53.28957460634578" lon="14.555553538661488"><ele>29.0</ele><time>2026-04-17T17:09:47.849Z</time></trkpt><trkpt lat="53.289468684863714" lon="14.555565496608967"><ele>29.0</ele><time>2026-04-17T17:09:48.849Z</time></trkpt><trkpt lat="53.28936163769327" lon="14.555581588019612"><ele>28.2</ele><time>2026-04-17T17:09:49.849Z</time></trkpt><trkpt lat="53.289260840936535" lon="14.555596223937185"><ele>27.4</ele><time>2026-04-17T17:09:50.849Z</time></trkpt><trkpt lat="53.28916004611115" lon="14.55561383711173"><ele>26.6</ele><time>2026-04-17T17:09:51.849Z</time></trkpt><trkpt lat="53.289067309362046" lon="14.555620022056695"><ele>25.8</ele><time>2026-04-17T17:09:52.849Z</time></trkpt><trkpt lat="53.28897572333905" lon="14.555614583763436"><ele>25.0</ele><time>2026-04-17T17:09:53.849Z</time></trkpt><trkpt lat="53.28888171689641" lon="14.55560563437902"><ele>24.4</ele><time>2026-04-17T17:09:54.849Z</time></trkpt><trkpt lat="53.288790027785616" lon="14.555578031713635"><ele>23.8</ele><time>2026-04-17T17:09:55.849Z</time></trkpt><trkpt lat="53.28868654056435" lon="14.55555232944156"><ele>23.200000000000003</ele><time>2026-04-17T17:09:56.849Z</time></trkpt><trkpt lat="53.28856995488839" lon="14.555516835288115"><ele>22.6</ele><time>2026-04-17T17:09:57.849Z</time></trkpt><trkpt lat="53.288439869813416" lon="14.555481647944516"><ele>22.0</ele><time>2026-04-17T17:09:58.849Z</time></trkpt><trkpt lat="53.28829731759817" lon="14.5554433165441"><ele>22.0</ele><time>2026-04-17T17:09:59.849Z</time></trkpt><trkpt lat="53.288153247045436" lon="14.555407446031204"><ele>22.0</ele><time>2026-04-17T17:10:00.849Z</time></trkpt><trkpt lat="53.2880155282433" lon="14.555377166459323"><ele>22.0</ele><time>2026-04-17T17:10:01.849Z</time></trkpt><trkpt lat="53.28789588451599" lon="14.555362986745937"><ele>22.0</ele><time>2026-04-17T17:10:02.849Z</time></trkpt><trkpt lat="53.28778014898474" lon="14.555350470195254"><ele>22.6</ele><time>2026-04-17T17:10:03.849Z</time></trkpt><trkpt lat="53.28766921829094" lon="14.55533800623074"><ele>23.200000000000003</ele><time>2026-04-17T17:10:04.849Z</time></trkpt><trkpt lat="53.28757466341715" lon="14.555335284228942"><ele>23.8</ele><time>2026-04-17T17:10:05.849Z</time></trkpt><trkpt lat="53.28745514258396" lon="14.555342272378628"><ele>24.4</ele><time>2026-04-17T17:10:07.849Z</time></trkpt><trkpt lat="53.287343010459296" lon="14.555326993959305"><ele>25.0</ele><time>2026-04-17T17:10:11.849Z</time></trkpt><trkpt lat="53.28721231356545" lon="14.555311039466556"><ele>25.0</ele><time>2026-04-17T17:10:13.849Z</time></trkpt><trkpt lat="53.28716045726101" lon="14.555397529005436"><ele>25.0</ele><time>2026-04-17T17:10:14.849Z</time></trkpt><trkpt lat="53.287096014511114" lon="14.555528340267735"><ele>25.0</ele><time>2026-04-17T17:10:16.849Z</time></trkpt><trkpt lat="53.28703456467665" lon="14.555603027242064"><ele>25.0</ele><time>2026-04-17T17:10:19.849Z</time></trkpt><trkpt lat="53.28681075513509" lon="14.555273953327436"><ele>25.0</ele><time>2026-04-17T17:10:20.849Z</time></trkpt><trkpt lat="53.28670202015449" lon="14.555232359651066"><ele>25.0</ele><time>2026-04-17T17:10:22.849Z</time></trkpt><trkpt lat="53.28662004428103" lon="14.555138291186797"><ele>25.0</ele><time>2026-04-17T17:10:24.849Z</time></trkpt><trkpt lat="53.28655216418114" lon="14.555047942922224"><ele>25.0</ele><time>2026-04-17T17:10:26.849Z</time></trkpt><trkpt lat="53.286486085315474" lon="14.554943907524367"><ele>25.0</ele><time>2026-04-17T17:10:28.849Z</time></trkpt><trkpt lat="53.286399008085795" lon="14.554868037539645"><ele>25.0</ele><time>2026-04-17T17:10:30.849Z</time></trkpt><trkpt lat="53.28630763847103" lon="14.554777985733525"><ele>25.0</ele><time>2026-04-17T17:10:32.849Z</time></trkpt><trkpt lat="53.2862086986483" lon="14.554676128789506"><ele>25.0</ele><time>2026-04-17T17:10:34.849Z</time></trkpt><trkpt lat="53.286115903795796" lon="14.55456938323417"><ele>25.0</ele><time>2026-04-17T17:10:36.849Z</time></trkpt><trkpt lat="53.28602040417037" lon="14.55445454594873"><ele>25.5</ele><time>2026-04-17T17:10:38.849Z</time></trkpt><trkpt lat="53.2859169435657" lon="14.554356907309156"><ele>26.0</ele><time>2026-04-17T17:10:40.849Z</time></trkpt><trkpt lat="53.285833074573596" lon="14.554257979718999"><ele>26.5</ele><time>2026-04-17T17:10:42.849Z</time></trkpt><trkpt lat="53.28573247529657" lon="14.55414602881668"><ele>27.0</ele><time>2026-04-17T17:10:44.849Z</time></trkpt><trkpt lat="53.28563945634446" lon="14.55402533397557"><ele>27.0</ele><time>2026-04-17T17:10:46.849Z</time></trkpt><trkpt lat="53.28559093070294" lon="14.553957191969902"><ele>27.000000000000004</ele><time>2026-04-17T17:10:47.849Z</time></trkpt><trkpt lat="53.28548682012343" lon="14.55386336393909"><ele>27.000000000000004</ele><time>2026-04-17T17:10:49.849Z</time></trkpt><trkpt lat="53.2853768166755" lon="14.553752965263635"><ele>27.0</ele><time>2026-04-17T17:10:51.849Z</time></trkpt><trkpt lat="53.28531311655704" lon="14.553683597465474"><ele>27.0</ele><time>2026-04-17T17:10:52.849Z</time></trkpt><trkpt lat="53.28525142658456" lon="14.553620630887202"><ele>27.0</ele><time>2026-04-17T17:10:53.848Z</time></trkpt><trkpt lat="53.28516693717147" lon="14.553551844028012"><ele>27.000000000000004</ele><time>2026-04-17T17:10:55.847Z</time></trkpt><trkpt lat="53.28508733360252" lon="14.553482704326962"><ele>27.000000000000004</ele><time>2026-04-17T17:10:57.847Z</time></trkpt><trkpt lat="53.28498027370345" lon="14.553410905185343"><ele>27.0</ele><time>2026-04-17T17:10:59.847Z</time></trkpt><trkpt lat="53.28488845388219" lon="14.553276315631427"><ele>27.0</ele><time>2026-04-17T17:11:01.848Z</time></trkpt><trkpt lat="53.28480587688251" lon="14.55313129744083"><ele>27.0</ele><time>2026-04-17T17:11:03.847Z</time></trkpt><trkpt lat="53.28471634913877" lon="14.553005826957502"><ele>27.0</ele><time>2026-04-17T17:11:05.847Z</time></trkpt><trkpt lat="53.28463139463667" lon="14.552852759769888"><ele>27.0</ele><time>2026-04-17T17:11:07.847Z</time></trkpt><trkpt lat="53.284559275129325" lon="14.552699792748642"><ele>27.0</ele><time>2026-04-17T17:11:09.847Z</time></trkpt><trkpt lat="53.28450873391573" lon="14.552534296229222"><ele>27.400000000000002</ele><time>2026-04-17T17:11:11.847Z</time></trkpt><trkpt lat="53.2844595774505" lon="14.552380418468976"><ele>27.800000000000004</ele><time>2026-04-17T17:11:13.847Z</time></trkpt><trkpt lat="53.284400406273406" lon="14.55225409420701"><ele>28.2</ele><time>2026-04-17T17:11:15.847Z</time></trkpt><trkpt lat="53.28432725631252" lon="14.552158592024677"><ele>28.6</ele><time>2026-04-17T17:11:17.847Z</time></trkpt><trkpt lat="53.284239937954716" lon="14.552026153994767"><ele>29.0</ele><time>2026-04-17T17:11:19.847Z</time></trkpt><trkpt lat="53.28419014493675" lon="14.551949191822679"><ele>28.999999999999996</ele><time>2026-04-17T17:11:20.847Z</time></trkpt><trkpt lat="53.284146809909174" lon="14.551852756451112"><ele>29.0</ele><time>2026-04-17T17:11:21.847Z</time></trkpt><trkpt lat="53.28410819118386" lon="14.551763237253496"><ele>29.0</ele><time>2026-04-17T17:11:22.847Z</time></trkpt><trkpt lat="53.28403765627007" lon="14.551607276861176"><ele>29.0</ele><time>2026-04-17T17:11:24.847Z</time></trkpt><trkpt lat="53.28400656007998" lon="14.551515450935579"><ele>28.999999999999996</ele><time>2026-04-17T17:11:25.847Z</time></trkpt><trkpt lat="53.283974180244506" lon="14.551423214254832"><ele>29.0</ele><time>2026-04-17T17:11:26.847Z</time></trkpt><trkpt lat="53.28390938880992" lon="14.551262356601525"><ele>29.833333333333332</ele><time>2026-04-17T17:11:28.847Z</time></trkpt><trkpt lat="53.28385100502214" lon="14.551099815243928"><ele>30.666666666666664</ele><time>2026-04-17T17:11:30.847Z</time></trkpt><trkpt lat="53.28381119129024" lon="14.551012981652066"><ele>31.5</ele><time>2026-04-17T17:11:31.847Z</time></trkpt><trkpt lat="53.28376345443204" lon="14.55092790524426"><ele>32.333333333333336</ele><time>2026-04-17T17:11:32.847Z</time></trkpt><trkpt lat="53.28371105998265" lon="14.550844335037995"><ele>33.16666666666667</ele><time>2026-04-17T17:11:33.847Z</time></trkpt><trkpt lat="53.28364316513577" lon="14.550704698904807"><ele>34.0</ele><time>2026-04-17T17:11:35.847Z</time></trkpt><trkpt lat="53.28357820783985" lon="14.55052826644622"><ele>34.0</ele><time>2026-04-17T17:11:37.847Z</time></trkpt><trkpt lat="53.283541218801524" lon="14.550423067134382"><ele>34.0</ele><time>2026-04-17T17:11:38.847Z</time></trkpt><trkpt lat="53.2835013280985" lon="14.550308284767157"><ele>34.0</ele><time>2026-04-17T17:11:39.847Z</time></trkpt><trkpt lat="53.28344877901248" lon="14.550210112760563"><ele>34.0</ele><time>2026-04-17T17:11:40.847Z</time></trkpt><trkpt lat="53.28339880470789" lon="14.55010550313573"><ele>34.0</ele><time>2026-04-17T17:11:41.847Z</time></trkpt><trkpt lat="53.28335155986674" lon="14.549997054038863"><ele>34.0</ele><time>2026-04-17T17:11:42.847Z</time></trkpt><trkpt lat="53.28330814218473" lon="14.549884603770396"><ele>34.0</ele><time>2026-04-17T17:11:43.847Z</time></trkpt><trkpt lat="53.28326861124384" lon="14.549800059331147"><ele>34.0</ele><time>2026-04-17T17:11:44.847Z</time></trkpt><trkpt lat="53.283162446777034" lon="14.54967463261989"><ele>34.0</ele><time>2026-04-17T17:11:46.847Z</time></trkpt><trkpt lat="53.28310900899158" lon="14.549614242958782"><ele>34.0</ele><time>2026-04-17T17:11:47.847Z</time></trkpt><trkpt lat="53.28304997711135" lon="14.549558742587958"><ele>34.0</ele><time>2026-04-17T17:11:48.847Z</time></trkpt><trkpt lat="53.2829900739858" lon="14.549496811686272"><ele>34.0</ele><time>2026-04-17T17:11:50.847Z</time></trkpt><trkpt lat="53.28303541328996" lon="14.549594232343841"><ele>33.66666666666667</ele><time>2026-04-17T17:12:16.847Z</time></trkpt><trkpt lat="53.283100196494146" lon="14.549604731334743"><ele>33.333333333333336</ele><time>2026-04-17T17:12:18.846Z</time></trkpt><trkpt lat="53.283174275251746" lon="14.549698984000045"><ele>33.0</ele><time>2026-04-17T17:12:20.846Z</time></trkpt><trkpt lat="53.283235398317665" lon="14.54980096811755"><ele>32.666666666666664</ele><time>2026-04-17T17:12:21.846Z</time></trkpt><trkpt lat="53.28330867019398" lon="14.549894942472529"><ele>32.33333333333333</ele><time>2026-04-17T17:12:22.846Z</time></trkpt><trkpt lat="53.283346334373206" lon="14.54998199282733"><ele>32.0</ele><time>2026-04-17T17:12:23.846Z</time></trkpt><trkpt lat="53.28339959783447" lon="14.550113855873441"><ele>32.0</ele><time>2026-04-17T17:12:25.846Z</time></trkpt><trkpt lat="53.28344166789332" lon="14.550205291782351"><ele>32.0</ele><time>2026-04-17T17:12:26.846Z</time></trkpt><trkpt lat="53.28349832228304" lon="14.550345810116864"><ele>32.0</ele><time>2026-04-17T17:12:28.846Z</time></trkpt><trkpt lat="53.28341479535181" lon="14.550191489061278"><ele>32.0</ele><time>2026-04-17T17:12:39.846Z</time></trkpt><trkpt lat="53.28338067374741" lon="14.55007582665548"><ele>32.0</ele><time>2026-04-17T17:12:40.846Z</time></trkpt><trkpt lat="53.28334095185908" lon="14.549945867560226"><ele>32.0</ele><time>2026-04-17T17:12:41.846Z</time></trkpt><trkpt lat="53.28327858175853" lon="14.549801198310313"><ele>32.0</ele><time>2026-04-17T17:12:42.846Z</time></trkpt><trkpt lat="53.28319915926797" lon="14.549690357690265"><ele>32.0</ele><time>2026-04-17T17:12:43.846Z</time></trkpt><trkpt lat="53.28310503961831" lon="14.549594389281877"><ele>32.0</ele><time>2026-04-17T17:12:44.846Z</time></trkpt><trkpt lat="53.28298654964301" lon="14.549463215379358"><ele>32.5</ele><time>2026-04-17T17:12:45.846Z</time></trkpt><trkpt lat="53.28284465674017" lon="14.549329120525568"><ele>33.0</ele><time>2026-04-17T17:12:46.846Z</time></trkpt><trkpt lat="53.282733122286736" lon="14.5491634105974"><ele>33.5</ele><time>2026-04-17T17:12:47.846Z</time></trkpt><trkpt lat="53.28263908921385" lon="14.54899688081057"><ele>34.0</ele><time>2026-04-17T17:12:48.846Z</time></trkpt><trkpt lat="53.282568880248476" lon="14.548829145494244"><ele>34.5</ele><time>2026-04-17T17:12:49.846Z</time></trkpt><trkpt lat="53.282508113191525" lon="14.548669824585819"><ele>35.0</ele><time>2026-04-17T17:12:50.846Z</time></trkpt><trkpt lat="53.28246660494122" lon="14.548576462133598"><ele>35.5</ele><time>2026-04-17T17:12:52.846Z</time></trkpt><trkpt lat="53.28242206607414" lon="14.548445328299504"><ele>36.0</ele><time>2026-04-17T17:12:54.846Z</time></trkpt><trkpt lat="53.282380520677115" lon="14.54831741807859"><ele>36.5</ele><time>2026-04-17T17:12:55.846Z</time></trkpt><trkpt lat="53.28233820029311" lon="14.548226129742389"><ele>37.0</ele><time>2026-04-17T17:12:56.846Z</time></trkpt><trkpt lat="53.28230027577192" lon="14.548141631659847"><ele>37.0</ele><time>2026-04-17T17:12:57.846Z</time></trkpt><trkpt lat="53.28224824987917" lon="14.54824726130971"><ele>37.0</ele><time>2026-04-17T17:13:01.845Z</time></trkpt><trkpt lat="53.28228954425013" lon="14.548478375819538"><ele>37.0</ele><time>2026-04-17T17:13:03.845Z</time></trkpt><trkpt lat="53.282314470001" lon="14.548584164171489"><ele>37.0</ele><time>2026-04-17T17:13:04.845Z</time></trkpt><trkpt lat="53.282355638240944" lon="14.548714571081188"><ele>37.0</ele><time>2026-04-17T17:13:06.844Z</time></trkpt><trkpt lat="53.28242547238672" lon="14.548773992433802"><ele>36.4</ele><time>2026-04-17T17:13:08.844Z</time></trkpt><trkpt lat="53.28253611528282" lon="14.548796715138169"><ele>35.800000000000004</ele><time>2026-04-17T17:13:10.845Z</time></trkpt><trkpt lat="53.28259419407185" lon="14.54883918670509"><ele>35.2</ele><time>2026-04-17T17:13:11.844Z</time></trkpt><trkpt lat="53.28264485253728" lon="14.548916014470636"><ele>34.6</ele><time>2026-04-17T17:13:12.844Z</time></trkpt><trkpt lat="53.28272153924459" lon="14.549058410027683"><ele>34.0</ele><time>2026-04-17T17:13:13.844Z</time></trkpt><trkpt lat="53.28278405089463" lon="14.549185224493145"><ele>34.0</ele><time>2026-04-17T17:13:14.844Z</time></trkpt><trkpt lat="53.28283997524752" lon="14.549281632192036"><ele>34.0</ele><time>2026-04-17T17:13:15.844Z</time></trkpt><trkpt lat="53.28291526244001" lon="14.549375590131822"><ele>34.0</ele><time>2026-04-17T17:13:16.844Z</time></trkpt><trkpt lat="53.28298354796967" lon="14.549466119661425"><ele>34.0</ele><time>2026-04-17T17:13:17.844Z</time></trkpt><trkpt lat="53.2830572189122" lon="14.549533872595271"><ele>34.0</ele><time>2026-04-17T17:13:18.844Z</time></trkpt><trkpt lat="53.28317066750507" lon="14.549628974173563"><ele>33.66666666666667</ele><time>2026-04-17T17:13:19.844Z</time></trkpt><trkpt lat="53.28326935858971" lon="14.54972831291979"><ele>33.333333333333336</ele><time>2026-04-17T17:13:20.844Z</time></trkpt><trkpt lat="53.28333935671992" lon="14.549847557057605"><ele>33.0</ele><time>2026-04-17T17:13:22.844Z</time></trkpt><trkpt lat="53.28334760726223" lon="14.54998506011122"><ele>32.666666666666664</ele><time>2026-04-17T17:13:24.844Z</time></trkpt><trkpt lat="53.28332833725404" lon="14.550122548184483"><ele>32.33333333333333</ele><time>2026-04-17T17:13:26.844Z</time></trkpt><trkpt lat="53.28338557321814" lon="14.550177154653884"><ele>32.0</ele><time>2026-04-17T17:13:28.844Z</time></trkpt><trkpt lat="53.28340838126548" lon="14.55007512135538"><ele>32.0</ele><time>2026-04-17T17:13:30.844Z</time></trkpt><trkpt lat="53.28336466248058" lon="14.54996059339504"><ele>32.0</ele><time>2026-04-17T17:13:32.844Z</time></trkpt><trkpt lat="53.28330315543665" lon="14.54986595253875"><ele>32.0</ele><time>2026-04-17T17:13:34.844Z</time></trkpt><trkpt lat="53.28321573517663" lon="14.54973780163346"><ele>32.0</ele><time>2026-04-17T17:13:36.843Z</time></trkpt><trkpt lat="53.283120924335186" lon="14.549622896635455"><ele>32.0</ele><time>2026-04-17T17:13:38.843Z</time></trkpt><trkpt lat="53.28304702196162" lon="14.549562073038532"><ele>32.5</ele><time>2026-04-17T17:13:40.843Z</time></trkpt><trkpt lat="53.282926430156245" lon="14.54943416617819"><ele>33.0</ele><time>2026-04-17T17:13:42.843Z</time></trkpt><trkpt lat="53.28282999268212" lon="14.549298474134583"><ele>33.5</ele><time>2026-04-17T17:13:43.843Z</time></trkpt><trkpt lat="53.28272763301528" lon="14.549124416020142"><ele>34.0</ele><time>2026-04-17T17:13:44.843Z</time></trkpt><trkpt lat="53.28266024825454" lon="14.54902232011882"><ele>34.0</ele><time>2026-04-17T17:13:45.843Z</time></trkpt><trkpt lat="53.28259963783127" lon="14.54887260333563"><ele>34.0</ele><time>2026-04-17T17:13:52.843Z</time></trkpt><trkpt lat="53.28255639774792" lon="14.548782998082318"><ele>34.0</ele><time>2026-04-17T17:13:53.843Z</time></trkpt><trkpt lat="53.282632273477084" lon="14.548880335480805"><ele>34.0</ele><time>2026-04-17T17:14:01.843Z</time></trkpt><trkpt lat="53.28269695014821" lon="14.5490250524576"><ele>34.0</ele><time>2026-04-17T17:14:03.843Z</time></trkpt><trkpt lat="53.282750137297114" lon="14.549104844000528"><ele>34.0</ele><time>2026-04-17T17:14:05.843Z</time></trkpt><trkpt lat="53.28278622140897" lon="14.549192319774612"><ele>34.0</ele><time>2026-04-17T17:14:06.843Z</time></trkpt><trkpt lat="53.28284696025308" lon="14.549304321238841"><ele>34.0</ele><time>2026-04-17T17:14:08.843Z</time></trkpt><trkpt lat="53.2829312546603" lon="14.54938802876014"><ele>34.0</ele><time>2026-04-17T17:14:11.843Z</time></trkpt><trkpt lat="53.282759599128056" lon="14.549176680316926"><ele>34.0</ele><time>2026-04-17T17:17:44.85Z</time></trkpt><trkpt lat="53.2826984040707" lon="14.54907997166168"><ele>34.0</ele><time>2026-04-17T17:17:45.85Z</time></trkpt><trkpt lat="53.282655826612384" lon="14.548984865593289"><ele>34.0</ele><time>2026-04-17T17:17:46.85Z</time></trkpt><trkpt lat="53.28260990205225" lon="14.548875767155806"><ele>34.0</ele><time>2026-04-17T17:17:47.85Z</time></trkpt><trkpt lat="53.282547663515864" lon="14.548758204821015"><ele>34.0</ele><time>2026-04-17T17:17:48.85Z</time></trkpt><trkpt lat="53.28249099061644" lon="14.548649959847603"><ele>34.0</ele><time>2026-04-17T17:17:49.85Z</time></trkpt><trkpt lat="53.28242570497153" lon="14.548477629383974"><ele>34.5</ele><time>2026-04-17T17:17:51.85Z</time></trkpt><trkpt lat="53.282369969615075" lon="14.548315385604765"><ele>35.0</ele><time>2026-04-17T17:17:53.85Z</time></trkpt><trkpt lat="53.28233241836936" lon="14.548213566917294"><ele>35.5</ele><time>2026-04-17T17:17:54.85Z</time></trkpt><trkpt lat="53.28227427563167" lon="14.548106462710688"><ele>36.0</ele><time>2026-04-17T17:17:55.85Z</time></trkpt><trkpt lat="53.282229314075195" lon="14.548007500146982"><ele>36.5</ele><time>2026-04-17T17:17:56.85Z</time></trkpt><trkpt lat="53.28218919672144" lon="14.547904982665312"><ele>37.0</ele><time>2026-04-17T17:17:57.85Z</time></trkpt><trkpt lat="53.28211952876446" lon="14.547760488320073"><ele>37.0</ele><time>2026-04-17T17:17:59.85Z</time></trkpt><trkpt lat="53.282101505028805" lon="14.547655123891712"><ele>37.0</ele><time>2026-04-17T17:18:00.85Z</time></trkpt><trkpt lat="53.28206524195836" lon="14.547550105628519"><ele>37.0</ele><time>2026-04-17T17:18:01.85Z</time></trkpt><trkpt lat="53.28201886566838" lon="14.547359908562836"><ele>37.0</ele><time>2026-04-17T17:18:03.85Z</time></trkpt><trkpt lat="53.28197666953874" lon="14.54716168308565"><ele>37.0</ele><time>2026-04-17T17:18:05.85Z</time></trkpt><trkpt lat="53.28194541741417" lon="14.546987316354048"><ele>36.6</ele><time>2026-04-17T17:18:07.85Z</time></trkpt><trkpt lat="53.28191722132104" lon="14.54687058693322"><ele>36.2</ele><time>2026-04-17T17:18:08.85Z</time></trkpt><trkpt lat="53.281850589120744" lon="14.546704874324549"><ele>35.8</ele><time>2026-04-17T17:18:10.85Z</time></trkpt><trkpt lat="53.28180143834513" lon="14.546617176804709"><ele>35.4</ele><time>2026-04-17T17:18:11.85Z</time></trkpt><trkpt lat="53.28174913245153" lon="14.546531746210452"><ele>35.0</ele><time>2026-04-17T17:18:12.85Z</time></trkpt><trkpt lat="53.281685606461195" lon="14.54637590584709"><ele>34.8</ele><time>2026-04-17T17:18:14.85Z</time></trkpt><trkpt lat="53.28163349718173" lon="14.546204558050562"><ele>34.6</ele><time>2026-04-17T17:18:16.85Z</time></trkpt><trkpt lat="53.28159945890826" lon="14.546109283975762"><ele>34.4</ele><time>2026-04-17T17:18:17.85Z</time></trkpt><trkpt lat="53.281556898834296" lon="14.545903187113222"><ele>34.2</ele><time>2026-04-17T17:18:19.85Z</time></trkpt><trkpt lat="53.28154162399871" lon="14.545799470748507"><ele>34.0</ele><time>2026-04-17T17:18:20.85Z</time></trkpt><trkpt lat="53.28150455831622" lon="14.545611309626524"><ele>34.0</ele><time>2026-04-17T17:18:22.85Z</time></trkpt><trkpt lat="53.281486952690415" lon="14.545414021968734"><ele>34.0</ele><time>2026-04-17T17:18:24.85Z</time></trkpt><trkpt lat="53.28145399486985" lon="14.545217865740108"><ele>34.0</ele><time>2026-04-17T17:18:26.85Z</time></trkpt><trkpt lat="53.28143363450404" lon="14.545105720931655"><ele>34.0</ele><time>2026-04-17T17:18:27.85Z</time></trkpt><trkpt lat="53.2814125539952" lon="14.54498661714966"><ele>34.0</ele><time>2026-04-17T17:18:28.85Z</time></trkpt><trkpt lat="53.281376271963154" lon="14.54488885173754"><ele>34.16666666666667</ele><time>2026-04-17T17:18:29.85Z</time></trkpt><trkpt lat="53.28134461170468" lon="14.544792113115157"><ele>34.333333333333336</ele><time>2026-04-17T17:18:30.85Z</time></trkpt><trkpt lat="53.2812332249412" lon="14.544650849092797"><ele>34.5</ele><time>2026-04-17T17:18:32.85Z</time></trkpt><trkpt lat="53.28117130112699" lon="14.544586434235606"><ele>34.666666666666664</ele><time>2026-04-17T17:18:33.85Z</time></trkpt><trkpt lat="53.28111977549194" lon="14.544501730566669"><ele>34.83333333333333</ele><time>2026-04-17T17:18:34.85Z</time></trkpt><trkpt lat="53.2810743025869" lon="14.54441536117824"><ele>35.0</ele><time>2026-04-17T17:18:35.85Z</time></trkpt><trkpt lat="53.28101310573969" lon="14.544306204156843"><ele>35.0</ele><time>2026-04-17T17:18:36.85Z</time></trkpt><trkpt lat="53.280949485566715" lon="14.544186949165713"><ele>35.0</ele><time>2026-04-17T17:18:37.85Z</time></trkpt><trkpt lat="53.28090689009161" lon="14.544076083643231"><ele>35.0</ele><time>2026-04-17T17:18:38.85Z</time></trkpt><trkpt lat="53.280848679631866" lon="14.543938668095855"><ele>35.0</ele><time>2026-04-17T17:18:39.85Z</time></trkpt><trkpt lat="53.280808373615116" lon="14.543836114346245"><ele>35.0</ele><time>2026-04-17T17:18:40.85Z</time></trkpt><trkpt lat="53.28076092484948" lon="14.543722700198327"><ele>35.0</ele><time>2026-04-17T17:18:41.85Z</time></trkpt><trkpt lat="53.28072349615911" lon="14.543609846474551"><ele>34.8</ele><time>2026-04-17T17:18:42.85Z</time></trkpt><trkpt lat="53.28069154225262" lon="14.54347928763413"><ele>34.6</ele><time>2026-04-17T17:18:43.85Z</time></trkpt><trkpt lat="53.28065240384398" lon="14.543332083233997"><ele>34.4</ele><time>2026-04-17T17:18:44.85Z</time></trkpt><trkpt lat="53.2806086311363" lon="14.543178043042976"><ele>34.2</ele><time>2026-04-17T17:18:45.849Z</time></trkpt><trkpt lat="53.280573297394874" lon="14.543027691260354"><ele>34.0</ele><time>2026-04-17T17:18:46.849Z</time></trkpt><trkpt lat="53.280538436033076" lon="14.542890944512749"><ele>33.42857142857142</ele><time>2026-04-17T17:18:47.849Z</time></trkpt><trkpt lat="53.2805143757748" lon="14.542778482302309"><ele>32.857142857142854</ele><time>2026-04-17T17:18:48.849Z</time></trkpt><trkpt lat="53.28047999839547" lon="14.542666987018636"><ele>32.285714285714285</ele><time>2026-04-17T17:18:49.849Z</time></trkpt><trkpt lat="53.28045112938836" lon="14.54257242816124"><ele>31.71428571428571</ele><time>2026-04-17T17:18:50.849Z</time></trkpt><trkpt lat="53.28041310644095" lon="14.542473252957612"><ele>31.14285714285714</ele><time>2026-04-17T17:18:51.849Z</time></trkpt><trkpt lat="53.28036688744839" lon="14.542349776448125"><ele>30.571428571428573</ele><time>2026-04-17T17:18:52.849Z</time></trkpt><trkpt lat="53.28032433747996" lon="14.542240207043605"><ele>30.0</ele><time>2026-04-17T17:18:53.849Z</time></trkpt><trkpt lat="53.28028438364332" lon="14.542122570183997"><ele>30.166666666666668</ele><time>2026-04-17T17:18:54.849Z</time></trkpt><trkpt lat="53.280235518588974" lon="14.542015458735507"><ele>30.333333333333336</ele><time>2026-04-17T17:18:55.849Z</time></trkpt><trkpt lat="53.28017596420017" lon="14.541889536827851"><ele>30.5</ele><time>2026-04-17T17:18:56.849Z</time></trkpt><trkpt lat="53.28013794937007" lon="14.54179203867088"><ele>30.666666666666668</ele><time>2026-04-17T17:18:57.849Z</time></trkpt><trkpt lat="53.28007548484292" lon="14.541693280926271"><ele>30.833333333333336</ele><time>2026-04-17T17:18:58.849Z</time></trkpt><trkpt lat="53.28001487587387" lon="14.541590978866004"><ele>31.0</ele><time>2026-04-17T17:18:59.849Z</time></trkpt><trkpt lat="53.279954186222234" lon="14.541500684018803"><ele>31.000000000000004</ele><time>2026-04-17T17:19:00.849Z</time></trkpt><trkpt lat="53.27991134898064" lon="14.541413462155585"><ele>31.0</ele><time>2026-04-17T17:19:01.849Z</time></trkpt><trkpt lat="53.27986880691414" lon="14.54132273534043"><ele>31.0</ele><time>2026-04-17T17:19:02.849Z</time></trkpt><trkpt lat="53.279805004642185" lon="14.54112485696775"><ele>31.0</ele><time>2026-04-17T17:19:04.849Z</time></trkpt><trkpt lat="53.27978659889085" lon="14.540990076385338"><ele>31.000000000000004</ele><time>2026-04-17T17:19:05.849Z</time></trkpt><trkpt lat="53.27976338084982" lon="14.540877606305322"><ele>31.0</ele><time>2026-04-17T17:19:06.849Z</time></trkpt><trkpt lat="53.27972607833541" lon="14.540747969390464"><ele>30.833333333333336</ele><time>2026-04-17T17:19:07.849Z</time></trkpt><trkpt lat="53.2796971261112" lon="14.540605528845221"><ele>30.666666666666668</ele><time>2026-04-17T17:19:08.849Z</time></trkpt><trkpt lat="53.27966937539079" lon="14.540469520402791"><ele>30.5</ele><time>2026-04-17T17:19:09.849Z</time></trkpt><trkpt lat="53.279642017608644" lon="14.540350187039566"><ele>30.333333333333336</ele><time>2026-04-17T17:19:10.849Z</time></trkpt><trkpt lat="53.27962231139681" lon="14.540248011535231"><ele>30.166666666666668</ele><time>2026-04-17T17:19:11.849Z</time></trkpt><trkpt lat="53.27959826685573" lon="14.540147014318455"><ele>30.0</ele><time>2026-04-17T17:19:12.849Z</time></trkpt><trkpt lat="53.27956710444508" lon="14.53999095989615"><ele>30.0</ele><time>2026-04-17T17:19:14.849Z</time></trkpt><trkpt lat="53.27953815525705" lon="14.53981927336868"><ele>30.0</ele><time>2026-04-17T17:19:16.849Z</time></trkpt><trkpt lat="53.2795022980984" lon="14.539650055185259"><ele>30.0</ele><time>2026-04-17T17:19:18.848Z</time></trkpt><trkpt lat="53.279481782771235" lon="14.539487662434924"><ele>30.0</ele><time>2026-04-17T17:19:20.848Z</time></trkpt><trkpt lat="53.27944788498707" lon="14.539330081214874"><ele>30.0</ele><time>2026-04-17T17:19:22.848Z</time></trkpt><trkpt lat="53.2794305051721" lon="14.539198711078836"><ele>30.285714285714285</ele><time>2026-04-17T17:19:23.848Z</time></trkpt><trkpt lat="53.27941075137851" lon="14.539086373394914"><ele>30.57142857142857</ele><time>2026-04-17T17:19:24.848Z</time></trkpt><trkpt lat="53.27938740124194" lon="14.538968801843826"><ele>30.857142857142854</ele><time>2026-04-17T17:19:25.848Z</time></trkpt><trkpt lat="53.279366351783665" lon="14.538849416822952"><ele>31.142857142857142</ele><time>2026-04-17T17:19:26.848Z</time></trkpt><trkpt lat="53.27934988802575" lon="14.5387362525751"><ele>31.428571428571423</ele><time>2026-04-17T17:19:27.848Z</time></trkpt><trkpt lat="53.2793284544799" lon="14.538611710830695"><ele>31.71428571428571</ele><time>2026-04-17T17:19:28.848Z</time></trkpt><trkpt lat="53.27930807732665" lon="14.538483228326676"><ele>32.0</ele><time>2026-04-17T17:19:29.848Z</time></trkpt><trkpt lat="53.279291215442655" lon="14.538364569211335"><ele>32.83333333333333</ele><time>2026-04-17T17:19:30.848Z</time></trkpt><trkpt lat="53.27927209837224" lon="14.53825256992913"><ele>33.666666666666664</ele><time>2026-04-17T17:19:31.848Z</time></trkpt><trkpt lat="53.279257427536535" lon="14.538042677841037"><ele>34.5</ele><time>2026-04-17T17:19:33.848Z</time></trkpt><trkpt lat="53.27925059220189" lon="14.537928240188828"><ele>35.333333333333336</ele><time>2026-04-17T17:19:34.848Z</time></trkpt><trkpt lat="53.27923861693253" lon="14.53781724034915"><ele>36.16666666666667</ele><time>2026-04-17T17:19:35.848Z</time></trkpt><trkpt lat="53.27923517974499" lon="14.53769643782065"><ele>37.0</ele><time>2026-04-17T17:19:36.848Z</time></trkpt><trkpt lat="53.279233197050225" lon="14.537586257851087"><ele>37.0</ele><time>2026-04-17T17:19:37.848Z</time></trkpt><trkpt lat="53.27922554395356" lon="14.537467686989388"><ele>37.0</ele><time>2026-04-17T17:19:38.848Z</time></trkpt><trkpt lat="53.27922444544157" lon="14.537360039003428"><ele>37.0</ele><time>2026-04-17T17:19:39.848Z</time></trkpt><trkpt lat="53.27924167245609" lon="14.537241674853469"><ele>37.0</ele><time>2026-04-17T17:19:40.848Z</time></trkpt><trkpt lat="53.279239257615295" lon="14.537044580084988"><ele>37.0</ele><time>2026-04-17T17:19:42.848Z</time></trkpt><trkpt lat="53.27923948097396" lon="14.536925231523023"><ele>37.0</ele><time>2026-04-17T17:19:43.848Z</time></trkpt><trkpt lat="53.27923524713286" lon="14.536807657439505"><ele>37.0</ele><time>2026-04-17T17:19:44.848Z</time></trkpt><trkpt lat="53.279220229217785" lon="14.53668396733386"><ele>37.0</ele><time>2026-04-17T17:19:45.848Z</time></trkpt><trkpt lat="53.27921465886047" lon="14.536489827347133"><ele>37.0</ele><time>2026-04-17T17:19:47.848Z</time></trkpt><trkpt lat="53.27922437422637" lon="14.536376200514045"><ele>37.0</ele><time>2026-04-17T17:19:48.848Z</time></trkpt><trkpt lat="53.27923743498985" lon="14.536175625248575"><ele>37.0</ele><time>2026-04-17T17:19:50.848Z</time></trkpt><trkpt lat="53.27923565161278" lon="14.535971562879574"><ele>37.0</ele><time>2026-04-17T17:19:52.848Z</time></trkpt><trkpt lat="53.27924556513" lon="14.535848263903464"><ele>37.0</ele><time>2026-04-17T17:19:53.848Z</time></trkpt><trkpt lat="53.27927929988924" lon="14.535640232655878"><ele>37.0</ele><time>2026-04-17T17:19:55.848Z</time></trkpt><trkpt lat="53.27931797505486" lon="14.535455357843983"><ele>37.0</ele><time>2026-04-17T17:19:57.848Z</time></trkpt><trkpt lat="53.27932944727699" lon="14.53521614489427"><ele>36.800000000000004</ele><time>2026-04-17T17:19:59.848Z</time></trkpt><trkpt lat="53.279326978070124" lon="14.53510793123752"><ele>36.6</ele><time>2026-04-17T17:20:00.848Z</time></trkpt><trkpt lat="53.27933698981891" lon="14.534894638492124"><ele>36.400000000000006</ele><time>2026-04-17T17:20:02.848Z</time></trkpt><trkpt lat="53.27933036760433" lon="14.534705862534373"><ele>36.2</ele><time>2026-04-17T17:20:04.848Z</time></trkpt><trkpt lat="53.27933109505215" lon="14.534558694732373"><ele>36.0</ele><time>2026-04-17T17:20:06.848Z</time></trkpt><trkpt lat="53.27931949266194" lon="14.534407195581199"><ele>35.8</ele><time>2026-04-17T17:20:08.848Z</time></trkpt><trkpt lat="53.279301154829156" lon="14.534253852360052"><ele>35.6</ele><time>2026-04-17T17:20:10.848Z</time></trkpt><trkpt lat="53.279282452342514" lon="14.534093189690116"><ele>35.4</ele><time>2026-04-17T17:20:12.848Z</time></trkpt><trkpt lat="53.279257206405745" lon="14.533961106701366"><ele>35.2</ele><time>2026-04-17T17:20:14.847Z</time></trkpt><trkpt lat="53.279237208202524" lon="14.533803709831846"><ele>35.0</ele><time>2026-04-17T17:20:16.847Z</time></trkpt><trkpt lat="53.279202958955146" lon="14.533647680174925"><ele>34.5</ele><time>2026-04-17T17:20:18.847Z</time></trkpt><trkpt lat="53.279178737791504" lon="14.533536337835896"><ele>34.0</ele><time>2026-04-17T17:20:19.847Z</time></trkpt><trkpt lat="53.279164759758466" lon="14.53342680896552"><ele>33.5</ele><time>2026-04-17T17:20:20.847Z</time></trkpt><trkpt lat="53.27914015102251" lon="14.53332978147192"><ele>33.0</ele><time>2026-04-17T17:20:21.847Z</time></trkpt><trkpt lat="53.279116459269424" lon="14.533168226211904"><ele>32.5</ele><time>2026-04-17T17:20:23.847Z</time></trkpt><trkpt lat="53.27909041110187" lon="14.533023495874778"><ele>32.0</ele><time>2026-04-17T17:20:25.847Z</time></trkpt><trkpt lat="53.27903853640747" lon="14.53295372248823"><ele>32.0</ele><time>2026-04-17T17:20:27.847Z</time></trkpt><trkpt lat="53.27896823481066" lon="14.532903574971868"><ele>32.0</ele><time>2026-04-17T17:20:29.847Z</time></trkpt><trkpt lat="53.278895270359" lon="14.532911548718857"><ele>32.0</ele><time>2026-04-17T17:20:30.847Z</time></trkpt><trkpt lat="53.278790106947355" lon="14.532935395763456"><ele>32.0</ele><time>2026-04-17T17:20:31.847Z</time></trkpt><trkpt lat="53.27868151633025" lon="14.53295245838822"><ele>32.0</ele><time>2026-04-17T17:20:32.847Z</time></trkpt><trkpt lat="53.27859326927099" lon="14.532938624397334"><ele>32.5</ele><time>2026-04-17T17:20:33.847Z</time></trkpt><trkpt lat="53.27850079855377" lon="14.532934691494807"><ele>33.0</ele><time>2026-04-17T17:20:34.847Z</time></trkpt><trkpt lat="53.278420875941315" lon="14.532910544930765"><ele>33.5</ele><time>2026-04-17T17:20:35.847Z</time></trkpt><trkpt lat="53.2783366215616" lon="14.53288523335678"><ele>34.0</ele><time>2026-04-17T17:20:36.847Z</time></trkpt><trkpt lat="53.27825096449319" lon="14.532845309646746"><ele>34.5</ele><time>2026-04-17T17:20:37.847Z</time></trkpt><trkpt lat="53.278167471986805" lon="14.532799449291513"><ele>35.0</ele><time>2026-04-17T17:20:38.847Z</time></trkpt><trkpt lat="53.27808366675726" lon="14.532748231751226"><ele>33.666666666666664</ele><time>2026-04-17T17:20:39.847Z</time></trkpt><trkpt lat="53.27799772362849" lon="14.532691134035902"><ele>32.33333333333333</ele><time>2026-04-17T17:20:40.847Z</time></trkpt><trkpt lat="53.2779202119365" lon="14.53262492687476"><ele>31.0</ele><time>2026-04-17T17:20:41.847Z</time></trkpt><trkpt lat="53.27784352831658" lon="14.532556355423793"><ele>29.666666666666664</ele><time>2026-04-17T17:20:42.847Z</time></trkpt><trkpt lat="53.27776238933071" lon="14.532489715802402"><ele>28.333333333333332</ele><time>2026-04-17T17:20:43.847Z</time></trkpt><trkpt lat="53.277681169745165" lon="14.532436606449764"><ele>27.0</ele><time>2026-04-17T17:20:44.847Z</time></trkpt><trkpt lat="53.27759863494109" lon="14.532381317249088"><ele>27.0</ele><time>2026-04-17T17:20:45.847Z</time></trkpt><trkpt lat="53.27751713598095" lon="14.532308135221419"><ele>27.000000000000004</ele><time>2026-04-17T17:20:46.847Z</time></trkpt><trkpt lat="53.27743368275671" lon="14.532249936002533"><ele>27.000000000000004</ele><time>2026-04-17T17:20:47.847Z</time></trkpt><trkpt lat="53.27734951793823" lon="14.532175175732265"><ele>27.0</ele><time>2026-04-17T17:20:48.847Z</time></trkpt><trkpt lat="53.27726308011478" lon="14.532088103217013"><ele>27.0</ele><time>2026-04-17T17:20:49.847Z</time></trkpt><trkpt lat="53.27720118088742" lon="14.531990213462729"><ele>26.166666666666668</ele><time>2026-04-17T17:20:50.847Z</time></trkpt><trkpt lat="53.27714379386893" lon="14.531872724728652"><ele>25.333333333333332</ele><time>2026-04-17T17:20:51.847Z</time></trkpt><trkpt lat="53.27708491901004" lon="14.531779610805595"><ele>24.5</ele><time>2026-04-17T17:20:52.847Z</time></trkpt><trkpt lat="53.27701827007398" lon="14.531682161344163"><ele>23.666666666666664</ele><time>2026-04-17T17:20:53.847Z</time></trkpt><trkpt lat="53.27695424316091" lon="14.531605433323682"><ele>22.833333333333332</ele><time>2026-04-17T17:20:54.847Z</time></trkpt><trkpt lat="53.27687976274116" lon="14.53153979126521"><ele>22.0</ele><time>2026-04-17T17:20:55.847Z</time></trkpt><trkpt lat="53.27680391215464" lon="14.531484363707406"><ele>22.0</ele><time>2026-04-17T17:20:56.847Z</time></trkpt><trkpt lat="53.27672664425657" lon="14.531419245603654"><ele>22.0</ele><time>2026-04-17T17:20:57.847Z</time></trkpt><trkpt lat="53.276646942655596" lon="14.531359882425331"><ele>22.0</ele><time>2026-04-17T17:20:58.847Z</time></trkpt><trkpt lat="53.276556994666755" lon="14.53129870347695"><ele>22.0</ele><time>2026-04-17T17:20:59.847Z</time></trkpt><trkpt lat="53.27648343334339" lon="14.531230252848582"><ele>22.0</ele><time>2026-04-17T17:21:00.847Z</time></trkpt><trkpt lat="53.27640671394124" lon="14.531146942176045"><ele>22.0</ele><time>2026-04-17T17:21:01.847Z</time></trkpt><trkpt lat="53.27631857994674" lon="14.53108875343941"><ele>23.400000000000002</ele><time>2026-04-17T17:21:02.847Z</time></trkpt><trkpt lat="53.27623784830043" lon="14.531002418325286"><ele>24.8</ele><time>2026-04-17T17:21:03.847Z</time></trkpt><trkpt lat="53.27615376488482" lon="14.530910870950166"><ele>26.2</ele><time>2026-04-17T17:21:04.847Z</time></trkpt><trkpt lat="53.27607300287137" lon="14.530802438298752"><ele>27.6</ele><time>2026-04-17T17:21:05.847Z</time></trkpt><trkpt lat="53.27597246693509" lon="14.530683042825634"><ele>29.0</ele><time>2026-04-17T17:21:06.847Z</time></trkpt><trkpt lat="53.275867078325994" lon="14.530562978987579"><ele>29.0</ele><time>2026-04-17T17:21:07.847Z</time></trkpt><trkpt lat="53.27575602121909" lon="14.530425597989089"><ele>29.0</ele><time>2026-04-17T17:21:08.847Z</time></trkpt><trkpt lat="53.2756325808208" lon="14.53028809714121"><ele>29.0</ele><time>2026-04-17T17:21:09.847Z</time></trkpt><trkpt lat="53.275503721399744" lon="14.530142322053898"><ele>29.0</ele><time>2026-04-17T17:21:10.847Z</time></trkpt><trkpt lat="53.275362041070906" lon="14.52999729179462"><ele>29.5</ele><time>2026-04-17T17:21:11.847Z</time></trkpt><trkpt lat="53.275214907410664" lon="14.529854651064868"><ele>30.0</ele><time>2026-04-17T17:21:12.847Z</time></trkpt><trkpt lat="53.27508536198786" lon="14.529734106643872"><ele>30.5</ele><time>2026-04-17T17:21:13.847Z</time></trkpt><trkpt lat="53.27497939398346" lon="14.529632751169043"><ele>31.0</ele><time>2026-04-17T17:21:14.847Z</time></trkpt><trkpt lat="53.27488598628635" lon="14.52956003798551"><ele>31.8</ele><time>2026-04-17T17:21:15.847Z</time></trkpt><trkpt lat="53.27479701300944" lon="14.529515503657173"><ele>32.6</ele><time>2026-04-17T17:21:16.847Z</time></trkpt><trkpt lat="53.27469830370294" lon="14.529495446197444"><ele>33.4</ele><time>2026-04-17T17:21:17.847Z</time></trkpt><trkpt lat="53.274588408854534" lon="14.529507340742393"><ele>34.2</ele><time>2026-04-17T17:21:18.847Z</time></trkpt><trkpt lat="53.274474905178714" lon="14.529537624566334"><ele>35.0</ele><time>2026-04-17T17:21:19.847Z</time></trkpt><trkpt lat="53.274355522098716" lon="14.529512113199017"><ele>35.5</ele><time>2026-04-17T17:21:20.847Z</time></trkpt><trkpt lat="53.27423934467136" lon="14.529547933898856"><ele>36.0</ele><time>2026-04-17T17:21:21.847Z</time></trkpt><trkpt lat="53.27412432715541" lon="14.52962161340185"><ele>36.5</ele><time>2026-04-17T17:21:22.847Z</time></trkpt><trkpt lat="53.27401265139972" lon="14.529669720201628"><ele>37.0</ele><time>2026-04-17T17:21:23.846Z</time></trkpt><trkpt lat="53.27390700123417" lon="14.529756706839352"><ele>37.0</ele><time>2026-04-17T17:21:24.846Z</time></trkpt><trkpt lat="53.27379185915142" lon="14.52990897874205"><ele>37.0</ele><time>2026-04-17T17:21:25.845Z</time></trkpt><trkpt lat="53.27365826729683" lon="14.530029752034887"><ele>37.0</ele><time>2026-04-17T17:21:26.845Z</time></trkpt><trkpt lat="53.273541565520524" lon="14.530152979038913"><ele>37.0</ele><time>2026-04-17T17:21:27.846Z</time></trkpt><trkpt lat="53.27341475087762" lon="14.530249690000204"><ele>37.0</ele><time>2026-04-17T17:21:28.846Z</time></trkpt><trkpt lat="53.27330682497813" lon="14.530356474638962"><ele>37.0</ele><time>2026-04-17T17:21:29.845Z</time></trkpt><trkpt lat="53.27321505832139" lon="14.53047689781426"><ele>37.0</ele><time>2026-04-17T17:21:30.845Z</time></trkpt><trkpt lat="53.273120204553315" lon="14.530569201308277"><ele>37.0</ele><time>2026-04-17T17:21:31.845Z</time></trkpt><trkpt lat="53.273041592759114" lon="14.53064238660456"><ele>37.0</ele><time>2026-04-17T17:21:32.845Z</time></trkpt><trkpt lat="53.272983390737416" lon="14.530699479460342"><ele>37.0</ele><time>2026-04-17T17:21:33.845Z</time></trkpt><trkpt lat="53.272896412826306" lon="14.530757650187374"><ele>37.0</ele><time>2026-04-17T17:21:35.845Z</time></trkpt><trkpt lat="53.27279665547294" lon="14.530880022391164"><ele>37.0</ele><time>2026-04-17T17:21:37.845Z</time></trkpt><trkpt lat="53.2727253197767" lon="14.530956339678944"><ele>37.0</ele><time>2026-04-17T17:21:38.844Z</time></trkpt><trkpt lat="53.27263046986127" lon="14.531038439039113"><ele>37.0</ele><time>2026-04-17T17:21:39.844Z</time></trkpt><trkpt lat="53.272529079134124" lon="14.531067300022205"><ele>37.0</ele><time>2026-04-17T17:21:40.844Z</time></trkpt><trkpt lat="53.27241828875028" lon="14.53109736875496"><ele>37.0</ele><time>2026-04-17T17:21:41.844Z</time></trkpt><trkpt lat="53.27229306295056" lon="14.531105807171631"><ele>37.0</ele><time>2026-04-17T17:21:42.844Z</time></trkpt><trkpt lat="53.272162256459" lon="14.531106068348526"><ele>37.0</ele><time>2026-04-17T17:21:43.844Z</time></trkpt><trkpt lat="53.27202025470211" lon="14.531134139601681"><ele>37.0</ele><time>2026-04-17T17:21:44.844Z</time></trkpt><trkpt lat="53.271867630988744" lon="14.531136426000202"><ele>37.0</ele><time>2026-04-17T17:21:45.844Z</time></trkpt><trkpt lat="53.27172124625494" lon="14.531157915896502"><ele>37.0</ele><time>2026-04-17T17:21:46.844Z</time></trkpt><trkpt lat="53.27159186381694" lon="14.531172866777233"><ele>37.0</ele><time>2026-04-17T17:21:47.844Z</time></trkpt><trkpt lat="53.27146104668803" lon="14.531187257998194"><ele>37.5</ele><time>2026-04-17T17:21:48.844Z</time></trkpt><trkpt lat="53.27132550449167" lon="14.531210314417086"><ele>38.0</ele><time>2026-04-17T17:21:49.844Z</time></trkpt><trkpt lat="53.271184478322176" lon="14.53120658811576"><ele>38.5</ele><time>2026-04-17T17:21:50.844Z</time></trkpt><trkpt lat="53.271037696340926" lon="14.5312500172859"><ele>39.0</ele><time>2026-04-17T17:21:51.844Z</time></trkpt><trkpt lat="53.27087988712107" lon="14.53126842240761"><ele>37.0</ele><time>2026-04-17T17:21:52.844Z</time></trkpt><trkpt lat="53.27071939334597" lon="14.531255025613275"><ele>35.0</ele><time>2026-04-17T17:21:53.844Z</time></trkpt><trkpt lat="53.27056258231636" lon="14.531257619744068"><ele>33.0</ele><time>2026-04-17T17:21:54.844Z</time></trkpt><trkpt lat="53.270410951445456" lon="14.531250830480216"><ele>32.333333333333336</ele><time>2026-04-17T17:21:55.844Z</time></trkpt><trkpt lat="53.27025435107194" lon="14.531231705392058"><ele>31.666666666666668</ele><time>2026-04-17T17:21:56.844Z</time></trkpt><trkpt lat="53.270090719619766" lon="14.531189943620076"><ele>31.0</ele><time>2026-04-17T17:21:57.844Z</time></trkpt><trkpt lat="53.269922889406644" lon="14.531117063890068"><ele>32.333333333333336</ele><time>2026-04-17T17:21:58.844Z</time></trkpt><trkpt lat="53.269751109969064" lon="14.53103239215712"><ele>33.666666666666664</ele><time>2026-04-17T17:21:59.844Z</time></trkpt><trkpt lat="53.26957575238214" lon="14.53095834034882"><ele>35.0</ele><time>2026-04-17T17:22:00.844Z</time></trkpt><trkpt lat="53.269409559612946" lon="14.530924859910032"><ele>35.0</ele><time>2026-04-17T17:22:01.844Z</time></trkpt><trkpt lat="53.269249286316324" lon="14.530886287627856"><ele>35.0</ele><time>2026-04-17T17:22:02.844Z</time></trkpt><trkpt lat="53.26910438249937" lon="14.530859560561366"><ele>35.0</ele><time>2026-04-17T17:22:03.844Z</time></trkpt><trkpt lat="53.26898516896621" lon="14.530845843079772"><ele>35.0</ele><time>2026-04-17T17:22:04.844Z</time></trkpt><trkpt lat="53.26887080690254" lon="14.530825872619669"><ele>36.75</ele><time>2026-04-17T17:22:05.844Z</time></trkpt><trkpt lat="53.268751102786" lon="14.530778689870443"><ele>38.5</ele><time>2026-04-17T17:22:06.844Z</time></trkpt><trkpt lat="53.26862841222814" lon="14.530678554145211"><ele>40.25</ele><time>2026-04-17T17:22:07.844Z</time></trkpt><trkpt lat="53.26850169696661" lon="14.530582026768805"><ele>42.0</ele><time>2026-04-17T17:22:08.844Z</time></trkpt><trkpt lat="53.26836397737694" lon="14.530474603475364"><ele>40.666666666666664</ele><time>2026-04-17T17:22:09.844Z</time></trkpt><trkpt lat="53.26821921612782" lon="14.530385858791412"><ele>39.33333333333333</ele><time>2026-04-17T17:22:10.844Z</time></trkpt><trkpt lat="53.268070623929475" lon="14.530272406025711"><ele>38.0</ele><time>2026-04-17T17:22:11.844Z</time></trkpt><trkpt lat="53.26791699646129" lon="14.530189336471327"><ele>37.666666666666664</ele><time>2026-04-17T17:22:12.844Z</time></trkpt><trkpt lat="53.26775553561676" lon="14.530126392154795"><ele>37.333333333333336</ele><time>2026-04-17T17:22:13.844Z</time></trkpt><trkpt lat="53.26760096941651" lon="14.530074389825227"><ele>37.0</ele><time>2026-04-17T17:22:14.844Z</time></trkpt><trkpt lat="53.26746561515999" lon="14.53001926434792"><ele>37.0</ele><time>2026-04-17T17:22:15.844Z</time></trkpt><trkpt lat="53.26732397525911" lon="14.529982702100055"><ele>37.0</ele><time>2026-04-17T17:22:16.844Z</time></trkpt><trkpt lat="53.267184459650785" lon="14.52995777933411"><ele>37.0</ele><time>2026-04-17T17:22:17.844Z</time></trkpt><trkpt lat="53.26706292825189" lon="14.529956918059403"><ele>37.0</ele><time>2026-04-17T17:22:18.844Z</time></trkpt><trkpt lat="53.26693172812462" lon="14.52997662023719"><ele>37.0</ele><time>2026-04-17T17:22:19.844Z</time></trkpt><trkpt lat="53.26681439217548" lon="14.530056591208343"><ele>37.0</ele><time>2026-04-17T17:22:20.844Z</time></trkpt><trkpt lat="53.26669171162334" lon="14.530128621533661"><ele>37.0</ele><time>2026-04-17T17:22:21.844Z</time></trkpt><trkpt lat="53.26656797283577" lon="14.530222219417187"><ele>37.0</ele><time>2026-04-17T17:22:22.844Z</time></trkpt><trkpt lat="53.26644894005324" lon="14.530320020394145"><ele>40.0</ele><time>2026-04-17T17:22:23.844Z</time></trkpt><trkpt lat="53.266317699272406" lon="14.530444865962721"><ele>43.0</ele><time>2026-04-17T17:22:24.844Z</time></trkpt><trkpt lat="53.2661761269352" lon="14.530570388784612"><ele>46.0</ele><time>2026-04-17T17:22:25.844Z</time></trkpt><trkpt lat="53.26604269481576" lon="14.530693165924953"><ele>46.0</ele><time>2026-04-17T17:22:26.844Z</time></trkpt><trkpt lat="53.2659051909845" lon="14.530773542429156"><ele>46.0</ele><time>2026-04-17T17:22:27.844Z</time></trkpt><trkpt lat="53.265789971113186" lon="14.530842770007414"><ele>46.0</ele><time>2026-04-17T17:22:28.844Z</time></trkpt><trkpt lat="53.26567960341981" lon="14.530902758141487"><ele>46.0</ele><time>2026-04-17T17:22:29.844Z</time></trkpt><trkpt lat="53.265581691831095" lon="14.530968359369965"><ele>46.75</ele><time>2026-04-17T17:22:30.844Z</time></trkpt><trkpt lat="53.26545639288176" lon="14.530998395390059"><ele>47.5</ele><time>2026-04-17T17:22:31.844Z</time></trkpt><trkpt lat="53.26531917288502" lon="14.531042994817337"><ele>48.25</ele><time>2026-04-17T17:22:32.844Z</time></trkpt><trkpt lat="53.26517344356348" lon="14.531079401661026"><ele>49.0</ele><time>2026-04-17T17:22:33.844Z</time></trkpt><trkpt lat="53.26502345051434" lon="14.531106352927232"><ele>49.0</ele><time>2026-04-17T17:22:34.844Z</time></trkpt><trkpt lat="53.264893606572045" lon="14.531120445139015"><ele>49.0</ele><time>2026-04-17T17:22:35.844Z</time></trkpt><trkpt lat="53.264774519089585" lon="14.531126942982018"><ele>49.0</ele><time>2026-04-17T17:22:36.844Z</time></trkpt><trkpt lat="53.26465796023007" lon="14.53111936423564"><ele>49.0</ele><time>2026-04-17T17:22:37.844Z</time></trkpt><trkpt lat="53.26452946039618" lon="14.531086740734056"><ele>49.0</ele><time>2026-04-17T17:22:38.844Z</time></trkpt><trkpt lat="53.264410153878856" lon="14.531024826443025"><ele>49.0</ele><time>2026-04-17T17:22:39.844Z</time></trkpt><trkpt lat="53.26427737954377" lon="14.530943141707077"><ele>49.0</ele><time>2026-04-17T17:22:40.844Z</time></trkpt><trkpt lat="53.264134803829606" lon="14.53088264775871"><ele>49.0</ele><time>2026-04-17T17:22:41.844Z</time></trkpt><trkpt lat="53.26398321687188" lon="14.530808917178078"><ele>48.666666666666664</ele><time>2026-04-17T17:22:42.844Z</time></trkpt><trkpt lat="53.26383068394246" lon="14.530725962354262"><ele>48.33333333333333</ele><time>2026-04-17T17:22:43.844Z</time></trkpt><trkpt lat="53.26368451938376" lon="14.530682486900423"><ele>48.0</ele><time>2026-04-17T17:22:44.844Z</time></trkpt><trkpt lat="53.26353341200977" lon="14.530654100945576"><ele>48.0</ele><time>2026-04-17T17:22:45.844Z</time></trkpt><trkpt lat="53.26339173117462" lon="14.530650375233492"><ele>48.0</ele><time>2026-04-17T17:22:46.844Z</time></trkpt><trkpt lat="53.26324044119047" lon="14.530663480676349"><ele>48.0</ele><time>2026-04-17T17:22:47.844Z</time></trkpt><trkpt lat="53.26308572605045" lon="14.530675499302115"><ele>48.0</ele><time>2026-04-17T17:22:48.844Z</time></trkpt><trkpt lat="53.26294579898742" lon="14.530679097201622"><ele>47.333333333333336</ele><time>2026-04-17T17:22:49.844Z</time></trkpt><trkpt lat="53.26282302976162" lon="14.5306638622613"><ele>46.666666666666664</ele><time>2026-04-17T17:22:50.844Z</time></trkpt><trkpt lat="53.26273112472678" lon="14.530653916823876"><ele>46.0</ele><time>2026-04-17T17:22:51.844Z</time></trkpt><trkpt lat="53.26266539454605" lon="14.53065958758742"><ele>45.33333333333333</ele><time>2026-04-17T17:22:52.844Z</time></trkpt><trkpt lat="53.26259058337845" lon="14.530629133111711"><ele>44.666666666666664</ele><time>2026-04-17T17:22:54.844Z</time></trkpt><trkpt lat="53.26251419871398" lon="14.530609880196161"><ele>44.0</ele><time>2026-04-17T17:22:56.844Z</time></trkpt><trkpt lat="53.262412117027985" lon="14.530599451898567"><ele>44.0</ele><time>2026-04-17T17:22:58.844Z</time></trkpt><trkpt lat="53.26228526990461" lon="14.53066024777578"><ele>44.0</ele><time>2026-04-17T17:23:00.844Z</time></trkpt><trkpt lat="53.262206756018465" lon="14.530737823120049"><ele>44.0</ele><time>2026-04-17T17:23:01.844Z</time></trkpt><trkpt lat="53.26212200391925" lon="14.53083748033915"><ele>44.0</ele><time>2026-04-17T17:23:02.844Z</time></trkpt><trkpt lat="53.26203119566628" lon="14.53096596909163"><ele>44.0</ele><time>2026-04-17T17:23:03.844Z</time></trkpt><trkpt lat="53.2619324072949" lon="14.531088826382854"><ele>44.0</ele><time>2026-04-17T17:23:04.844Z</time></trkpt><trkpt lat="53.2618155785258" lon="14.531200603138789"><ele>44.0</ele><time>2026-04-17T17:23:05.844Z</time></trkpt><trkpt lat="53.2616840663833" lon="14.53129272826821"><ele>44.0</ele><time>2026-04-17T17:23:06.844Z</time></trkpt><trkpt lat="53.26154881833402" lon="14.531371515144484"><ele>44.0</ele><time>2026-04-17T17:23:07.844Z</time></trkpt><trkpt lat="53.26141100403355" lon="14.531440885150117"><ele>44.25</ele><time>2026-04-17T17:23:08.844Z</time></trkpt><trkpt lat="53.26128806988023" lon="14.53148359194401"><ele>44.5</ele><time>2026-04-17T17:23:09.844Z</time></trkpt><trkpt lat="53.26117053619063" lon="14.531499099850576"><ele>44.75</ele><time>2026-04-17T17:23:10.844Z</time></trkpt><trkpt lat="53.26104538772215" lon="14.531486983104497"><ele>45.0</ele><time>2026-04-17T17:23:11.844Z</time></trkpt><trkpt lat="53.260906405916465" lon="14.531403719447816"><ele>45.0</ele><time>2026-04-17T17:23:12.844Z</time></trkpt><trkpt lat="53.26076361536091" lon="14.53136029311886"><ele>45.0</ele><time>2026-04-17T17:23:13.844Z</time></trkpt><trkpt lat="53.260647713470775" lon="14.531341846217504"><ele>45.0</ele><time>2026-04-17T17:23:14.844Z</time></trkpt><trkpt lat="53.260550018941316" lon="14.531301862700335"><ele>45.0</ele><time>2026-04-17T17:23:15.844Z</time></trkpt><trkpt lat="53.260459231686966" lon="14.53125539011325"><ele>45.2</ele><time>2026-04-17T17:23:16.844Z</time></trkpt><trkpt lat="53.26036139856571" lon="14.531220336644765"><ele>45.4</ele><time>2026-04-17T17:23:17.844Z</time></trkpt><trkpt lat="53.260258266047316" lon="14.531202831604217"><ele>45.599999999999994</ele><time>2026-04-17T17:23:18.844Z</time></trkpt><trkpt lat="53.26015466275649" lon="14.531190945028424"><ele>45.8</ele><time>2026-04-17T17:23:19.844Z</time></trkpt><trkpt lat="53.26006454252201" lon="14.531136960918515"><ele>46.0</ele><time>2026-04-17T17:23:20.843Z</time></trkpt><trkpt lat="53.259984982560624" lon="14.531103604076979"><ele>46.0</ele><time>2026-04-17T17:23:21.843Z</time></trkpt><trkpt lat="53.25991061563094" lon="14.531062446828399"><ele>46.0</ele><time>2026-04-17T17:23:22.843Z</time></trkpt><trkpt lat="53.25982410598299" lon="14.531021801952802"><ele>46.0</ele><time>2026-04-17T17:23:23.843Z</time></trkpt><trkpt lat="53.259732366061435" lon="14.530902988278838"><ele>46.0</ele><time>2026-04-17T17:23:24.843Z</time></trkpt><trkpt lat="53.259662630263165" lon="14.53078082242433"><ele>46.0</ele><time>2026-04-17T17:23:25.843Z</time></trkpt><trkpt lat="53.2595904983736" lon="14.530671040893308"><ele>46.0</ele><time>2026-04-17T17:23:26.843Z</time></trkpt><trkpt lat="53.259531459736976" lon="14.530554753321244"><ele>46.0</ele><time>2026-04-17T17:23:27.843Z</time></trkpt><trkpt lat="53.259467025148844" lon="14.530452738172686"><ele>46.0</ele><time>2026-04-17T17:23:28.843Z</time></trkpt><trkpt lat="53.259408007396004" lon="14.53037020837215"><ele>46.0</ele><time>2026-04-17T17:23:29.842Z</time></trkpt><trkpt lat="53.259348016001724" lon="14.530299424154258"><ele>46.0</ele><time>2026-04-17T17:23:30.843Z</time></trkpt><trkpt lat="53.25927861287428" lon="14.53025882941753"><ele>46.0</ele><time>2026-04-17T17:23:31.843Z</time></trkpt><trkpt lat="53.259198601363" lon="14.530232097249922"><ele>46.199999999999996</ele><time>2026-04-17T17:23:32.842Z</time></trkpt><trkpt lat="53.25909355331147" lon="14.530217252506887"><ele>46.4</ele><time>2026-04-17T17:23:33.842Z</time></trkpt><trkpt lat="53.25898452048777" lon="14.530196863661521"><ele>46.6</ele><time>2026-04-17T17:23:34.842Z</time></trkpt><trkpt lat="53.258877037835724" lon="14.530190986693896"><ele>46.8</ele><time>2026-04-17T17:23:35.842Z</time></trkpt><trkpt lat="53.25878809229687" lon="14.530150664195647"><ele>47.0</ele><time>2026-04-17T17:23:36.842Z</time></trkpt><trkpt lat="53.2587031313836" lon="14.530116473234145"><ele>47.0</ele><time>2026-04-17T17:23:37.842Z</time></trkpt><trkpt lat="53.25861881212915" lon="14.530056554393907"><ele>47.0</ele><time>2026-04-17T17:23:38.842Z</time></trkpt><trkpt lat="53.25856552149986" lon="14.529969303588555"><ele>47.0</ele><time>2026-04-17T17:23:39.842Z</time></trkpt><trkpt lat="53.258510620991174" lon="14.529874957666285"><ele>47.0</ele><time>2026-04-17T17:23:40.842Z</time></trkpt><trkpt lat="53.25844361421022" lon="14.529784374697602"><ele>47.0</ele><time>2026-04-17T17:23:41.842Z</time></trkpt><trkpt lat="53.258383321239776" lon="14.529657547858534"><ele>47.0</ele><time>2026-04-17T17:23:42.842Z</time></trkpt><trkpt lat="53.258314517224676" lon="14.529541661808372"><ele>47.25</ele><time>2026-04-17T17:23:43.842Z</time></trkpt><trkpt lat="53.25825446386509" lon="14.529395628054996"><ele>47.5</ele><time>2026-04-17T17:23:44.842Z</time></trkpt><trkpt lat="53.2581772664857" lon="14.52924436387641"><ele>47.75</ele><time>2026-04-17T17:23:45.842Z</time></trkpt><trkpt lat="53.25809536163049" lon="14.52907819251943"><ele>48.0</ele><time>2026-04-17T17:23:46.842Z</time></trkpt><trkpt lat="53.258009455455216" lon="14.528905332074528"><ele>48.0</ele><time>2026-04-17T17:23:47.842Z</time></trkpt><trkpt lat="53.2579180333281" lon="14.52873292235077"><ele>48.0</ele><time>2026-04-17T17:23:48.842Z</time></trkpt><trkpt lat="53.25781011768279" lon="14.52856934336413"><ele>48.0</ele><time>2026-04-17T17:23:49.842Z</time></trkpt><trkpt lat="53.257688428966695" lon="14.528438380858562"><ele>48.0</ele><time>2026-04-17T17:23:50.842Z</time></trkpt><trkpt lat="53.2575670099778" lon="14.528341532450025"><ele>47.4</ele><time>2026-04-17T17:23:51.842Z</time></trkpt><trkpt lat="53.25746199434565" lon="14.528262704568851"><ele>46.8</ele><time>2026-04-17T17:23:52.842Z</time></trkpt><trkpt lat="53.25735932120598" lon="14.528190311182202"><ele>46.2</ele><time>2026-04-17T17:23:53.842Z</time></trkpt><trkpt lat="53.257257636817926" lon="14.52813118461075"><ele>45.6</ele><time>2026-04-17T17:23:54.842Z</time></trkpt><trkpt lat="53.257164458223144" lon="14.528080346806458"><ele>45.0</ele><time>2026-04-17T17:23:55.842Z</time></trkpt><trkpt lat="53.257086636858645" lon="14.528034025575513"><ele>43.8</ele><time>2026-04-17T17:23:56.842Z</time></trkpt><trkpt lat="53.257012957928396" lon="14.527987317457516"><ele>42.6</ele><time>2026-04-17T17:23:57.842Z</time></trkpt><trkpt lat="53.2569237032324" lon="14.527931283189496"><ele>41.4</ele><time>2026-04-17T17:23:59.842Z</time></trkpt><trkpt lat="53.25684237150177" lon="14.527897488838649"><ele>40.2</ele><time>2026-04-17T17:24:03.842Z</time></trkpt><trkpt lat="53.25678956011183" lon="14.52800038719841"><ele>39.0</ele><time>2026-04-17T17:24:05.842Z</time></trkpt><trkpt lat="53.256773153200236" lon="14.52819772945197"><ele>39.0</ele><time>2026-04-17T17:24:06.842Z</time></trkpt><trkpt lat="53.25677053997297" lon="14.528419765331414"><ele>39.0</ele><time>2026-04-17T17:24:07.842Z</time></trkpt><trkpt lat="53.25674327023041" lon="14.52865136601277"><ele>39.0</ele><time>2026-04-17T17:24:08.842Z</time></trkpt><trkpt lat="53.25672488838961" lon="14.528886499570698"><ele>39.0</ele><time>2026-04-17T17:24:09.842Z</time></trkpt><trkpt lat="53.25669310752031" lon="14.529154875557891"><ele>39.0</ele><time>2026-04-17T17:24:10.842Z</time></trkpt><trkpt lat="53.25666902621967" lon="14.52944062860348"><ele>39.0</ele><time>2026-04-17T17:24:11.842Z</time></trkpt><trkpt lat="53.25664255520488" lon="14.52975404163062"><ele>39.0</ele><time>2026-04-17T17:24:12.842Z</time></trkpt><trkpt lat="53.25661473565813" lon="14.530083927351829"><ele>38.666666666666664</ele><time>2026-04-17T17:24:13.842Z</time></trkpt><trkpt lat="53.25660322993701" lon="14.530406519046155"><ele>38.33333333333333</ele><time>2026-04-17T17:24:14.842Z</time></trkpt><trkpt lat="53.25655975267653" lon="14.530729401139222"><ele>38.0</ele><time>2026-04-17T17:24:15.841Z</time></trkpt><trkpt lat="53.25652997189405" lon="14.531069952335049"><ele>37.33333333333333</ele><time>2026-04-17T17:24:16.841Z</time></trkpt><trkpt lat="53.25649958376414" lon="14.531417448279488"><ele>36.666666666666664</ele><time>2026-04-17T17:24:17.841Z</time></trkpt><trkpt lat="53.25646814226903" lon="14.531771701101341"><ele>36.0</ele><time>2026-04-17T17:24:18.841Z</time></trkpt><trkpt lat="53.25645296401612" lon="14.532134076652497"><ele>39.0</ele><time>2026-04-17T17:24:19.841Z</time></trkpt><trkpt lat="53.256422545489855" lon="14.532491685315875"><ele>42.0</ele><time>2026-04-17T17:24:20.841Z</time></trkpt><trkpt lat="53.25639157251297" lon="14.53285388043158"><ele>45.0</ele><time>2026-04-17T17:24:21.841Z</time></trkpt><trkpt lat="53.25634429569868" lon="14.533222394449012"><ele>46.0</ele><time>2026-04-17T17:24:22.841Z</time></trkpt><trkpt lat="53.25632717462316" lon="14.533603039865064"><ele>47.0</ele><time>2026-04-17T17:24:23.841Z</time></trkpt><trkpt lat="53.256293617396196" lon="14.533976796091862"><ele>47.0</ele><time>2026-04-17T17:24:24.841Z</time></trkpt><trkpt lat="53.25625692794473" lon="14.534354092492517"><ele>47.0</ele><time>2026-04-17T17:24:25.841Z</time></trkpt><trkpt lat="53.25622436039552" lon="14.534731953065956"><ele>46.5</ele><time>2026-04-17T17:24:26.841Z</time></trkpt><trkpt lat="53.256190805170334" lon="14.535112659552578"><ele>46.0</ele><time>2026-04-17T17:24:27.841Z</time></trkpt><trkpt lat="53.256157260710516" lon="14.535497472469256"><ele>47.0</ele><time>2026-04-17T17:24:28.841Z</time></trkpt><trkpt lat="53.25612056229844" lon="14.535874933835387"><ele>48.0</ele><time>2026-04-17T17:24:29.841Z</time></trkpt><trkpt lat="53.25607991443778" lon="14.53624740223039"><ele>48.5</ele><time>2026-04-17T17:24:30.841Z</time></trkpt><trkpt lat="53.25604054333511" lon="14.536620747353249"><ele>49.0</ele><time>2026-04-17T17:24:31.841Z</time></trkpt><trkpt lat="53.25600394486069" lon="14.53700041808755"><ele>49.0</ele><time>2026-04-17T17:24:32.841Z</time></trkpt><trkpt lat="53.25597189281529" lon="14.537387323950687"><ele>49.0</ele><time>2026-04-17T17:24:33.841Z</time></trkpt><trkpt lat="53.255931849762774" lon="14.537778143383251"><ele>49.0</ele><time>2026-04-17T17:24:34.841Z</time></trkpt><trkpt lat="53.25589990502477" lon="14.538167236183797"><ele>49.0</ele><time>2026-04-17T17:24:35.841Z</time></trkpt><trkpt lat="53.255869343133405" lon="14.538545840202595"><ele>48.5</ele><time>2026-04-17T17:24:36.841Z</time></trkpt><trkpt lat="53.25583994310357" lon="14.538930953291063"><ele>48.0</ele><time>2026-04-17T17:24:37.841Z</time></trkpt><trkpt lat="53.25580965787475" lon="14.539318926898398"><ele>47.5</ele><time>2026-04-17T17:24:38.841Z</time></trkpt><trkpt lat="53.255776936808545" lon="14.539706396608914"><ele>47.0</ele><time>2026-04-17T17:24:39.841Z</time></trkpt><trkpt lat="53.25574421153182" lon="14.540095253432254"><ele>48.5</ele><time>2026-04-17T17:24:40.841Z</time></trkpt><trkpt lat="53.255706437868184" lon="14.540476656428629"><ele>50.0</ele><time>2026-04-17T17:24:41.841Z</time></trkpt><trkpt lat="53.25566777990695" lon="14.540853360472402"><ele>51.0</ele><time>2026-04-17T17:24:42.841Z</time></trkpt><trkpt lat="53.25563072888858" lon="14.541231166186984"><ele>52.0</ele><time>2026-04-17T17:24:43.841Z</time></trkpt><trkpt lat="53.255595241433426" lon="14.54160857903625"><ele>54.5</ele><time>2026-04-17T17:24:44.841Z</time></trkpt><trkpt lat="53.25556876487276" lon="14.541986678420155"><ele>57.0</ele><time>2026-04-17T17:24:45.841Z</time></trkpt><trkpt lat="53.255541233894085" lon="14.542363060037653"><ele>57.33333333333333</ele><time>2026-04-17T17:24:46.841Z</time></trkpt><trkpt lat="53.25550556219061" lon="14.542732683535634"><ele>57.666666666666664</ele><time>2026-04-17T17:24:47.841Z</time></trkpt><trkpt lat="53.25547316870752" lon="14.543104374892993"><ele>58.0</ele><time>2026-04-17T17:24:48.841Z</time></trkpt><trkpt lat="53.25544373018736" lon="14.543476269719978"><ele>56.5</ele><time>2026-04-17T17:24:49.841Z</time></trkpt><trkpt lat="53.25541679152311" lon="14.54385128059543"><ele>55.0</ele><time>2026-04-17T17:24:50.841Z</time></trkpt><trkpt lat="53.25538654678051" lon="14.544222476525919"><ele>54.5</ele><time>2026-04-17T17:24:51.841Z</time></trkpt><trkpt lat="53.25535399968668" lon="14.544600429245886"><ele>54.0</ele><time>2026-04-17T17:24:52.841Z</time></trkpt><trkpt lat="53.25532135650132" lon="14.544980931432288"><ele>54.0</ele><time>2026-04-17T17:24:53.841Z</time></trkpt><trkpt lat="53.255290069797745" lon="14.545363941171901"><ele>54.0</ele><time>2026-04-17T17:24:54.841Z</time></trkpt><trkpt lat="53.255269347040674" lon="14.545755796440991"><ele>53.5</ele><time>2026-04-17T17:24:55.841Z</time></trkpt><trkpt lat="53.255265723047515" lon="14.546162250076959"><ele>53.0</ele><time>2026-04-17T17:24:56.841Z</time></trkpt><trkpt lat="53.25523165697604" lon="14.546558012464942"><ele>51.5</ele><time>2026-04-17T17:24:57.841Z</time></trkpt><trkpt lat="53.255234672394344" lon="14.546990622122586"><ele>50.0</ele><time>2026-04-17T17:24:58.841Z</time></trkpt><trkpt lat="53.255239671540224" lon="14.547426328801514"><ele>48.5</ele><time>2026-04-17T17:24:59.841Z</time></trkpt><trkpt lat="53.25524289718333" lon="14.547856858492324"><ele>47.0</ele><time>2026-04-17T17:25:00.841Z</time></trkpt><trkpt lat="53.25524626440598" lon="14.548284929395491"><ele>44.5</ele><time>2026-04-17T17:25:01.841Z</time></trkpt><trkpt lat="53.25525295509553" lon="14.548714047074629"><ele>42.0</ele><time>2026-04-17T17:25:02.841Z</time></trkpt><trkpt lat="53.25525341144452" lon="14.549142324497904"><ele>40.0</ele><time>2026-04-17T17:25:03.841Z</time></trkpt><trkpt lat="53.255251303311354" lon="14.549567556417031"><ele>38.0</ele><time>2026-04-17T17:25:04.841Z</time></trkpt><trkpt lat="53.255255540200764" lon="14.55002751546876"><ele>36.5</ele><time>2026-04-17T17:25:05.841Z</time></trkpt><trkpt lat="53.255248251983645" lon="14.550487939564732"><ele>35.0</ele><time>2026-04-17T17:25:06.841Z</time></trkpt><trkpt lat="53.25523933173845" lon="14.550925825652236"><ele>33.5</ele><time>2026-04-17T17:25:07.841Z</time></trkpt><trkpt lat="53.255224829371436" lon="14.551332629490718"><ele>32.0</ele><time>2026-04-17T17:25:08.841Z</time></trkpt><trkpt lat="53.25521827224047" lon="14.551744408477909"><ele>30.5</ele><time>2026-04-17T17:25:09.841Z</time></trkpt><trkpt lat="53.255197032251054" lon="14.552149903578483"><ele>29.0</ele><time>2026-04-17T17:25:10.841Z</time></trkpt><trkpt lat="53.25517688048932" lon="14.552546604937746"><ele>29.666666666666664</ele><time>2026-04-17T17:25:11.841Z</time></trkpt><trkpt lat="53.25516396248485" lon="14.552927488756014"><ele>30.333333333333336</ele><time>2026-04-17T17:25:12.841Z</time></trkpt><trkpt lat="53.25516968907036" lon="14.553260814015772"><ele>31.0</ele><time>2026-04-17T17:25:13.841Z</time></trkpt><trkpt lat="53.25533495255209" lon="14.552887341082316"><ele>31.0</ele><time>2026-04-17T17:25:14.841Z</time></trkpt><trkpt lat="53.255336974686266" lon="14.553107271342439"><ele>31.0</ele><time>2026-04-17T17:25:15.841Z</time></trkpt><trkpt lat="53.25533925459225" lon="14.553265536421648"><ele>31.0</ele><time>2026-04-17T17:25:16.841Z</time></trkpt><trkpt lat="53.25533831088024" lon="14.553394129307822"><ele>31.0</ele><time>2026-04-17T17:25:17.841Z</time></trkpt><trkpt lat="53.25532932016583" lon="14.553545265833385"><ele>31.0</ele><time>2026-04-17T17:25:19.841Z</time></trkpt><trkpt lat="53.25523182139155" lon="14.553605759392859"><ele>31.0</ele><time>2026-04-17T17:25:21.841Z</time></trkpt><trkpt lat="53.255170498187475" lon="14.553557758453591"><ele>31.0</ele><time>2026-04-17T17:25:22.841Z</time></trkpt><trkpt lat="53.255093709695146" lon="14.553488014423992"><ele>31.0</ele><time>2026-04-17T17:25:23.841Z</time></trkpt><trkpt lat="53.25500578454456" lon="14.553418261635656"><ele>31.0</ele><time>2026-04-17T17:25:24.841Z</time></trkpt><trkpt lat="53.254901264580845" lon="14.553345855943181"><ele>31.0</ele><time>2026-04-17T17:25:25.841Z</time></trkpt><trkpt lat="53.254782486726306" lon="14.55325658316541"><ele>30.5</ele><time>2026-04-17T17:25:26.841Z</time></trkpt><trkpt lat="53.25465644350594" lon="14.553177790227446"><ele>30.0</ele><time>2026-04-17T17:25:27.841Z</time></trkpt><trkpt lat="53.25453829899338" lon="14.553111357068358"><ele>29.5</ele><time>2026-04-17T17:25:28.841Z</time></trkpt><trkpt lat="53.25441321073466" lon="14.553062784440165"><ele>29.0</ele><time>2026-04-17T17:25:29.841Z</time></trkpt><trkpt lat="53.25427796238182" lon="14.553015166641128"><ele>29.0</ele><time>2026-04-17T17:25:30.841Z</time></trkpt><trkpt lat="53.254147184070405" lon="14.552957835209206"><ele>29.0</ele><time>2026-04-17T17:25:31.841Z</time></trkpt><trkpt lat="53.25400471675556" lon="14.552889462528961"><ele>29.0</ele><time>2026-04-17T17:25:32.841Z</time></trkpt><trkpt lat="53.25385623628601" lon="14.552817023165174"><ele>29.0</ele><time>2026-04-17T17:25:33.841Z</time></trkpt><trkpt lat="53.25369883362333" lon="14.552745601708779"><ele>28.666666666666664</ele><time>2026-04-17T17:25:34.841Z</time></trkpt><trkpt lat="53.25353462956546" lon="14.552666267809421"><ele>28.333333333333336</ele><time>2026-04-17T17:25:35.839Z</time></trkpt><trkpt lat="53.253364253687614" lon="14.552580981263006"><ele>28.0</ele><time>2026-04-17T17:25:36.84Z</time></trkpt><trkpt lat="53.25315355693156" lon="14.552490531879608"><ele>28.333333333333336</ele><time>2026-04-17T17:25:37.84Z</time></trkpt><trkpt lat="53.2529657450362" lon="14.552400865361047"><ele>28.666666666666664</ele><time>2026-04-17T17:25:38.84Z</time></trkpt><trkpt lat="53.25276295461707" lon="14.552299397985424"><ele>29.0</ele><time>2026-04-17T17:25:39.84Z</time></trkpt><trkpt lat="53.25256133060208" lon="14.5522072823039"><ele>29.0</ele><time>2026-04-17T17:25:40.84Z</time></trkpt><trkpt lat="53.25237093725705" lon="14.552104552219062"><ele>29.0</ele><time>2026-04-17T17:25:41.84Z</time></trkpt><trkpt lat="53.25219075025879" lon="14.552000230586534"><ele>29.0</ele><time>2026-04-17T17:25:42.839Z</time></trkpt><trkpt lat="53.252006416885166" lon="14.55190826443801"><ele>30.0</ele><time>2026-04-17T17:25:43.839Z</time></trkpt><trkpt lat="53.25184308579381" lon="14.551829248112412"><ele>31.0</ele><time>2026-04-17T17:25:44.839Z</time></trkpt><trkpt lat="53.251702942049555" lon="14.551756645035457"><ele>32.0</ele><time>2026-04-17T17:25:45.839Z</time></trkpt><trkpt lat="53.2515833069702" lon="14.55170183063183"><ele>33.0</ele><time>2026-04-17T17:25:46.839Z</time></trkpt><trkpt lat="53.25148665434921" lon="14.55164813742013"><ele>33.0</ele><time>2026-04-17T17:25:47.84Z</time></trkpt><trkpt lat="53.25139754666417" lon="14.551606985693358"><ele>33.0</ele><time>2026-04-17T17:25:48.839Z</time></trkpt><trkpt lat="53.25130003464748" lon="14.551542971842352"><ele>33.0</ele><time>2026-04-17T17:25:50.839Z</time></trkpt><trkpt lat="53.25123696789629" lon="14.551631204200026"><ele>33.0</ele><time>2026-04-17T17:25:53.839Z</time></trkpt><trkpt lat="53.251196670440656" lon="14.55180280271672"><ele>33.0</ele><time>2026-04-17T17:25:55.839Z</time></trkpt><trkpt lat="53.25118377912408" lon="14.551920103647644"><ele>33.0</ele><time>2026-04-17T17:25:56.839Z</time></trkpt><trkpt lat="53.25117245868972" lon="14.55203473784206"><ele>33.0</ele><time>2026-04-17T17:25:57.839Z</time></trkpt><trkpt lat="53.251168698308895" lon="14.55223485322958"><ele>33.0</ele><time>2026-04-17T17:25:59.839Z</time></trkpt><trkpt lat="53.25114666573811" lon="14.55244139893913"><ele>33.0</ele><time>2026-04-17T17:26:01.839Z</time></trkpt><trkpt lat="53.25114190401882" lon="14.552559983083244"><ele>33.0</ele><time>2026-04-17T17:26:02.839Z</time></trkpt><trkpt lat="53.25113383745277" lon="14.55268749108935"><ele>33.5</ele><time>2026-04-17T17:26:03.839Z</time></trkpt><trkpt lat="53.25112804944658" lon="14.552804440611522"><ele>34.0</ele><time>2026-04-17T17:26:04.839Z</time></trkpt><trkpt lat="53.251109648200575" lon="14.55293577113306"><ele>34.5</ele><time>2026-04-17T17:26:05.839Z</time></trkpt><trkpt lat="53.251097569767275" lon="14.553062332409077"><ele>35.0</ele><time>2026-04-17T17:26:06.839Z</time></trkpt><trkpt lat="53.25108137413295" lon="14.553205123469711"><ele>35.5</ele><time>2026-04-17T17:26:07.839Z</time></trkpt><trkpt lat="53.25106931446488" lon="14.553328693777086"><ele>36.0</ele><time>2026-04-17T17:26:08.839Z</time></trkpt><trkpt lat="53.25104915797631" lon="14.553455222407205"><ele>36.666666666666664</ele><time>2026-04-17T17:26:10.839Z</time></trkpt><trkpt lat="53.25103079141688" lon="14.553564993753449"><ele>37.333333333333336</ele><time>2026-04-17T17:26:13.839Z</time></trkpt><trkpt lat="53.25103875651267" lon="14.553460542826803"><ele>38.0</ele><time>2026-04-17T17:26:20.839Z</time></trkpt><trkpt lat="53.25106741048545" lon="14.553282500583814"><ele>38.66666666666667</ele><time>2026-04-17T17:26:22.839Z</time></trkpt><trkpt lat="53.251084508890855" lon="14.553160850860685"><ele>39.333333333333336</ele><time>2026-04-17T17:26:23.839Z</time></trkpt><trkpt lat="53.251111556373644" lon="14.553052587628404"><ele>40.0</ele><time>2026-04-17T17:26:24.839Z</time></trkpt><trkpt lat="53.25110616785623" lon="14.552933934434183"><ele>39.0</ele><time>2026-04-17T17:26:26.839Z</time></trkpt><trkpt lat="53.25087350296539" lon="14.552798449322186"><ele>38.0</ele><time>2026-04-17T17:26:32.839Z</time></trkpt><trkpt lat="53.250805231822085" lon="14.55278384742331"><ele>37.0</ele><time>2026-04-17T17:26:33.839Z</time></trkpt><trkpt lat="53.25073236722012" lon="14.552772128600623"><ele>36.0</ele><time>2026-04-17T17:26:34.839Z</time></trkpt><trkpt lat="53.25065864222803" lon="14.552754483938802"><ele>36.833333333333336</ele><time>2026-04-17T17:26:35.839Z</time></trkpt><trkpt lat="53.25057962644329" lon="14.552744104182512"><ele>37.666666666666664</ele><time>2026-04-17T17:26:36.839Z</time></trkpt><trkpt lat="53.25050289090376" lon="14.552736957006884"><ele>38.5</ele><time>2026-04-17T17:26:37.839Z</time></trkpt><trkpt lat="53.250422390110046" lon="14.552715592178153"><ele>39.33333333333333</ele><time>2026-04-17T17:26:38.839Z</time></trkpt><trkpt lat="53.25033900369556" lon="14.552706298237421"><ele>40.166666666666664</ele><time>2026-04-17T17:26:39.839Z</time></trkpt><trkpt lat="53.25025490219092" lon="14.552700521144686"><ele>41.0</ele><time>2026-04-17T17:26:40.839Z</time></trkpt><trkpt lat="53.25017472183184" lon="14.552714798566631"><ele>41.0</ele><time>2026-04-17T17:26:41.839Z</time></trkpt><trkpt lat="53.25009652161672" lon="14.552705183750135"><ele>41.0</ele><time>2026-04-17T17:26:42.839Z</time></trkpt><trkpt lat="53.250016700853344" lon="14.55268984887338"><ele>41.0</ele><time>2026-04-17T17:26:43.839Z</time></trkpt><trkpt lat="53.24993402047523" lon="14.552674309353097"><ele>41.0</ele><time>2026-04-17T17:26:44.839Z</time></trkpt><trkpt lat="53.24984592694534" lon="14.552654467431411"><ele>41.0</ele><time>2026-04-17T17:26:45.839Z</time></trkpt><trkpt lat="53.24976513217484" lon="14.552628085042214"><ele>41.0</ele><time>2026-04-17T17:26:46.838Z</time></trkpt><trkpt lat="53.24968068449194" lon="14.552613011235836"><ele>41.5</ele><time>2026-04-17T17:26:47.838Z</time></trkpt><trkpt lat="53.249598862868396" lon="14.552603731296667"><ele>42.0</ele><time>2026-04-17T17:26:48.838Z</time></trkpt><trkpt lat="53.24951887256319" lon="14.552583225797406"><ele>42.5</ele><time>2026-04-17T17:26:49.838Z</time></trkpt><trkpt lat="53.249442382815644" lon="14.552568741197309"><ele>43.0</ele><time>2026-04-17T17:26:50.838Z</time></trkpt><trkpt lat="53.24935408460079" lon="14.552569842586056"><ele>43.5</ele><time>2026-04-17T17:26:51.838Z</time></trkpt><trkpt lat="53.249264751179474" lon="14.552553656715334"><ele>44.0</ele><time>2026-04-17T17:26:52.838Z</time></trkpt><trkpt lat="53.24917866489402" lon="14.552538576246853"><ele>44.0</ele><time>2026-04-17T17:26:53.838Z</time></trkpt><trkpt lat="53.24909627876645" lon="14.552517334280335"><ele>44.0</ele><time>2026-04-17T17:26:54.838Z</time></trkpt><trkpt lat="53.24901207177427" lon="14.55250171959408"><ele>44.0</ele><time>2026-04-17T17:26:55.838Z</time></trkpt><trkpt lat="53.248935420989945" lon="14.55249301893315"><ele>44.0</ele><time>2026-04-17T17:26:56.838Z</time></trkpt><trkpt lat="53.248861617801445" lon="14.552473811086301"><ele>44.0</ele><time>2026-04-17T17:26:57.838Z</time></trkpt><trkpt lat="53.24878443072481" lon="14.552464826863272"><ele>44.0</ele><time>2026-04-17T17:26:58.838Z</time></trkpt><trkpt lat="53.24869993924518" lon="14.552448288857304"><ele>44.0</ele><time>2026-04-17T17:26:59.838Z</time></trkpt><trkpt lat="53.24862326685197" lon="14.552429067110607"><ele>44.0</ele><time>2026-04-17T17:27:00.838Z</time></trkpt><trkpt lat="53.24852841111739" lon="14.552412701708127"><ele>44.0</ele><time>2026-04-17T17:27:01.838Z</time></trkpt><trkpt lat="53.248429168640264" lon="14.552385530341509"><ele>44.0</ele><time>2026-04-17T17:27:02.838Z</time></trkpt><trkpt lat="53.248332821305404" lon="14.552395350863296"><ele>44.0</ele><time>2026-04-17T17:27:03.838Z</time></trkpt><trkpt lat="53.248230997262574" lon="14.552370608462498"><ele>44.6</ele><time>2026-04-17T17:27:04.838Z</time></trkpt><trkpt lat="53.24812327760948" lon="14.552362019329786"><ele>45.2</ele><time>2026-04-17T17:27:05.838Z</time></trkpt><trkpt lat="53.24802061051967" lon="14.552349576552212"><ele>45.800000000000004</ele><time>2026-04-17T17:27:06.838Z</time></trkpt><trkpt lat="53.24792095747103" lon="14.55233005827726"><ele>46.400000000000006</ele><time>2026-04-17T17:27:07.838Z</time></trkpt><trkpt lat="53.24782525481769" lon="14.552303725339875"><ele>47.0</ele><time>2026-04-17T17:27:08.838Z</time></trkpt><trkpt lat="53.2477438503682" lon="14.552298769247855"><ele>47.0</ele><time>2026-04-17T17:27:09.838Z</time></trkpt><trkpt lat="53.24765015516809" lon="14.552283122212469"><ele>47.0</ele><time>2026-04-17T17:27:10.838Z</time></trkpt><trkpt lat="53.24755468517946" lon="14.552256777702036"><ele>47.0</ele><time>2026-04-17T17:27:11.838Z</time></trkpt><trkpt lat="53.247460340035985" lon="14.552242671484892"><ele>47.0</ele><time>2026-04-17T17:27:12.838Z</time></trkpt><trkpt lat="53.24738586229117" lon="14.552236927106863"><ele>47.0</ele><time>2026-04-17T17:27:13.838Z</time></trkpt><trkpt lat="53.24730824483933" lon="14.55222440136406"><ele>47.0</ele><time>2026-04-17T17:27:14.838Z</time></trkpt><trkpt lat="53.247224260027174" lon="14.552227258351017"><ele>47.2</ele><time>2026-04-17T17:27:15.838Z</time></trkpt><trkpt lat="53.2471309138464" lon="14.552194966106573"><ele>47.400000000000006</ele><time>2026-04-17T17:27:16.838Z</time></trkpt><trkpt lat="53.24704346638005" lon="14.552187572346861"><ele>47.599999999999994</ele><time>2026-04-17T17:27:17.838Z</time></trkpt><trkpt lat="53.24695022644951" lon="14.5521777537757"><ele>47.8</ele><time>2026-04-17T17:27:18.838Z</time></trkpt><trkpt lat="53.246864069402136" lon="14.55217376500585"><ele>48.0</ele><time>2026-04-17T17:27:19.838Z</time></trkpt><trkpt lat="53.246774314981295" lon="14.552166796598206"><ele>48.0</ele><time>2026-04-17T17:27:20.838Z</time></trkpt><trkpt lat="53.24668181715494" lon="14.5521557503994"><ele>48.0</ele><time>2026-04-17T17:27:21.838Z</time></trkpt><trkpt lat="53.246592080921914" lon="14.552141457794223"><ele>48.0</ele><time>2026-04-17T17:27:22.838Z</time></trkpt><trkpt lat="53.24651480200468" lon="14.552146079441574"><ele>48.0</ele><time>2026-04-17T17:27:23.838Z</time></trkpt><trkpt lat="53.24640981052739" lon="14.552130989303256"><ele>48.0</ele><time>2026-04-17T17:27:25.838Z</time></trkpt><trkpt lat="53.24628939028618" lon="14.552099926071358"><ele>48.0</ele><time>2026-04-17T17:27:27.838Z</time></trkpt><trkpt lat="53.24621255982039" lon="14.552093755845389"><ele>48.0</ele><time>2026-04-17T17:27:28.838Z</time></trkpt><trkpt lat="53.246138924411774" lon="14.552075741856777"><ele>48.0</ele><time>2026-04-17T17:27:29.838Z</time></trkpt><trkpt lat="53.24606175788652" lon="14.552079802594609"><ele>48.0</ele><time>2026-04-17T17:27:30.838Z</time></trkpt><trkpt lat="53.245988972508904" lon="14.552065414982447"><ele>48.0</ele><time>2026-04-17T17:27:31.838Z</time></trkpt><trkpt lat="53.24591536247973" lon="14.552043585152042"><ele>48.0</ele><time>2026-04-17T17:27:32.838Z</time></trkpt><trkpt lat="53.2458321472399" lon="14.552038312484974"><ele>48.0</ele><time>2026-04-17T17:27:33.838Z</time></trkpt><trkpt lat="53.24575949641034" lon="14.552017259521719"><ele>48.0</ele><time>2026-04-17T17:27:34.838Z</time></trkpt><trkpt lat="53.2456765535472" lon="14.552007783509008"><ele>48.0</ele><time>2026-04-17T17:27:35.838Z</time></trkpt><trkpt lat="53.2455933959044" lon="14.551999661386043"><ele>48.0</ele><time>2026-04-17T17:27:36.838Z</time></trkpt><trkpt lat="53.24550193908128" lon="14.551985437626799"><ele>48.0</ele><time>2026-04-17T17:27:37.838Z</time></trkpt><trkpt lat="53.24541745224885" lon="14.551965109928911"><ele>48.0</ele><time>2026-04-17T17:27:38.838Z</time></trkpt><trkpt lat="53.245319953584705" lon="14.551950142880147"><ele>48.0</ele><time>2026-04-17T17:27:39.838Z</time></trkpt><trkpt lat="53.245210172138705" lon="14.551937806866752"><ele>48.0</ele><time>2026-04-17T17:27:40.838Z</time></trkpt><trkpt lat="53.24511001929743" lon="14.551909944792431"><ele>48.0</ele><time>2026-04-17T17:27:41.837Z</time></trkpt><trkpt lat="53.24501530843664" lon="14.551906676907974"><ele>48.0</ele><time>2026-04-17T17:27:42.836Z</time></trkpt><trkpt lat="53.24492113997292" lon="14.551892478754588"><ele>48.0</ele><time>2026-04-17T17:27:43.836Z</time></trkpt><trkpt lat="53.24482285182109" lon="14.551871996793501"><ele>47.5</ele><time>2026-04-17T17:27:44.837Z</time></trkpt><trkpt lat="53.244730135426515" lon="14.551861792459984"><ele>47.0</ele><time>2026-04-17T17:27:45.837Z</time></trkpt><trkpt lat="53.24464694394083" lon="14.551852075923883"><ele>46.5</ele><time>2026-04-17T17:27:46.837Z</time></trkpt><trkpt lat="53.24456096849069" lon="14.551831090907017"><ele>46.0</ele><time>2026-04-17T17:27:47.837Z</time></trkpt><trkpt lat="53.244469675818365" lon="14.551816224010754"><ele>45.5</ele><time>2026-04-17T17:27:48.836Z</time></trkpt><trkpt lat="53.24438348160231" lon="14.55180251194111"><ele>45.0</ele><time>2026-04-17T17:27:49.836Z</time></trkpt><trkpt lat="53.244312826408304" lon="14.551792927763575"><ele>45.0</ele><time>2026-04-17T17:27:50.837Z</time></trkpt><trkpt lat="53.24424993775038" lon="14.551782204011056"><ele>45.0</ele><time>2026-04-17T17:27:51.836Z</time></trkpt><trkpt lat="53.2441661873044" lon="14.551771591671791"><ele>45.0</ele><time>2026-04-17T17:27:53.837Z</time></trkpt><trkpt lat="53.24408995046973" lon="14.551756929889851"><ele>45.0</ele><time>2026-04-17T17:27:55.837Z</time></trkpt><trkpt lat="53.2439814178507" lon="14.551747169638155"><ele>45.0</ele><time>2026-04-17T17:27:57.837Z</time></trkpt><trkpt lat="53.243859214498" lon="14.551742751716064"><ele>44.833333333333336</ele><time>2026-04-17T17:27:59.837Z</time></trkpt><trkpt lat="53.2437903106461" lon="14.551721829856982"><ele>44.666666666666664</ele><time>2026-04-17T17:28:00.837Z</time></trkpt><trkpt lat="53.24371766093152" lon="14.551694761140691"><ele>44.5</ele><time>2026-04-17T17:28:01.837Z</time></trkpt><trkpt lat="53.243629504663794" lon="14.551674793951852"><ele>44.33333333333333</ele><time>2026-04-17T17:28:02.837Z</time></trkpt><trkpt lat="53.24354292265041" lon="14.551653917272057"><ele>44.166666666666664</ele><time>2026-04-17T17:28:03.837Z</time></trkpt><trkpt lat="53.24344572050631" lon="14.55164874263526"><ele>44.0</ele><time>2026-04-17T17:28:04.837Z</time></trkpt><trkpt lat="53.24335430089849" lon="14.55164659818854"><ele>44.0</ele><time>2026-04-17T17:28:05.837Z</time></trkpt><trkpt lat="53.243261263147" lon="14.551638417919275"><ele>44.0</ele><time>2026-04-17T17:28:06.837Z</time></trkpt><trkpt lat="53.24316718975995" lon="14.551625652560011"><ele>44.0</ele><time>2026-04-17T17:28:07.837Z</time></trkpt><trkpt lat="53.2430776919133" lon="14.551625051167862"><ele>44.0</ele><time>2026-04-17T17:28:08.837Z</time></trkpt><trkpt lat="53.243005518858794" lon="14.551616827059867"><ele>44.0</ele><time>2026-04-17T17:28:09.837Z</time></trkpt><trkpt lat="53.242891405511294" lon="14.551592428293972"><ele>44.142857142857146</ele><time>2026-04-17T17:28:11.837Z</time></trkpt><trkpt lat="53.24282254591186" lon="14.551580641805607"><ele>44.285714285714285</ele><time>2026-04-17T17:28:12.837Z</time></trkpt><trkpt lat="53.2427532555915" lon="14.551562046910151"><ele>44.42857142857143</ele><time>2026-04-17T17:28:13.837Z</time></trkpt><trkpt lat="53.24267965805422" lon="14.551550763724006"><ele>44.57142857142857</ele><time>2026-04-17T17:28:14.837Z</time></trkpt><trkpt lat="53.24261047647549" lon="14.551535560821975"><ele>44.714285714285715</ele><time>2026-04-17T17:28:15.837Z</time></trkpt><trkpt lat="53.242544088768454" lon="14.55152701391903"><ele>44.857142857142854</ele><time>2026-04-17T17:28:16.837Z</time></trkpt><trkpt lat="53.24247207626906" lon="14.551520163513967"><ele>45.0</ele><time>2026-04-17T17:28:17.837Z</time></trkpt><trkpt lat="53.24240851918179" lon="14.551508357334534"><ele>45.0</ele><time>2026-04-17T17:28:18.837Z</time></trkpt><trkpt lat="53.24229090790779" lon="14.551504092159165"><ele>45.0</ele><time>2026-04-17T17:28:20.837Z</time></trkpt><trkpt lat="53.24222135121595" lon="14.551498213003304"><ele>45.0</ele><time>2026-04-17T17:28:21.837Z</time></trkpt><trkpt lat="53.242085809049" lon="14.551482674257905"><ele>45.0</ele><time>2026-04-17T17:28:23.837Z</time></trkpt><trkpt lat="53.241961829577434" lon="14.55145377657144"><ele>45.0</ele><time>2026-04-17T17:28:25.837Z</time></trkpt><trkpt lat="53.241821895542536" lon="14.551439375999124"><ele>45.0</ele><time>2026-04-17T17:28:27.837Z</time></trkpt><trkpt lat="53.2417383056358" lon="14.551421310472463"><ele>45.0</ele><time>2026-04-17T17:28:28.837Z</time></trkpt><trkpt lat="53.24166569161786" lon="14.551423234869128"><ele>45.0</ele><time>2026-04-17T17:28:29.837Z</time></trkpt><trkpt lat="53.24160116505503" lon="14.551427078959536"><ele>45.0</ele><time>2026-04-17T17:28:30.837Z</time></trkpt><trkpt lat="53.24147318694269" lon="14.551385553439209"><ele>45.0</ele><time>2026-04-17T17:28:32.837Z</time></trkpt><trkpt lat="53.24140789915846" lon="14.551366812035662"><ele>45.0</ele><time>2026-04-17T17:28:33.837Z</time></trkpt><trkpt lat="53.241333470207806" lon="14.551335184643381"><ele>45.166666666666664</ele><time>2026-04-17T17:28:34.837Z</time></trkpt><trkpt lat="53.241254636031854" lon="14.551307147832047"><ele>45.333333333333336</ele><time>2026-04-17T17:28:35.837Z</time></trkpt><trkpt lat="53.24118705268431" lon="14.551285506797758"><ele>45.5</ele><time>2026-04-17T17:28:36.837Z</time></trkpt><trkpt lat="53.24111747247716" lon="14.55127089708798"><ele>45.66666666666667</ele><time>2026-04-17T17:28:37.837Z</time></trkpt><trkpt lat="53.241041847071" lon="14.551258273428623"><ele>45.833333333333336</ele><time>2026-04-17T17:28:38.837Z</time></trkpt><trkpt lat="53.24095753947332" lon="14.551248963648236"><ele>46.0</ele><time>2026-04-17T17:28:39.837Z</time></trkpt><trkpt lat="53.24087092452188" lon="14.551223779195423"><ele>46.0</ele><time>2026-04-17T17:28:40.837Z</time></trkpt><trkpt lat="53.24077849347406" lon="14.551216494645528"><ele>46.0</ele><time>2026-04-17T17:28:41.837Z</time></trkpt><trkpt lat="53.24069354945347" lon="14.551219102319815"><ele>46.0</ele><time>2026-04-17T17:28:42.837Z</time></trkpt><trkpt lat="53.24061515158409" lon="14.551209628907799"><ele>46.0</ele><time>2026-04-17T17:28:43.837Z</time></trkpt><trkpt lat="53.24054566227979" lon="14.551189822003494"><ele>46.0</ele><time>2026-04-17T17:28:44.837Z</time></trkpt><trkpt lat="53.24047595927313" lon="14.55117712665726"><ele>46.0</ele><time>2026-04-17T17:28:45.837Z</time></trkpt><trkpt lat="53.24040926107444" lon="14.551160643449384"><ele>46.0</ele><time>2026-04-17T17:28:46.836Z</time></trkpt><trkpt lat="53.240343768608795" lon="14.551149547879916"><ele>46.0</ele><time>2026-04-17T17:28:47.836Z</time></trkpt><trkpt lat="53.24027769614953" lon="14.551146419166793"><ele>46.0</ele><time>2026-04-17T17:28:48.836Z</time></trkpt><trkpt lat="53.24020132665705" lon="14.551130241933619"><ele>46.0</ele><time>2026-04-17T17:28:49.836Z</time></trkpt><trkpt lat="53.240073562179035" lon="14.5511309487237"><ele>46.0</ele><time>2026-04-17T17:28:51.836Z</time></trkpt><trkpt lat="53.23995409025503" lon="14.551104195428636"><ele>46.0</ele><time>2026-04-17T17:28:53.836Z</time></trkpt><trkpt lat="53.23986476425987" lon="14.55106504052828"><ele>46.0</ele><time>2026-04-17T17:28:55.836Z</time></trkpt><trkpt lat="53.23978916065221" lon="14.551050300273397"><ele>46.0</ele><time>2026-04-17T17:28:58.836Z</time></trkpt><trkpt lat="53.23971956649229" lon="14.551106859116468"><ele>46.0</ele><time>2026-04-17T17:29:01.836Z</time></trkpt><trkpt lat="53.23970247326727" lon="14.551274246139561"><ele>46.0</ele><time>2026-04-17T17:29:20.836Z</time></trkpt><trkpt lat="53.23970195030728" lon="14.551398429506683"><ele>46.0</ele><time>2026-04-17T17:29:22.836Z</time></trkpt><trkpt lat="53.23970646397183" lon="14.551518811237933"><ele>45.66666666666667</ele><time>2026-04-17T17:29:24.836Z</time></trkpt><trkpt lat="53.239702132206126" lon="14.551632885528644"><ele>45.333333333333336</ele><time>2026-04-17T17:29:26.836Z</time></trkpt><trkpt lat="53.23971271320829" lon="14.55176775763607"><ele>45.0</ele><time>2026-04-17T17:29:29.836Z</time></trkpt><trkpt lat="53.23972304161921" lon="14.551899995541719"><ele>44.666666666666664</ele><time>2026-04-17T17:29:31.836Z</time></trkpt><trkpt lat="53.23974719578921" lon="14.552044423722815"><ele>44.33333333333333</ele><time>2026-04-17T17:29:33.836Z</time></trkpt><trkpt lat="53.23976614594152" lon="14.552168600430306"><ele>44.0</ele><time>2026-04-17T17:29:35.836Z</time></trkpt><trkpt lat="53.239776031309084" lon="14.552285869733943"><ele>43.666666666666664</ele><time>2026-04-17T17:29:37.836Z</time></trkpt><trkpt lat="53.239784992246555" lon="14.552402092856658"><ele>43.33333333333333</ele><time>2026-04-17T17:29:39.836Z</time></trkpt><trkpt lat="53.23979934943952" lon="14.552511168621976"><ele>43.0</ele><time>2026-04-17T17:29:41.836Z</time></trkpt><trkpt lat="53.23980552739405" lon="14.552632007847498"><ele>42.666666666666664</ele><time>2026-04-17T17:29:43.836Z</time></trkpt><trkpt lat="53.23980940615031" lon="14.552758922424685"><ele>42.333333333333336</ele><time>2026-04-17T17:29:45.836Z</time></trkpt><trkpt lat="53.23980895396221" lon="14.552886987154146"><ele>42.0</ele><time>2026-04-17T17:29:47.834Z</time></trkpt><trkpt lat="53.23981704532576" lon="14.553046694131329"><ele>42.0</ele><time>2026-04-17T17:29:49.834Z</time></trkpt><trkpt lat="53.23983172880179" lon="14.553200685590602"><ele>42.0</ele><time>2026-04-17T17:29:51.834Z</time></trkpt><trkpt lat="53.23983359319432" lon="14.553371394172249"><ele>42.0</ele><time>2026-04-17T17:29:53.834Z</time></trkpt><trkpt lat="53.239848103642586" lon="14.553543160595662"><ele>42.0</ele><time>2026-04-17T17:29:55.833Z</time></trkpt><trkpt lat="53.23985506424607" lon="14.553703361793938"><ele>42.0</ele><time>2026-04-17T17:29:57.834Z</time></trkpt><trkpt lat="53.23987922722887" lon="14.55392754813226"><ele>42.166666666666664</ele><time>2026-04-17T17:29:59.834Z</time></trkpt><trkpt lat="53.23988506260682" lon="14.554084507958862"><ele>42.333333333333336</ele><time>2026-04-17T17:30:00.833Z</time></trkpt><trkpt lat="53.23989679943092" lon="14.55422852443488"><ele>42.5</ele><time>2026-04-17T17:30:01.833Z</time></trkpt><trkpt lat="53.23990435973486" lon="14.5543531118707"><ele>42.66666666666667</ele><time>2026-04-17T17:30:02.833Z</time></trkpt><trkpt lat="53.23991268361081" lon="14.55446969687725"><ele>42.833333333333336</ele><time>2026-04-17T17:30:03.833Z</time></trkpt><trkpt lat="53.239917611764874" lon="14.554586621888735"><ele>43.0</ele><time>2026-04-17T17:30:04.833Z</time></trkpt><trkpt lat="53.23992117429784" lon="14.554696574424558"><ele>43.0</ele><time>2026-04-17T17:30:05.833Z</time></trkpt><trkpt lat="53.239926937338666" lon="14.554809450719619"><ele>43.0</ele><time>2026-04-17T17:30:06.833Z</time></trkpt><trkpt lat="53.23993975018403" lon="14.554925719310415"><ele>43.0</ele><time>2026-04-17T17:30:07.833Z</time></trkpt><trkpt lat="53.23995246343047" lon="14.555030519950876"><ele>43.0</ele><time>2026-04-17T17:30:08.833Z</time></trkpt><trkpt lat="53.239954240941906" lon="14.555145351714927"><ele>43.0</ele><time>2026-04-17T17:30:09.833Z</time></trkpt><trkpt lat="53.239956790144426" lon="14.555349683174844"><ele>43.0</ele><time>2026-04-17T17:30:11.833Z</time></trkpt><trkpt lat="53.23996334449922" lon="14.555457811017137"><ele>43.0</ele><time>2026-04-17T17:30:12.833Z</time></trkpt><trkpt lat="53.239973466301386" lon="14.555641189867051"><ele>43.0</ele><time>2026-04-17T17:30:14.833Z</time></trkpt><trkpt lat="53.239979457618844" lon="14.55581369351859"><ele>43.0</ele><time>2026-04-17T17:30:16.833Z</time></trkpt><trkpt lat="53.23998480695503" lon="14.555959129182517"><ele>43.0</ele><time>2026-04-17T17:30:18.833Z</time></trkpt><trkpt lat="53.239973829909324" lon="14.556080837488945"><ele>43.0</ele><time>2026-04-17T17:30:20.833Z</time></trkpt><trkpt lat="53.23992827306198" lon="14.556163465235175"><ele>43.0</ele><time>2026-04-17T17:30:23.833Z</time></trkpt><trkpt lat="53.23984764897323" lon="14.556183770636453"><ele>42.5</ele><time>2026-04-17T17:30:25.833Z</time></trkpt><trkpt lat="53.239740955889296" lon="14.556176108556347"><ele>42.0</ele><time>2026-04-17T17:30:27.833Z</time></trkpt><trkpt lat="53.23967417194903" lon="14.556173553053275"><ele>41.5</ele><time>2026-04-17T17:30:28.833Z</time></trkpt><trkpt lat="53.23955263199568" lon="14.556200431586388"><ele>41.0</ele><time>2026-04-17T17:30:30.833Z</time></trkpt><trkpt lat="53.23948806891027" lon="14.556231874328425"><ele>40.5</ele><time>2026-04-17T17:30:31.833Z</time></trkpt><trkpt lat="53.23941208663754" lon="14.55624724388561"><ele>40.0</ele><time>2026-04-17T17:30:32.833Z</time></trkpt><trkpt lat="53.23933724978484" lon="14.55627579141208"><ele>39.833333333333336</ele><time>2026-04-17T17:30:33.833Z</time></trkpt><trkpt lat="53.239250166341634" lon="14.556290944881862"><ele>39.66666666666667</ele><time>2026-04-17T17:30:34.833Z</time></trkpt><trkpt lat="53.23917167632081" lon="14.556313526572797"><ele>39.5</ele><time>2026-04-17T17:30:35.833Z</time></trkpt><trkpt lat="53.23909135604534" lon="14.556348257178179"><ele>39.333333333333336</ele><time>2026-04-17T17:30:36.833Z</time></trkpt><trkpt lat="53.239000053957966" lon="14.556385350778875"><ele>39.166666666666664</ele><time>2026-04-17T17:30:37.833Z</time></trkpt><trkpt lat="53.238921025966214" lon="14.556410939480767"><ele>39.0</ele><time>2026-04-17T17:30:38.833Z</time></trkpt><trkpt lat="53.23879192340836" lon="14.556434287299352"><ele>38.4</ele><time>2026-04-17T17:30:40.833Z</time></trkpt><trkpt lat="53.23866753505508" lon="14.556479271746579"><ele>37.8</ele><time>2026-04-17T17:30:42.833Z</time></trkpt><trkpt lat="53.23860107786318" lon="14.55649301590073"><ele>37.2</ele><time>2026-04-17T17:30:43.833Z</time></trkpt><trkpt lat="53.23853405320163" lon="14.556514203639153"><ele>36.6</ele><time>2026-04-17T17:30:44.833Z</time></trkpt><trkpt lat="53.23841906896512" lon="14.556541638406365"><ele>36.0</ele><time>2026-04-17T17:30:46.833Z</time></trkpt><trkpt lat="53.23830888550636" lon="14.556586610204256"><ele>36.0</ele><time>2026-04-17T17:30:48.833Z</time></trkpt><trkpt lat="53.23820775495894" lon="14.556624290993796"><ele>36.0</ele><time>2026-04-17T17:30:50.833Z</time></trkpt><trkpt lat="53.238140067637154" lon="14.556635309242402"><ele>36.0</ele><time>2026-04-17T17:30:51.833Z</time></trkpt><trkpt lat="53.23807919286235" lon="14.55667029563059"><ele>36.0</ele><time>2026-04-17T17:30:52.833Z</time></trkpt><trkpt lat="53.238015673106496" lon="14.55670387580291"><ele>36.0</ele><time>2026-04-17T17:30:53.833Z</time></trkpt><trkpt lat="53.23794145968799" lon="14.55673973489641"><ele>36.0</ele><time>2026-04-17T17:30:54.833Z</time></trkpt><trkpt lat="53.23786532448618" lon="14.556773619677648"><ele>35.833333333333336</ele><time>2026-04-17T17:30:55.833Z</time></trkpt><trkpt lat="53.237796420956876" lon="14.556807012131795"><ele>35.666666666666664</ele><time>2026-04-17T17:30:56.833Z</time></trkpt><trkpt lat="53.2377337904472" lon="14.556846937793141"><ele>35.5</ele><time>2026-04-17T17:30:57.833Z</time></trkpt><trkpt lat="53.23761902581898" lon="14.556878861721538"><ele>35.33333333333333</ele><time>2026-04-17T17:30:59.833Z</time></trkpt><trkpt lat="53.23755760758357" lon="14.556912149439755"><ele>35.166666666666664</ele><time>2026-04-17T17:31:00.833Z</time></trkpt><trkpt lat="53.23750171727093" lon="14.556961175553388"><ele>35.0</ele><time>2026-04-17T17:31:01.833Z</time></trkpt><trkpt lat="53.23738680088191" lon="14.557052285221957"><ele>35.0</ele><time>2026-04-17T17:31:03.833Z</time></trkpt><trkpt lat="53.237321935066745" lon="14.557101127931713"><ele>35.0</ele><time>2026-04-17T17:31:04.833Z</time></trkpt><trkpt lat="53.23726246342424" lon="14.557141309748145"><ele>35.0</ele><time>2026-04-17T17:31:05.833Z</time></trkpt><trkpt lat="53.23716757226709" lon="14.55717086999841"><ele>35.0</ele><time>2026-04-17T17:31:07.833Z</time></trkpt><trkpt lat="53.23707555748407" lon="14.557226248376944"><ele>35.0</ele><time>2026-04-17T17:31:09.833Z</time></trkpt><trkpt lat="53.236956294198215" lon="14.557289388323543"><ele>34.8</ele><time>2026-04-17T17:31:11.833Z</time></trkpt><trkpt lat="53.23687717692035" lon="14.557329375629875"><ele>34.6</ele><time>2026-04-17T17:31:12.833Z</time></trkpt><trkpt lat="53.23679295061511" lon="14.557350258291283"><ele>34.4</ele><time>2026-04-17T17:31:13.833Z</time></trkpt><trkpt lat="53.236703950218356" lon="14.557381248996142"><ele>34.2</ele><time>2026-04-17T17:31:14.833Z</time></trkpt><trkpt lat="53.23661127230461" lon="14.557408052527736"><ele>34.0</ele><time>2026-04-17T17:31:15.833Z</time></trkpt><trkpt lat="53.23651305914346" lon="14.557418041299506"><ele>33.25</ele><time>2026-04-17T17:31:16.833Z</time></trkpt><trkpt lat="53.23639378550597" lon="14.557449119523696"><ele>32.5</ele><time>2026-04-17T17:31:17.833Z</time></trkpt><trkpt lat="53.23626012782084" lon="14.557464030554224"><ele>31.75</ele><time>2026-04-17T17:31:18.833Z</time></trkpt><trkpt lat="53.23612372811653" lon="14.55747275377996"><ele>31.0</ele><time>2026-04-17T17:31:19.833Z</time></trkpt><trkpt lat="53.23598183841281" lon="14.557484654976639"><ele>31.0</ele><time>2026-04-17T17:31:20.833Z</time></trkpt><trkpt lat="53.23583547131153" lon="14.557509989459154"><ele>31.0</ele><time>2026-04-17T17:31:21.833Z</time></trkpt><trkpt lat="53.23568234519395" lon="14.55753331079771"><ele>31.0</ele><time>2026-04-17T17:31:22.833Z</time></trkpt><trkpt lat="53.23552886685989" lon="14.557556111065583"><ele>31.0</ele><time>2026-04-17T17:31:23.833Z</time></trkpt><trkpt lat="53.23537204176275" lon="14.55758215297894"><ele>31.0</ele><time>2026-04-17T17:31:24.833Z</time></trkpt><trkpt lat="53.23521975903763" lon="14.557615980136497"><ele>31.0</ele><time>2026-04-17T17:31:25.833Z</time></trkpt><trkpt lat="53.23508535641752" lon="14.557637382502772"><ele>31.0</ele><time>2026-04-17T17:31:26.833Z</time></trkpt><trkpt lat="53.23495550037643" lon="14.55766557927445"><ele>31.0</ele><time>2026-04-17T17:31:27.833Z</time></trkpt><trkpt lat="53.23481694444981" lon="14.557698094957704"><ele>31.0</ele><time>2026-04-17T17:31:28.833Z</time></trkpt><trkpt lat="53.23467954882839" lon="14.557708643220652"><ele>31.0</ele><time>2026-04-17T17:31:29.833Z</time></trkpt><trkpt lat="53.23454807809952" lon="14.557715926249934"><ele>31.0</ele><time>2026-04-17T17:31:30.833Z</time></trkpt><trkpt lat="53.23442701469398" lon="14.557735983689033"><ele>30.200000000000003</ele><time>2026-04-17T17:31:31.833Z</time></trkpt><trkpt lat="53.23431959113557" lon="14.557750197150906"><ele>29.400000000000002</ele><time>2026-04-17T17:31:32.833Z</time></trkpt><trkpt lat="53.23423760158663" lon="14.557748165247919"><ele>28.6</ele><time>2026-04-17T17:31:33.832Z</time></trkpt><trkpt lat="53.23414716732021" lon="14.557704895249612"><ele>27.8</ele><time>2026-04-17T17:31:35.832Z</time></trkpt><trkpt lat="53.23406290177077" lon="14.557713437801405"><ele>27.0</ele><time>2026-04-17T17:31:38.832Z</time></trkpt><trkpt lat="53.23395286241873" lon="14.557755570526401"><ele>27.0</ele><time>2026-04-17T17:31:40.832Z</time></trkpt><trkpt lat="53.233887774255" lon="14.557781027137509"><ele>27.0</ele><time>2026-04-17T17:31:41.832Z</time></trkpt><trkpt lat="53.233822567373075" lon="14.5578034665213"><ele>27.0</ele><time>2026-04-17T17:31:42.832Z</time></trkpt><trkpt lat="53.233748524248924" lon="14.557825699442152"><ele>27.0</ele><time>2026-04-17T17:31:43.832Z</time></trkpt><trkpt lat="53.23366832355742" lon="14.557855366478512"><ele>27.0</ele><time>2026-04-17T17:31:44.832Z</time></trkpt><trkpt lat="53.23358030568196" lon="14.557876754308111"><ele>27.0</ele><time>2026-04-17T17:31:45.832Z</time></trkpt><trkpt lat="53.233488714507644" lon="14.557903964282474"><ele>27.0</ele><time>2026-04-17T17:31:46.832Z</time></trkpt><trkpt lat="53.23339426467108" lon="14.557938628385413"><ele>27.000000000000004</ele><time>2026-04-17T17:31:47.832Z</time></trkpt><trkpt lat="53.23328752098878" lon="14.557971597690749"><ele>27.000000000000004</ele><time>2026-04-17T17:31:48.832Z</time></trkpt><trkpt lat="53.23317789478453" lon="14.55800793943901"><ele>27.0</ele><time>2026-04-17T17:31:49.832Z</time></trkpt><trkpt lat="53.233074208601344" lon="14.558041845765347"><ele>27.0</ele><time>2026-04-17T17:31:50.832Z</time></trkpt><trkpt lat="53.232973343865694" lon="14.558075358064032"><ele>27.200000000000003</ele><time>2026-04-17T17:31:51.832Z</time></trkpt><trkpt lat="53.23287147953963" lon="14.55811110969157"><ele>27.400000000000002</ele><time>2026-04-17T17:31:52.832Z</time></trkpt><trkpt lat="53.23277490638204" lon="14.558128847453737"><ele>27.599999999999998</ele><time>2026-04-17T17:31:53.831Z</time></trkpt><trkpt lat="53.23267224475248" lon="14.558131508042587"><ele>27.799999999999997</ele><time>2026-04-17T17:31:54.831Z</time></trkpt><trkpt lat="53.23257426022458" lon="14.558128089866926"><ele>28.0</ele><time>2026-04-17T17:31:55.831Z</time></trkpt><trkpt lat="53.23248394171376" lon="14.558114306935812"><ele>28.000000000000004</ele><time>2026-04-17T17:31:56.831Z</time></trkpt><trkpt lat="53.23238963361174" lon="14.558093226064004"><ele>28.0</ele><time>2026-04-17T17:31:57.832Z</time></trkpt><trkpt lat="53.23230821655637" lon="14.558071995296416"><ele>28.0</ele><time>2026-04-17T17:31:58.832Z</time></trkpt><trkpt lat="53.23223403329763" lon="14.558053318472576"><ele>28.0</ele><time>2026-04-17T17:31:59.831Z</time></trkpt><trkpt lat="53.23216905525906" lon="14.558035066472293"><ele>28.000000000000004</ele><time>2026-04-17T17:32:00.831Z</time></trkpt><trkpt lat="53.23208914956615" lon="14.557984693510683"><ele>28.0</ele><time>2026-04-17T17:32:01.831Z</time></trkpt><trkpt lat="53.231988493889666" lon="14.55796651688349"><ele>28.2</ele><time>2026-04-17T17:32:02.831Z</time></trkpt><trkpt lat="53.231885667876995" lon="14.557939085705383"><ele>28.4</ele><time>2026-04-17T17:32:03.831Z</time></trkpt><trkpt lat="53.231794239165275" lon="14.5579181264273"><ele>28.599999999999998</ele><time>2026-04-17T17:32:04.831Z</time></trkpt><trkpt lat="53.23171031740096" lon="14.557887951698543"><ele>28.799999999999997</ele><time>2026-04-17T17:32:05.831Z</time></trkpt><trkpt lat="53.23164785743668" lon="14.557865895081816"><ele>29.0</ele><time>2026-04-17T17:32:06.83Z</time></trkpt><trkpt lat="53.23153675834665" lon="14.557832170484748"><ele>28.6</ele><time>2026-04-17T17:32:08.83Z</time></trkpt><trkpt lat="53.23141814636708" lon="14.5577817455633"><ele>28.2</ele><time>2026-04-17T17:32:10.83Z</time></trkpt><trkpt lat="53.23129352595162" lon="14.557739475543316"><ele>27.800000000000004</ele><time>2026-04-17T17:32:12.83Z</time></trkpt><trkpt lat="53.231219349626144" lon="14.557728001421685"><ele>27.400000000000002</ele><time>2026-04-17T17:32:13.83Z</time></trkpt><trkpt lat="53.231149176079654" lon="14.557711480505587"><ele>27.0</ele><time>2026-04-17T17:32:14.83Z</time></trkpt><trkpt lat="53.23108293687188" lon="14.55769612667715"><ele>27.0</ele><time>2026-04-17T17:32:15.83Z</time></trkpt><trkpt lat="53.23101523131615" lon="14.557678475253164"><ele>27.0</ele><time>2026-04-17T17:32:16.83Z</time></trkpt><trkpt lat="53.23094977934243" lon="14.557661429903177"><ele>27.0</ele><time>2026-04-17T17:32:17.83Z</time></trkpt><trkpt lat="53.230884097905104" lon="14.557648095011734"><ele>27.0</ele><time>2026-04-17T17:32:18.83Z</time></trkpt><trkpt lat="53.23076964404447" lon="14.55760895878066"><ele>27.0</ele><time>2026-04-17T17:32:20.83Z</time></trkpt><trkpt lat="53.230652166775144" lon="14.557571419095467"><ele>27.0</ele><time>2026-04-17T17:32:22.83Z</time></trkpt><trkpt lat="53.23054044941298" lon="14.557533834561701"><ele>27.0</ele><time>2026-04-17T17:32:24.83Z</time></trkpt><trkpt lat="53.23044146440015" lon="14.557505404978432"><ele>27.000000000000004</ele><time>2026-04-17T17:32:26.83Z</time></trkpt><trkpt lat="53.230340620652335" lon="14.557484708509087"><ele>27.000000000000004</ele><time>2026-04-17T17:32:28.83Z</time></trkpt><trkpt lat="53.23021844710622" lon="14.557432431741915"><ele>27.0</ele><time>2026-04-17T17:32:30.83Z</time></trkpt><trkpt lat="53.23015275082859" lon="14.557430998461692"><ele>27.0</ele><time>2026-04-17T17:32:31.83Z</time></trkpt><trkpt lat="53.230038331703526" lon="14.557390881581371"><ele>27.0</ele><time>2026-04-17T17:32:33.83Z</time></trkpt><trkpt lat="53.229919462040904" lon="14.557339335082526"><ele>27.0</ele><time>2026-04-17T17:32:35.83Z</time></trkpt><trkpt lat="53.22979828379147" lon="14.557314369923121"><ele>27.0</ele><time>2026-04-17T17:32:37.83Z</time></trkpt><trkpt lat="53.22967277085618" lon="14.557273064198053"><ele>27.0</ele><time>2026-04-17T17:32:39.83Z</time></trkpt><trkpt lat="53.22955523361885" lon="14.557226535779078"><ele>27.400000000000002</ele><time>2026-04-17T17:32:41.83Z</time></trkpt><trkpt lat="53.229438755489134" lon="14.557173214792519"><ele>27.800000000000004</ele><time>2026-04-17T17:32:43.83Z</time></trkpt><trkpt lat="53.22934710600747" lon="14.557171552403982"><ele>28.2</ele><time>2026-04-17T17:32:45.83Z</time></trkpt><trkpt lat="53.22923851446529" lon="14.55715394221201"><ele>28.6</ele><time>2026-04-17T17:32:47.83Z</time></trkpt><trkpt lat="53.22911608694197" lon="14.557108489228971"><ele>29.0</ele><time>2026-04-17T17:32:49.83Z</time></trkpt><trkpt lat="53.22904943198144" lon="14.557095896207503"><ele>28.999999999999996</ele><time>2026-04-17T17:32:50.83Z</time></trkpt><trkpt lat="53.22897947701214" lon="14.557083089705559"><ele>29.0</ele><time>2026-04-17T17:32:51.83Z</time></trkpt><trkpt lat="53.22890816822281" lon="14.55706772803806"><ele>29.0</ele><time>2026-04-17T17:32:52.83Z</time></trkpt><trkpt lat="53.22882704125707" lon="14.5570458671867"><ele>29.0</ele><time>2026-04-17T17:32:53.83Z</time></trkpt><trkpt lat="53.228738374912886" lon="14.557003114536723"><ele>28.999999999999996</ele><time>2026-04-17T17:32:54.83Z</time></trkpt><trkpt lat="53.22864529554746" lon="14.55698589129777"><ele>29.0</ele><time>2026-04-17T17:32:55.83Z</time></trkpt><trkpt lat="53.228555692669254" lon="14.556952402180137"><ele>29.666666666666664</ele><time>2026-04-17T17:32:56.83Z</time></trkpt><trkpt lat="53.228454646692676" lon="14.556920862097178"><ele>30.333333333333332</ele><time>2026-04-17T17:32:57.83Z</time></trkpt><trkpt lat="53.22837333805946" lon="14.556903220758512"><ele>31.0</ele><time>2026-04-17T17:32:58.83Z</time></trkpt><trkpt lat="53.22829954846431" lon="14.55688017404246"><ele>31.666666666666664</ele><time>2026-04-17T17:32:59.83Z</time></trkpt><trkpt lat="53.22823493310143" lon="14.556849061840088"><ele>32.333333333333336</ele><time>2026-04-17T17:33:00.83Z</time></trkpt><trkpt lat="53.22817345268814" lon="14.556820763316136"><ele>33.0</ele><time>2026-04-17T17:33:01.83Z</time></trkpt><trkpt lat="53.2281062480711" lon="14.556793977930365"><ele>33.14285714285714</ele><time>2026-04-17T17:33:02.83Z</time></trkpt><trkpt lat="53.22804057125413" lon="14.556753711666127"><ele>33.285714285714285</ele><time>2026-04-17T17:33:03.83Z</time></trkpt><trkpt lat="53.227975349547336" lon="14.556705036820958"><ele>33.42857142857143</ele><time>2026-04-17T17:33:04.83Z</time></trkpt><trkpt lat="53.227912649955805" lon="14.556648376530768"><ele>33.57142857142857</ele><time>2026-04-17T17:33:05.83Z</time></trkpt><trkpt lat="53.227845974653235" lon="14.556590771376966"><ele>33.714285714285715</ele><time>2026-04-17T17:33:06.83Z</time></trkpt><trkpt lat="53.22776684678907" lon="14.556545003501553"><ele>33.857142857142854</ele><time>2026-04-17T17:33:07.83Z</time></trkpt><trkpt lat="53.22769946458632" lon="14.55650637753127"><ele>34.0</ele><time>2026-04-17T17:33:08.83Z</time></trkpt><trkpt lat="53.227639373795334" lon="14.556453170007686"><ele>34.0</ele><time>2026-04-17T17:33:09.83Z</time></trkpt><trkpt lat="53.22756577784588" lon="14.55638183628217"><ele>34.0</ele><time>2026-04-17T17:33:11.83Z</time></trkpt><trkpt lat="53.22748427609007" lon="14.5563203294158"><ele>34.0</ele><time>2026-04-17T17:33:45.829Z</time></trkpt><trkpt lat="53.22742040769713" lon="14.556485104025745"><ele>34.0</ele><time>2026-04-17T17:33:46.829Z</time></trkpt><trkpt lat="53.22738013525732" lon="14.556614753614172"><ele>34.0</ele><time>2026-04-17T17:33:47.829Z</time></trkpt><trkpt lat="53.22733239436125" lon="14.556736719561215"><ele>34.0</ele><time>2026-04-17T17:33:48.829Z</time></trkpt><trkpt lat="53.22727381835184" lon="14.556887794224014"><ele>34.0</ele><time>2026-04-17T17:33:49.829Z</time></trkpt><trkpt lat="53.22721242561804" lon="14.557057200661575"><ele>34.0</ele><time>2026-04-17T17:33:50.829Z</time></trkpt><trkpt lat="53.22715093441991" lon="14.557230110034055"><ele>34.0</ele><time>2026-04-17T17:33:51.829Z</time></trkpt><trkpt lat="53.22708224459206" lon="14.557414000705778"><ele>34.75</ele><time>2026-04-17T17:33:52.829Z</time></trkpt><trkpt lat="53.22700932094685" lon="14.55760973832861"><ele>35.5</ele><time>2026-04-17T17:33:53.829Z</time></trkpt><trkpt lat="53.22691853127554" lon="14.55781656364973"><ele>36.25</ele><time>2026-04-17T17:33:54.829Z</time></trkpt><trkpt lat="53.22683281529078" lon="14.558029570724209"><ele>37.0</ele><time>2026-04-17T17:33:55.829Z</time></trkpt><trkpt lat="53.22673796023727" lon="14.558246146407756"><ele>37.66666666666667</ele><time>2026-04-17T17:33:56.829Z</time></trkpt><trkpt lat="53.22663920024286" lon="14.558496927176373"><ele>38.333333333333336</ele><time>2026-04-17T17:33:57.829Z</time></trkpt><trkpt lat="53.22653325237109" lon="14.558764711894364"><ele>39.0</ele><time>2026-04-17T17:33:58.829Z</time></trkpt><trkpt lat="53.22643371698561" lon="14.559036752031378"><ele>39.0</ele><time>2026-04-17T17:33:59.828Z</time></trkpt><trkpt lat="53.226316541759864" lon="14.559286026602622"><ele>39.0</ele><time>2026-04-17T17:34:00.828Z</time></trkpt><trkpt lat="53.22619587237154" lon="14.559540229505131"><ele>39.0</ele><time>2026-04-17T17:34:01.828Z</time></trkpt><trkpt lat="53.22606603597332" lon="14.559794532853056"><ele>39.333333333333336</ele><time>2026-04-17T17:34:02.828Z</time></trkpt><trkpt lat="53.22592901674058" lon="14.56003484764801"><ele>39.66666666666667</ele><time>2026-04-17T17:34:03.828Z</time></trkpt><trkpt lat="53.22579046258575" lon="14.560245030421811"><ele>40.0</ele><time>2026-04-17T17:34:04.828Z</time></trkpt><trkpt lat="53.225666850475996" lon="14.560470018786539"><ele>38.333333333333336</ele><time>2026-04-17T17:34:05.828Z</time></trkpt><trkpt lat="53.22555241553395" lon="14.560734748182773"><ele>36.666666666666664</ele><time>2026-04-17T17:34:06.828Z</time></trkpt><trkpt lat="53.225428511438736" lon="14.561018351147725"><ele>35.0</ele><time>2026-04-17T17:34:07.828Z</time></trkpt><trkpt lat="53.22534686222115" lon="14.561348221950597"><ele>35.0</ele><time>2026-04-17T17:34:08.828Z</time></trkpt><trkpt lat="53.225258678601925" lon="14.561677992908793"><ele>35.0</ele><time>2026-04-17T17:34:09.828Z</time></trkpt><trkpt lat="53.22518480749111" lon="14.562016738935245"><ele>35.0</ele><time>2026-04-17T17:34:10.828Z</time></trkpt><trkpt lat="53.22512099721665" lon="14.562370090012772"><ele>35.33333333333333</ele><time>2026-04-17T17:34:11.828Z</time></trkpt><trkpt lat="53.2250614703984" lon="14.562732152915432"><ele>35.666666666666664</ele><time>2026-04-17T17:34:12.828Z</time></trkpt><trkpt lat="53.22499771726749" lon="14.563083206771807"><ele>36.0</ele><time>2026-04-17T17:34:13.828Z</time></trkpt><trkpt lat="53.22493569396075" lon="14.563435933314572"><ele>35.666666666666664</ele><time>2026-04-17T17:34:14.828Z</time></trkpt><trkpt lat="53.22486839645326" lon="14.563781210788962"><ele>35.33333333333333</ele><time>2026-04-17T17:34:15.828Z</time></trkpt><trkpt lat="53.224805317090755" lon="14.564126379220422"><ele>35.0</ele><time>2026-04-17T17:34:16.828Z</time></trkpt><trkpt lat="53.22472738142553" lon="14.564475796522894"><ele>34.0</ele><time>2026-04-17T17:34:17.828Z</time></trkpt><trkpt lat="53.224639723491926" lon="14.564807149553712"><ele>33.0</ele><time>2026-04-17T17:34:18.828Z</time></trkpt><trkpt lat="53.22453982213531" lon="14.565137318040032"><ele>32.0</ele><time>2026-04-17T17:34:19.828Z</time></trkpt><trkpt lat="53.22444542216983" lon="14.565476481404081"><ele>32.0</ele><time>2026-04-17T17:34:20.828Z</time></trkpt><trkpt lat="53.22435326888874" lon="14.565820997318003"><ele>32.0</ele><time>2026-04-17T17:34:21.828Z</time></trkpt><trkpt lat="53.22426897361756" lon="14.566157692082353"><ele>32.0</ele><time>2026-04-17T17:34:22.828Z</time></trkpt><trkpt lat="53.22417808551138" lon="14.566486572804765"><ele>31.666666666666664</ele><time>2026-04-17T17:34:23.828Z</time></trkpt><trkpt lat="53.22410316874179" lon="14.566776962817558"><ele>31.333333333333336</ele><time>2026-04-17T17:34:24.828Z</time></trkpt><trkpt lat="53.224027143943474" lon="14.567037386631002"><ele>31.0</ele><time>2026-04-17T17:34:25.828Z</time></trkpt><trkpt lat="53.22395923606255" lon="14.567259957901472"><ele>30.5</ele><time>2026-04-17T17:34:26.828Z</time></trkpt><trkpt lat="53.223880503381515" lon="14.567466568434625"><ele>30.0</ele><time>2026-04-17T17:34:27.828Z</time></trkpt><trkpt lat="53.223799780775224" lon="14.567665228664058"><ele>29.5</ele><time>2026-04-17T17:34:28.828Z</time></trkpt><trkpt lat="53.22372617323074" lon="14.56785087958853"><ele>29.0</ele><time>2026-04-17T17:34:29.828Z</time></trkpt><trkpt lat="53.22365121914381" lon="14.5680343449911"><ele>29.0</ele><time>2026-04-17T17:34:30.828Z</time></trkpt><trkpt lat="53.22358397319706" lon="14.568208997790512"><ele>29.0</ele><time>2026-04-17T17:34:31.828Z</time></trkpt><trkpt lat="53.22352289945156" lon="14.568375540767814"><ele>29.0</ele><time>2026-04-17T17:34:32.828Z</time></trkpt><trkpt lat="53.223451379113065" lon="14.568544728264184"><ele>29.0</ele><time>2026-04-17T17:34:33.828Z</time></trkpt><trkpt lat="53.22339694312503" lon="14.568707196298211"><ele>29.75</ele><time>2026-04-17T17:34:34.828Z</time></trkpt><trkpt lat="53.22332859486991" lon="14.568870984115412"><ele>30.5</ele><time>2026-04-17T17:34:35.828Z</time></trkpt><trkpt lat="53.2232570116249" lon="14.569046401692988"><ele>31.25</ele><time>2026-04-17T17:34:36.828Z</time></trkpt><trkpt lat="53.22318235122436" lon="14.56923966733059"><ele>32.0</ele><time>2026-04-17T17:34:37.828Z</time></trkpt><trkpt lat="53.223088809235726" lon="14.569441668338886"><ele>30.333333333333332</ele><time>2026-04-17T17:34:38.828Z</time></trkpt><trkpt lat="53.223000536849" lon="14.569670597823103"><ele>28.666666666666664</ele><time>2026-04-17T17:34:39.828Z</time></trkpt><trkpt lat="53.22290143652571" lon="14.569915731163258"><ele>27.0</ele><time>2026-04-17T17:34:40.828Z</time></trkpt><trkpt lat="53.22280710574789" lon="14.570166475511984"><ele>28.25</ele><time>2026-04-17T17:34:41.828Z</time></trkpt><trkpt lat="53.22271436875158" lon="14.57040461465304"><ele>29.5</ele><time>2026-04-17T17:34:42.828Z</time></trkpt><trkpt lat="53.222626591429275" lon="14.570624154902557"><ele>30.75</ele><time>2026-04-17T17:34:43.828Z</time></trkpt><trkpt lat="53.22255881173057" lon="14.570783021357101"><ele>32.0</ele><time>2026-04-17T17:34:44.828Z</time></trkpt><trkpt lat="53.222504640752284" lon="14.5709219758427"><ele>32.0</ele><time>2026-04-17T17:34:45.828Z</time></trkpt><trkpt lat="53.22246477619375" lon="14.571020138792184"><ele>32.0</ele><time>2026-04-17T17:34:46.828Z</time></trkpt><trkpt lat="53.22243698687026" lon="14.571152749222202"><ele>32.0</ele><time>2026-04-17T17:34:50.828Z</time></trkpt><trkpt lat="53.2225133343647" lon="14.571406621074308"><ele>32.0</ele><time>2026-04-17T17:35:34.828Z</time></trkpt><trkpt lat="53.22252540241963" lon="14.571523280265502"><ele>32.0</ele><time>2026-04-17T17:35:35.828Z</time></trkpt><trkpt lat="53.22254301559507" lon="14.571651343423605"><ele>32.666666666666664</ele><time>2026-04-17T17:35:36.828Z</time></trkpt><trkpt lat="53.22255924215631" lon="14.571764572752366"><ele>33.33333333333333</ele><time>2026-04-17T17:35:37.828Z</time></trkpt><trkpt lat="53.222590753766376" lon="14.571870938562148"><ele>34.0</ele><time>2026-04-17T17:35:38.828Z</time></trkpt><trkpt lat="53.22259128576286" lon="14.571976722342036"><ele>34.666666666666664</ele><time>2026-04-17T17:35:39.828Z</time></trkpt><trkpt lat="53.22262080359428" lon="14.572161960983317"><ele>35.333333333333336</ele><time>2026-04-17T17:35:41.828Z</time></trkpt><trkpt lat="53.22265360792121" lon="14.572254357145109"><ele>36.0</ele><time>2026-04-17T17:35:42.828Z</time></trkpt><trkpt lat="53.22268468206905" lon="14.572438148554081"><ele>36.2</ele><time>2026-04-17T17:35:44.827Z</time></trkpt><trkpt lat="53.22271208110743" lon="14.57258908823889"><ele>36.400000000000006</ele><time>2026-04-17T17:35:46.827Z</time></trkpt><trkpt lat="53.22274148832921" lon="14.572770644751175"><ele>36.6</ele><time>2026-04-17T17:35:48.827Z</time></trkpt><trkpt lat="53.222762790678765" lon="14.572920207295711"><ele>36.800000000000004</ele><time>2026-04-17T17:35:50.827Z</time></trkpt><trkpt lat="53.222782742203556" lon="14.573039278054237"><ele>37.0</ele><time>2026-04-17T17:35:53.827Z</time></trkpt><trkpt lat="53.22265082008464" lon="14.573135024121303"><ele>36.333333333333336</ele><time>2026-04-17T17:35:57.827Z</time></trkpt><trkpt lat="53.22254381129085" lon="14.57315492905459"><ele>35.66666666666667</ele><time>2026-04-17T17:35:59.827Z</time></trkpt><trkpt lat="53.22246483205982" lon="14.573173327087565"><ele>35.0</ele><time>2026-04-17T17:36:01.827Z</time></trkpt><trkpt lat="53.2223770152095" lon="14.573210944434393"><ele>34.333333333333336</ele><time>2026-04-17T17:36:04.827Z</time></trkpt><trkpt lat="53.22230562251536" lon="14.573255417819382"><ele>33.666666666666664</ele><time>2026-04-17T17:36:06.825Z</time></trkpt><trkpt lat="53.22225173994838" lon="14.573312644250578"><ele>33.0</ele><time>2026-04-17T17:36:15.826Z</time></trkpt><trkpt lat="53.22220049577748" lon="14.573382305181125"><ele>33.0</ele><time>2026-04-17T17:36:25.825Z</time></trkpt><trkpt lat="53.222236335303585" lon="14.573496131609648"><ele>33.0</ele><time>2026-04-17T17:36:29.825Z</time></trkpt><trkpt lat="53.22229769966824" lon="14.57346737712898"><ele>33.0</ele><time>2026-04-17T17:36:31.825Z</time></trkpt><trkpt lat="53.22236705990775" lon="14.573449856542952"><ele>33.0</ele><time>2026-04-17T17:36:33.825Z</time></trkpt><trkpt lat="53.22245414717395" lon="14.573428717657526"><ele>33.0</ele><time>2026-04-17T17:36:35.825Z</time></trkpt><trkpt lat="53.22254067954233" lon="14.573417304775608"><ele>33.0</ele><time>2026-04-17T17:36:37.825Z</time></trkpt><trkpt lat="53.22261073107869" lon="14.573420477592071"><ele>33.0</ele><time>2026-04-17T17:36:39.825Z</time></trkpt><trkpt lat="53.22269345763359" lon="14.573412084494471"><ele>33.0</ele><time>2026-04-17T17:36:41.825Z</time></trkpt><trkpt lat="53.22277054408876" lon="14.57339775096361"><ele>33.0</ele><time>2026-04-17T17:36:43.825Z</time></trkpt><trkpt lat="53.22283880664928" lon="14.573471813520587"><ele>33.0</ele><time>2026-04-17T17:36:46.825Z</time></trkpt><trkpt lat="53.22285606038783" lon="14.573622147703276"><ele>33.0</ele><time>2026-04-17T17:36:48.825Z</time></trkpt><trkpt lat="53.22290923401477" lon="14.573799723800981"><ele>33.0</ele><time>2026-04-17T17:36:50.825Z</time></trkpt><trkpt lat="53.222997639505294" lon="14.57393428247299"><ele>33.0</ele><time>2026-04-17T17:36:52.824Z</time></trkpt><trkpt lat="53.22306729958751" lon="14.57406987219341"><ele>33.0</ele><time>2026-04-17T17:36:54.824Z</time></trkpt><trkpt lat="53.22313673189745" lon="14.57420270001923"><ele>33.0</ele><time>2026-04-17T17:36:56.824Z</time></trkpt><trkpt lat="53.22320819706591" lon="14.574336928244984"><ele>33.0</ele><time>2026-04-17T17:36:58.824Z</time></trkpt><trkpt lat="53.22328558059361" lon="14.574476863343515"><ele>33.6</ele><time>2026-04-17T17:37:00.824Z</time></trkpt><trkpt lat="53.22335673985689" lon="14.574621943109536"><ele>34.199999999999996</ele><time>2026-04-17T17:37:02.824Z</time></trkpt><trkpt lat="53.22342298660572" lon="14.574788870083385"><ele>34.8</ele><time>2026-04-17T17:37:04.824Z</time></trkpt><trkpt lat="53.22345607298799" lon="14.574878942921348"><ele>35.4</ele><time>2026-04-17T17:37:05.824Z</time></trkpt><trkpt lat="53.2235129518054" lon="14.575080619826883"><ele>36.0</ele><time>2026-04-17T17:37:07.824Z</time></trkpt><trkpt lat="53.22354946394019" lon="14.575191784382062"><ele>36.00000000000001</ele><time>2026-04-17T17:37:08.824Z</time></trkpt><trkpt lat="53.223578560460545" lon="14.575295866588755"><ele>36.0</ele><time>2026-04-17T17:37:09.824Z</time></trkpt><trkpt lat="53.2236108502279" lon="14.575408501613653"><ele>36.0</ele><time>2026-04-17T17:37:10.824Z</time></trkpt><trkpt lat="53.22363760347499" lon="14.57551098070209"><ele>36.0</ele><time>2026-04-17T17:37:11.824Z</time></trkpt><trkpt lat="53.223664705877745" lon="14.575625853484025"><ele>36.0</ele><time>2026-04-17T17:37:12.824Z</time></trkpt><trkpt lat="53.22369671672023" lon="14.57574496259608"><ele>36.00000000000001</ele><time>2026-04-17T17:37:13.824Z</time></trkpt><trkpt lat="53.22372686072977" lon="14.575865469607004"><ele>36.0</ele><time>2026-04-17T17:37:14.824Z</time></trkpt><trkpt lat="53.22376640765019" lon="14.576048451860048"><ele>36.0</ele><time>2026-04-17T17:37:16.824Z</time></trkpt><trkpt lat="53.223770715918086" lon="14.576211389253487"><ele>36.0</ele><time>2026-04-17T17:37:18.824Z</time></trkpt><trkpt lat="53.22377201753309" lon="14.57633634700018"><ele>36.0</ele><time>2026-04-17T17:37:20.824Z</time></trkpt><trkpt lat="53.22379459553387" lon="14.576530559250081"><ele>36.0</ele><time>2026-04-17T17:40:58.816Z</time></trkpt><trkpt lat="53.223757487233705" lon="14.57665957537066"><ele>36.0</ele><time>2026-04-17T17:41:00.816Z</time></trkpt><trkpt lat="53.223740126213265" lon="14.576799549810266"><ele>36.0</ele><time>2026-04-17T17:41:02.816Z</time></trkpt><trkpt lat="53.22373910418943" lon="14.576927557027641"><ele>36.0</ele><time>2026-04-17T17:41:04.816Z</time></trkpt><trkpt lat="53.22373077139612" lon="14.577054452109927"><ele>36.0</ele><time>2026-04-17T17:41:06.816Z</time></trkpt><trkpt lat="53.22373306563074" lon="14.577204230849548"><ele>36.0</ele><time>2026-04-17T17:41:08.816Z</time></trkpt><trkpt lat="53.223736705539686" lon="14.577346183721291"><ele>36.0</ele><time>2026-04-17T17:41:10.816Z</time></trkpt><trkpt lat="53.223736816616245" lon="14.577494394995428"><ele>36.0</ele><time>2026-04-17T17:41:12.816Z</time></trkpt><trkpt lat="53.22372718781597" lon="14.577634553214907"><ele>35.166666666666664</ele><time>2026-04-17T17:41:14.816Z</time></trkpt><trkpt lat="53.223711283848345" lon="14.577755289792181"><ele>34.333333333333336</ele><time>2026-04-17T17:41:16.816Z</time></trkpt><trkpt lat="53.22365886092041" lon="14.577874427822971"><ele>33.5</ele><time>2026-04-17T17:41:19.816Z</time></trkpt><trkpt lat="53.22364976245864" lon="14.577993949386931"><ele>32.66666666666667</ele><time>2026-04-17T17:41:24.816Z</time></trkpt><trkpt lat="53.22371265479936" lon="14.578006926023336"><ele>31.833333333333336</ele><time>2026-04-17T17:41:27.816Z</time></trkpt><trkpt lat="53.22372175458097" lon="14.577878838495959"><ele>31.0</ele><time>2026-04-17T17:45:37.809Z</time></trkpt><trkpt lat="53.22372524360464" lon="14.577722650227141"><ele>31.000000000000004</ele><time>2026-04-17T17:45:39.809Z</time></trkpt><trkpt lat="53.223736679443384" lon="14.577563423073416"><ele>31.0</ele><time>2026-04-17T17:45:41.809Z</time></trkpt><trkpt lat="53.22373129767252" lon="14.577412116173619"><ele>31.0</ele><time>2026-04-17T17:45:43.809Z</time></trkpt><trkpt lat="53.22373392987517" lon="14.577305777598514"><ele>31.0</ele><time>2026-04-17T17:45:44.809Z</time></trkpt><trkpt lat="53.22372857576424" lon="14.577107813307927"><ele>31.000000000000004</ele><time>2026-04-17T17:45:46.809Z</time></trkpt><trkpt lat="53.223729504560445" lon="14.57698059917271"><ele>31.0</ele><time>2026-04-17T17:45:47.809Z</time></trkpt><trkpt lat="53.22373488371836" lon="14.576793923939768"><ele>32.0</ele><time>2026-04-17T17:45:49.809Z</time></trkpt><trkpt lat="53.22375304438533" lon="14.57660144741885"><ele>33.0</ele><time>2026-04-17T17:45:51.809Z</time></trkpt><trkpt lat="53.223766056492586" lon="14.576393710843554"><ele>34.0</ele><time>2026-04-17T17:45:53.809Z</time></trkpt><trkpt lat="53.22379310358245" lon="14.576254783835749"><ele>35.0</ele><time>2026-04-17T17:45:55.809Z</time></trkpt><trkpt lat="53.22379247924333" lon="14.576136599586178"><ele>36.0</ele><time>2026-04-17T17:45:57.809Z</time></trkpt><trkpt lat="53.223724735107474" lon="14.576204285012112"><ele>36.0</ele><time>2026-04-17T17:46:00.809Z</time></trkpt><trkpt lat="53.22376002802749" lon="14.576327968074699"><ele>36.0</ele><time>2026-04-17T17:46:02.809Z</time></trkpt><trkpt lat="53.223772195631604" lon="14.576451452766783"><ele>36.0</ele><time>2026-04-17T17:46:04.809Z</time></trkpt><trkpt lat="53.223758628729016" lon="14.576575111594426"><ele>36.0</ele><time>2026-04-17T17:46:06.809Z</time></trkpt><trkpt lat="53.22374252726657" lon="14.576739452404803"><ele>36.0</ele><time>2026-04-17T17:46:08.809Z</time></trkpt><trkpt lat="53.22373574229821" lon="14.576899005953107"><ele>36.0</ele><time>2026-04-17T17:46:10.809Z</time></trkpt><trkpt lat="53.22373423893436" lon="14.577054529053601"><ele>35.166666666666664</ele><time>2026-04-17T17:46:12.809Z</time></trkpt><trkpt lat="53.22373489850002" lon="14.577184681304205"><ele>34.333333333333336</ele><time>2026-04-17T17:46:14.809Z</time></trkpt><trkpt lat="53.223723571952554" lon="14.577322724153637"><ele>33.5</ele><time>2026-04-17T17:46:16.809Z</time></trkpt><trkpt lat="53.2236813274003" lon="14.577412574202041"><ele>32.66666666666667</ele><time>2026-04-17T17:46:18.809Z</time></trkpt><trkpt lat="53.22374218919746" lon="14.577512671784305"><ele>31.833333333333336</ele><time>2026-04-17T17:46:21.809Z</time></trkpt><trkpt lat="53.22383605799413" lon="14.577423145316178"><ele>31.0</ele><time>2026-04-17T17:46:24.809Z</time></trkpt><trkpt lat="53.22386698824985" lon="14.577317507190275"><ele>31.0</ele><time>2026-04-17T17:46:25.809Z</time></trkpt><trkpt lat="53.22389178627475" lon="14.57718784561496"><ele>31.0</ele><time>2026-04-17T17:46:26.809Z</time></trkpt><trkpt lat="53.223913700872465" lon="14.577057915428565"><ele>31.0</ele><time>2026-04-17T17:46:27.809Z</time></trkpt><trkpt lat="53.223924477362004" lon="14.576934447258212"><ele>31.0</ele><time>2026-04-17T17:46:28.809Z</time></trkpt><trkpt lat="53.223916187882416" lon="14.576773211000543"><ele>31.0</ele><time>2026-04-17T17:46:29.809Z</time></trkpt><trkpt lat="53.2238215658066" lon="14.576656594091299"><ele>31.000000000000004</ele><time>2026-04-17T17:46:31.809Z</time></trkpt><trkpt lat="53.22374360727953" lon="14.576713600585562"><ele>31.0</ele><time>2026-04-17T17:46:33.808Z</time></trkpt><trkpt lat="53.22374064492224" lon="14.576892896351135"><ele>31.0</ele><time>2026-04-17T17:46:35.807Z</time></trkpt><trkpt lat="53.223759289246104" lon="14.577030055224357"><ele>31.0</ele><time>2026-04-17T17:46:37.808Z</time></trkpt><trkpt lat="53.22380304658917" lon="14.57712355352994"><ele>31.000000000000004</ele><time>2026-04-17T17:46:41.808Z</time></trkpt><trkpt lat="53.22380143426866" lon="14.577238054837153"><ele>31.0</ele><time>2026-04-17T17:46:45.807Z</time></trkpt><trkpt lat="53.22373877004907" lon="14.577207508761138"><ele>31.000000000000004</ele><time>2026-04-17T17:46:49.807Z</time></trkpt><trkpt lat="53.22374477338138" lon="14.577078050200534"><ele>31.0</ele><time>2026-04-17T17:46:53.807Z</time></trkpt><trkpt lat="53.223734776338986" lon="14.576916072777426"><ele>31.0</ele><time>2026-04-17T17:48:15.815Z</time></trkpt><trkpt lat="53.22373939614624" lon="14.576781772886232"><ele>31.0</ele><time>2026-04-17T17:48:17.815Z</time></trkpt><trkpt lat="53.22374395859965" lon="14.576667647239345"><ele>31.000000000000004</ele><time>2026-04-17T17:48:19.815Z</time></trkpt><trkpt lat="53.22376364782555" lon="14.576540934648232"><ele>31.0</ele><time>2026-04-17T17:48:21.815Z</time></trkpt><trkpt lat="53.223772291925535" lon="14.57640694707441"><ele>31.833333333333336</ele><time>2026-04-17T17:48:23.815Z</time></trkpt><trkpt lat="53.223754725365026" lon="14.576277882669238"><ele>32.66666666666667</ele><time>2026-04-17T17:49:19.814Z</time></trkpt><trkpt lat="53.223727720513104" lon="14.576414911211458"><ele>33.5</ele><time>2026-04-17T17:49:22.814Z</time></trkpt><trkpt lat="53.22376196476505" lon="14.576545806047358"><ele>34.333333333333336</ele><time>2026-04-17T17:49:24.814Z</time></trkpt><trkpt lat="53.22375138253595" lon="14.576675056260003"><ele>35.166666666666664</ele><time>2026-04-17T17:49:26.814Z</time></trkpt><trkpt lat="53.22374450906438" lon="14.576803372766465"><ele>36.0</ele><time>2026-04-17T17:49:28.813Z</time></trkpt><trkpt lat="53.223754640015805" lon="14.576930829392241"><ele>35.166666666666664</ele><time>2026-04-17T17:49:30.813Z</time></trkpt><trkpt lat="53.223748551418915" lon="14.577052852342822"><ele>34.333333333333336</ele><time>2026-04-17T17:49:32.813Z</time></trkpt><trkpt lat="53.22373255076779" lon="14.577184341677425"><ele>33.5</ele><time>2026-04-17T17:49:34.813Z</time></trkpt><trkpt lat="53.22373539614363" lon="14.577333690043368"><ele>32.66666666666667</ele><time>2026-04-17T17:49:36.813Z</time></trkpt><trkpt lat="53.223739174393764" lon="14.577459336676764"><ele>31.833333333333336</ele><time>2026-04-17T17:49:38.813Z</time></trkpt><trkpt lat="53.22374026519488" lon="14.577596838292786"><ele>31.0</ele><time>2026-04-17T17:49:40.813Z</time></trkpt><trkpt lat="53.22371521973062" lon="14.577711241727869"><ele>31.000000000000004</ele><time>2026-04-17T17:49:42.813Z</time></trkpt><trkpt lat="53.22365320988972" lon="14.577739015230941"><ele>31.0</ele><time>2026-04-17T17:49:44.813Z</time></trkpt><trkpt lat="53.22359476910319" lon="14.577841423402006"><ele>31.0</ele><time>2026-04-17T17:49:47.813Z</time></trkpt><trkpt lat="53.22363114075217" lon="14.577928947771403"><ele>31.0</ele><time>2026-04-17T17:49:49.813Z</time></trkpt><trkpt lat="53.22359837496572" lon="14.578033906578696"><ele>31.000000000000004</ele><time>2026-04-17T17:49:51.813Z</time></trkpt><trkpt lat="53.22366423902891" lon="14.578075979448979"><ele>31.0</ele><time>2026-04-17T17:49:56.813Z</time></trkpt><trkpt lat="53.22371920169633" lon="14.577881673785155"><ele>31.0</ele><time>2026-04-17T17:49:58.813Z</time></trkpt><trkpt lat="53.2237289909537" lon="14.577745899901016"><ele>31.0</ele><time>2026-04-17T17:49:59.813Z</time></trkpt><trkpt lat="53.22373852126331" lon="14.577570015400468"><ele>31.0</ele><time>2026-04-17T17:50:00.813Z</time></trkpt><trkpt lat="53.22374638309914" lon="14.577394496404459"><ele>31.0</ele><time>2026-04-17T17:50:01.813Z</time></trkpt><trkpt lat="53.22374906362305" lon="14.57722275172895"><ele>31.0</ele><time>2026-04-17T17:50:02.813Z</time></trkpt><trkpt lat="53.22374257511384" lon="14.577024604171285"><ele>32.25</ele><time>2026-04-17T17:50:03.813Z</time></trkpt><trkpt lat="53.223743409136276" lon="14.576848384258327"><ele>33.5</ele><time>2026-04-17T17:50:04.813Z</time></trkpt><trkpt lat="53.223748314152424" lon="14.576639159112638"><ele>34.75</ele><time>2026-04-17T17:50:05.813Z</time></trkpt><trkpt lat="53.223758836838535" lon="14.576404448905471"><ele>36.0</ele><time>2026-04-17T17:50:06.813Z</time></trkpt><trkpt lat="53.22377470637688" lon="14.576195749010799"><ele>36.4</ele><time>2026-04-17T17:50:07.813Z</time></trkpt><trkpt lat="53.223780040566346" lon="14.575976748189962"><ele>36.8</ele><time>2026-04-17T17:50:08.813Z</time></trkpt><trkpt lat="53.22376059461944" lon="14.575802980395615"><ele>37.199999999999996</ele><time>2026-04-17T17:50:09.813Z</time></trkpt><trkpt lat="53.22371665286693" lon="14.575643639117182"><ele>37.6</ele><time>2026-04-17T17:50:10.813Z</time></trkpt><trkpt lat="53.223670367043596" lon="14.575539917642864"><ele>38.0</ele><time>2026-04-17T17:50:11.813Z</time></trkpt><trkpt lat="53.22362675613863" lon="14.575408589489093"><ele>38.0</ele><time>2026-04-17T17:50:13.813Z</time></trkpt><trkpt lat="53.22358533101988" lon="14.575520665142557"><ele>38.0</ele><time>2026-04-17T17:50:16.813Z</time></trkpt><trkpt lat="53.22366513920186" lon="14.575693384276429"><ele>38.0</ele><time>2026-04-17T17:50:18.813Z</time></trkpt><trkpt lat="53.223726493657004" lon="14.575799181321727"><ele>38.0</ele><time>2026-04-17T17:50:19.813Z</time></trkpt><trkpt lat="53.223751612158026" lon="14.575922662659087"><ele>38.0</ele><time>2026-04-17T17:50:20.813Z</time></trkpt><trkpt lat="53.2237658537467" lon="14.576042153761682"><ele>38.0</ele><time>2026-04-17T17:50:21.813Z</time></trkpt><trkpt lat="53.223772671024435" lon="14.576181261198741"><ele>38.0</ele><time>2026-04-17T17:50:22.813Z</time></trkpt><trkpt lat="53.2237708561154" lon="14.576324692782638"><ele>38.0</ele><time>2026-04-17T17:50:23.813Z</time></trkpt><trkpt lat="53.22376086271231" lon="14.576484960186097"><ele>38.0</ele><time>2026-04-17T17:50:25.813Z</time></trkpt><trkpt lat="53.223838714433334" lon="14.57647677523079"><ele>38.0</ele><time>2026-04-17T17:50:35.813Z</time></trkpt><trkpt lat="53.22379442084611" lon="14.576364402421309"><ele>38.0</ele><time>2026-04-17T17:50:37.813Z</time></trkpt><trkpt lat="53.22377218361388" lon="14.576246259373589"><ele>38.0</ele><time>2026-04-17T17:52:51.81Z</time></trkpt><trkpt lat="53.223759348732116" lon="14.576058134068841"><ele>38.0</ele><time>2026-04-17T17:52:53.81Z</time></trkpt><trkpt lat="53.223747327420135" lon="14.575859831773094"><ele>38.0</ele><time>2026-04-17T17:52:55.81Z</time></trkpt><trkpt lat="53.223695380102484" lon="14.575648609248393"><ele>38.0</ele><time>2026-04-17T17:52:57.81Z</time></trkpt><trkpt lat="53.22366761819525" lon="14.57554018007558"><ele>38.0</ele><time>2026-04-17T17:52:58.81Z</time></trkpt><trkpt lat="53.22363618634572" lon="14.575435701649042"><ele>38.0</ele><time>2026-04-17T17:52:59.81Z</time></trkpt><trkpt lat="53.22358773066856" lon="14.575263791817825"><ele>37.6</ele><time>2026-04-17T17:53:01.81Z</time></trkpt><trkpt lat="53.22355274860836" lon="14.575133786215842"><ele>37.199999999999996</ele><time>2026-04-17T17:53:03.81Z</time></trkpt><trkpt lat="53.22349779615905" lon="14.57497454727518"><ele>36.8</ele><time>2026-04-17T17:53:05.81Z</time></trkpt><trkpt lat="53.22344044647639" lon="14.57478671333316"><ele>36.4</ele><time>2026-04-17T17:53:07.81Z</time></trkpt><trkpt lat="53.22337668885905" lon="14.57460990700748"><ele>36.0</ele><time>2026-04-17T17:53:09.81Z</time></trkpt><trkpt lat="53.22329587780172" lon="14.574442656956467"><ele>35.5</ele><time>2026-04-17T17:53:11.81Z</time></trkpt><trkpt lat="53.22325269998924" lon="14.574365960300838"><ele>35.0</ele><time>2026-04-17T17:53:12.81Z</time></trkpt><trkpt lat="53.22320316843552" lon="14.574289524742058"><ele>34.5</ele><time>2026-04-17T17:53:13.81Z</time></trkpt><trkpt lat="53.22313375257512" lon="14.574164506718436"><ele>34.0</ele><time>2026-04-17T17:53:15.81Z</time></trkpt><trkpt lat="53.22307013283609" lon="14.57405208723393"><ele>33.5</ele><time>2026-04-17T17:53:17.81Z</time></trkpt><trkpt lat="53.22300604328025" lon="14.573936889853455"><ele>33.0</ele><time>2026-04-17T17:53:19.81Z</time></trkpt><trkpt lat="53.2229382428614" lon="14.57382273834671"><ele>33.0</ele><time>2026-04-17T17:53:21.81Z</time></trkpt><trkpt lat="53.222873828014244" lon="14.573685490740981"><ele>33.0</ele><time>2026-04-17T17:53:23.81Z</time></trkpt><trkpt lat="53.222849222418866" lon="14.573542541946399"><ele>33.0</ele><time>2026-04-17T17:53:25.81Z</time></trkpt><trkpt lat="53.222838255809855" lon="14.573415243503806"><ele>33.0</ele><time>2026-04-17T17:53:27.81Z</time></trkpt><trkpt lat="53.22283394144546" lon="14.573281892553924"><ele>33.0</ele><time>2026-04-17T17:53:29.81Z</time></trkpt><trkpt lat="53.22282654420783" lon="14.57316092706524"><ele>33.0</ele><time>2026-04-17T17:53:31.81Z</time></trkpt><trkpt lat="53.22287272245935" lon="14.573080996486665"><ele>33.0</ele><time>2026-04-17T17:53:41.81Z</time></trkpt><trkpt lat="53.22296261602873" lon="14.573147657100458"><ele>33.0</ele><time>2026-04-17T17:53:43.81Z</time></trkpt><trkpt lat="53.22302532508555" lon="14.573181682107391"><ele>33.0</ele><time>2026-04-17T17:53:44.809Z</time></trkpt><trkpt lat="53.22310000227938" lon="14.573180746837133"><ele>33.0</ele><time>2026-04-17T17:53:45.809Z</time></trkpt><trkpt lat="53.22320497166808" lon="14.573156000212764"><ele>33.0</ele><time>2026-04-17T17:53:46.809Z</time></trkpt><trkpt lat="53.22331918141612" lon="14.573082389281806"><ele>32.5</ele><time>2026-04-17T17:53:47.809Z</time></trkpt><trkpt lat="53.223423727488544" lon="14.572992949798216"><ele>32.0</ele><time>2026-04-17T17:53:48.809Z</time></trkpt><trkpt lat="53.22352161017081" lon="14.572913473051774"><ele>31.5</ele><time>2026-04-17T17:53:49.809Z</time></trkpt><trkpt lat="53.223621835276035" lon="14.572828566140364"><ele>31.0</ele><time>2026-04-17T17:53:50.809Z</time></trkpt><trkpt lat="53.22372170124379" lon="14.572746500317166"><ele>30.6</ele><time>2026-04-17T17:53:51.809Z</time></trkpt><trkpt lat="53.223824374545345" lon="14.572675450369015"><ele>30.200000000000003</ele><time>2026-04-17T17:53:52.809Z</time></trkpt><trkpt lat="53.22391181028861" lon="14.572605255825675"><ele>29.799999999999997</ele><time>2026-04-17T17:53:53.809Z</time></trkpt><trkpt lat="53.22398145598317" lon="14.572564998318425"><ele>29.4</ele><time>2026-04-17T17:53:54.809Z</time></trkpt><trkpt lat="53.22410800032465" lon="14.572495862693193"><ele>29.0</ele><time>2026-04-17T17:53:56.809Z</time></trkpt><trkpt lat="53.22418084020072" lon="14.572480206064089"><ele>29.0</ele><time>2026-04-17T17:53:57.809Z</time></trkpt><trkpt lat="53.224287969155455" lon="14.572499521227211"><ele>29.0</ele><time>2026-04-17T17:53:59.809Z</time></trkpt><trkpt lat="53.224359536810724" lon="14.572481728838628"><ele>29.0</ele><time>2026-04-17T17:54:00.809Z</time></trkpt><trkpt lat="53.22445321144279" lon="14.572529088225307"><ele>29.0</ele><time>2026-04-17T17:54:02.809Z</time></trkpt><trkpt lat="53.22454759242527" lon="14.572553678119142"><ele>29.0</ele><time>2026-04-17T17:54:04.809Z</time></trkpt><trkpt lat="53.22466150975331" lon="14.572584793335386"><ele>28.999999999999996</ele><time>2026-04-17T17:54:06.809Z</time></trkpt><trkpt lat="53.22472718179036" lon="14.572600974648475"><ele>29.0</ele><time>2026-04-17T17:54:07.809Z</time></trkpt><trkpt lat="53.224814335933196" lon="14.572600680817326"><ele>29.0</ele><time>2026-04-17T17:54:08.809Z</time></trkpt><trkpt lat="53.22489672829963" lon="14.57261279220988"><ele>29.0</ele><time>2026-04-17T17:54:09.809Z</time></trkpt><trkpt lat="53.224972324680564" lon="14.572637320844905"><ele>28.999999999999996</ele><time>2026-04-17T17:54:10.809Z</time></trkpt><trkpt lat="53.22508891340661" lon="14.57265407231759"><ele>29.0</ele><time>2026-04-17T17:54:12.809Z</time></trkpt><trkpt lat="53.225198426309404" lon="14.572695794970793"><ele>28.5</ele><time>2026-04-17T17:54:14.809Z</time></trkpt><trkpt lat="53.22530922266219" lon="14.572713887155965"><ele>28.0</ele><time>2026-04-17T17:54:16.809Z</time></trkpt><trkpt lat="53.22542575825755" lon="14.572727220769158"><ele>27.5</ele><time>2026-04-17T17:54:18.809Z</time></trkpt><trkpt lat="53.22554685693672" lon="14.572712601820955"><ele>27.0</ele><time>2026-04-17T17:54:20.809Z</time></trkpt><trkpt lat="53.22566097438425" lon="14.572709071110463"><ele>27.0</ele><time>2026-04-17T17:54:22.809Z</time></trkpt><trkpt lat="53.22579405715448" lon="14.572695963524158"><ele>27.000000000000004</ele><time>2026-04-17T17:54:24.809Z</time></trkpt><trkpt lat="53.22587529915368" lon="14.572669565154559"><ele>27.000000000000004</ele><time>2026-04-17T17:54:25.809Z</time></trkpt><trkpt lat="53.225961561343475" lon="14.57262053101347"><ele>27.0</ele><time>2026-04-17T17:54:26.809Z</time></trkpt><trkpt lat="53.2260405506572" lon="14.572551577922324"><ele>27.0</ele><time>2026-04-17T17:54:27.809Z</time></trkpt><trkpt lat="53.226114823182606" lon="14.572496169400942"><ele>27.0</ele><time>2026-04-17T17:54:28.809Z</time></trkpt><trkpt lat="53.226188512106816" lon="14.57243636524659"><ele>27.0</ele><time>2026-04-17T17:54:29.809Z</time></trkpt><trkpt lat="53.22625463258358" lon="14.57238374911652"><ele>27.0</ele><time>2026-04-17T17:54:30.809Z</time></trkpt><trkpt lat="53.226330164873325" lon="14.572336850252439"><ele>27.0</ele><time>2026-04-17T17:54:31.809Z</time></trkpt><trkpt lat="53.22639698520049" lon="14.572312461831476"><ele>27.0</ele><time>2026-04-17T17:54:32.809Z</time></trkpt><trkpt lat="53.226481100159354" lon="14.57230211734889"><ele>27.0</ele><time>2026-04-17T17:54:33.809Z</time></trkpt><trkpt lat="53.22655779445159" lon="14.572299163055614"><ele>27.166666666666668</ele><time>2026-04-17T17:54:34.809Z</time></trkpt><trkpt lat="53.22664610929766" lon="14.572293303923955"><ele>27.333333333333336</ele><time>2026-04-17T17:54:35.809Z</time></trkpt><trkpt lat="53.22671889274252" lon="14.572326689543145"><ele>27.5</ele><time>2026-04-17T17:54:36.809Z</time></trkpt><trkpt lat="53.2267831335709" lon="14.572318732748645"><ele>27.666666666666668</ele><time>2026-04-17T17:54:37.809Z</time></trkpt><trkpt lat="53.22688945648795" lon="14.572362162084792"><ele>27.833333333333336</ele><time>2026-04-17T17:54:39.809Z</time></trkpt><trkpt lat="53.22696802013268" lon="14.572382058103088"><ele>28.0</ele><time>2026-04-17T17:54:41.809Z</time></trkpt><trkpt lat="53.2270399014539" lon="14.572403582893214"><ele>28.000000000000004</ele><time>2026-04-17T17:54:43.809Z</time></trkpt><trkpt lat="53.22711801977765" lon="14.57243418523171"><ele>28.0</ele><time>2026-04-17T17:54:45.809Z</time></trkpt><trkpt lat="53.22718558501051" lon="14.572483417529956"><ele>28.0</ele><time>2026-04-17T17:54:47.809Z</time></trkpt><trkpt lat="53.22725554409623" lon="14.57257111393098"><ele>28.0</ele><time>2026-04-17T17:54:49.809Z</time></trkpt><trkpt lat="53.22731141239631" lon="14.572672003011656"><ele>28.000000000000004</ele><time>2026-04-17T17:54:51.809Z</time></trkpt><trkpt lat="53.2273589650231" lon="14.572767023834674"><ele>28.0</ele><time>2026-04-17T17:54:53.809Z</time></trkpt><trkpt lat="53.22740505625512" lon="14.572866069984602"><ele>28.285714285714285</ele><time>2026-04-17T17:54:55.809Z</time></trkpt><trkpt lat="53.22745056172662" lon="14.572953431317057"><ele>28.57142857142857</ele><time>2026-04-17T17:54:57.808Z</time></trkpt><trkpt lat="53.227493995040824" lon="14.573070771991501"><ele>28.857142857142858</ele><time>2026-04-17T17:54:59.808Z</time></trkpt><trkpt lat="53.22754179069611" lon="14.573182792438278"><ele>29.142857142857142</ele><time>2026-04-17T17:55:01.808Z</time></trkpt><trkpt lat="53.227574151887296" lon="14.57329982090584"><ele>29.428571428571427</ele><time>2026-04-17T17:55:03.808Z</time></trkpt><trkpt lat="53.22761627578492" lon="14.573382929842918"><ele>29.714285714285715</ele><time>2026-04-17T17:55:05.808Z</time></trkpt><trkpt lat="53.22766511734103" lon="14.573449775175328"><ele>30.0</ele><time>2026-04-17T17:55:08.807Z</time></trkpt><trkpt lat="53.22761068711784" lon="14.573374964407911"><ele>30.0</ele><time>2026-04-17T17:55:15.807Z</time></trkpt><trkpt lat="53.227550870862416" lon="14.573251595798077"><ele>30.0</ele><time>2026-04-17T17:55:17.807Z</time></trkpt><trkpt lat="53.22748955889396" lon="14.573090862147156"><ele>30.0</ele><time>2026-04-17T17:55:19.807Z</time></trkpt><trkpt lat="53.227424259649496" lon="14.572909966648623"><ele>30.0</ele><time>2026-04-17T17:55:21.807Z</time></trkpt><trkpt lat="53.227386157029265" lon="14.572808289826428"><ele>30.0</ele><time>2026-04-17T17:55:22.807Z</time></trkpt><trkpt lat="53.227322420683365" lon="14.572682080264093"><ele>29.6</ele><time>2026-04-17T17:55:23.807Z</time></trkpt><trkpt lat="53.227264851511926" lon="14.572575148607035"><ele>29.2</ele><time>2026-04-17T17:55:24.807Z</time></trkpt><trkpt lat="53.22721926435523" lon="14.57249161744948"><ele>28.799999999999997</ele><time>2026-04-17T17:55:25.807Z</time></trkpt><trkpt lat="53.22711517224225" lon="14.572396179467813"><ele>28.4</ele><time>2026-04-17T17:55:27.807Z</time></trkpt><trkpt lat="53.226994349499186" lon="14.572381283485766"><ele>28.0</ele><time>2026-04-17T17:55:29.807Z</time></trkpt><trkpt lat="53.226894419057544" lon="14.57231190600393"><ele>28.0</ele><time>2026-04-17T17:55:31.807Z</time></trkpt><trkpt lat="53.2267817996506" lon="14.572297165863159"><ele>27.999999999999996</ele><time>2026-04-17T17:55:33.807Z</time></trkpt><trkpt lat="53.22670213355483" lon="14.572284415721809"><ele>27.999999999999996</ele><time>2026-04-17T17:55:34.807Z</time></trkpt><trkpt lat="53.226619971668256" lon="14.57227543231764"><ele>28.0</ele><time>2026-04-17T17:55:35.807Z</time></trkpt><trkpt lat="53.226531834424804" lon="14.572270603423314"><ele>28.0</ele><time>2026-04-17T17:55:36.807Z</time></trkpt><trkpt lat="53.22643149989006" lon="14.572273013943917"><ele>27.799999999999997</ele><time>2026-04-17T17:55:37.807Z</time></trkpt><trkpt lat="53.22635243398445" lon="14.572297960143814"><ele>27.599999999999998</ele><time>2026-04-17T17:55:38.807Z</time></trkpt><trkpt lat="53.226271693550544" lon="14.572335387599145"><ele>27.400000000000002</ele><time>2026-04-17T17:55:39.807Z</time></trkpt><trkpt lat="53.22618788780498" lon="14.572397205770933"><ele>27.200000000000003</ele><time>2026-04-17T17:55:40.807Z</time></trkpt><trkpt lat="53.22610233948185" lon="14.572462471306089"><ele>27.0</ele><time>2026-04-17T17:55:41.807Z</time></trkpt><trkpt lat="53.22601419750953" lon="14.572544786148596"><ele>27.0</ele><time>2026-04-17T17:55:42.807Z</time></trkpt><trkpt lat="53.225927503713926" lon="14.572600287416709"><ele>27.000000000000004</ele><time>2026-04-17T17:55:43.807Z</time></trkpt><trkpt lat="53.22585383300187" lon="14.572652648957153"><ele>27.000000000000004</ele><time>2026-04-17T17:55:44.807Z</time></trkpt><trkpt lat="53.22576468212712" lon="14.572682798738665"><ele>27.0</ele><time>2026-04-17T17:55:45.807Z</time></trkpt><trkpt lat="53.225662968290834" lon="14.572678930475188"><ele>27.0</ele><time>2026-04-17T17:55:46.807Z</time></trkpt><trkpt lat="53.22556055009908" lon="14.572679267311578"><ele>27.0</ele><time>2026-04-17T17:55:47.807Z</time></trkpt><trkpt lat="53.225450903848724" lon="14.572673273686453"><ele>27.0</ele><time>2026-04-17T17:55:48.807Z</time></trkpt><trkpt lat="53.22534324941742" lon="14.572672282989766"><ele>27.0</ele><time>2026-04-17T17:55:49.807Z</time></trkpt><trkpt lat="53.2252233511758" lon="14.572661997560898"><ele>27.0</ele><time>2026-04-17T17:55:50.807Z</time></trkpt><trkpt lat="53.22509676553874" lon="14.572647811699019"><ele>27.0</ele><time>2026-04-17T17:55:51.807Z</time></trkpt><trkpt lat="53.224960455338184" lon="14.572634573332758"><ele>27.0</ele><time>2026-04-17T17:55:52.807Z</time></trkpt><trkpt lat="53.22483087206875" lon="14.57260400892772"><ele>27.0</ele><time>2026-04-17T17:55:53.807Z</time></trkpt><trkpt lat="53.224711214315896" lon="14.572553854159965"><ele>27.0</ele><time>2026-04-17T17:55:54.807Z</time></trkpt><trkpt lat="53.22458105417053" lon="14.57253147451002"><ele>27.5</ele><time>2026-04-17T17:55:55.807Z</time></trkpt><trkpt lat="53.22444852338448" lon="14.572507016883332"><ele>28.0</ele><time>2026-04-17T17:55:56.807Z</time></trkpt><trkpt lat="53.2243268930758" lon="14.572470110539458"><ele>28.5</ele><time>2026-04-17T17:55:57.807Z</time></trkpt><trkpt lat="53.22421203160337" lon="14.572448194593951"><ele>29.0</ele><time>2026-04-17T17:55:58.807Z</time></trkpt><trkpt lat="53.22410108495313" lon="14.572459181304794"><ele>29.0</ele><time>2026-04-17T17:55:59.807Z</time></trkpt><trkpt lat="53.22399504416094" lon="14.572532116794024"><ele>29.0</ele><time>2026-04-17T17:56:00.807Z</time></trkpt><trkpt lat="53.223899166468115" lon="14.572607371697528"><ele>29.0</ele><time>2026-04-17T17:56:01.807Z</time></trkpt><trkpt lat="53.223801819483164" lon="14.57267233829369"><ele>29.0</ele><time>2026-04-17T17:56:02.807Z</time></trkpt><trkpt lat="53.22368415051586" lon="14.572728566118764"><ele>29.0</ele><time>2026-04-17T17:56:03.807Z</time></trkpt><trkpt lat="53.22356154554116" lon="14.572847709415877"><ele>29.4</ele><time>2026-04-17T17:56:04.807Z</time></trkpt><trkpt lat="53.22345388363839" lon="14.57292674878406"><ele>29.799999999999997</ele><time>2026-04-17T17:56:05.807Z</time></trkpt><trkpt lat="53.22335623032759" lon="14.57299436460494"><ele>30.200000000000003</ele><time>2026-04-17T17:56:06.807Z</time></trkpt><trkpt lat="53.22325582317202" lon="14.573054841835432"><ele>30.6</ele><time>2026-04-17T17:56:07.807Z</time></trkpt><trkpt lat="53.22315602927087" lon="14.573104284842046"><ele>31.0</ele><time>2026-04-17T17:56:08.807Z</time></trkpt><trkpt lat="53.22306303259949" lon="14.573140066750826"><ele>31.28571428571429</ele><time>2026-04-17T17:56:09.807Z</time></trkpt><trkpt lat="53.22297240188168" lon="14.57315222247884"><ele>31.571428571428577</ele><time>2026-04-17T17:56:10.807Z</time></trkpt><trkpt lat="53.22290155921733" lon="14.57315886939796"><ele>31.857142857142858</ele><time>2026-04-17T17:56:11.807Z</time></trkpt><trkpt lat="53.22283841232766" lon="14.573091485715016"><ele>32.142857142857146</ele><time>2026-04-17T17:56:12.807Z</time></trkpt><trkpt lat="53.22279838672328" lon="14.573010295495365"><ele>32.42857142857143</ele><time>2026-04-17T17:56:13.807Z</time></trkpt><trkpt lat="53.22277374052208" lon="14.572896063653895"><ele>32.714285714285715</ele><time>2026-04-17T17:56:14.807Z</time></trkpt><trkpt lat="53.2227631667528" lon="14.572769801462655"><ele>33.0</ele><time>2026-04-17T17:56:15.807Z</time></trkpt><trkpt lat="53.2227240908339" lon="14.572653710614183"><ele>33.6</ele><time>2026-04-17T17:56:16.807Z</time></trkpt><trkpt lat="53.22270359985732" lon="14.572513522896331"><ele>34.199999999999996</ele><time>2026-04-17T17:56:17.807Z</time></trkpt><trkpt lat="53.22267014689341" lon="14.57234880264713"><ele>34.8</ele><time>2026-04-17T17:56:18.806Z</time></trkpt><trkpt lat="53.2226542539411" lon="14.57215534722808"><ele>35.4</ele><time>2026-04-17T17:56:19.806Z</time></trkpt><trkpt lat="53.22262451098825" lon="14.571969435996383"><ele>36.0</ele><time>2026-04-17T17:56:20.806Z</time></trkpt><trkpt lat="53.22259781012268" lon="14.57179518577936"><ele>36.0</ele><time>2026-04-17T17:56:21.806Z</time></trkpt><trkpt lat="53.22257290812195" lon="14.571621418778232"><ele>36.0</ele><time>2026-04-17T17:56:22.806Z</time></trkpt><trkpt lat="53.22254004749829" lon="14.571486807750532"><ele>36.0</ele><time>2026-04-17T17:56:23.806Z</time></trkpt><trkpt lat="53.222543664498914" lon="14.571374949892132"><ele>36.0</ele><time>2026-04-17T17:56:24.806Z</time></trkpt><trkpt lat="53.22251736129878" lon="14.571276441639617"><ele>36.0</ele><time>2026-04-17T17:56:25.806Z</time></trkpt><trkpt lat="53.22250353438294" lon="14.571161385084025"><ele>36.0</ele><time>2026-04-17T17:56:27.806Z</time></trkpt><trkpt lat="53.22247554513834" lon="14.571058482607242"><ele>35.2</ele><time>2026-04-17T17:56:30.806Z</time></trkpt><trkpt lat="53.222530825202945" lon="14.5709975577625"><ele>34.400000000000006</ele><time>2026-04-17T17:56:31.806Z</time></trkpt><trkpt lat="53.222599342598606" lon="14.570821425752918"><ele>33.6</ele><time>2026-04-17T17:56:33.806Z</time></trkpt><trkpt lat="53.222642897227125" lon="14.570708865549527"><ele>32.800000000000004</ele><time>2026-04-17T17:56:34.806Z</time></trkpt><trkpt lat="53.22267653655839" lon="14.570571991530867"><ele>32.0</ele><time>2026-04-17T17:56:35.806Z</time></trkpt><trkpt lat="53.22274806658278" lon="14.570417863158141"><ele>30.75</ele><time>2026-04-17T17:56:36.806Z</time></trkpt><trkpt lat="53.22280738115902" lon="14.570262483570799"><ele>29.5</ele><time>2026-04-17T17:56:37.806Z</time></trkpt><trkpt lat="53.22286884164844" lon="14.5701106634315"><ele>28.25</ele><time>2026-04-17T17:56:38.806Z</time></trkpt><trkpt lat="53.222934505558406" lon="14.56994560598969"><ele>27.0</ele><time>2026-04-17T17:56:39.806Z</time></trkpt><trkpt lat="53.223001224241386" lon="14.569779448586711"><ele>27.0</ele><time>2026-04-17T17:56:40.806Z</time></trkpt><trkpt lat="53.223065282212005" lon="14.569596934780487"><ele>27.0</ele><time>2026-04-17T17:56:41.806Z</time></trkpt><trkpt lat="53.22313512440842" lon="14.569403853687646"><ele>27.0</ele><time>2026-04-17T17:56:42.806Z</time></trkpt><trkpt lat="53.22320382667796" lon="14.569201251026644"><ele>27.0</ele><time>2026-04-17T17:56:43.806Z</time></trkpt><trkpt lat="53.22328614011001" lon="14.569001650765808"><ele>27.666666666666664</ele><time>2026-04-17T17:56:44.806Z</time></trkpt><trkpt lat="53.22337083733796" lon="14.568784486082825"><ele>28.333333333333332</ele><time>2026-04-17T17:56:45.806Z</time></trkpt><trkpt lat="53.22346789458128" lon="14.568569703650393"><ele>29.0</ele><time>2026-04-17T17:56:46.806Z</time></trkpt><trkpt lat="53.22355939172785" lon="14.568332020081495"><ele>29.0</ele><time>2026-04-17T17:56:47.806Z</time></trkpt><trkpt lat="53.22366410218596" lon="14.56810257340628"><ele>29.0</ele><time>2026-04-17T17:56:48.806Z</time></trkpt><trkpt lat="53.223750430775205" lon="14.567842658460368"><ele>29.0</ele><time>2026-04-17T17:56:49.806Z</time></trkpt><trkpt lat="53.22384528700232" lon="14.567592567860245"><ele>29.0</ele><time>2026-04-17T17:56:50.806Z</time></trkpt><trkpt lat="53.22395237935039" lon="14.567357735394006"><ele>29.0</ele><time>2026-04-17T17:56:51.806Z</time></trkpt><trkpt lat="53.224050530030496" lon="14.567085986620247"><ele>29.0</ele><time>2026-04-17T17:56:52.806Z</time></trkpt><trkpt lat="53.22414102420507" lon="14.566795047349533"><ele>29.666666666666664</ele><time>2026-04-17T17:56:53.806Z</time></trkpt><trkpt lat="53.22421905323519" lon="14.566489884903746"><ele>30.333333333333336</ele><time>2026-04-17T17:56:54.806Z</time></trkpt><trkpt lat="53.22428719242576" lon="14.566172330006673"><ele>31.0</ele><time>2026-04-17T17:56:55.806Z</time></trkpt><trkpt lat="53.22436617643017" lon="14.565862344555576"><ele>31.0</ele><time>2026-04-17T17:56:56.806Z</time></trkpt><trkpt lat="53.22445642717358" lon="14.56554746345701"><ele>31.0</ele><time>2026-04-17T17:56:57.806Z</time></trkpt><trkpt lat="53.22454702889526" lon="14.565222615526919"><ele>31.0</ele><time>2026-04-17T17:56:58.806Z</time></trkpt><trkpt lat="53.224635736520504" lon="14.564902599342526"><ele>31.0</ele><time>2026-04-17T17:56:59.806Z</time></trkpt><trkpt lat="53.22472130953203" lon="14.564572807436356"><ele>31.0</ele><time>2026-04-17T17:57:00.806Z</time></trkpt><trkpt lat="53.2248039573665" lon="14.564238690356158"><ele>31.0</ele><time>2026-04-17T17:57:01.806Z</time></trkpt><trkpt lat="53.2248805638185" lon="14.563896639409132"><ele>32.66666666666667</ele><time>2026-04-17T17:57:02.806Z</time></trkpt><trkpt lat="53.224950536719" lon="14.563545486014036"><ele>34.333333333333336</ele><time>2026-04-17T17:57:03.805Z</time></trkpt><trkpt lat="53.225005778850324" lon="14.563193656549727"><ele>36.0</ele><time>2026-04-17T17:57:04.805Z</time></trkpt><trkpt lat="53.22506455884757" lon="14.562837229525792"><ele>36.0</ele><time>2026-04-17T17:57:05.805Z</time></trkpt><trkpt lat="53.22512908751324" lon="14.562487289852468"><ele>36.0</ele><time>2026-04-17T17:57:06.805Z</time></trkpt><trkpt lat="53.22519511265162" lon="14.5621384863253"><ele>36.0</ele><time>2026-04-17T17:57:07.805Z</time></trkpt><trkpt lat="53.22526215499487" lon="14.561792745123523"><ele>35.666666666666664</ele><time>2026-04-17T17:57:08.805Z</time></trkpt><trkpt lat="53.225331165645194" lon="14.561439352356265"><ele>35.33333333333333</ele><time>2026-04-17T17:57:09.805Z</time></trkpt><trkpt lat="53.22542441224512" lon="14.561124603583252"><ele>35.0</ele><time>2026-04-17T17:57:10.805Z</time></trkpt><trkpt lat="53.22553060249113" lon="14.560820055926039"><ele>36.666666666666664</ele><time>2026-04-17T17:57:11.805Z</time></trkpt><trkpt lat="53.225652921622554" lon="14.560531506915689"><ele>38.333333333333336</ele><time>2026-04-17T17:57:12.805Z</time></trkpt><trkpt lat="53.22580790599284" lon="14.560275631528965"><ele>40.0</ele><time>2026-04-17T17:57:13.804Z</time></trkpt><trkpt lat="53.225963615850226" lon="14.560034834367094"><ele>40.0</ele><time>2026-04-17T17:57:14.804Z</time></trkpt><trkpt lat="53.22609610418988" lon="14.559767599848213"><ele>40.0</ele><time>2026-04-17T17:57:15.805Z</time></trkpt><trkpt lat="53.226233645079276" lon="14.559519938843145"><ele>40.0</ele><time>2026-04-17T17:57:16.805Z</time></trkpt><trkpt lat="53.22636812957737" lon="14.559230203257396"><ele>40.333333333333336</ele><time>2026-04-17T17:57:17.805Z</time></trkpt><trkpt lat="53.22649601877296" lon="14.558932679652502"><ele>40.666666666666664</ele><time>2026-04-17T17:57:18.805Z</time></trkpt><trkpt lat="53.22662649277943" lon="14.558622075092126"><ele>41.0</ele><time>2026-04-17T17:57:19.805Z</time></trkpt><trkpt lat="53.226753180494185" lon="14.55830624840419"><ele>40.0</ele><time>2026-04-17T17:57:20.805Z</time></trkpt><trkpt lat="53.22687874671553" lon="14.557977900963957"><ele>39.0</ele><time>2026-04-17T17:57:21.805Z</time></trkpt><trkpt lat="53.227007289241406" lon="14.557642967595113"><ele>38.0</ele><time>2026-04-17T17:57:22.805Z</time></trkpt><trkpt lat="53.22713836329268" lon="14.557301380130815"><ele>37.0</ele><time>2026-04-17T17:57:23.805Z</time></trkpt><trkpt lat="53.227276765046035" lon="14.556988807092718"><ele>36.0</ele><time>2026-04-17T17:57:24.805Z</time></trkpt><trkpt lat="53.2273984707688" lon="14.556675343642945"><ele>35.0</ele><time>2026-04-17T17:57:25.805Z</time></trkpt><trkpt lat="53.22751706526362" lon="14.556367600161934"><ele>34.0</ele><time>2026-04-17T17:57:26.805Z</time></trkpt><trkpt lat="53.227631665065715" lon="14.55608374134896"><ele>33.0</ele><time>2026-04-17T17:57:27.805Z</time></trkpt><trkpt lat="53.227738840916004" lon="14.555801542204096"><ele>32.0</ele><time>2026-04-17T17:57:28.805Z</time></trkpt><trkpt lat="53.22788727930431" lon="14.555552581966584"><ele>31.0</ele><time>2026-04-17T17:57:29.805Z</time></trkpt><trkpt lat="53.22802656357358" lon="14.55529849845835"><ele>30.5</ele><time>2026-04-17T17:57:30.804Z</time></trkpt><trkpt lat="53.22818754942071" lon="14.555012453073607"><ele>30.0</ele><time>2026-04-17T17:57:31.804Z</time></trkpt><trkpt lat="53.22833179217393" lon="14.554726303023571"><ele>29.0</ele><time>2026-04-17T17:57:32.804Z</time></trkpt><trkpt lat="53.22848984845077" lon="14.554463687815836"><ele>28.0</ele><time>2026-04-17T17:57:33.804Z</time></trkpt><trkpt lat="53.22866356984433" lon="14.55421426332504"><ele>28.0</ele><time>2026-04-17T17:57:34.804Z</time></trkpt><trkpt lat="53.22882590892302" lon="14.55394948445938"><ele>28.0</ele><time>2026-04-17T17:57:35.804Z</time></trkpt><trkpt lat="53.22897727664821" lon="14.553665741726352"><ele>27.5</ele><time>2026-04-17T17:57:36.804Z</time></trkpt><trkpt lat="53.22914495731698" lon="14.553394365552945"><ele>27.0</ele><time>2026-04-17T17:57:37.804Z</time></trkpt><trkpt lat="53.22931354428511" lon="14.553131635719998"><ele>28.5</ele><time>2026-04-17T17:57:38.804Z</time></trkpt><trkpt lat="53.2294936103096" lon="14.55286648331795"><ele>30.0</ele><time>2026-04-17T17:57:39.804Z</time></trkpt><trkpt lat="53.22965894550325" lon="14.552594864926425"><ele>26.0</ele><time>2026-04-17T17:57:40.804Z</time></trkpt><trkpt lat="53.229810069553245" lon="14.55230866610785"><ele>22.0</ele><time>2026-04-17T17:57:41.804Z</time></trkpt><trkpt lat="53.22996838757713" lon="14.552041295340416"><ele>21.666666666666664</ele><time>2026-04-17T17:57:42.804Z</time></trkpt><trkpt lat="53.23011978707134" lon="14.551796747959473"><ele>21.333333333333332</ele><time>2026-04-17T17:57:43.804Z</time></trkpt><trkpt lat="53.230263719989765" lon="14.551563252299044"><ele>21.0</ele><time>2026-04-17T17:57:44.804Z</time></trkpt><trkpt lat="53.23039596269541" lon="14.551358505058467"><ele>21.0</ele><time>2026-04-17T17:57:45.804Z</time></trkpt><trkpt lat="53.23050243826074" lon="14.551141178458389"><ele>21.0</ele><time>2026-04-17T17:57:46.804Z</time></trkpt><trkpt lat="53.23057043012243" lon="14.55091340332861"><ele>21.0</ele><time>2026-04-17T17:57:47.804Z</time></trkpt><trkpt lat="53.23061142275512" lon="14.550680805732338"><ele>21.0</ele><time>2026-04-17T17:57:48.804Z</time></trkpt><trkpt lat="53.230613210909254" lon="14.550448545415376"><ele>21.0</ele><time>2026-04-17T17:57:49.804Z</time></trkpt><trkpt lat="53.23057980707322" lon="14.55018676945967"><ele>21.0</ele><time>2026-04-17T17:57:50.804Z</time></trkpt><trkpt lat="53.230525662949766" lon="14.549906172475621"><ele>21.666666666666668</ele><time>2026-04-17T17:57:51.804Z</time></trkpt><trkpt lat="53.230461365470795" lon="14.549626797297979"><ele>22.333333333333336</ele><time>2026-04-17T17:57:52.804Z</time></trkpt><trkpt lat="53.23040662785262" lon="14.549335073925558"><ele>23.0</ele><time>2026-04-17T17:57:53.804Z</time></trkpt><trkpt lat="53.23035747913799" lon="14.549031305291539"><ele>23.0</ele><time>2026-04-17T17:57:54.804Z</time></trkpt><trkpt lat="53.23030887798751" lon="14.54871167163116"><ele>23.0</ele><time>2026-04-17T17:57:55.804Z</time></trkpt><trkpt lat="53.230266159122735" lon="14.5483883693411"><ele>23.0</ele><time>2026-04-17T17:57:56.804Z</time></trkpt><trkpt lat="53.23028944518846" lon="14.548071021385233"><ele>23.0</ele><time>2026-04-17T17:57:57.804Z</time></trkpt><trkpt lat="53.230310251494565" lon="14.547753346482574"><ele>23.0</ele><time>2026-04-17T17:57:58.804Z</time></trkpt><trkpt lat="53.23032987984084" lon="14.547395330141894"><ele>23.0</ele><time>2026-04-17T17:57:59.804Z</time></trkpt><trkpt lat="53.2303408840652" lon="14.547051566772524"><ele>25.666666666666668</ele><time>2026-04-17T17:58:00.804Z</time></trkpt><trkpt lat="53.23036402897172" lon="14.546708494404818"><ele>28.333333333333336</ele><time>2026-04-17T17:58:01.804Z</time></trkpt><trkpt lat="53.23038035930608" lon="14.54635863323777"><ele>31.0</ele><time>2026-04-17T17:58:02.804Z</time></trkpt><trkpt lat="53.23038309297031" lon="14.546005925402596"><ele>33.333333333333336</ele><time>2026-04-17T17:58:03.804Z</time></trkpt><trkpt lat="53.23041422127573" lon="14.54567356457864"><ele>35.666666666666664</ele><time>2026-04-17T17:58:04.804Z</time></trkpt><trkpt lat="53.23046350037229" lon="14.54532446772239"><ele>38.0</ele><time>2026-04-17T17:58:05.804Z</time></trkpt><trkpt lat="53.230534838121564" lon="14.544976909067147"><ele>38.5</ele><time>2026-04-17T17:58:06.804Z</time></trkpt><trkpt lat="53.23062325792891" lon="14.544609026301659"><ele>39.0</ele><time>2026-04-17T17:58:07.804Z</time></trkpt><trkpt lat="53.23070896934948" lon="14.544245108016678"><ele>39.5</ele><time>2026-04-17T17:58:08.804Z</time></trkpt><trkpt lat="53.23080845843808" lon="14.54389407347094"><ele>40.0</ele><time>2026-04-17T17:58:09.804Z</time></trkpt><trkpt lat="53.230922075961104" lon="14.54356327370796"><ele>40.0</ele><time>2026-04-17T17:58:10.804Z</time></trkpt><trkpt lat="53.231047165350525" lon="14.543249449399577"><ele>40.0</ele><time>2026-04-17T17:58:11.804Z</time></trkpt><trkpt lat="53.2311778805685" lon="14.542934208781015"><ele>41.0</ele><time>2026-04-17T17:58:12.804Z</time></trkpt><trkpt lat="53.23130116421182" lon="14.542607374767817"><ele>42.0</ele><time>2026-04-17T17:58:13.804Z</time></trkpt><trkpt lat="53.231425563816984" lon="14.542290150853052"><ele>42.333333333333336</ele><time>2026-04-17T17:58:14.804Z</time></trkpt><trkpt lat="53.23154381016563" lon="14.541966635347015"><ele>42.66666666666667</ele><time>2026-04-17T17:58:15.804Z</time></trkpt><trkpt lat="53.23164891155468" lon="14.541640564968427"><ele>43.0</ele><time>2026-04-17T17:58:16.804Z</time></trkpt><trkpt lat="53.23171640537774" lon="14.541302249118917"><ele>43.0</ele><time>2026-04-17T17:58:17.804Z</time></trkpt><trkpt lat="53.231762728847045" lon="14.54095191398474"><ele>43.0</ele><time>2026-04-17T17:58:18.804Z</time></trkpt><trkpt lat="53.23178627447177" lon="14.540595702801244"><ele>43.0</ele><time>2026-04-17T17:58:19.804Z</time></trkpt><trkpt lat="53.23181920102736" lon="14.540239352734629"><ele>43.0</ele><time>2026-04-17T17:58:20.804Z</time></trkpt><trkpt lat="53.2318663380818" lon="14.539875827079486"><ele>43.0</ele><time>2026-04-17T17:58:21.804Z</time></trkpt><trkpt lat="53.23194083113917" lon="14.53951072557242"><ele>43.0</ele><time>2026-04-17T17:58:22.804Z</time></trkpt><trkpt lat="53.23203343059827" lon="14.539156084711642"><ele>43.0</ele><time>2026-04-17T17:58:23.804Z</time></trkpt><trkpt lat="53.23212546799831" lon="14.538807045494668"><ele>45.0</ele><time>2026-04-17T17:58:24.804Z</time></trkpt><trkpt lat="53.23220777259084" lon="14.538426652142615"><ele>47.0</ele><time>2026-04-17T17:58:25.804Z</time></trkpt><trkpt lat="53.23230704724079" lon="14.538066393089117"><ele>42.0</ele><time>2026-04-17T17:58:26.804Z</time></trkpt><trkpt lat="53.23242743032144" lon="14.53773236936995"><ele>37.0</ele><time>2026-04-17T17:58:27.804Z</time></trkpt><trkpt lat="53.23254580918591" lon="14.537407677347204"><ele>37.0</ele><time>2026-04-17T17:58:28.804Z</time></trkpt><trkpt lat="53.23265736054643" lon="14.537069883003666"><ele>37.0</ele><time>2026-04-17T17:58:29.804Z</time></trkpt><trkpt lat="53.23273996868362" lon="14.536707906147964"><ele>37.333333333333336</ele><time>2026-04-17T17:58:30.804Z</time></trkpt><trkpt lat="53.23279446500165" lon="14.536337953786331"><ele>37.666666666666664</ele><time>2026-04-17T17:58:31.804Z</time></trkpt><trkpt lat="53.232821899867" lon="14.535974461496915"><ele>38.0</ele><time>2026-04-17T17:58:32.804Z</time></trkpt><trkpt lat="53.23281720307875" lon="14.535596745012148"><ele>39.0</ele><time>2026-04-17T17:58:33.804Z</time></trkpt><trkpt lat="53.23280403306901" lon="14.535226473906674"><ele>40.0</ele><time>2026-04-17T17:58:34.804Z</time></trkpt><trkpt lat="53.23281745605174" lon="14.534867424711472"><ele>41.0</ele><time>2026-04-17T17:58:35.804Z</time></trkpt><trkpt lat="53.2328638986683" lon="14.534508151325007"><ele>42.33333333333333</ele><time>2026-04-17T17:58:36.804Z</time></trkpt><trkpt lat="53.23291764589991" lon="14.534158296091999"><ele>43.666666666666664</ele><time>2026-04-17T17:58:37.804Z</time></trkpt><trkpt lat="53.232963230703426" lon="14.533818103886539"><ele>45.0</ele><time>2026-04-17T17:58:38.804Z</time></trkpt><trkpt lat="53.23300459678056" lon="14.5334871634323"><ele>46.0</ele><time>2026-04-17T17:58:39.804Z</time></trkpt><trkpt lat="53.233040186163734" lon="14.533173431065824"><ele>47.0</ele><time>2026-04-17T17:58:40.804Z</time></trkpt><trkpt lat="53.233071041983166" lon="14.53284918173816"><ele>48.0</ele><time>2026-04-17T17:58:41.804Z</time></trkpt><trkpt lat="53.233100911311126" lon="14.53253331204919"><ele>48.66666666666667</ele><time>2026-04-17T17:58:42.804Z</time></trkpt><trkpt lat="53.23314810519662" lon="14.532216681210317"><ele>49.333333333333336</ele><time>2026-04-17T17:58:43.804Z</time></trkpt><trkpt lat="53.2332110632114" lon="14.531884532746743"><ele>50.0</ele><time>2026-04-17T17:58:44.804Z</time></trkpt><trkpt lat="53.23328113163442" lon="14.531573330439487"><ele>49.66666666666667</ele><time>2026-04-17T17:58:45.804Z</time></trkpt><trkpt lat="53.23335148739102" lon="14.531268843105538"><ele>49.33333333333333</ele><time>2026-04-17T17:58:46.804Z</time></trkpt><trkpt lat="53.233408565531136" lon="14.53096800261276"><ele>49.0</ele><time>2026-04-17T17:58:47.804Z</time></trkpt><trkpt lat="53.23346686481475" lon="14.53069885770688"><ele>49.0</ele><time>2026-04-17T17:58:48.804Z</time></trkpt><trkpt lat="53.23352449729302" lon="14.530427437440771"><ele>49.0</ele><time>2026-04-17T17:58:49.804Z</time></trkpt><trkpt lat="53.23357721072042" lon="14.5301685911619"><ele>49.0</ele><time>2026-04-17T17:58:50.804Z</time></trkpt><trkpt lat="53.23363227965325" lon="14.52989097445833"><ele>48.0</ele><time>2026-04-17T17:58:51.804Z</time></trkpt><trkpt lat="53.23367195823878" lon="14.529597121650339"><ele>47.0</ele><time>2026-04-17T17:58:52.804Z</time></trkpt><trkpt lat="53.23370015215562" lon="14.529286843411091"><ele>46.0</ele><time>2026-04-17T17:58:53.804Z</time></trkpt><trkpt lat="53.23371707085858" lon="14.528978358630438"><ele>46.333333333333336</ele><time>2026-04-17T17:58:54.804Z</time></trkpt><trkpt lat="53.23372495015856" lon="14.52865533233839"><ele>46.666666666666664</ele><time>2026-04-17T17:58:55.804Z</time></trkpt><trkpt lat="53.23373270033031" lon="14.528328980128334"><ele>47.0</ele><time>2026-04-17T17:58:56.804Z</time></trkpt><trkpt lat="53.23374015070592" lon="14.52804057834557"><ele>46.75</ele><time>2026-04-17T17:58:57.804Z</time></trkpt><trkpt lat="53.233750971827206" lon="14.527770395313548"><ele>46.5</ele><time>2026-04-17T17:58:58.804Z</time></trkpt><trkpt lat="53.233753672092206" lon="14.527541360958848"><ele>46.25</ele><time>2026-04-17T17:58:59.804Z</time></trkpt><trkpt lat="53.233764471563866" lon="14.52735014514433"><ele>46.0</ele><time>2026-04-17T17:59:00.804Z</time></trkpt><trkpt lat="53.23377073448376" lon="14.527183859323415"><ele>45.8</ele><time>2026-04-17T17:59:01.804Z</time></trkpt><trkpt lat="53.233778158877804" lon="14.527052801108642"><ele>45.599999999999994</ele><time>2026-04-17T17:59:02.804Z</time></trkpt><trkpt lat="53.233794333173435" lon="14.526883958877924"><ele>45.4</ele><time>2026-04-17T17:59:04.804Z</time></trkpt><trkpt lat="53.23379508476272" lon="14.52677354973097"><ele>45.2</ele><time>2026-04-17T17:59:28.802Z</time></trkpt><trkpt lat="53.23379241384271" lon="14.526512258257037"><ele>45.0</ele><time>2026-04-17T17:59:30.802Z</time></trkpt><trkpt lat="53.23380486621479" lon="14.526332401441604"><ele>45.0</ele><time>2026-04-17T17:59:31.802Z</time></trkpt><trkpt lat="53.23380566774262" lon="14.526135905664994"><ele>45.0</ele><time>2026-04-17T17:59:32.802Z</time></trkpt><trkpt lat="53.23382212382795" lon="14.525916710091655"><ele>45.0</ele><time>2026-04-17T17:59:33.802Z</time></trkpt><trkpt lat="53.233825318281255" lon="14.525692276788332"><ele>45.0</ele><time>2026-04-17T17:59:34.802Z</time></trkpt><trkpt lat="53.23384020070459" lon="14.525438046955014"><ele>44.666666666666664</ele><time>2026-04-17T17:59:35.802Z</time></trkpt><trkpt lat="53.233852006593814" lon="14.52517381957313"><ele>44.33333333333333</ele><time>2026-04-17T17:59:36.802Z</time></trkpt><trkpt lat="53.23385995111033" lon="14.524879542251812"><ele>44.0</ele><time>2026-04-17T17:59:37.802Z</time></trkpt><trkpt lat="53.23386397099388" lon="14.524571253893052"><ele>44.33333333333333</ele><time>2026-04-17T17:59:38.802Z</time></trkpt><trkpt lat="53.23387680743739" lon="14.524248563428714"><ele>44.666666666666664</ele><time>2026-04-17T17:59:39.802Z</time></trkpt><trkpt lat="53.23388962227845" lon="14.52391296227147"><ele>45.0</ele><time>2026-04-17T17:59:40.802Z</time></trkpt><trkpt lat="53.233889959552606" lon="14.523572681989661"><ele>45.333333333333336</ele><time>2026-04-17T17:59:41.802Z</time></trkpt><trkpt lat="53.23388334278995" lon="14.523220938166796"><ele>45.66666666666667</ele><time>2026-04-17T17:59:42.802Z</time></trkpt><trkpt lat="53.23387503245839" lon="14.522842960443608"><ele>46.0</ele><time>2026-04-17T17:59:43.802Z</time></trkpt><trkpt lat="53.23386620347747" lon="14.522455212277201"><ele>46.0</ele><time>2026-04-17T17:59:44.802Z</time></trkpt><trkpt lat="53.23385365394123" lon="14.522066748315188"><ele>46.0</ele><time>2026-04-17T17:59:45.802Z</time></trkpt><trkpt lat="53.23385177325687" lon="14.52168489026279"><ele>44.66666666666667</ele><time>2026-04-17T17:59:46.802Z</time></trkpt><trkpt lat="53.23384670793894" lon="14.52134067880904"><ele>43.333333333333336</ele><time>2026-04-17T17:59:47.802Z</time></trkpt><trkpt lat="53.23383985688147" lon="14.52101254432965"><ele>42.0</ele><time>2026-04-17T17:59:48.802Z</time></trkpt><trkpt lat="53.23382776337134" lon="14.520699749032255"><ele>40.333333333333336</ele><time>2026-04-17T17:59:49.802Z</time></trkpt><trkpt lat="53.23381872493431" lon="14.520400704581196"><ele>38.66666666666667</ele><time>2026-04-17T17:59:50.802Z</time></trkpt><trkpt lat="53.23381348453967" lon="14.520124429346506"><ele>37.0</ele><time>2026-04-17T17:59:51.802Z</time></trkpt><trkpt lat="53.233801994636124" lon="14.519834814389892"><ele>36.0</ele><time>2026-04-17T17:59:52.802Z</time></trkpt><trkpt lat="53.23381042233387" lon="14.519560326975942"><ele>35.0</ele><time>2026-04-17T17:59:53.802Z</time></trkpt><trkpt lat="53.23381002303026" lon="14.519299958080781"><ele>34.0</ele><time>2026-04-17T17:59:54.802Z</time></trkpt><trkpt lat="53.233816757921545" lon="14.519068170352199"><ele>34.0</ele><time>2026-04-17T17:59:55.802Z</time></trkpt><trkpt lat="53.233842246978256" lon="14.518851221679588"><ele>34.0</ele><time>2026-04-17T17:59:56.802Z</time></trkpt><trkpt lat="53.23389178463949" lon="14.518634379209654"><ele>34.0</ele><time>2026-04-17T17:59:57.802Z</time></trkpt><trkpt lat="53.23396667168125" lon="14.51841136693234"><ele>34.0</ele><time>2026-04-17T17:59:58.802Z</time></trkpt><trkpt lat="53.23410182913711" lon="14.518256025776873"><ele>34.0</ele><time>2026-04-17T17:59:59.802Z</time></trkpt><trkpt lat="53.23423330005396" lon="14.518093645987381"><ele>34.0</ele><time>2026-04-17T18:00:00.802Z</time></trkpt><trkpt lat="53.23436440344336" lon="14.517911033496864"><ele>34.0</ele><time>2026-04-17T18:00:01.802Z</time></trkpt><trkpt lat="53.23451270650206" lon="14.517739672007654"><ele>33.66666666666667</ele><time>2026-04-17T18:00:02.802Z</time></trkpt><trkpt lat="53.23466384254411" lon="14.517567937318661"><ele>33.333333333333336</ele><time>2026-04-17T18:00:03.802Z</time></trkpt><trkpt lat="53.23481350312977" lon="14.517391615012611"><ele>33.0</ele><time>2026-04-17T18:00:04.802Z</time></trkpt><trkpt lat="53.23496381378944" lon="14.51720462898513"><ele>32.333333333333336</ele><time>2026-04-17T18:00:05.802Z</time></trkpt><trkpt lat="53.235113204817154" lon="14.517025779754654"><ele>31.666666666666668</ele><time>2026-04-17T18:00:06.802Z</time></trkpt><trkpt lat="53.23526320967497" lon="14.516846909105388"><ele>31.0</ele><time>2026-04-17T18:00:07.802Z</time></trkpt><trkpt lat="53.23541201527803" lon="14.516671009513663"><ele>31.0</ele><time>2026-04-17T18:00:08.802Z</time></trkpt><trkpt lat="53.23556126128428" lon="14.516498850095825"><ele>31.0</ele><time>2026-04-17T18:00:09.802Z</time></trkpt><trkpt lat="53.23570575986299" lon="14.51632300702615"><ele>31.0</ele><time>2026-04-17T18:00:10.802Z</time></trkpt><trkpt lat="53.23585194624253" lon="14.516134627857124"><ele>32.66666666666667</ele><time>2026-04-17T18:00:11.802Z</time></trkpt><trkpt lat="53.235999324772685" lon="14.515938770528955"><ele>34.333333333333336</ele><time>2026-04-17T18:00:12.802Z</time></trkpt><trkpt lat="53.23613877578375" lon="14.515729464662943"><ele>36.0</ele><time>2026-04-17T18:00:13.802Z</time></trkpt><trkpt lat="53.23627560779697" lon="14.515499906463344"><ele>36.0</ele><time>2026-04-17T18:00:14.802Z</time></trkpt><trkpt lat="53.2364148883677" lon="14.515256353861773"><ele>36.0</ele><time>2026-04-17T18:00:15.802Z</time></trkpt><trkpt lat="53.23655956392086" lon="14.5150127007544"><ele>36.0</ele><time>2026-04-17T18:00:16.802Z</time></trkpt><trkpt lat="53.236707208067635" lon="14.514765202982856"><ele>36.666666666666664</ele><time>2026-04-17T18:00:17.802Z</time></trkpt><trkpt lat="53.23685921278303" lon="14.51451260759971"><ele>37.33333333333333</ele><time>2026-04-17T18:00:18.802Z</time></trkpt><trkpt lat="53.23700766466112" lon="14.5142617642502"><ele>38.0</ele><time>2026-04-17T18:00:19.802Z</time></trkpt><trkpt lat="53.23716083542198" lon="14.514012434863883"><ele>37.666666666666664</ele><time>2026-04-17T18:00:20.802Z</time></trkpt><trkpt lat="53.237312847632325" lon="14.513754066057805"><ele>37.333333333333336</ele><time>2026-04-17T18:00:21.802Z</time></trkpt><trkpt lat="53.237468230522424" lon="14.513491743208146"><ele>37.0</ele><time>2026-04-17T18:00:22.802Z</time></trkpt><trkpt lat="53.23762146718235" lon="14.513227744059023"><ele>37.0</ele><time>2026-04-17T18:00:23.802Z</time></trkpt><trkpt lat="53.23777756212306" lon="14.512965241071655"><ele>37.0</ele><time>2026-04-17T18:00:24.802Z</time></trkpt><trkpt lat="53.237934253440415" lon="14.512710076883861"><ele>37.0</ele><time>2026-04-17T18:00:25.802Z</time></trkpt><trkpt lat="53.238090579388874" lon="14.512440266813494"><ele>36.5</ele><time>2026-04-17T18:00:26.802Z</time></trkpt><trkpt lat="53.23825406256801" lon="14.512174383189793"><ele>36.0</ele><time>2026-04-17T18:00:27.802Z</time></trkpt><trkpt lat="53.23841724935197" lon="14.51191615538668"><ele>36.0</ele><time>2026-04-17T18:00:28.802Z</time></trkpt><trkpt lat="53.23857586987953" lon="14.511641029536687"><ele>36.0</ele><time>2026-04-17T18:00:29.802Z</time></trkpt><trkpt lat="53.23873921246627" lon="14.511365311461908"><ele>36.0</ele><time>2026-04-17T18:00:30.802Z</time></trkpt><trkpt lat="53.23890278559602" lon="14.511091380231704"><ele>36.0</ele><time>2026-04-17T18:00:31.802Z</time></trkpt><trkpt lat="53.23907639279103" lon="14.510839155358882"><ele>36.0</ele><time>2026-04-17T18:00:32.802Z</time></trkpt><trkpt lat="53.23922918927973" lon="14.51055371524244"><ele>36.0</ele><time>2026-04-17T18:00:33.802Z</time></trkpt><trkpt lat="53.23939246790649" lon="14.510313429171788"><ele>36.0</ele><time>2026-04-17T18:00:34.802Z</time></trkpt><trkpt lat="53.23953737922366" lon="14.510057546960578"><ele>36.0</ele><time>2026-04-17T18:00:35.802Z</time></trkpt><trkpt lat="53.239665471246134" lon="14.509837463460888"><ele>36.0</ele><time>2026-04-17T18:00:36.802Z</time></trkpt><trkpt lat="53.239794901435666" lon="14.50961950084415"><ele>36.0</ele><time>2026-04-17T18:00:37.802Z</time></trkpt><trkpt lat="53.2399197783848" lon="14.509409974283809"><ele>36.0</ele><time>2026-04-17T18:00:38.802Z</time></trkpt><trkpt lat="53.24003779468943" lon="14.509218790551019"><ele>36.0</ele><time>2026-04-17T18:00:39.802Z</time></trkpt><trkpt lat="53.24014726191638" lon="14.509034665209816"><ele>36.0</ele><time>2026-04-17T18:00:40.802Z</time></trkpt><trkpt lat="53.24025226057408" lon="14.508870229951226"><ele>36.0</ele><time>2026-04-17T18:00:41.802Z</time></trkpt><trkpt lat="53.240353432625255" lon="14.508728033957627"><ele>36.0</ele><time>2026-04-17T18:00:42.802Z</time></trkpt><trkpt lat="53.24046799325999" lon="14.50864737723767"><ele>36.0</ele><time>2026-04-17T18:00:43.802Z</time></trkpt><trkpt lat="53.24057642097163" lon="14.50856320218368"><ele>36.0</ele><time>2026-04-17T18:00:44.802Z</time></trkpt><trkpt lat="53.24066897720923" lon="14.508469172121883"><ele>36.0</ele><time>2026-04-17T18:00:45.802Z</time></trkpt><trkpt lat="53.240752547145554" lon="14.50842133579799"><ele>36.0</ele><time>2026-04-17T18:00:46.802Z</time></trkpt><trkpt lat="53.24081547460236" lon="14.508384826546452"><ele>36.0</ele><time>2026-04-17T18:00:47.802Z</time></trkpt><trkpt lat="53.2408828967865" lon="14.508365834445303"><ele>36.0</ele><time>2026-04-17T18:00:48.802Z</time></trkpt><trkpt lat="53.24100070880308" lon="14.508434297575569"><ele>36.0</ele><time>2026-04-17T18:00:50.802Z</time></trkpt><trkpt lat="53.24110738180509" lon="14.508533725336743"><ele>36.0</ele><time>2026-04-17T18:00:52.802Z</time></trkpt><trkpt lat="53.241171375315275" lon="14.508553691886302"><ele>36.0</ele><time>2026-04-17T18:00:53.802Z</time></trkpt><trkpt lat="53.24123256944367" lon="14.508755926182646"><ele>36.0</ele><time>2026-04-17T18:00:54.802Z</time></trkpt><trkpt lat="53.24130407572316" lon="14.508928912381599"><ele>36.0</ele><time>2026-04-17T18:00:55.802Z</time></trkpt><trkpt lat="53.24138258433206" lon="14.509112001299696"><ele>36.666666666666664</ele><time>2026-04-17T18:00:56.802Z</time></trkpt><trkpt lat="53.241477816952134" lon="14.509323047920237"><ele>37.33333333333333</ele><time>2026-04-17T18:00:57.802Z</time></trkpt><trkpt lat="53.24158412173565" lon="14.509541933869656"><ele>38.0</ele><time>2026-04-17T18:00:58.802Z</time></trkpt><trkpt lat="53.241695270703225" lon="14.50976033481743"><ele>39.33333333333333</ele><time>2026-04-17T18:00:59.802Z</time></trkpt><trkpt lat="53.241812766147234" lon="14.510005495024274"><ele>40.666666666666664</ele><time>2026-04-17T18:01:00.802Z</time></trkpt><trkpt lat="53.24193286577021" lon="14.510259119427447"><ele>42.0</ele><time>2026-04-17T18:01:01.802Z</time></trkpt><trkpt lat="53.24205568975724" lon="14.510502559464912"><ele>42.0</ele><time>2026-04-17T18:01:02.802Z</time></trkpt><trkpt lat="53.24218032805446" lon="14.510752881937252"><ele>42.0</ele><time>2026-04-17T18:01:03.802Z</time></trkpt><trkpt lat="53.24230907232621" lon="14.511009649226999"><ele>42.0</ele><time>2026-04-17T18:01:04.802Z</time></trkpt><trkpt lat="53.24244129895804" lon="14.511279092717508"><ele>42.0</ele><time>2026-04-17T18:01:05.802Z</time></trkpt><trkpt lat="53.242577471864806" lon="14.511559465742872"><ele>42.0</ele><time>2026-04-17T18:01:06.802Z</time></trkpt><trkpt lat="53.24272311717949" lon="14.511840183280853"><ele>42.0</ele><time>2026-04-17T18:01:07.802Z</time></trkpt><trkpt lat="53.242869508312296" lon="14.512127349329768"><ele>42.0</ele><time>2026-04-17T18:01:08.802Z</time></trkpt><trkpt lat="53.24301924736198" lon="14.512413654410258"><ele>42.0</ele><time>2026-04-17T18:01:09.802Z</time></trkpt><trkpt lat="53.24317325536392" lon="14.512701032655318"><ele>39.0</ele><time>2026-04-17T18:01:10.802Z</time></trkpt><trkpt lat="53.24332812903379" lon="14.51298304968143"><ele>36.0</ele><time>2026-04-17T18:01:11.802Z</time></trkpt><trkpt lat="53.24347917856904" lon="14.51325293577716"><ele>36.0</ele><time>2026-04-17T18:01:12.802Z</time></trkpt><trkpt lat="53.24362489410697" lon="14.51349644479322"><ele>36.0</ele><time>2026-04-17T18:01:13.802Z</time></trkpt><trkpt lat="53.2437639123869" lon="14.513719937658323"><ele>36.0</ele><time>2026-04-17T18:01:14.802Z</time></trkpt><trkpt lat="53.24389968588666" lon="14.513930321301135"><ele>35.666666666666664</ele><time>2026-04-17T18:01:15.8Z</time></trkpt><trkpt lat="53.244036383297775" lon="14.514133084001706"><ele>35.33333333333333</ele><time>2026-04-17T18:01:16.801Z</time></trkpt><trkpt lat="53.244176270046005" lon="14.514341552307569"><ele>35.0</ele><time>2026-04-17T18:01:17.801Z</time></trkpt><trkpt lat="53.24431628883697" lon="14.514546813841703"><ele>35.666666666666664</ele><time>2026-04-17T18:01:18.8Z</time></trkpt><trkpt lat="53.24446557104418" lon="14.514748129882154"><ele>36.333333333333336</ele><time>2026-04-17T18:01:19.8Z</time></trkpt><trkpt lat="53.24462082980372" lon="14.514960724896039"><ele>37.0</ele><time>2026-04-17T18:01:20.8Z</time></trkpt><trkpt lat="53.244783294162886" lon="14.515166414537573"><ele>38.333333333333336</ele><time>2026-04-17T18:01:21.8Z</time></trkpt><trkpt lat="53.244954756126326" lon="14.515370106666008"><ele>39.666666666666664</ele><time>2026-04-17T18:01:22.8Z</time></trkpt><trkpt lat="53.2451395931541" lon="14.515575854776907"><ele>41.0</ele><time>2026-04-17T18:01:23.8Z</time></trkpt><trkpt lat="53.24532737236273" lon="14.515785331402563"><ele>40.5</ele><time>2026-04-17T18:01:24.8Z</time></trkpt><trkpt lat="53.245520117654934" lon="14.51599668341527"><ele>40.0</ele><time>2026-04-17T18:01:25.8Z</time></trkpt><trkpt lat="53.24571872885972" lon="14.51619801925579"><ele>42.0</ele><time>2026-04-17T18:01:26.8Z</time></trkpt><trkpt lat="53.24592015481658" lon="14.516388748644673"><ele>44.0</ele><time>2026-04-17T18:01:27.8Z</time></trkpt><trkpt lat="53.24612306435934" lon="14.51657668220478"><ele>44.0</ele><time>2026-04-17T18:01:28.801Z</time></trkpt><trkpt lat="53.246330730695455" lon="14.516760406615962"><ele>44.0</ele><time>2026-04-17T18:01:29.801Z</time></trkpt><trkpt lat="53.24653807635863" lon="14.516935701146517"><ele>45.666666666666664</ele><time>2026-04-17T18:01:30.801Z</time></trkpt><trkpt lat="53.24674183740446" lon="14.517094916525641"><ele>47.33333333333333</ele><time>2026-04-17T18:01:31.801Z</time></trkpt><trkpt lat="53.246945023994726" lon="14.51724837882978"><ele>49.0</ele><time>2026-04-17T18:01:32.801Z</time></trkpt><trkpt lat="53.24715015821439" lon="14.517390040221413"><ele>48.0</ele><time>2026-04-17T18:01:33.801Z</time></trkpt><trkpt lat="53.24735593860036" lon="14.517522730977966"><ele>47.0</ele><time>2026-04-17T18:01:34.801Z</time></trkpt><trkpt lat="53.24756256528786" lon="14.517657649678162"><ele>46.0</ele><time>2026-04-17T18:01:35.801Z</time></trkpt><trkpt lat="53.24777158780236" lon="14.517785889776444"><ele>46.0</ele><time>2026-04-17T18:01:36.801Z</time></trkpt><trkpt lat="53.24798057647458" lon="14.517901190511054"><ele>46.0</ele><time>2026-04-17T18:01:37.801Z</time></trkpt><trkpt lat="53.24818957063595" lon="14.518010601428667"><ele>46.0</ele><time>2026-04-17T18:01:38.801Z</time></trkpt><trkpt lat="53.248411125552664" lon="14.518108666316422"><ele>41.0</ele><time>2026-04-17T18:01:39.801Z</time></trkpt><trkpt lat="53.2486279574189" lon="14.518201247835423"><ele>36.0</ele><time>2026-04-17T18:01:40.8Z</time></trkpt><trkpt lat="53.24885127633963" lon="14.518291926785366"><ele>33.0</ele><time>2026-04-17T18:01:41.8Z</time></trkpt><trkpt lat="53.24907344494027" lon="14.51837505375899"><ele>30.0</ele><time>2026-04-17T18:01:42.8Z</time></trkpt><trkpt lat="53.24929769027388" lon="14.518448994807471"><ele>30.0</ele><time>2026-04-17T18:01:43.8Z</time></trkpt><trkpt lat="53.2495209482082" lon="14.518512873321047"><ele>30.0</ele><time>2026-04-17T18:01:44.8Z</time></trkpt><trkpt lat="53.24974264374926" lon="14.518569805587752"><ele>30.333333333333336</ele><time>2026-04-17T18:01:45.8Z</time></trkpt><trkpt lat="53.24996278141741" lon="14.518618131148804"><ele>30.666666666666668</ele><time>2026-04-17T18:01:46.8Z</time></trkpt><trkpt lat="53.250186240366695" lon="14.518656378616138"><ele>31.0</ele><time>2026-04-17T18:01:47.8Z</time></trkpt><trkpt lat="53.25040938559864" lon="14.518685552735988"><ele>31.333333333333336</ele><time>2026-04-17T18:01:48.8Z</time></trkpt><trkpt lat="53.25063142178928" lon="14.518712050181227"><ele>31.666666666666664</ele><time>2026-04-17T18:01:49.8Z</time></trkpt><trkpt lat="53.25085352234164" lon="14.518730778089209"><ele>32.0</ele><time>2026-04-17T18:01:50.8Z</time></trkpt><trkpt lat="53.25107423551914" lon="14.518742209339873"><ele>32.0</ele><time>2026-04-17T18:01:51.8Z</time></trkpt><trkpt lat="53.25129375182621" lon="14.518740309709866"><ele>32.0</ele><time>2026-04-17T18:01:52.8Z</time></trkpt><trkpt lat="53.25151566386962" lon="14.518728089348752"><ele>32.0</ele><time>2026-04-17T18:01:53.8Z</time></trkpt><trkpt lat="53.2517398832005" lon="14.518712288687164"><ele>31.0</ele><time>2026-04-17T18:01:54.8Z</time></trkpt><trkpt lat="53.2519654495058" lon="14.518698836538467"><ele>30.0</ele><time>2026-04-17T18:01:55.8Z</time></trkpt><trkpt lat="53.25218914679149" lon="14.518678495336045"><ele>29.0</ele><time>2026-04-17T18:01:56.8Z</time></trkpt><trkpt lat="53.25241472096715" lon="14.518644536326438"><ele>28.0</ele><time>2026-04-17T18:01:57.8Z</time></trkpt><trkpt lat="53.25263520834361" lon="14.518611012258345"><ele>27.0</ele><time>2026-04-17T18:01:58.8Z</time></trkpt><trkpt lat="53.25285832533816" lon="14.518560767357934"><ele>27.0</ele><time>2026-04-17T18:01:59.8Z</time></trkpt><trkpt lat="53.2530672539649" lon="14.51850407917992"><ele>27.0</ele><time>2026-04-17T18:02:00.8Z</time></trkpt><trkpt lat="53.25326505637049" lon="14.518440920847555"><ele>27.0</ele><time>2026-04-17T18:02:01.8Z</time></trkpt><trkpt lat="53.25345396739596" lon="14.518380732983234"><ele>27.666666666666664</ele><time>2026-04-17T18:02:02.8Z</time></trkpt><trkpt lat="53.253635685516755" lon="14.51832006800818"><ele>28.333333333333332</ele><time>2026-04-17T18:02:03.8Z</time></trkpt><trkpt lat="53.253802671896814" lon="14.518242252083159"><ele>29.0</ele><time>2026-04-17T18:02:04.8Z</time></trkpt><trkpt lat="53.253965398235295" lon="14.518158087886672"><ele>29.0</ele><time>2026-04-17T18:02:05.8Z</time></trkpt><trkpt lat="53.25411661441809" lon="14.518097999723894"><ele>29.0</ele><time>2026-04-17T18:02:06.8Z</time></trkpt><trkpt lat="53.25427874464021" lon="14.518035265146379"><ele>29.0</ele><time>2026-04-17T18:02:07.8Z</time></trkpt><trkpt lat="53.25444454195688" lon="14.517954221614236"><ele>29.0</ele><time>2026-04-17T18:02:08.801Z</time></trkpt><trkpt lat="53.25461593316338" lon="14.517862630257953"><ele>29.0</ele><time>2026-04-17T18:02:09.802Z</time></trkpt><trkpt lat="53.25479945477398" lon="14.517761729616195"><ele>29.0</ele><time>2026-04-17T18:02:10.803Z</time></trkpt><trkpt lat="53.25498737628462" lon="14.517651430347074"><ele>28.666666666666664</ele><time>2026-04-17T18:02:11.805Z</time></trkpt><trkpt lat="53.255181416431356" lon="14.517527391681767"><ele>28.333333333333336</ele><time>2026-04-17T18:02:12.806Z</time></trkpt><trkpt lat="53.25538315070293" lon="14.517391793496879"><ele>28.0</ele><time>2026-04-17T18:02:13.807Z</time></trkpt><trkpt lat="53.25559547549082" lon="14.517244960692034"><ele>28.0</ele><time>2026-04-17T18:02:14.808Z</time></trkpt><trkpt lat="53.25580402895457" lon="14.517088883742126"><ele>28.0</ele><time>2026-04-17T18:02:15.809Z</time></trkpt><trkpt lat="53.25598989673965" lon="14.516942492201379"><ele>28.0</ele><time>2026-04-17T18:02:16.81Z</time></trkpt><trkpt lat="53.25616443450567" lon="14.516795840319409"><ele>28.0</ele><time>2026-04-17T18:02:17.81Z</time></trkpt><trkpt lat="53.2563261815166" lon="14.51665023127303"><ele>28.0</ele><time>2026-04-17T18:02:18.811Z</time></trkpt><trkpt lat="53.25647799952441" lon="14.516508698371185"><ele>28.0</ele><time>2026-04-17T18:02:19.812Z</time></trkpt><trkpt lat="53.25661808537093" lon="14.516375668468035"><ele>28.0</ele><time>2026-04-17T18:02:20.813Z</time></trkpt><trkpt lat="53.256752006636" lon="14.516254506628963"><ele>28.0</ele><time>2026-04-17T18:02:21.813Z</time></trkpt><trkpt lat="53.25689863232008" lon="14.516111412622154"><ele>28.0</ele><time>2026-04-17T18:02:22.814Z</time></trkpt><trkpt lat="53.25705611709161" lon="14.515944912585752"><ele>28.0</ele><time>2026-04-17T18:02:23.815Z</time></trkpt><trkpt lat="53.25720110059884" lon="14.515787806341324"><ele>28.0</ele><time>2026-04-17T18:02:24.815Z</time></trkpt><trkpt lat="53.25732219004742" lon="14.515660757756965"><ele>28.0</ele><time>2026-04-17T18:02:25.816Z</time></trkpt><trkpt lat="53.257426489253945" lon="14.515557459959368"><ele>28.0</ele><time>2026-04-17T18:02:26.816Z</time></trkpt><trkpt lat="53.25752344460111" lon="14.515506266507108"><ele>28.599999999999998</ele><time>2026-04-17T18:02:27.816Z</time></trkpt><trkpt lat="53.25761700045671" lon="14.515527773812416"><ele>29.199999999999996</ele><time>2026-04-17T18:02:28.817Z</time></trkpt><trkpt lat="53.25769812905384" lon="14.515600296042324"><ele>29.8</ele><time>2026-04-17T18:02:29.817Z</time></trkpt><trkpt lat="53.25776101861843" lon="14.515727910018152"><ele>30.4</ele><time>2026-04-17T18:02:30.818Z</time></trkpt><trkpt lat="53.25783305357841" lon="14.515843443003982"><ele>31.0</ele><time>2026-04-17T18:02:31.818Z</time></trkpt><trkpt lat="53.25791547548871" lon="14.51588594994511"><ele>31.000000000000004</ele><time>2026-04-17T18:02:32.818Z</time></trkpt><trkpt lat="53.258003208933545" lon="14.515870094511422"><ele>31.0</ele><time>2026-04-17T18:02:33.819Z</time></trkpt><trkpt lat="53.25809405813241" lon="14.515811935032279"><ele>31.0</ele><time>2026-04-17T18:02:34.819Z</time></trkpt><trkpt lat="53.25816592255158" lon="14.515702888451656"><ele>31.0</ele><time>2026-04-17T18:02:35.819Z</time></trkpt><trkpt lat="53.25820926815322" lon="14.515583908094495"><ele>31.000000000000004</ele><time>2026-04-17T18:02:36.819Z</time></trkpt><trkpt lat="53.25822411834872" lon="14.515446915210445"><ele>31.0</ele><time>2026-04-17T18:02:37.82Z</time></trkpt><trkpt lat="53.25821535744006" lon="14.515304025741317"><ele>30.4</ele><time>2026-04-17T18:02:38.82Z</time></trkpt><trkpt lat="53.25818705198545" lon="14.515167219571119"><ele>29.8</ele><time>2026-04-17T18:02:39.82Z</time></trkpt><trkpt lat="53.25816421433811" lon="14.515035889091346"><ele>29.199999999999996</ele><time>2026-04-17T18:02:40.82Z</time></trkpt><trkpt lat="53.25817200067795" lon="14.5148909775343"><ele>28.599999999999998</ele><time>2026-04-17T18:02:41.82Z</time></trkpt><trkpt lat="53.25821566594616" lon="14.514730990100329"><ele>28.0</ele><time>2026-04-17T18:02:42.821Z</time></trkpt><trkpt lat="53.2582862814934" lon="14.51455538326869"><ele>27.75</ele><time>2026-04-17T18:02:43.821Z</time></trkpt><trkpt lat="53.258364711650735" lon="14.514375048631852"><ele>27.5</ele><time>2026-04-17T18:02:44.821Z</time></trkpt><trkpt lat="53.25844503937791" lon="14.514209496059694"><ele>27.25</ele><time>2026-04-17T18:02:45.821Z</time></trkpt><trkpt lat="53.25853372905045" lon="14.51406167993161"><ele>27.0</ele><time>2026-04-17T18:02:46.821Z</time></trkpt><trkpt lat="53.25862096969861" lon="14.513926662775011"><ele>27.0</ele><time>2026-04-17T18:02:47.821Z</time></trkpt><trkpt lat="53.25870479334087" lon="14.513802656637438"><ele>27.0</ele><time>2026-04-17T18:02:48.821Z</time></trkpt><trkpt lat="53.25878807844422" lon="14.513680606506849"><ele>27.0</ele><time>2026-04-17T18:02:49.821Z</time></trkpt><trkpt lat="53.25887362531303" lon="14.513548208988587"><ele>27.0</ele><time>2026-04-17T18:02:50.822Z</time></trkpt><trkpt lat="53.25896146956354" lon="14.513404544643858"><ele>26.5</ele><time>2026-04-17T18:02:51.822Z</time></trkpt><trkpt lat="53.259055077543685" lon="14.51325636616228"><ele>26.0</ele><time>2026-04-17T18:02:52.822Z</time></trkpt><trkpt lat="53.25915582053263" lon="14.513102530225858"><ele>25.5</ele><time>2026-04-17T18:02:53.822Z</time></trkpt><trkpt lat="53.25925933996924" lon="14.512941597894509"><ele>25.0</ele><time>2026-04-17T18:02:54.822Z</time></trkpt><trkpt lat="53.25936651050463" lon="14.512776247870573"><ele>25.0</ele><time>2026-04-17T18:02:55.822Z</time></trkpt><trkpt lat="53.25948123327085" lon="14.512603532321355"><ele>25.0</ele><time>2026-04-17T18:02:56.822Z</time></trkpt><trkpt lat="53.25960079601352" lon="14.512421167550164"><ele>25.0</ele><time>2026-04-17T18:02:57.822Z</time></trkpt><trkpt lat="53.25973008224049" lon="14.512219893019155"><ele>25.0</ele><time>2026-04-17T18:02:58.822Z</time></trkpt><trkpt lat="53.25987102397852" lon="14.512008892190677"><ele>25.0</ele><time>2026-04-17T18:02:59.822Z</time></trkpt><trkpt lat="53.2600147981414" lon="14.511798713987869"><ele>25.0</ele><time>2026-04-17T18:03:00.822Z</time></trkpt><trkpt lat="53.2601662467558" lon="14.511572598092544"><ele>25.0</ele><time>2026-04-17T18:03:01.822Z</time></trkpt><trkpt lat="53.2603279647636" lon="14.511335422994371"><ele>25.0</ele><time>2026-04-17T18:03:02.822Z</time></trkpt><trkpt lat="53.26049826109071" lon="14.511091034528183"><ele>25.0</ele><time>2026-04-17T18:03:03.822Z</time></trkpt><trkpt lat="53.260675965141075" lon="14.51083902852797"><ele>25.5</ele><time>2026-04-17T18:03:04.822Z</time></trkpt><trkpt lat="53.26086147470623" lon="14.510589911470094"><ele>26.0</ele><time>2026-04-17T18:03:05.822Z</time></trkpt><trkpt lat="53.26105631044854" lon="14.510345493855635"><ele>26.0</ele><time>2026-04-17T18:03:06.822Z</time></trkpt><trkpt lat="53.26125540128414" lon="14.51010435348619"><ele>26.0</ele><time>2026-04-17T18:03:07.822Z</time></trkpt><trkpt lat="53.26146133275682" lon="14.50986722258269"><ele>26.0</ele><time>2026-04-17T18:03:08.822Z</time></trkpt><trkpt lat="53.26167310815516" lon="14.509634638655893"><ele>26.0</ele><time>2026-04-17T18:03:09.823Z</time></trkpt><trkpt lat="53.261888770253485" lon="14.509408192614742"><ele>25.5</ele><time>2026-04-17T18:03:10.823Z</time></trkpt><trkpt lat="53.26210728184225" lon="14.509185881954009"><ele>25.0</ele><time>2026-04-17T18:03:11.823Z</time></trkpt><trkpt lat="53.262338235851274" lon="14.508997992776438"><ele>25.0</ele><time>2026-04-17T18:03:12.823Z</time></trkpt><trkpt lat="53.26256299389979" lon="14.508795101001347"><ele>25.0</ele><time>2026-04-17T18:03:13.823Z</time></trkpt><trkpt lat="53.26279346935637" lon="14.508599106953712"><ele>24.0</ele><time>2026-04-17T18:03:14.823Z</time></trkpt><trkpt lat="53.26301973607895" lon="14.508389459902931"><ele>23.0</ele><time>2026-04-17T18:03:15.823Z</time></trkpt><trkpt lat="53.26325797458845" lon="14.508214398403322"><ele>22.0</ele><time>2026-04-17T18:03:16.823Z</time></trkpt><trkpt lat="53.26349906295502" lon="14.508048695287028"><ele>21.0</ele><time>2026-04-17T18:03:17.823Z</time></trkpt><trkpt lat="53.26374170440276" lon="14.507892991099425"><ele>18.0</ele><time>2026-04-17T18:03:18.823Z</time></trkpt><trkpt lat="53.263986133348396" lon="14.507743177998558"><ele>15.0</ele><time>2026-04-17T18:03:19.823Z</time></trkpt><trkpt lat="53.26424166988653" lon="14.507638937985377"><ele>15.0</ele><time>2026-04-17T18:03:20.823Z</time></trkpt><trkpt lat="53.2644930895284" lon="14.507511083356992"><ele>15.0</ele><time>2026-04-17T18:03:21.82Z</time></trkpt><trkpt lat="53.26474112242543" lon="14.50736197864706"><ele>15.5</ele><time>2026-04-17T18:03:22.821Z</time></trkpt><trkpt lat="53.26499715245628" lon="14.507260793977345"><ele>16.0</ele><time>2026-04-17T18:03:23.821Z</time></trkpt><trkpt lat="53.2652556048843" lon="14.507168798518826"><ele>16.0</ele><time>2026-04-17T18:03:24.821Z</time></trkpt><trkpt lat="53.265514700520114" lon="14.507079799900893"><ele>16.0</ele><time>2026-04-17T18:03:25.821Z</time></trkpt><trkpt lat="53.26577527632932" lon="14.506999400825983"><ele>11.5</ele><time>2026-04-17T18:03:26.821Z</time></trkpt><trkpt lat="53.266037300396604" lon="14.506929777005366"><ele>7.0</ele><time>2026-04-17T18:03:27.821Z</time></trkpt><trkpt lat="53.266301250341996" lon="14.506899585068572"><ele>6.5</ele><time>2026-04-17T18:03:28.821Z</time></trkpt><trkpt lat="53.26656470656651" lon="14.506827180213083"><ele>6.0</ele><time>2026-04-17T18:03:29.821Z</time></trkpt><trkpt lat="53.2668306155094" lon="14.50678884009932"><ele>6.0</ele><time>2026-04-17T18:03:30.82Z</time></trkpt><trkpt lat="53.267098207963905" lon="14.506752296365995"><ele>6.0</ele><time>2026-04-17T18:03:31.821Z</time></trkpt><trkpt lat="53.267365062055006" lon="14.506715568287378"><ele>4.5</ele><time>2026-04-17T18:03:32.821Z</time></trkpt><trkpt lat="53.26762801491984" lon="14.50670540042573"><ele>3.0</ele><time>2026-04-17T18:03:33.821Z</time></trkpt><trkpt lat="53.26789189429989" lon="14.506671347351135"><ele>5.0</ele><time>2026-04-17T18:03:34.821Z</time></trkpt><trkpt lat="53.268152053059566" lon="14.506611681446811"><ele>7.0</ele><time>2026-04-17T18:03:35.821Z</time></trkpt><trkpt lat="53.2684053591613" lon="14.506581323102152"><ele>7.0</ele><time>2026-04-17T18:03:36.821Z</time></trkpt><trkpt lat="53.26863597030697" lon="14.50654982534505"><ele>7.0</ele><time>2026-04-17T18:03:37.821Z</time></trkpt><trkpt lat="53.26883474734507" lon="14.506527595562963"><ele>7.0</ele><time>2026-04-17T18:03:38.821Z</time></trkpt><trkpt lat="53.26898904610352" lon="14.506515673617375"><ele>7.6</ele><time>2026-04-17T18:03:39.821Z</time></trkpt><trkpt lat="53.26910395519077" lon="14.506507666932832"><ele>8.2</ele><time>2026-04-17T18:03:40.821Z</time></trkpt><trkpt lat="53.26918862732149" lon="14.506520152519677"><ele>8.8</ele><time>2026-04-17T18:03:41.821Z</time></trkpt><trkpt lat="53.269260546541666" lon="14.506587696143846"><ele>9.4</ele><time>2026-04-17T18:03:42.821Z</time></trkpt><trkpt lat="53.269330905816695" lon="14.506682465950657"><ele>10.0</ele><time>2026-04-17T18:03:43.821Z</time></trkpt><trkpt lat="53.269430641087766" lon="14.506736924424285"><ele>10.0</ele><time>2026-04-17T18:03:44.821Z</time></trkpt><trkpt lat="53.26953671625942" lon="14.50671322121962"><ele>10.0</ele><time>2026-04-17T18:03:45.821Z</time></trkpt><trkpt lat="53.26964297201416" lon="14.5066631839695"><ele>10.0</ele><time>2026-04-17T18:03:46.821Z</time></trkpt><trkpt lat="53.269756796508794" lon="14.5066401875294"><ele>10.0</ele><time>2026-04-17T18:03:47.821Z</time></trkpt><trkpt lat="53.2698679161356" lon="14.506754958994906"><ele>9.333333333333334</ele><time>2026-04-17T18:03:48.821Z</time></trkpt><trkpt lat="53.27000128706706" lon="14.506905510587794"><ele>8.666666666666666</ele><time>2026-04-17T18:03:49.821Z</time></trkpt><trkpt lat="53.27017271855929" lon="14.507035319173141"><ele>8.0</ele><time>2026-04-17T18:03:50.821Z</time></trkpt><trkpt lat="53.27035368125282" lon="14.50716036197655"><ele>8.0</ele><time>2026-04-17T18:03:51.821Z</time></trkpt><trkpt lat="53.2705192663817" lon="14.507309124935597"><ele>8.0</ele><time>2026-04-17T18:03:52.821Z</time></trkpt><trkpt lat="53.27069580982657" lon="14.507452031512209"><ele>8.0</ele><time>2026-04-17T18:03:53.821Z</time></trkpt><trkpt lat="53.270870423730415" lon="14.507591554229824"><ele>8.0</ele><time>2026-04-17T18:03:54.821Z</time></trkpt><trkpt lat="53.27105123946388" lon="14.507733699808128"><ele>8.0</ele><time>2026-04-17T18:03:55.821Z</time></trkpt><trkpt lat="53.27123353280938" lon="14.50788073308669"><ele>8.0</ele><time>2026-04-17T18:03:56.821Z</time></trkpt><trkpt lat="53.271424197737645" lon="14.50803212113178"><ele>9.666666666666666</ele><time>2026-04-17T18:03:57.821Z</time></trkpt><trkpt lat="53.271615555193655" lon="14.508190403967788"><ele>11.333333333333332</ele><time>2026-04-17T18:03:58.821Z</time></trkpt><trkpt lat="53.27181070798121" lon="14.508357232464231"><ele>13.0</ele><time>2026-04-17T18:03:59.821Z</time></trkpt><trkpt lat="53.27200582979792" lon="14.508527020419644"><ele>13.0</ele><time>2026-04-17T18:04:00.821Z</time></trkpt><trkpt lat="53.27220262129435" lon="14.508691521415708"><ele>13.0</ele><time>2026-04-17T18:04:01.821Z</time></trkpt><trkpt lat="53.27240444932551" lon="14.508857630028908"><ele>13.0</ele><time>2026-04-17T18:04:02.821Z</time></trkpt><trkpt lat="53.272610893831654" lon="14.50902686351389"><ele>14.5</ele><time>2026-04-17T18:04:03.821Z</time></trkpt><trkpt lat="53.272816678038815" lon="14.509198398940132"><ele>16.0</ele><time>2026-04-17T18:04:04.821Z</time></trkpt><trkpt lat="53.27302290999611" lon="14.509369733057579"><ele>17.0</ele><time>2026-04-17T18:04:05.821Z</time></trkpt><trkpt lat="53.27323108457598" lon="14.509543499884854"><ele>18.0</ele><time>2026-04-17T18:04:06.821Z</time></trkpt><trkpt lat="53.27344323862278" lon="14.509726415869018"><ele>18.0</ele><time>2026-04-17T18:04:07.821Z</time></trkpt><trkpt lat="53.27365084268984" lon="14.509937027585126"><ele>18.0</ele><time>2026-04-17T18:04:08.821Z</time></trkpt><trkpt lat="53.273846293311685" lon="14.51017676235578"><ele>19.0</ele><time>2026-04-17T18:04:09.821Z</time></trkpt><trkpt lat="53.274024994930706" lon="14.510443705510792"><ele>20.0</ele><time>2026-04-17T18:04:10.821Z</time></trkpt><trkpt lat="53.27419788973221" lon="14.510726597955468"><ele>20.0</ele><time>2026-04-17T18:04:11.821Z</time></trkpt><trkpt lat="53.27436379897059" lon="14.511022173157023"><ele>20.0</ele><time>2026-04-17T18:04:12.821Z</time></trkpt><trkpt lat="53.27452764678595" lon="14.51131877166895"><ele>18.5</ele><time>2026-04-17T18:04:13.821Z</time></trkpt><trkpt lat="53.2746897281263" lon="14.511610302480833"><ele>17.0</ele><time>2026-04-17T18:04:14.821Z</time></trkpt><trkpt lat="53.274845828713936" lon="14.511897931622924"><ele>18.5</ele><time>2026-04-17T18:04:15.821Z</time></trkpt><trkpt lat="53.275011127492476" lon="14.51218683118902"><ele>20.0</ele><time>2026-04-17T18:04:16.821Z</time></trkpt><trkpt lat="53.27517684923016" lon="14.512454622508642"><ele>20.0</ele><time>2026-04-17T18:04:17.821Z</time></trkpt><trkpt lat="53.27535955829198" lon="14.51269671863925"><ele>20.0</ele><time>2026-04-17T18:04:18.821Z</time></trkpt><trkpt lat="53.275557617916476" lon="14.512908021733216"><ele>20.0</ele><time>2026-04-17T18:04:19.821Z</time></trkpt><trkpt lat="53.27576298791672" lon="14.513093630011916"><ele>20.0</ele><time>2026-04-17T18:04:20.821Z</time></trkpt><trkpt lat="53.27598285309742" lon="14.513242721218008"><ele>20.0</ele><time>2026-04-17T18:04:21.821Z</time></trkpt><trkpt lat="53.2762063922433" lon="14.513367268898572"><ele>20.0</ele><time>2026-04-17T18:04:22.821Z</time></trkpt><trkpt lat="53.27643023988906" lon="14.51345997099598"><ele>19.0</ele><time>2026-04-17T18:04:23.821Z</time></trkpt><trkpt lat="53.27666089721151" lon="14.51349966181204"><ele>18.0</ele><time>2026-04-17T18:04:24.821Z</time></trkpt><trkpt lat="53.27689001784875" lon="14.51351072347619"><ele>18.0</ele><time>2026-04-17T18:04:25.821Z</time></trkpt><trkpt lat="53.277109762065066" lon="14.513495078705338"><ele>18.0</ele><time>2026-04-17T18:04:26.821Z</time></trkpt><trkpt lat="53.277322520326955" lon="14.513455016833387"><ele>18.0</ele><time>2026-04-17T18:04:27.821Z</time></trkpt><trkpt lat="53.277526486193054" lon="14.513392160674963"><ele>18.0</ele><time>2026-04-17T18:04:28.821Z</time></trkpt><trkpt lat="53.27772634005977" lon="14.513330298082813"><ele>18.0</ele><time>2026-04-17T18:04:29.821Z</time></trkpt><trkpt lat="53.27792593177721" lon="14.513270149716668"><ele>18.0</ele><time>2026-04-17T18:04:30.821Z</time></trkpt><trkpt lat="53.278119262655736" lon="14.513214607489923"><ele>17.0</ele><time>2026-04-17T18:04:31.821Z</time></trkpt><trkpt lat="53.27830061326382" lon="14.513163227408102"><ele>16.0</ele><time>2026-04-17T18:04:32.821Z</time></trkpt><trkpt lat="53.27847512536838" lon="14.513114361528869"><ele>15.0</ele><time>2026-04-17T18:04:33.821Z</time></trkpt><trkpt lat="53.27864811650814" lon="14.513067745572796"><ele>15.0</ele><time>2026-04-17T18:04:34.821Z</time></trkpt><trkpt lat="53.27882273285484" lon="14.513031737600574"><ele>15.0</ele><time>2026-04-17T18:04:35.821Z</time></trkpt><trkpt lat="53.27900835306467" lon="14.51302999789816"><ele>15.0</ele><time>2026-04-17T18:04:36.821Z</time></trkpt><trkpt lat="53.27919548000771" lon="14.513078130816389"><ele>15.666666666666668</ele><time>2026-04-17T18:04:37.821Z</time></trkpt><trkpt lat="53.27938969440529" lon="14.513172351956014"><ele>16.333333333333336</ele><time>2026-04-17T18:04:38.821Z</time></trkpt><trkpt lat="53.279577611917425" lon="14.513320438130881"><ele>17.0</ele><time>2026-04-17T18:04:39.821Z</time></trkpt><trkpt lat="53.279757278159785" lon="14.513500868830908"><ele>17.0</ele><time>2026-04-17T18:04:40.821Z</time></trkpt><trkpt lat="53.27992828042902" lon="14.513703928015259"><ele>17.0</ele><time>2026-04-17T18:04:41.821Z</time></trkpt><trkpt lat="53.28009719907783" lon="14.51390255529554"><ele>17.0</ele><time>2026-04-17T18:04:42.821Z</time></trkpt><trkpt lat="53.28027016468176" lon="14.514089285653359"><ele>17.0</ele><time>2026-04-17T18:04:43.821Z</time></trkpt><trkpt lat="53.28044389149599" lon="14.514246325063617"><ele>17.0</ele><time>2026-04-17T18:04:44.821Z</time></trkpt><trkpt lat="53.28063397855458" lon="14.514365930510126"><ele>17.0</ele><time>2026-04-17T18:04:45.821Z</time></trkpt><trkpt lat="53.2808327227952" lon="14.514450376776397"><ele>16.666666666666668</ele><time>2026-04-17T18:04:46.821Z</time></trkpt><trkpt lat="53.28103478270904" lon="14.51450610102706"><ele>16.333333333333332</ele><time>2026-04-17T18:04:47.821Z</time></trkpt><trkpt lat="53.28123805905283" lon="14.514533163695406"><ele>16.0</ele><time>2026-04-17T18:04:48.821Z</time></trkpt><trkpt lat="53.28144413772854" lon="14.514532533497656"><ele>15.666666666666666</ele><time>2026-04-17T18:04:49.821Z</time></trkpt><trkpt lat="53.281657825956025" lon="14.514498009258327"><ele>15.333333333333332</ele><time>2026-04-17T18:04:50.821Z</time></trkpt><trkpt lat="53.281871038575176" lon="14.514460819385578"><ele>15.0</ele><time>2026-04-17T18:04:51.821Z</time></trkpt><trkpt lat="53.282079548271575" lon="14.514422767875978"><ele>15.0</ele><time>2026-04-17T18:04:52.821Z</time></trkpt><trkpt lat="53.28227619317931" lon="14.514391410135465"><ele>15.0</ele><time>2026-04-17T18:04:53.821Z</time></trkpt><trkpt lat="53.28246479974877" lon="14.514391175839135"><ele>15.0</ele><time>2026-04-17T18:04:54.821Z</time></trkpt><trkpt lat="53.28264304143645" lon="14.514431010141234"><ele>15.0</ele><time>2026-04-17T18:04:55.821Z</time></trkpt><trkpt lat="53.2828171883534" lon="14.51450859580541"><ele>15.0</ele><time>2026-04-17T18:04:56.821Z</time></trkpt><trkpt lat="53.28299094423909" lon="14.514616887404824"><ele>15.0</ele><time>2026-04-17T18:04:57.821Z</time></trkpt><trkpt lat="53.283165634148425" lon="14.51474290626981"><ele>16.0</ele><time>2026-04-17T18:04:58.821Z</time></trkpt><trkpt lat="53.283345562086794" lon="14.514873496427754"><ele>17.0</ele><time>2026-04-17T18:04:59.821Z</time></trkpt><trkpt lat="53.28353046297023" lon="14.514989917912057"><ele>18.0</ele><time>2026-04-17T18:05:00.821Z</time></trkpt><trkpt lat="53.28372788521895" lon="14.51506085114356"><ele>17.0</ele><time>2026-04-17T18:05:01.821Z</time></trkpt><trkpt lat="53.28393333192782" lon="14.515124394400845"><ele>16.0</ele><time>2026-04-17T18:05:02.821Z</time></trkpt><trkpt lat="53.284141760597855" lon="14.515152321427628"><ele>15.0</ele><time>2026-04-17T18:05:03.821Z</time></trkpt><trkpt lat="53.2843387494957" lon="14.515175944989103"><ele>15.0</ele><time>2026-04-17T18:05:04.821Z</time></trkpt><trkpt lat="53.28452826864451" lon="14.515254299829529"><ele>15.0</ele><time>2026-04-17T18:05:05.821Z</time></trkpt><trkpt lat="53.28471264574346" lon="14.515368668001292"><ele>15.0</ele><time>2026-04-17T18:05:06.821Z</time></trkpt><trkpt lat="53.284875505354066" lon="14.51554055513304"><ele>14.333333333333332</ele><time>2026-04-17T18:05:07.821Z</time></trkpt><trkpt lat="53.28504183726075" lon="14.515703258825566"><ele>13.666666666666666</ele><time>2026-04-17T18:05:08.821Z</time></trkpt><trkpt lat="53.28520603582255" lon="14.515858698336329"><ele>13.0</ele><time>2026-04-17T18:05:09.821Z</time></trkpt><trkpt lat="53.28537377164455" lon="14.516009783169876"><ele>13.0</ele><time>2026-04-17T18:05:10.821Z</time></trkpt><trkpt lat="53.28554258703431" lon="14.516155120618608"><ele>13.0</ele><time>2026-04-17T18:05:11.821Z</time></trkpt><trkpt lat="53.285707505898756" lon="14.516301086730191"><ele>13.0</ele><time>2026-04-17T18:05:12.821Z</time></trkpt><trkpt lat="53.28586993635147" lon="14.516448061119073"><ele>13.333333333333332</ele><time>2026-04-17T18:05:13.821Z</time></trkpt><trkpt lat="53.28602826739457" lon="14.516611518558904"><ele>13.666666666666668</ele><time>2026-04-17T18:05:14.821Z</time></trkpt><trkpt lat="53.28619988444035" lon="14.516729440003461"><ele>14.0</ele><time>2026-04-17T18:05:15.821Z</time></trkpt><trkpt lat="53.28635909732736" lon="14.516884361303557"><ele>14.333333333333334</ele><time>2026-04-17T18:05:16.821Z</time></trkpt><trkpt lat="53.286539913031795" lon="14.517016005310472"><ele>14.666666666666668</ele><time>2026-04-17T18:05:17.821Z</time></trkpt><trkpt lat="53.286722821011104" lon="14.517146434190442"><ele>15.0</ele><time>2026-04-17T18:05:18.821Z</time></trkpt><trkpt lat="53.286909766784845" lon="14.517273306600377"><ele>15.0</ele><time>2026-04-17T18:05:19.821Z</time></trkpt><trkpt lat="53.28709918748855" lon="14.517405711670957"><ele>15.0</ele><time>2026-04-17T18:05:20.821Z</time></trkpt><trkpt lat="53.28728927696104" lon="14.517538085184768"><ele>15.0</ele><time>2026-04-17T18:05:21.821Z</time></trkpt><trkpt lat="53.28748145527409" lon="14.51766077313341"><ele>14.0</ele><time>2026-04-17T18:05:22.821Z</time></trkpt><trkpt lat="53.28767466129037" lon="14.517777983197625"><ele>13.0</ele><time>2026-04-17T18:05:23.821Z</time></trkpt><trkpt lat="53.2878705568591" lon="14.517895349629038"><ele>12.0</ele><time>2026-04-17T18:05:24.821Z</time></trkpt><trkpt lat="53.28806728739085" lon="14.518005331285634"><ele>13.333333333333332</ele><time>2026-04-17T18:05:25.821Z</time></trkpt><trkpt lat="53.288267803988674" lon="14.518106166692071"><ele>14.666666666666666</ele><time>2026-04-17T18:05:26.821Z</time></trkpt><trkpt lat="53.28847054028931" lon="14.518202815354476"><ele>16.0</ele><time>2026-04-17T18:05:27.819Z</time></trkpt><trkpt lat="53.28866961386463" lon="14.518306304578772"><ele>16.0</ele><time>2026-04-17T18:05:28.819Z</time></trkpt><trkpt lat="53.288867131599694" lon="14.518408595406774"><ele>16.0</ele><time>2026-04-17T18:05:29.819Z</time></trkpt><trkpt lat="53.28906605411648" lon="14.51851094610727"><ele>16.0</ele><time>2026-04-17T18:05:30.819Z</time></trkpt><trkpt lat="53.28926028038147" lon="14.518623288703889"><ele>16.333333333333332</ele><time>2026-04-17T18:05:31.819Z</time></trkpt><trkpt lat="53.289450850273795" lon="14.518740081338162"><ele>16.666666666666668</ele><time>2026-04-17T18:05:32.819Z</time></trkpt><trkpt lat="53.28963450793762" lon="14.518876700053283"><ele>17.0</ele><time>2026-04-17T18:05:33.819Z</time></trkpt><trkpt lat="53.28981503755042" lon="14.519018545025459"><ele>15.0</ele><time>2026-04-17T18:05:34.819Z</time></trkpt><trkpt lat="53.28999745359371" lon="14.519153601314763"><ele>13.0</ele><time>2026-04-17T18:05:35.819Z</time></trkpt><trkpt lat="53.2901847593764" lon="14.519257397700834"><ele>11.0</ele><time>2026-04-17T18:05:36.82Z</time></trkpt><trkpt lat="53.290388337448526" lon="14.519312886919188"><ele>11.0</ele><time>2026-04-17T18:05:37.819Z</time></trkpt><trkpt lat="53.29058819437824" lon="14.519347994753716"><ele>11.0</ele><time>2026-04-17T18:05:38.819Z</time></trkpt><trkpt lat="53.2907907433699" lon="14.519371544588179"><ele>11.0</ele><time>2026-04-17T18:05:39.819Z</time></trkpt><trkpt lat="53.29099238332093" lon="14.5194291738242"><ele>11.0</ele><time>2026-04-17T18:05:40.819Z</time></trkpt><trkpt lat="53.291182587494845" lon="14.519535159295472"><ele>11.0</ele><time>2026-04-17T18:05:41.819Z</time></trkpt><trkpt lat="53.291365153037674" lon="14.519663648755413"><ele>11.0</ele><time>2026-04-17T18:05:42.819Z</time></trkpt><trkpt lat="53.29154777762171" lon="14.519799892658517"><ele>11.0</ele><time>2026-04-17T18:05:43.819Z</time></trkpt><trkpt lat="53.29172811427842" lon="14.519937909633743"><ele>11.0</ele><time>2026-04-17T18:05:44.819Z</time></trkpt><trkpt lat="53.291903484805886" lon="14.520077725200956"><ele>11.0</ele><time>2026-04-17T18:05:45.819Z</time></trkpt><trkpt lat="53.29207230616005" lon="14.520225530581369"><ele>11.0</ele><time>2026-04-17T18:05:46.819Z</time></trkpt><trkpt lat="53.29223718585036" lon="14.520382792172272"><ele>11.0</ele><time>2026-04-17T18:05:47.819Z</time></trkpt><trkpt lat="53.2923972347688" lon="14.520549827612168"><ele>11.0</ele><time>2026-04-17T18:05:48.819Z</time></trkpt><trkpt lat="53.29255360094123" lon="14.520724181801365"><ele>11.333333333333332</ele><time>2026-04-17T18:05:49.819Z</time></trkpt><trkpt lat="53.292711449883605" lon="14.520889527878582"><ele>11.666666666666666</ele><time>2026-04-17T18:05:50.819Z</time></trkpt><trkpt lat="53.29286587143559" lon="14.521041860322578"><ele>12.0</ele><time>2026-04-17T18:05:51.819Z</time></trkpt><trkpt lat="53.29302114343026" lon="14.521173616939613"><ele>11.666666666666666</ele><time>2026-04-17T18:05:52.819Z</time></trkpt><trkpt lat="53.293173395744894" lon="14.521281638123371"><ele>11.333333333333332</ele><time>2026-04-17T18:05:53.819Z</time></trkpt><trkpt lat="53.293318618094844" lon="14.521370684036969"><ele>11.0</ele><time>2026-04-17T18:05:54.819Z</time></trkpt><trkpt lat="53.29346960207867" lon="14.521453083794514"><ele>11.0</ele><time>2026-04-17T18:05:55.819Z</time></trkpt><trkpt lat="53.29362766796752" lon="14.521538623848581"><ele>11.0</ele><time>2026-04-17T18:05:56.819Z</time></trkpt><trkpt lat="53.29379423997015" lon="14.521633629246852"><ele>11.0</ele><time>2026-04-17T18:05:57.819Z</time></trkpt><trkpt lat="53.29396287067017" lon="14.521740216296125"><ele>10.333333333333332</ele><time>2026-04-17T18:05:58.819Z</time></trkpt><trkpt lat="53.294132606501556" lon="14.521849347851978"><ele>9.666666666666666</ele><time>2026-04-17T18:05:59.819Z</time></trkpt><trkpt lat="53.29429507746311" lon="14.52196044714441"><ele>9.0</ele><time>2026-04-17T18:06:00.819Z</time></trkpt><trkpt lat="53.29444594322395" lon="14.522075609428361"><ele>9.0</ele><time>2026-04-17T18:06:01.819Z</time></trkpt><trkpt lat="53.294593720119494" lon="14.522192618375398"><ele>9.0</ele><time>2026-04-17T18:06:02.819Z</time></trkpt><trkpt lat="53.294745355456264" lon="14.522313120946157"><ele>9.0</ele><time>2026-04-17T18:06:03.819Z</time></trkpt><trkpt lat="53.294897892637216" lon="14.522429481513113"><ele>9.333333333333334</ele><time>2026-04-17T18:06:04.819Z</time></trkpt><trkpt lat="53.295051982670316" lon="14.522545608441977"><ele>9.666666666666668</ele><time>2026-04-17T18:06:05.819Z</time></trkpt><trkpt lat="53.2952060043881" lon="14.522664471125399"><ele>10.0</ele><time>2026-04-17T18:06:06.819Z</time></trkpt><trkpt lat="53.29536090313338" lon="14.52278820733326"><ele>10.0</ele><time>2026-04-17T18:06:07.819Z</time></trkpt><trkpt lat="53.29551876877762" lon="14.522914013497898"><ele>10.0</ele><time>2026-04-17T18:06:08.819Z</time></trkpt><trkpt lat="53.29568038887881" lon="14.52304139510561"><ele>10.0</ele><time>2026-04-17T18:06:09.819Z</time></trkpt><trkpt lat="53.29584265591721" lon="14.523192181470009"><ele>9.333333333333334</ele><time>2026-04-17T18:06:10.819Z</time></trkpt><trkpt lat="53.296012586765464" lon="14.523325282868834"><ele>8.666666666666666</ele><time>2026-04-17T18:06:11.819Z</time></trkpt><trkpt lat="53.29618637480705" lon="14.523453271965248"><ele>8.0</ele><time>2026-04-17T18:06:12.819Z</time></trkpt><trkpt lat="53.29636112074638" lon="14.523563322336855"><ele>7.333333333333333</ele><time>2026-04-17T18:06:13.819Z</time></trkpt><trkpt lat="53.29654154491683" lon="14.523678332709036"><ele>6.666666666666666</ele><time>2026-04-17T18:06:14.819Z</time></trkpt><trkpt lat="53.29673898739668" lon="14.523773293158488"><ele>6.0</ele><time>2026-04-17T18:06:15.819Z</time></trkpt><trkpt lat="53.29693607842723" lon="14.523868781669803"><ele>6.0</ele><time>2026-04-17T18:06:16.819Z</time></trkpt><trkpt lat="53.29712717836353" lon="14.523963529135402"><ele>6.0</ele><time>2026-04-17T18:06:17.819Z</time></trkpt><trkpt lat="53.29732201087455" lon="14.52406901156807"><ele>6.0</ele><time>2026-04-17T18:06:18.819Z</time></trkpt><trkpt lat="53.297519176015385" lon="14.524171735517982"><ele>5.333333333333333</ele><time>2026-04-17T18:06:19.819Z</time></trkpt><trkpt lat="53.29771671982866" lon="14.524268492748254"><ele>4.666666666666666</ele><time>2026-04-17T18:06:20.819Z</time></trkpt><trkpt lat="53.2979145604059" lon="14.524368755964094"><ele>4.0</ele><time>2026-04-17T18:06:21.819Z</time></trkpt><trkpt lat="53.29811374197986" lon="14.524475048063316"><ele>5.0</ele><time>2026-04-17T18:06:22.819Z</time></trkpt><trkpt lat="53.29832597239906" lon="14.524586861904567"><ele>6.0</ele><time>2026-04-17T18:06:23.819Z</time></trkpt><trkpt lat="53.29855529351471" lon="14.524692232004963"><ele>6.0</ele><time>2026-04-17T18:06:24.819Z</time></trkpt><trkpt lat="53.298785551208724" lon="14.524831128363834"><ele>6.0</ele><time>2026-04-17T18:06:25.819Z</time></trkpt><trkpt lat="53.29903513336434" lon="14.524931862101411"><ele>5.5</ele><time>2026-04-17T18:06:26.819Z</time></trkpt><trkpt lat="53.299289698987444" lon="14.525068352660309"><ele>5.0</ele><time>2026-04-17T18:06:27.819Z</time></trkpt><trkpt lat="53.2995474400515" lon="14.52522048080183"><ele>4.0</ele><time>2026-04-17T18:06:28.819Z</time></trkpt><trkpt lat="53.29980948683453" lon="14.525376232425682"><ele>3.0</ele><time>2026-04-17T18:06:29.819Z</time></trkpt><trkpt lat="53.30007001434969" lon="14.525525245142832"><ele>5.5</ele><time>2026-04-17T18:06:30.819Z</time></trkpt><trkpt lat="53.30032634466522" lon="14.525668881598106"><ele>8.0</ele><time>2026-04-17T18:06:31.819Z</time></trkpt><trkpt lat="53.300577745286375" lon="14.525818984013705"><ele>7.0</ele><time>2026-04-17T18:06:32.819Z</time></trkpt><trkpt lat="53.30082673834605" lon="14.525975341660597"><ele>6.0</ele><time>2026-04-17T18:06:33.819Z</time></trkpt><trkpt lat="53.301074458269156" lon="14.526133890485044"><ele>7.5</ele><time>2026-04-17T18:06:34.819Z</time></trkpt><trkpt lat="53.30132046654581" lon="14.52629608571253"><ele>9.0</ele><time>2026-04-17T18:06:35.819Z</time></trkpt><trkpt lat="53.30156374995628" lon="14.526461085815138"><ele>9.0</ele><time>2026-04-17T18:06:36.819Z</time></trkpt><trkpt lat="53.30180416598291" lon="14.5266252357922"><ele>9.0</ele><time>2026-04-17T18:06:37.819Z</time></trkpt><trkpt lat="53.30204555948467" lon="14.526790433958157"><ele>8.0</ele><time>2026-04-17T18:06:38.819Z</time></trkpt><trkpt lat="53.302282401590325" lon="14.52695671091352"><ele>7.0</ele><time>2026-04-17T18:06:39.819Z</time></trkpt><trkpt lat="53.3025190558553" lon="14.52712114558768"><ele>7.0</ele><time>2026-04-17T18:06:40.819Z</time></trkpt><trkpt lat="53.30274707756434" lon="14.52731499065291"><ele>7.0</ele><time>2026-04-17T18:06:41.819Z</time></trkpt><trkpt lat="53.30298381132751" lon="14.527488847551735"><ele>6.0</ele><time>2026-04-17T18:06:42.819Z</time></trkpt><trkpt lat="53.30322918259374" lon="14.527643847397167"><ele>5.0</ele><time>2026-04-17T18:06:43.819Z</time></trkpt><trkpt lat="53.30346876077723" lon="14.52783003711424"><ele>6.0</ele><time>2026-04-17T18:06:44.819Z</time></trkpt><trkpt lat="53.30370992019605" lon="14.528020077911178"><ele>7.0</ele><time>2026-04-17T18:06:45.819Z</time></trkpt><trkpt lat="53.3039399786089" lon="14.528233176341812"><ele>7.0</ele><time>2026-04-17T18:06:46.819Z</time></trkpt><trkpt lat="53.30418257514567" lon="14.528430418637338"><ele>7.0</ele><time>2026-04-17T18:06:47.819Z</time></trkpt><trkpt lat="53.30442564929054" lon="14.528627352895528"><ele>8.0</ele><time>2026-04-17T18:06:48.819Z</time></trkpt><trkpt lat="53.304667780752496" lon="14.528817473138476"><ele>9.0</ele><time>2026-04-17T18:06:49.819Z</time></trkpt><trkpt lat="53.30491211530123" lon="14.528994034349362"><ele>9.0</ele><time>2026-04-17T18:06:50.819Z</time></trkpt><trkpt lat="53.30515834698896" lon="14.529150287076494"><ele>9.0</ele><time>2026-04-17T18:06:51.819Z</time></trkpt><trkpt lat="53.30540183343064" lon="14.529281198746594"><ele>7.5</ele><time>2026-04-17T18:06:52.819Z</time></trkpt><trkpt lat="53.30564598457633" lon="14.529394921444483"><ele>6.0</ele><time>2026-04-17T18:06:53.819Z</time></trkpt><trkpt lat="53.305886110860676" lon="14.52949219728517"><ele>10.5</ele><time>2026-04-17T18:06:54.819Z</time></trkpt><trkpt lat="53.30612661880507" lon="14.529564575389465"><ele>15.0</ele><time>2026-04-17T18:06:55.819Z</time></trkpt><trkpt lat="53.30637350308408" lon="14.529628033990459"><ele>13.0</ele><time>2026-04-17T18:06:56.819Z</time></trkpt><trkpt lat="53.30661961907165" lon="14.529695799541651"><ele>11.0</ele><time>2026-04-17T18:06:57.819Z</time></trkpt><trkpt lat="53.3068654147103" lon="14.529765850777684"><ele>11.0</ele><time>2026-04-17T18:06:58.819Z</time></trkpt><trkpt lat="53.307108755282435" lon="14.529846372440442"><ele>11.0</ele><time>2026-04-17T18:06:59.819Z</time></trkpt><trkpt lat="53.30734930647103" lon="14.529939008152732"><ele>8.0</ele><time>2026-04-17T18:07:00.819Z</time></trkpt><trkpt lat="53.30758978991025" lon="14.530049721304513"><ele>5.0</ele><time>2026-04-17T18:07:01.819Z</time></trkpt><trkpt lat="53.30783131240926" lon="14.530159245047729"><ele>5.0</ele><time>2026-04-17T18:07:02.819Z</time></trkpt><trkpt lat="53.308075054565506" lon="14.530274929475722"><ele>5.0</ele><time>2026-04-17T18:07:03.819Z</time></trkpt><trkpt lat="53.30832650139519" lon="14.530390900981727"><ele>6.5</ele><time>2026-04-17T18:07:04.819Z</time></trkpt><trkpt lat="53.30858441346562" lon="14.530511751131089"><ele>8.0</ele><time>2026-04-17T18:07:05.819Z</time></trkpt><trkpt lat="53.308838384701275" lon="14.53065219168187"><ele>6.5</ele><time>2026-04-17T18:07:06.819Z</time></trkpt><trkpt lat="53.30907448560092" lon="14.530784964810037"><ele>5.0</ele><time>2026-04-17T18:07:07.819Z</time></trkpt><trkpt lat="53.30930173159485" lon="14.530902199381773"><ele>5.0</ele><time>2026-04-17T18:07:08.819Z</time></trkpt><trkpt lat="53.30951717619609" lon="14.531012353069018"><ele>5.0</ele><time>2026-04-17T18:07:09.819Z</time></trkpt><trkpt lat="53.30971950139575" lon="14.53111740517993"><ele>5.0</ele><time>2026-04-17T18:07:10.819Z</time></trkpt><trkpt lat="53.30991212104124" lon="14.531215705105254"><ele>5.666666666666667</ele><time>2026-04-17T18:07:11.819Z</time></trkpt><trkpt lat="53.31009368009292" lon="14.531303033941699"><ele>6.333333333333334</ele><time>2026-04-17T18:07:12.819Z</time></trkpt><trkpt lat="53.310275352034495" lon="14.531389587700135"><ele>7.0</ele><time>2026-04-17T18:07:13.819Z</time></trkpt><trkpt lat="53.310453222957925" lon="14.53147618837857"><ele>6.666666666666667</ele><time>2026-04-17T18:07:14.819Z</time></trkpt><trkpt lat="53.31062844004237" lon="14.531570516242212"><ele>6.333333333333334</ele><time>2026-04-17T18:07:15.819Z</time></trkpt><trkpt lat="53.31079942090768" lon="14.531688359322345"><ele>6.0</ele><time>2026-04-17T18:07:16.819Z</time></trkpt><trkpt lat="53.310956166160665" lon="14.531862404676678"><ele>6.0</ele><time>2026-04-17T18:07:17.819Z</time></trkpt><trkpt lat="53.311101277049836" lon="14.532078943185377"><ele>6.0</ele><time>2026-04-17T18:07:18.819Z</time></trkpt><trkpt lat="53.31124911606308" lon="14.532286221052907"><ele>6.0</ele><time>2026-04-17T18:07:19.819Z</time></trkpt><trkpt lat="53.31141577719267" lon="14.532444335696031"><ele>6.0</ele><time>2026-04-17T18:07:20.819Z</time></trkpt><trkpt lat="53.311602662747056" lon="14.532551977375373"><ele>6.0</ele><time>2026-04-17T18:07:21.819Z</time></trkpt><trkpt lat="53.311798462754545" lon="14.532654746578283"><ele>6.0</ele><time>2026-04-17T18:07:22.819Z</time></trkpt><trkpt lat="53.311999850604906" lon="14.532756991996122"><ele>6.0</ele><time>2026-04-17T18:07:23.819Z</time></trkpt><trkpt lat="53.312192148471965" lon="14.53285838433753"><ele>6.0</ele><time>2026-04-17T18:07:24.819Z</time></trkpt><trkpt lat="53.3123735522284" lon="14.532945862044627"><ele>6.0</ele><time>2026-04-17T18:07:25.819Z</time></trkpt><trkpt lat="53.31254298647726" lon="14.533036487333058"><ele>7.333333333333334</ele><time>2026-04-17T18:07:26.819Z</time></trkpt><trkpt lat="53.31270336028277" lon="14.533120157948325"><ele>8.666666666666668</ele><time>2026-04-17T18:07:27.819Z</time></trkpt><trkpt lat="53.312859417714265" lon="14.533198410371684"><ele>10.0</ele><time>2026-04-17T18:07:28.819Z</time></trkpt><trkpt lat="53.31300964039099" lon="14.53327652692336"><ele>9.666666666666668</ele><time>2026-04-17T18:07:29.819Z</time></trkpt><trkpt lat="53.31316948935603" lon="14.533358271955054"><ele>9.333333333333334</ele><time>2026-04-17T18:07:30.819Z</time></trkpt><trkpt lat="53.31332198903056" lon="14.533433594330123"><ele>9.0</ele><time>2026-04-17T18:07:31.819Z</time></trkpt><trkpt lat="53.313466895015914" lon="14.533505526513384"><ele>9.0</ele><time>2026-04-17T18:07:32.819Z</time></trkpt><trkpt lat="53.31360057904734" lon="14.53357940576793"><ele>9.0</ele><time>2026-04-17T18:07:33.818Z</time></trkpt><trkpt lat="53.31372517374766" lon="14.533661455081774"><ele>9.0</ele><time>2026-04-17T18:07:34.817Z</time></trkpt><trkpt lat="53.31384772653534" lon="14.533742377878852"><ele>9.0</ele><time>2026-04-17T18:07:35.817Z</time></trkpt><trkpt lat="53.31397189100485" lon="14.53383785806126"><ele>8.75</ele><time>2026-04-17T18:07:36.818Z</time></trkpt><trkpt lat="53.314098769121436" lon="14.533924917489374"><ele>8.5</ele><time>2026-04-17T18:07:37.818Z</time></trkpt><trkpt lat="53.31422215062038" lon="14.534021968975047"><ele>8.25</ele><time>2026-04-17T18:07:38.818Z</time></trkpt><trkpt lat="53.314341727200734" lon="14.534109954568448"><ele>8.0</ele><time>2026-04-17T18:07:39.817Z</time></trkpt><trkpt lat="53.314457248662166" lon="14.534197151935766"><ele>8.0</ele><time>2026-04-17T18:07:40.817Z</time></trkpt><trkpt lat="53.314578811053586" lon="14.5342784725787"><ele>8.0</ele><time>2026-04-17T18:07:41.817Z</time></trkpt><trkpt lat="53.31470395616109" lon="14.534362613171963"><ele>8.0</ele><time>2026-04-17T18:07:42.818Z</time></trkpt><trkpt lat="53.31483565495546" lon="14.534447055443655"><ele>8.0</ele><time>2026-04-17T18:07:43.817Z</time></trkpt><trkpt lat="53.31498152271165" lon="14.53454092659574"><ele>8.0</ele><time>2026-04-17T18:07:44.817Z</time></trkpt><trkpt lat="53.31515004146457" lon="14.534634062546974"><ele>8.0</ele><time>2026-04-17T18:07:45.818Z</time></trkpt><trkpt lat="53.31532931114115" lon="14.534742037753741"><ele>8.0</ele><time>2026-04-17T18:07:46.817Z</time></trkpt><trkpt lat="53.315516986647324" lon="14.534861468238976"><ele>7.333333333333333</ele><time>2026-04-17T18:07:47.817Z</time></trkpt><trkpt lat="53.315705671093056" lon="14.534995747306688"><ele>6.666666666666666</ele><time>2026-04-17T18:07:48.817Z</time></trkpt><trkpt lat="53.3158951467758" lon="14.535125128765571"><ele>6.0</ele><time>2026-04-17T18:07:49.817Z</time></trkpt><trkpt lat="53.316090919893504" lon="14.535239834530842"><ele>6.0</ele><time>2026-04-17T18:07:50.817Z</time></trkpt><trkpt lat="53.31628835404981" lon="14.535345465559908"><ele>6.0</ele><time>2026-04-17T18:07:51.817Z</time></trkpt><trkpt lat="53.31648247767032" lon="14.535449583462915"><ele>6.0</ele><time>2026-04-17T18:07:52.817Z</time></trkpt><trkpt lat="53.31667830274965" lon="14.535539513395687"><ele>6.333333333333334</ele><time>2026-04-17T18:07:53.817Z</time></trkpt><trkpt lat="53.31687736857355" lon="14.535611884937978"><ele>6.666666666666667</ele><time>2026-04-17T18:07:54.817Z</time></trkpt><trkpt lat="53.3170796043826" lon="14.535674075540118"><ele>7.0</ele><time>2026-04-17T18:07:55.817Z</time></trkpt><trkpt lat="53.317281730978515" lon="14.535726001133732"><ele>7.0</ele><time>2026-04-17T18:07:56.817Z</time></trkpt><trkpt lat="53.317481719293426" lon="14.535774904811237"><ele>7.0</ele><time>2026-04-17T18:07:57.817Z</time></trkpt><trkpt lat="53.317680251510296" lon="14.535810422222227"><ele>7.0</ele><time>2026-04-17T18:07:58.817Z</time></trkpt><trkpt lat="53.317864984379426" lon="14.535849820165716"><ele>7.0</ele><time>2026-04-17T18:07:59.817Z</time></trkpt><trkpt lat="53.31804098433664" lon="14.535892424942816"><ele>7.0</ele><time>2026-04-17T18:08:00.817Z</time></trkpt><trkpt lat="53.31820923572399" lon="14.535940404866095"><ele>7.0</ele><time>2026-04-17T18:08:01.817Z</time></trkpt><trkpt lat="53.318365069693925" lon="14.536004534860997"><ele>6.5</ele><time>2026-04-17T18:08:02.817Z</time></trkpt><trkpt lat="53.31850305170434" lon="14.536084258265497"><ele>6.0</ele><time>2026-04-17T18:08:03.817Z</time></trkpt><trkpt lat="53.31863034696108" lon="14.536203881948097"><ele>5.5</ele><time>2026-04-17T18:08:04.817Z</time></trkpt><trkpt lat="53.31874772386768" lon="14.536333741989862"><ele>5.0</ele><time>2026-04-17T18:08:05.817Z</time></trkpt><trkpt lat="53.31885726566613" lon="14.536473048158104"><ele>5.0</ele><time>2026-04-17T18:08:06.817Z</time></trkpt><trkpt lat="53.318955070418895" lon="14.536600848507462"><ele>5.0</ele><time>2026-04-17T18:08:07.817Z</time></trkpt><trkpt lat="53.319054005007104" lon="14.536735205420143"><ele>5.0</ele><time>2026-04-17T18:08:08.817Z</time></trkpt><trkpt lat="53.31915458631786" lon="14.536877673179633"><ele>5.0</ele><time>2026-04-17T18:08:09.817Z</time></trkpt><trkpt lat="53.31926603243693" lon="14.537017501542737"><ele>6.25</ele><time>2026-04-17T18:08:10.817Z</time></trkpt><trkpt lat="53.319372959578764" lon="14.537147183388209"><ele>7.5</ele><time>2026-04-17T18:08:11.817Z</time></trkpt><trkpt lat="53.3194719527051" lon="14.537262765097733"><ele>8.75</ele><time>2026-04-17T18:08:12.817Z</time></trkpt><trkpt lat="53.319564974808856" lon="14.53737042647038"><ele>10.0</ele><time>2026-04-17T18:08:13.817Z</time></trkpt><trkpt lat="53.31963999366133" lon="14.537486253337777"><ele>9.0</ele><time>2026-04-17T18:08:14.817Z</time></trkpt><trkpt lat="53.319735769156736" lon="14.537563982698476"><ele>8.0</ele><time>2026-04-17T18:08:15.817Z</time></trkpt><trkpt lat="53.31983916364521" lon="14.537627670344307"><ele>7.0</ele><time>2026-04-17T18:08:16.817Z</time></trkpt><trkpt lat="53.31994558134408" lon="14.53768583378911"><ele>6.0</ele><time>2026-04-17T18:08:17.817Z</time></trkpt><trkpt lat="53.32005880852152" lon="14.537723206374203"><ele>5.0</ele><time>2026-04-17T18:08:18.817Z</time></trkpt><trkpt lat="53.32017461637678" lon="14.53774199733613"><ele>5.0</ele><time>2026-04-17T18:08:19.817Z</time></trkpt><trkpt lat="53.320293266082324" lon="14.537748328152677"><ele>5.0</ele><time>2026-04-17T18:08:20.817Z</time></trkpt><trkpt lat="53.32040603617865" lon="14.537768166027053"><ele>5.0</ele><time>2026-04-17T18:08:21.817Z</time></trkpt><trkpt lat="53.32052564566719" lon="14.537767658726903"><ele>5.0</ele><time>2026-04-17T18:08:22.817Z</time></trkpt><trkpt lat="53.32064699396307" lon="14.53776562197984"><ele>4.75</ele><time>2026-04-17T18:08:23.817Z</time></trkpt><trkpt lat="53.32076991599648" lon="14.537759723976567"><ele>4.5</ele><time>2026-04-17T18:08:24.817Z</time></trkpt><trkpt lat="53.32089241965982" lon="14.537754436490331"><ele>4.25</ele><time>2026-04-17T18:08:25.817Z</time></trkpt><trkpt lat="53.321014904443906" lon="14.53774929626797"><ele>4.0</ele><time>2026-04-17T18:08:26.817Z</time></trkpt><trkpt lat="53.32113631074534" lon="14.537754255659745"><ele>4.0</ele><time>2026-04-17T18:08:27.817Z</time></trkpt><trkpt lat="53.321251490235895" lon="14.537777431670571"><ele>4.0</ele><time>2026-04-17T18:08:28.817Z</time></trkpt><trkpt lat="53.32135479362812" lon="14.537822029099514"><ele>4.0</ele><time>2026-04-17T18:08:29.817Z</time></trkpt><trkpt lat="53.32144985067973" lon="14.537881730852762"><ele>4.0</ele><time>2026-04-17T18:08:30.817Z</time></trkpt><trkpt lat="53.32155025332859" lon="14.53795463631996"><ele>4.0</ele><time>2026-04-17T18:08:31.817Z</time></trkpt><trkpt lat="53.32166067012788" lon="14.538039849906209"><ele>4.666666666666666</ele><time>2026-04-17T18:08:32.817Z</time></trkpt><trkpt lat="53.32179650730654" lon="14.538129833598429"><ele>5.333333333333333</ele><time>2026-04-17T18:08:33.817Z</time></trkpt><trkpt lat="53.32196591924787" lon="14.538218479727806"><ele>6.0</ele><time>2026-04-17T18:08:34.817Z</time></trkpt><trkpt lat="53.32215725694007" lon="14.538350173412821"><ele>5.5</ele><time>2026-04-17T18:08:35.817Z</time></trkpt><trkpt lat="53.322370988212604" lon="14.53844388682193"><ele>5.0</ele><time>2026-04-17T18:08:36.817Z</time></trkpt><trkpt lat="53.322583785283534" lon="14.538594675278947"><ele>7.0</ele><time>2026-04-17T18:08:37.817Z</time></trkpt><trkpt lat="53.32282141919412" lon="14.538746265815925"><ele>9.0</ele><time>2026-04-17T18:08:38.817Z</time></trkpt><trkpt lat="53.323058249110616" lon="14.538888377824703"><ele>7.5</ele><time>2026-04-17T18:08:39.817Z</time></trkpt><trkpt lat="53.32330452798388" lon="14.539042403168612"><ele>6.0</ele><time>2026-04-17T18:08:40.817Z</time></trkpt><trkpt lat="53.32354147751952" lon="14.539181185854483"><ele>6.0</ele><time>2026-04-17T18:08:41.817Z</time></trkpt><trkpt lat="53.32377046658203" lon="14.539293011781455"><ele>6.0</ele><time>2026-04-17T18:08:42.817Z</time></trkpt><trkpt lat="53.32396141368113" lon="14.539399333278336"><ele>6.0</ele><time>2026-04-17T18:08:43.817Z</time></trkpt><trkpt lat="53.32412177911872" lon="14.539500653196608"><ele>6.5</ele><time>2026-04-17T18:08:44.817Z</time></trkpt><trkpt lat="53.32425351810833" lon="14.539600550918795"><ele>7.0</ele><time>2026-04-17T18:08:45.817Z</time></trkpt><trkpt lat="53.32437564430907" lon="14.539699825394553"><ele>7.5</ele><time>2026-04-17T18:08:46.817Z</time></trkpt><trkpt lat="53.324490071341444" lon="14.539790262630508"><ele>8.0</ele><time>2026-04-17T18:08:47.817Z</time></trkpt><trkpt lat="53.324594165830405" lon="14.53987525162141"><ele>8.0</ele><time>2026-04-17T18:08:48.817Z</time></trkpt><trkpt lat="53.32468824590772" lon="14.539953575607239"><ele>8.0</ele><time>2026-04-17T18:08:49.817Z</time></trkpt><trkpt lat="53.324781484367975" lon="14.540032621173227"><ele>8.0</ele><time>2026-04-17T18:08:50.817Z</time></trkpt><trkpt lat="53.324878388206464" lon="14.540114087675747"><ele>8.0</ele><time>2026-04-17T18:08:51.817Z</time></trkpt><trkpt lat="53.324978797428855" lon="14.540195642411907"><ele>8.0</ele><time>2026-04-17T18:08:52.817Z</time></trkpt><trkpt lat="53.32509028974455" lon="14.54027554594844"><ele>7.5</ele><time>2026-04-17T18:08:53.817Z</time></trkpt><trkpt lat="53.32520802739804" lon="14.540345938372697"><ele>7.0</ele><time>2026-04-17T18:08:54.817Z</time></trkpt><trkpt lat="53.325319287061276" lon="14.540409848020118"><ele>6.5</ele><time>2026-04-17T18:08:55.817Z</time></trkpt><trkpt lat="53.325422372114666" lon="14.540470422176568"><ele>6.0</ele><time>2026-04-17T18:08:56.817Z</time></trkpt><trkpt lat="53.325523035063455" lon="14.540525924978907"><ele>6.199999999999999</ele><time>2026-04-17T18:08:57.817Z</time></trkpt><trkpt lat="53.325625054258666" lon="14.540573786248641"><ele>6.3999999999999995</ele><time>2026-04-17T18:08:58.817Z</time></trkpt><trkpt lat="53.32572817817901" lon="14.540622420129042"><ele>6.6</ele><time>2026-04-17T18:08:59.817Z</time></trkpt><trkpt lat="53.32582779058881" lon="14.540674551753035"><ele>6.8</ele><time>2026-04-17T18:09:00.817Z</time></trkpt><trkpt lat="53.3259289131704" lon="14.540728426247878"><ele>7.0</ele><time>2026-04-17T18:09:01.817Z</time></trkpt><trkpt lat="53.32603546405655" lon="14.540781535303022"><ele>7.0</ele><time>2026-04-17T18:09:02.817Z</time></trkpt><trkpt lat="53.32614715977993" lon="14.540838844946638"><ele>7.0</ele><time>2026-04-17T18:09:03.817Z</time></trkpt><trkpt lat="53.326268981148466" lon="14.540898407400121"><ele>7.0</ele><time>2026-04-17T18:09:04.817Z</time></trkpt><trkpt lat="53.32640262740672" lon="14.540961833142605"><ele>7.0</ele><time>2026-04-17T18:09:05.817Z</time></trkpt><trkpt lat="53.326534723680375" lon="14.541031882089374"><ele>7.25</ele><time>2026-04-17T18:09:06.817Z</time></trkpt><trkpt lat="53.32666807906382" lon="14.54109737503767"><ele>7.5</ele><time>2026-04-17T18:09:07.817Z</time></trkpt><trkpt lat="53.32678869420158" lon="14.54117336295853"><ele>7.75</ele><time>2026-04-17T18:09:08.817Z</time></trkpt><trkpt lat="53.32690611579734" lon="14.541247015403385"><ele>8.0</ele><time>2026-04-17T18:09:09.817Z</time></trkpt><trkpt lat="53.32702130526961" lon="14.54131774692662"><ele>8.0</ele><time>2026-04-17T18:09:10.817Z</time></trkpt><trkpt lat="53.327136435715616" lon="14.541381434587246"><ele>8.0</ele><time>2026-04-17T18:09:11.817Z</time></trkpt><trkpt lat="53.3272458074145" lon="14.54143891345825"><ele>8.0</ele><time>2026-04-17T18:09:12.817Z</time></trkpt><trkpt lat="53.3273609838098" lon="14.541504506395325"><ele>8.0</ele><time>2026-04-17T18:09:13.817Z</time></trkpt><trkpt lat="53.327488923530666" lon="14.541574336598622"><ele>7.0</ele><time>2026-04-17T18:09:14.817Z</time></trkpt><trkpt lat="53.32763396653938" lon="14.541664539740308"><ele>6.0</ele><time>2026-04-17T18:09:15.817Z</time></trkpt><trkpt lat="53.32779326935614" lon="14.541755707069255"><ele>5.0</ele><time>2026-04-17T18:09:16.817Z</time></trkpt><trkpt lat="53.32796111057444" lon="14.541855528711597"><ele>4.0</ele><time>2026-04-17T18:09:17.817Z</time></trkpt><trkpt lat="53.32814373291999" lon="14.541955991832795"><ele>3.0</ele><time>2026-04-17T18:09:18.817Z</time></trkpt><trkpt lat="53.32833287084216" lon="14.542068120817598"><ele>2.0</ele><time>2026-04-17T18:09:19.817Z</time></trkpt><trkpt lat="53.32852271072618" lon="14.542182306341992"><ele>2.6666666666666665</ele><time>2026-04-17T18:09:20.817Z</time></trkpt><trkpt lat="53.32870908969058" lon="14.542291073860516"><ele>3.333333333333333</ele><time>2026-04-17T18:09:21.817Z</time></trkpt><trkpt lat="53.32889225342269" lon="14.542394757798405"><ele>4.0</ele><time>2026-04-17T18:09:22.817Z</time></trkpt><trkpt lat="53.329059360380704" lon="14.542511260811178"><ele>4.0</ele><time>2026-04-17T18:09:23.817Z</time></trkpt><trkpt lat="53.329225283978104" lon="14.542601852542182"><ele>4.0</ele><time>2026-04-17T18:09:24.817Z</time></trkpt><trkpt lat="53.329393890506104" lon="14.542659208259936"><ele>4.0</ele><time>2026-04-17T18:09:25.817Z</time></trkpt><trkpt lat="53.32955651557867" lon="14.542743462981335"><ele>4.0</ele><time>2026-04-17T18:09:26.817Z</time></trkpt><trkpt lat="53.32971989561064" lon="14.542825948034087"><ele>4.0</ele><time>2026-04-17T18:09:27.817Z</time></trkpt><trkpt lat="53.32987084823046" lon="14.542931523119975"><ele>4.0</ele><time>2026-04-17T18:09:28.817Z</time></trkpt><trkpt lat="53.33001723961031" lon="14.543013015929969"><ele>4.0</ele><time>2026-04-17T18:09:29.817Z</time></trkpt><trkpt lat="53.33016133216124" lon="14.543091787915008"><ele>4.0</ele><time>2026-04-17T18:09:30.817Z</time></trkpt><trkpt lat="53.33030777135689" lon="14.543172591706892"><ele>4.0</ele><time>2026-04-17T18:09:31.817Z</time></trkpt><trkpt lat="53.330458535440485" lon="14.543255045631886"><ele>3.333333333333333</ele><time>2026-04-17T18:09:32.817Z</time></trkpt><trkpt lat="53.33061207524309" lon="14.543339488988655"><ele>2.6666666666666665</ele><time>2026-04-17T18:09:33.817Z</time></trkpt><trkpt lat="53.33077021988115" lon="14.543426932892132"><ele>2.0</ele><time>2026-04-17T18:09:34.817Z</time></trkpt><trkpt lat="53.33093620872405" lon="14.543516786213857"><ele>2.0</ele><time>2026-04-17T18:09:35.817Z</time></trkpt><trkpt lat="53.33110950619295" lon="14.54360851081458"><ele>2.0</ele><time>2026-04-17T18:09:36.817Z</time></trkpt><trkpt lat="53.331280721513586" lon="14.543698456518277"><ele>2.0</ele><time>2026-04-17T18:09:37.817Z</time></trkpt><trkpt lat="53.33145727233892" lon="14.543794186829972"><ele>2.0</ele><time>2026-04-17T18:09:38.817Z</time></trkpt><trkpt lat="53.331632885721774" lon="14.54388880769707"><ele>2.0</ele><time>2026-04-17T18:09:39.816Z</time></trkpt><trkpt lat="53.33181494732803" lon="14.543982242783335"><ele>2.0</ele><time>2026-04-17T18:09:40.816Z</time></trkpt><trkpt lat="53.33199334545677" lon="14.544076398345263"><ele>2.0</ele><time>2026-04-17T18:09:41.816Z</time></trkpt><trkpt lat="53.33217481822048" lon="14.544171543735084"><ele>2.0</ele><time>2026-04-17T18:09:42.816Z</time></trkpt><trkpt lat="53.33236075045911" lon="14.544267636662184"><ele>2.0</ele><time>2026-04-17T18:09:43.816Z</time></trkpt><trkpt lat="53.332543949494884" lon="14.544367510938367"><ele>2.0</ele><time>2026-04-17T18:09:44.816Z</time></trkpt><trkpt lat="53.3327242138479" lon="14.544462268922905"><ele>2.0</ele><time>2026-04-17T18:09:45.816Z</time></trkpt><trkpt lat="53.33290510369726" lon="14.544556830696624"><ele>2.0</ele><time>2026-04-17T18:09:46.815Z</time></trkpt><trkpt lat="53.33308275805866" lon="14.544648517578079"><ele>2.0</ele><time>2026-04-17T18:09:47.815Z</time></trkpt><trkpt lat="53.333261919214046" lon="14.54473791990785"><ele>2.0</ele><time>2026-04-17T18:09:48.816Z</time></trkpt><trkpt lat="53.333447270903264" lon="14.544834966321623"><ele>2.0</ele><time>2026-04-17T18:09:49.815Z</time></trkpt><trkpt lat="53.333627524035975" lon="14.54492656532026"><ele>2.0</ele><time>2026-04-17T18:09:50.815Z</time></trkpt><trkpt lat="53.33380529326516" lon="14.545026175885045"><ele>2.0</ele><time>2026-04-17T18:09:51.816Z</time></trkpt><trkpt lat="53.33398355002187" lon="14.545118076183527"><ele>2.0</ele><time>2026-04-17T18:09:52.816Z</time></trkpt><trkpt lat="53.334158339463514" lon="14.545211744327814"><ele>2.0</ele><time>2026-04-17T18:09:53.816Z</time></trkpt><trkpt lat="53.33433252966933" lon="14.545306909434766"><ele>2.0</ele><time>2026-04-17T18:09:54.816Z</time></trkpt><trkpt lat="53.334526589418" lon="14.545412153627822"><ele>2.0</ele><time>2026-04-17T18:09:55.816Z</time></trkpt><trkpt lat="53.33472511391059" lon="14.545511117714838"><ele>1.0</ele><time>2026-04-17T18:09:56.816Z</time></trkpt><trkpt lat="53.3349126952481" lon="14.545617222819393"><ele>0.0</ele><time>2026-04-17T18:09:57.816Z</time></trkpt><trkpt lat="53.33510671540881" lon="14.545717994344129"><ele>-1.0</ele><time>2026-04-17T18:09:58.816Z</time></trkpt><trkpt lat="53.335300735051185" lon="14.545815493128686"><ele>-1.0</ele><time>2026-04-17T18:09:59.816Z</time></trkpt><trkpt lat="53.335491541970384" lon="14.545911488387244"><ele>-1.0</ele><time>2026-04-17T18:10:00.816Z</time></trkpt><trkpt lat="53.33568576003694" lon="14.546012406023245"><ele>-1.0</ele><time>2026-04-17T18:10:01.816Z</time></trkpt><trkpt lat="53.3358790615172" lon="14.546120412056373"><ele>-0.3333333333333333</ele><time>2026-04-17T18:10:02.816Z</time></trkpt><trkpt lat="53.33606955517309" lon="14.546231346265394"><ele>0.3333333333333333</ele><time>2026-04-17T18:10:03.816Z</time></trkpt><trkpt lat="53.33625453500641" lon="14.546357776263768"><ele>1.0</ele><time>2026-04-17T18:10:04.816Z</time></trkpt><trkpt lat="53.33642780593368" lon="14.546517279889061"><ele>1.0</ele><time>2026-04-17T18:10:05.816Z</time></trkpt><trkpt lat="53.33659137666713" lon="14.546690432437929"><ele>1.0</ele><time>2026-04-17T18:10:06.816Z</time></trkpt><trkpt lat="53.33676035000019" lon="14.54689068058589"><ele>1.0</ele><time>2026-04-17T18:10:07.816Z</time></trkpt><trkpt lat="53.33692095107522" lon="14.547090784912973"><ele>0.3333333333333333</ele><time>2026-04-17T18:10:08.816Z</time></trkpt><trkpt lat="53.33709400791017" lon="14.547301502045109"><ele>-0.3333333333333333</ele><time>2026-04-17T18:10:09.816Z</time></trkpt><trkpt lat="53.33726278054149" lon="14.547498578624468"><ele>-1.0</ele><time>2026-04-17T18:10:10.816Z</time></trkpt><trkpt lat="53.33742112711442" lon="14.547717839864836"><ele>-0.3333333333333333</ele><time>2026-04-17T18:10:11.816Z</time></trkpt><trkpt lat="53.337587004833225" lon="14.547925177523599"><ele>0.3333333333333333</ele><time>2026-04-17T18:10:12.816Z</time></trkpt><trkpt lat="53.33775175489586" lon="14.548128793170738"><ele>1.0</ele><time>2026-04-17T18:10:13.816Z</time></trkpt><trkpt lat="53.33789133088121" lon="14.548370458621987"><ele>1.0</ele><time>2026-04-17T18:10:14.816Z</time></trkpt><trkpt lat="53.33802506534797" lon="14.548615817821759"><ele>1.0</ele><time>2026-04-17T18:10:15.816Z</time></trkpt><trkpt lat="53.33816363940941" lon="14.548873042562002"><ele>1.0</ele><time>2026-04-17T18:10:16.816Z</time></trkpt><trkpt lat="53.33829714901387" lon="14.549126039070105"><ele>1.0</ele><time>2026-04-17T18:10:17.816Z</time></trkpt><trkpt lat="53.3384205630201" lon="14.549357716918847"><ele>1.0</ele><time>2026-04-17T18:10:18.816Z</time></trkpt><trkpt lat="53.338537154834256" lon="14.549564407722045"><ele>1.0</ele><time>2026-04-17T18:10:19.816Z</time></trkpt><trkpt lat="53.338660289054516" lon="14.549764633047985"><ele>1.6666666666666665</ele><time>2026-04-17T18:10:20.816Z</time></trkpt><trkpt lat="53.33876018396482" lon="14.549996967891355"><ele>2.3333333333333335</ele><time>2026-04-17T18:10:21.816Z</time></trkpt><trkpt lat="53.33888020138205" lon="14.550211888198175"><ele>3.0</ele><time>2026-04-17T18:10:22.816Z</time></trkpt><trkpt lat="53.33899409553107" lon="14.550425886519342"><ele>3.0</ele><time>2026-04-17T18:10:23.816Z</time></trkpt><trkpt lat="53.33911082856902" lon="14.55062938018604"><ele>3.0</ele><time>2026-04-17T18:10:24.816Z</time></trkpt><trkpt lat="53.33923321302052" lon="14.550842069152505"><ele>3.0</ele><time>2026-04-17T18:10:25.816Z</time></trkpt><trkpt lat="53.33935045214957" lon="14.551081470053388"><ele>3.666666666666667</ele><time>2026-04-17T18:10:26.816Z</time></trkpt><trkpt lat="53.339470083433504" lon="14.551316038943241"><ele>4.333333333333334</ele><time>2026-04-17T18:10:27.816Z</time></trkpt><trkpt lat="53.33957268959014" lon="14.551561872041589"><ele>5.0</ele><time>2026-04-17T18:10:28.816Z</time></trkpt><trkpt lat="53.33966727084392" lon="14.551798583913513"><ele>4.333333333333334</ele><time>2026-04-17T18:10:29.816Z</time></trkpt><trkpt lat="53.339759678926015" lon="14.552022096724839"><ele>3.666666666666667</ele><time>2026-04-17T18:10:30.816Z</time></trkpt><trkpt lat="53.33985338731139" lon="14.552251181791268"><ele>3.0</ele><time>2026-04-17T18:10:31.816Z</time></trkpt><trkpt lat="53.33994967761118" lon="14.552473341412263"><ele>3.0</ele><time>2026-04-17T18:10:32.816Z</time></trkpt><trkpt lat="53.34004213474508" lon="14.552676848517116"><ele>3.0</ele><time>2026-04-17T18:10:33.816Z</time></trkpt><trkpt lat="53.34012877916336" lon="14.552880919005467"><ele>3.0</ele><time>2026-04-17T18:10:34.816Z</time></trkpt><trkpt lat="53.34021737619892" lon="14.553085730171425"><ele>3.25</ele><time>2026-04-17T18:10:35.816Z</time></trkpt><trkpt lat="53.34030951499956" lon="14.553263670449134"><ele>3.5</ele><time>2026-04-17T18:10:36.816Z</time></trkpt><trkpt lat="53.34040932215466" lon="14.55342673970669"><ele>3.75</ele><time>2026-04-17T18:10:37.816Z</time></trkpt><trkpt lat="53.340519587758976" lon="14.553594697665517"><ele>4.0</ele><time>2026-04-17T18:10:38.816Z</time></trkpt><trkpt lat="53.34063710970101" lon="14.553760328077685"><ele>4.0</ele><time>2026-04-17T18:10:39.816Z</time></trkpt><trkpt lat="53.340757592217756" lon="14.553902916649184"><ele>4.0</ele><time>2026-04-17T18:10:40.816Z</time></trkpt><trkpt lat="53.340881420310986" lon="14.554054367190897"><ele>4.0</ele><time>2026-04-17T18:10:41.816Z</time></trkpt><trkpt lat="53.34099997455514" lon="14.554223147136227"><ele>4.0</ele><time>2026-04-17T18:10:42.816Z</time></trkpt><trkpt lat="53.34112655269731" lon="14.554391932249114"><ele>4.0</ele><time>2026-04-17T18:10:43.816Z</time></trkpt><trkpt lat="53.3412522578338" lon="14.55456257327925"><ele>4.0</ele><time>2026-04-17T18:10:44.816Z</time></trkpt><trkpt lat="53.34136969426473" lon="14.554733943361613"><ele>4.0</ele><time>2026-04-17T18:10:45.816Z</time></trkpt><trkpt lat="53.34147850224912" lon="14.554924726110045"><ele>4.0</ele><time>2026-04-17T18:10:46.816Z</time></trkpt><trkpt lat="53.34158123928806" lon="14.55513660620653"><ele>4.0</ele><time>2026-04-17T18:10:47.816Z</time></trkpt><trkpt lat="53.34168094775145" lon="14.555349088820122"><ele>5.5</ele><time>2026-04-17T18:10:48.816Z</time></trkpt><trkpt lat="53.34177116520841" lon="14.55554946514019"><ele>7.0</ele><time>2026-04-17T18:10:49.816Z</time></trkpt><trkpt lat="53.34185363155227" lon="14.555737110040843"><ele>8.5</ele><time>2026-04-17T18:10:50.816Z</time></trkpt><trkpt lat="53.34192939587546" lon="14.555904482159345"><ele>10.0</ele><time>2026-04-17T18:10:51.816Z</time></trkpt><trkpt lat="53.342004574970076" lon="14.556051754581194"><ele>10.0</ele><time>2026-04-17T18:10:52.816Z</time></trkpt><trkpt lat="53.34208227839323" lon="14.556195559937084"><ele>10.0</ele><time>2026-04-17T18:10:53.816Z</time></trkpt><trkpt lat="53.342169484133336" lon="14.556373687246063"><ele>10.0</ele><time>2026-04-17T18:10:54.816Z</time></trkpt><trkpt lat="53.342285639936826" lon="14.556578646107019"><ele>10.0</ele><time>2026-04-17T18:10:55.816Z</time></trkpt><trkpt lat="53.3424237676931" lon="14.556775316181238"><ele>9.333333333333334</ele><time>2026-04-17T18:10:56.816Z</time></trkpt><trkpt lat="53.34258555508226" lon="14.556944021148027"><ele>8.666666666666666</ele><time>2026-04-17T18:10:57.816Z</time></trkpt><trkpt lat="53.34271876195954" lon="14.55713953268922"><ele>8.0</ele><time>2026-04-17T18:10:58.816Z</time></trkpt><trkpt lat="53.342868329957554" lon="14.557344529201474"><ele>7.666666666666666</ele><time>2026-04-17T18:10:59.816Z</time></trkpt><trkpt lat="53.34301466628049" lon="14.55752368448496"><ele>7.333333333333334</ele><time>2026-04-17T18:11:00.816Z</time></trkpt><trkpt lat="53.343144345911995" lon="14.557677841906289"><ele>7.0</ele><time>2026-04-17T18:11:01.816Z</time></trkpt><trkpt lat="53.34325373266389" lon="14.557812202738976"><ele>8.0</ele><time>2026-04-17T18:11:02.816Z</time></trkpt><trkpt lat="53.34335378036504" lon="14.557941805291584"><ele>9.0</ele><time>2026-04-17T18:11:03.816Z</time></trkpt><trkpt lat="53.34345846346168" lon="14.558109185215862"><ele>10.0</ele><time>2026-04-17T18:11:04.816Z</time></trkpt><trkpt lat="53.343574289253034" lon="14.558318246682296"><ele>11.0</ele><time>2026-04-17T18:11:05.816Z</time></trkpt><trkpt lat="53.343685642107694" lon="14.558569750711838"><ele>9.333333333333332</ele><time>2026-04-17T18:11:06.816Z</time></trkpt><trkpt lat="53.34379863044395" lon="14.558816371933885"><ele>7.666666666666666</ele><time>2026-04-17T18:11:07.816Z</time></trkpt><trkpt lat="53.34392734327183" lon="14.559068271031808"><ele>6.0</ele><time>2026-04-17T18:11:08.816Z</time></trkpt><trkpt lat="53.34406471660794" lon="14.559320737701622"><ele>7.0</ele><time>2026-04-17T18:11:09.816Z</time></trkpt><trkpt lat="53.344202171837246" lon="14.559578111471488"><ele>8.0</ele><time>2026-04-17T18:11:10.816Z</time></trkpt><trkpt lat="53.34434053817909" lon="14.559832667349637"><ele>9.0</ele><time>2026-04-17T18:11:11.816Z</time></trkpt><trkpt lat="53.34447490397326" lon="14.560100932532734"><ele>8.0</ele><time>2026-04-17T18:11:12.816Z</time></trkpt><trkpt lat="53.34461338279064" lon="14.56037567831937"><ele>7.0</ele><time>2026-04-17T18:11:13.816Z</time></trkpt><trkpt lat="53.34476218419745" lon="14.560652416080096"><ele>6.0</ele><time>2026-04-17T18:11:14.816Z</time></trkpt><trkpt lat="53.34491321921438" lon="14.560947257162605"><ele>8.5</ele><time>2026-04-17T18:11:15.816Z</time></trkpt><trkpt lat="53.34505722713773" lon="14.56123183838247"><ele>11.0</ele><time>2026-04-17T18:11:16.816Z</time></trkpt><trkpt lat="53.345208959953105" lon="14.561524229204904"><ele>11.0</ele><time>2026-04-17T18:11:17.816Z</time></trkpt><trkpt lat="53.34535713437665" lon="14.561819677475652"><ele>11.0</ele><time>2026-04-17T18:11:18.816Z</time></trkpt><trkpt lat="53.34551397125787" lon="14.56212114601126"><ele>9.0</ele><time>2026-04-17T18:11:19.816Z</time></trkpt><trkpt lat="53.34567456826341" lon="14.562421603919184"><ele>7.0</ele><time>2026-04-17T18:11:20.816Z</time></trkpt><trkpt lat="53.34583239066363" lon="14.56272920109392"><ele>8.5</ele><time>2026-04-17T18:11:21.816Z</time></trkpt><trkpt lat="53.345986912860226" lon="14.563028485221016"><ele>10.0</ele><time>2026-04-17T18:11:22.816Z</time></trkpt><trkpt lat="53.34614193713201" lon="14.563321316326427"><ele>10.0</ele><time>2026-04-17T18:11:23.816Z</time></trkpt><trkpt lat="53.34629378956171" lon="14.56362006971834"><ele>10.0</ele><time>2026-04-17T18:11:24.816Z</time></trkpt><trkpt lat="53.3464412594194" lon="14.563916615627003"><ele>9.333333333333334</ele><time>2026-04-17T18:11:25.816Z</time></trkpt><trkpt lat="53.34658221592923" lon="14.564202853876884"><ele>8.666666666666666</ele><time>2026-04-17T18:11:26.816Z</time></trkpt><trkpt lat="53.34671728732465" lon="14.564480982710057"><ele>8.0</ele><time>2026-04-17T18:11:27.816Z</time></trkpt><trkpt lat="53.34684389914198" lon="14.564725546314696"><ele>8.0</ele><time>2026-04-17T18:11:28.816Z</time></trkpt><trkpt lat="53.34696622890835" lon="14.564965548274788"><ele>8.0</ele><time>2026-04-17T18:11:29.816Z</time></trkpt><trkpt lat="53.3470822563115" lon="14.565193500165833"><ele>8.0</ele><time>2026-04-17T18:11:30.816Z</time></trkpt><trkpt lat="53.3471871719772" lon="14.565406279111373"><ele>6.666666666666666</ele><time>2026-04-17T18:11:31.816Z</time></trkpt><trkpt lat="53.34729165518504" lon="14.56561786935696"><ele>5.333333333333333</ele><time>2026-04-17T18:11:32.816Z</time></trkpt><trkpt lat="53.34737013651459" lon="14.565830077043234"><ele>4.0</ele><time>2026-04-17T18:11:33.816Z</time></trkpt><trkpt lat="53.347464809267414" lon="14.566015580729662"><ele>4.75</ele><time>2026-04-17T18:11:34.816Z</time></trkpt><trkpt lat="53.34755820279205" lon="14.56619782075879"><ele>5.5</ele><time>2026-04-17T18:11:35.816Z</time></trkpt><trkpt lat="53.34765073716966" lon="14.566374526413934"><ele>6.25</ele><time>2026-04-17T18:11:36.816Z</time></trkpt><trkpt lat="53.34774674193656" lon="14.56655833795819"><ele>7.0</ele><time>2026-04-17T18:11:37.816Z</time></trkpt><trkpt lat="53.34784662371594" lon="14.566750962286577"><ele>7.0</ele><time>2026-04-17T18:11:38.816Z</time></trkpt><trkpt lat="53.34794738259223" lon="14.566956737986315"><ele>7.0</ele><time>2026-04-17T18:11:39.816Z</time></trkpt><trkpt lat="53.34804585070093" lon="14.567135526012285"><ele>7.0</ele><time>2026-04-17T18:11:40.816Z</time></trkpt><trkpt lat="53.3481341418744" lon="14.567303424019455"><ele>7.0</ele><time>2026-04-17T18:11:41.816Z</time></trkpt><trkpt lat="53.34822005110356" lon="14.567482993115803"><ele>6.75</ele><time>2026-04-17T18:11:42.816Z</time></trkpt><trkpt lat="53.34831681622603" lon="14.567677452036184"><ele>6.5</ele><time>2026-04-17T18:11:43.816Z</time></trkpt><trkpt lat="53.348411202882595" lon="14.56787728099883"><ele>6.25</ele><time>2026-04-17T18:11:44.816Z</time></trkpt><trkpt lat="53.34850522707026" lon="14.568059141273974"><ele>6.0</ele><time>2026-04-17T18:11:45.815Z</time></trkpt><trkpt lat="53.34859687500785" lon="14.568232386175266"><ele>6.0</ele><time>2026-04-17T18:11:46.815Z</time></trkpt><trkpt lat="53.3486846677516" lon="14.568407502883359"><ele>6.0</ele><time>2026-04-17T18:11:47.815Z</time></trkpt><trkpt lat="53.34877207315672" lon="14.568580140246612"><ele>6.0</ele><time>2026-04-17T18:11:48.815Z</time></trkpt><trkpt lat="53.34885815879746" lon="14.568748933723366"><ele>6.0</ele><time>2026-04-17T18:11:49.815Z</time></trkpt><trkpt lat="53.34893775390669" lon="14.568921819495475"><ele>6.0</ele><time>2026-04-17T18:11:50.815Z</time></trkpt><trkpt lat="53.34901895495575" lon="14.569087105446208"><ele>6.0</ele><time>2026-04-17T18:11:51.814Z</time></trkpt><trkpt lat="53.34910057151744" lon="14.569253205119294"><ele>6.0</ele><time>2026-04-17T18:11:52.815Z</time></trkpt><trkpt lat="53.34918858521543" lon="14.569428981987915"><ele>6.0</ele><time>2026-04-17T18:11:53.815Z</time></trkpt><trkpt lat="53.34928756290396" lon="14.569608484995"><ele>6.0</ele><time>2026-04-17T18:11:54.815Z</time></trkpt><trkpt lat="53.349382764705304" lon="14.569804575532535"><ele>6.0</ele><time>2026-04-17T18:11:55.814Z</time></trkpt><trkpt lat="53.34948857966901" lon="14.570010318439445"><ele>6.0</ele><time>2026-04-17T18:11:56.814Z</time></trkpt><trkpt lat="53.34959044417912" lon="14.570206553131273"><ele>6.333333333333334</ele><time>2026-04-17T18:11:57.815Z</time></trkpt><trkpt lat="53.34969423401324" lon="14.570408839521827"><ele>6.666666666666667</ele><time>2026-04-17T18:11:58.814Z</time></trkpt><trkpt lat="53.34978885219689" lon="14.57059886507857"><ele>7.0</ele><time>2026-04-17T18:11:59.814Z</time></trkpt><trkpt lat="53.34987816809675" lon="14.570785706796286"><ele>6.5</ele><time>2026-04-17T18:12:00.814Z</time></trkpt><trkpt lat="53.349976015394724" lon="14.570969014447876"><ele>6.0</ele><time>2026-04-17T18:12:01.814Z</time></trkpt><trkpt lat="53.3500632310374" lon="14.571145246781978"><ele>5.5</ele><time>2026-04-17T18:12:02.814Z</time></trkpt><trkpt lat="53.35014890240305" lon="14.571313947572158"><ele>5.0</ele><time>2026-04-17T18:12:03.814Z</time></trkpt><trkpt lat="53.350234076142065" lon="14.571475737138975"><ele>5.0</ele><time>2026-04-17T18:12:04.814Z</time></trkpt><trkpt lat="53.350314594836725" lon="14.57164154777991"><ele>5.0</ele><time>2026-04-17T18:12:05.814Z</time></trkpt><trkpt lat="53.35040503445117" lon="14.571814083659564"><ele>5.0</ele><time>2026-04-17T18:12:06.814Z</time></trkpt><trkpt lat="53.350496622254134" lon="14.571998586518703"><ele>5.0</ele><time>2026-04-17T18:12:07.814Z</time></trkpt><trkpt lat="53.35058862925215" lon="14.57219029219534"><ele>5.333333333333334</ele><time>2026-04-17T18:12:08.814Z</time></trkpt><trkpt lat="53.35068656471894" lon="14.572378882397587"><ele>5.666666666666667</ele><time>2026-04-17T18:12:09.814Z</time></trkpt><trkpt lat="53.35078974897738" lon="14.572569762982933"><ele>6.0</ele><time>2026-04-17T18:12:10.814Z</time></trkpt><trkpt lat="53.350889703737835" lon="14.572768619118836"><ele>6.333333333333334</ele><time>2026-04-17T18:12:11.814Z</time></trkpt><trkpt lat="53.350993862075974" lon="14.572968092866162"><ele>6.666666666666667</ele><time>2026-04-17T18:12:12.814Z</time></trkpt><trkpt lat="53.35109335745697" lon="14.573168131973702"><ele>7.0</ele><time>2026-04-17T18:12:13.814Z</time></trkpt><trkpt lat="53.35119155840015" lon="14.573358551310372"><ele>7.0</ele><time>2026-04-17T18:12:14.814Z</time></trkpt><trkpt lat="53.35128549886062" lon="14.573550241168734"><ele>7.0</ele><time>2026-04-17T18:12:15.814Z</time></trkpt><trkpt lat="53.35138368113624" lon="14.573744980923735"><ele>7.0</ele><time>2026-04-17T18:12:16.814Z</time></trkpt><trkpt lat="53.351482369342" lon="14.573946365295704"><ele>6.25</ele><time>2026-04-17T18:12:17.814Z</time></trkpt><trkpt lat="53.35156857099226" lon="14.574129946771052"><ele>5.5</ele><time>2026-04-17T18:12:18.814Z</time></trkpt><trkpt lat="53.351654328376206" lon="14.574304417205914"><ele>4.75</ele><time>2026-04-17T18:12:19.814Z</time></trkpt><trkpt lat="53.35174061724462" lon="14.574469892986135"><ele>4.0</ele><time>2026-04-17T18:12:20.814Z</time></trkpt><trkpt lat="53.35182993377786" lon="14.574642981173104"><ele>4.0</ele><time>2026-04-17T18:12:21.814Z</time></trkpt><trkpt lat="53.35192333044862" lon="14.57483034384562"><ele>4.0</ele><time>2026-04-17T18:12:22.814Z</time></trkpt><trkpt lat="53.352016365927234" lon="14.575024494481113"><ele>4.0</ele><time>2026-04-17T18:12:23.814Z</time></trkpt><trkpt lat="53.35210572727491" lon="14.575207441373005"><ele>4.0</ele><time>2026-04-17T18:12:24.814Z</time></trkpt><trkpt lat="53.35219035719747" lon="14.57537232632554"><ele>3.8000000000000003</ele><time>2026-04-17T18:12:25.814Z</time></trkpt><trkpt lat="53.35226272927155" lon="14.57552092337981"><ele>3.6000000000000005</ele><time>2026-04-17T18:12:26.814Z</time></trkpt><trkpt lat="53.352329322754386" lon="14.575652199477572"><ele>3.4</ele><time>2026-04-17T18:12:27.814Z</time></trkpt><trkpt lat="53.35238521611378" lon="14.575770690851973"><ele>3.2</ele><time>2026-04-17T18:12:28.814Z</time></trkpt><trkpt lat="53.35242477668856" lon="14.575862150426536"><ele>3.0</ele><time>2026-04-17T18:12:29.814Z</time></trkpt><trkpt lat="53.352482613480134" lon="14.575943238847504"><ele>2.9999999999999996</ele><time>2026-04-17T18:12:33.814Z</time></trkpt><trkpt lat="53.35254771169907" lon="14.575898035092944"><ele>3.0</ele><time>2026-04-17T18:12:35.814Z</time></trkpt><trkpt lat="53.35259040107297" lon="14.57580682039772"><ele>3.0</ele><time>2026-04-17T18:12:36.814Z</time></trkpt><trkpt lat="53.3526294946754" lon="14.575721784115546"><ele>3.0</ele><time>2026-04-17T18:12:37.814Z</time></trkpt><trkpt lat="53.35267320730115" lon="14.57563565115052"><ele>3.0</ele><time>2026-04-17T18:12:38.814Z</time></trkpt><trkpt lat="53.35272094655927" lon="14.57554295590467"><ele>2.9999999999999996</ele><time>2026-04-17T18:12:39.814Z</time></trkpt><trkpt lat="53.35276731299342" lon="14.575446192991858"><ele>3.0</ele><time>2026-04-17T18:12:40.814Z</time></trkpt><trkpt lat="53.35283192986468" lon="14.57534200111354"><ele>3.0</ele><time>2026-04-17T18:12:41.814Z</time></trkpt><trkpt lat="53.35290880739925" lon="14.57520931779732"><ele>3.0</ele><time>2026-04-17T18:12:42.814Z</time></trkpt><trkpt lat="53.352968461839076" lon="14.575080472901567"><ele>3.0</ele><time>2026-04-17T18:12:43.814Z</time></trkpt><trkpt lat="53.35301746881175" lon="14.57497589435224"><ele>3.0</ele><time>2026-04-17T18:12:44.814Z</time></trkpt><trkpt lat="53.35305976295005" lon="14.574870443059414"><ele>3.0</ele><time>2026-04-17T18:12:45.814Z</time></trkpt><trkpt lat="53.35310889788213" lon="14.574699360289895"><ele>3.0</ele><time>2026-04-17T18:12:47.814Z</time></trkpt><trkpt lat="53.353132775168795" lon="14.574493892452013"><ele>3.0</ele><time>2026-04-17T18:12:49.814Z</time></trkpt><trkpt lat="53.353065248874024" lon="14.574389792827002"><ele>3.0</ele><time>2026-04-17T18:12:50.814Z</time></trkpt><trkpt lat="53.352973815273494" lon="14.57435112848747"><ele>3.0</ele><time>2026-04-17T18:12:51.814Z</time></trkpt><trkpt lat="53.35292061603619" lon="14.574275752936824"><ele>3.0</ele><time>2026-04-17T18:12:52.814Z</time></trkpt><trkpt lat="53.352862927691575" lon="14.574086828562077"><ele>3.0</ele><time>2026-04-17T18:12:54.814Z</time></trkpt><trkpt lat="53.35295260229001" lon="14.573994572894517"><ele>3.0</ele><time>2026-04-17T18:12:55.814Z</time></trkpt><trkpt lat="53.352998411627084" lon="14.573889088549235"><ele>3.0</ele><time>2026-04-17T18:12:56.814Z</time></trkpt><trkpt lat="53.35304870890502" lon="14.573773269921283"><ele>3.0</ele><time>2026-04-17T18:12:57.814Z</time></trkpt><trkpt lat="53.35307935685347" lon="14.573658512013763"><ele>3.0</ele><time>2026-04-17T18:12:58.814Z</time></trkpt><trkpt lat="53.353131532922525" lon="14.573582543862436"><ele>3.0</ele><time>2026-04-17T18:12:59.814Z</time></trkpt><trkpt lat="53.3531902887182" lon="14.573448407351778"><ele>3.0</ele><time>2026-04-17T18:13:01.814Z</time></trkpt><trkpt lat="53.35331262168969" lon="14.573590621037779"><ele>3.0</ele><time>2026-04-17T18:13:04.814Z</time></trkpt><trkpt lat="53.35337187257174" lon="14.573668948898984"><ele>3.0</ele><time>2026-04-17T18:13:05.814Z</time></trkpt><trkpt lat="53.3534528750863" lon="14.573774011246602"><ele>3.0</ele><time>2026-04-17T18:13:06.814Z</time></trkpt><trkpt lat="53.353552232979986" lon="14.5738564960734"><ele>3.0</ele><time>2026-04-17T18:13:07.814Z</time></trkpt><trkpt lat="53.35362477372538" lon="14.573938104015076"><ele>3.0</ele><time>2026-04-17T18:13:08.814Z</time></trkpt><trkpt lat="53.35369882829518" lon="14.573987859621674"><ele>3.0</ele><time>2026-04-17T18:13:09.814Z</time></trkpt><trkpt lat="53.35376424147078" lon="14.57406234613251"><ele>3.0</ele><time>2026-04-17T18:13:10.814Z</time></trkpt><trkpt lat="53.35383350737485" lon="14.574144552289773"><ele>3.0</ele><time>2026-04-17T18:13:11.814Z</time></trkpt><trkpt lat="53.353919003967505" lon="14.574220952793205"><ele>3.0</ele><time>2026-04-17T18:13:12.814Z</time></trkpt><trkpt lat="53.353998361852334" lon="14.57432527217017"><ele>3.0</ele><time>2026-04-17T18:13:13.814Z</time></trkpt><trkpt lat="53.35407130324371" lon="14.574453960709784"><ele>3.0</ele><time>2026-04-17T18:13:14.814Z</time></trkpt><trkpt lat="53.354137134585415" lon="14.574552188534444"><ele>3.0</ele><time>2026-04-17T18:13:15.814Z</time></trkpt><trkpt lat="53.35419058020855" lon="14.574662750480881"><ele>3.0</ele><time>2026-04-17T18:13:16.814Z</time></trkpt><trkpt lat="53.35424490178748" lon="14.574778625567685"><ele>3.0</ele><time>2026-04-17T18:13:17.814Z</time></trkpt><trkpt lat="53.35432127534219" lon="14.574877756755596"><ele>3.0</ele><time>2026-04-17T18:13:18.814Z</time></trkpt><trkpt lat="53.35438947807478" lon="14.57497290234579"><ele>3.0</ele><time>2026-04-17T18:13:19.814Z</time></trkpt><trkpt lat="53.354454476616" lon="14.575029718008196"><ele>3.0</ele><time>2026-04-17T18:13:20.814Z</time></trkpt><trkpt lat="53.354510507749865" lon="14.575090963175956"><ele>3.0</ele><time>2026-04-17T18:13:21.814Z</time></trkpt><trkpt lat="53.35457406525938" lon="14.575102838688649"><ele>3.0</ele><time>2026-04-17T18:13:22.814Z</time></trkpt><trkpt lat="53.354640790448585" lon="14.575069502786"><ele>3.0</ele><time>2026-04-17T18:13:23.814Z</time></trkpt><trkpt lat="53.35468536052695" lon="14.574931498400645"><ele>3.0</ele><time>2026-04-17T18:13:24.814Z</time></trkpt><trkpt lat="53.35473112326813" lon="14.57479548248819"><ele>3.0</ele><time>2026-04-17T18:13:25.814Z</time></trkpt><trkpt lat="53.35478527347423" lon="14.574635761327492"><ele>2.75</ele><time>2026-04-17T18:13:26.814Z</time></trkpt><trkpt lat="53.354868484873016" lon="14.574448808698566"><ele>2.5</ele><time>2026-04-17T18:13:27.814Z</time></trkpt><trkpt lat="53.35499222262516" lon="14.574264720635476"><ele>2.25</ele><time>2026-04-17T18:13:28.814Z</time></trkpt><trkpt lat="53.35506435427324" lon="14.574062876977914"><ele>2.0</ele><time>2026-04-17T18:13:29.814Z</time></trkpt><trkpt lat="53.35514027486897" lon="14.573908375442306"><ele>2.0</ele><time>2026-04-17T18:13:30.814Z</time></trkpt><trkpt lat="53.355206299311305" lon="14.573797504288565"><ele>2.0</ele><time>2026-04-17T18:13:31.814Z</time></trkpt><trkpt lat="53.355262081897585" lon="14.573679206733683"><ele>2.0</ele><time>2026-04-17T18:13:32.814Z</time></trkpt><trkpt lat="53.35532399075328" lon="14.573547917263086"><ele>2.0</ele><time>2026-04-17T18:13:33.814Z</time></trkpt><trkpt lat="53.3553881225565" lon="14.573410060755867"><ele>2.0</ele><time>2026-04-17T18:13:34.814Z</time></trkpt><trkpt lat="53.355438435804565" lon="14.57330027341042"><ele>2.6666666666666665</ele><time>2026-04-17T18:13:35.814Z</time></trkpt><trkpt lat="53.3554972030571" lon="14.573162351583383"><ele>3.333333333333333</ele><time>2026-04-17T18:13:37.814Z</time></trkpt><trkpt lat="53.35551048574427" lon="14.573050496500445"><ele>4.0</ele><time>2026-04-17T18:13:40.814Z</time></trkpt><trkpt lat="53.35566359293258" lon="14.572463162357737"><ele>4.5</ele><time>2026-04-17T18:13:41.814Z</time></trkpt><trkpt lat="53.355573040583174" lon="14.57297717632781"><ele>5.0</ele><time>2026-04-17T18:13:43.814Z</time></trkpt><trkpt lat="53.3553052883267" lon="14.572579143199208"><ele>5.0</ele><time>2026-04-17T18:16:30.811Z</time></trkpt></trkseg></trk></gpx>